<?xml version="1.0" encoding="UTF-8" standalone="no" ?>
<gpx xmlns="http://www.topografix.com/GPX/1/1" xmlns:xsi="http://www.w3.org/2001/XMLSchema-instance" xsi:schemaLocation="http://www.topografix.com/GPX/1/1 http://www.topografix.com/GPX/1/1/gpx.xsd" version="1.1" creator="VisuGPX - https://www.visugpx.com">
  <metadata>
    <name>POULDU 2020</name>
    <desc><![CDATA[<p>Heure de départ: 10:56 8 juil. 2020<br/>Heure d'arrivée: 15:36 8 juil. 2020<br/>Distance: 52,8 km (04:39)<br/>Temps déplacement: 03:29<br/>Vitesse moyenne: 11,31 km/h<br/>Vitesse moyenne mouv.: 15,14 km/h<br/>Vitesse Max.: 37,8 km/h<br/>Altitude minimale: 0 m<br/>Altitude maximale: 57 m<br/>Vitesse de montée: 327,7 m/h<br/>Vitesse de descente: 516,2 m/h<br/>Gain d'altitude: 922 m<br/>Perte d'altitude: 905 m<br/>Temps de montée: 02:48<br/>Temps de descente: 01:45<br/></p><hr align="center" width="480" style="height: 2px; width: 517px"/>]]></desc>
  </metadata>
  <wpt lat="47.77261" lon="-3.55107">
    <ele>35.17</ele>
    <name><![CDATA[0001685]]></name>
    <desc><![CDATA[<p><br /><h3>Nom: Segment: 1</h3><br />Heure de départ: 10:37 10 juil. 2020<br/>Heure d'arrivée: 16:00 10 juil. 2020<br/>Distance: 74,7km (05:22)<br/>Temps déplacement: 04:31<br/>Vitesse moyenne: 13,88 km/h<br/>Vitesse moyenne mouv.: 16,48 km/h<br/>Vitesse Max.: 41,23 km/h<br/>Altitude minimale: 0 m<br/>Altitude maximale: 68 m<br/>Vitesse de montée: 346,3 m/h<br/>Vitesse de descente: 434,1 m/h<br/>Gain d'altitude: 1018 m<br/>Perte d'altitude: 1044 m<br/>Temps de montée: 02:56<br/>Temps de descente: 02:24<br/></p>]]></desc>
    <cmt><![CDATA[<p><br /><h3>Nom: Segment: 1</h3><br />Heure de départ: 10:37 10 juil. 2020<br/>Heure d'arrivée: 16:00 10 juil. 2020<br/>Distance: 74,7km (05:22)<br/>Temps déplacement: 04:31<br/>Vitesse moyenne: 13,88 km/h<br/>Vitesse moyenne mouv.: 16,48 km/h<br/>Vitesse Max.: 41,23 km/h<br/>Altitude minimale: 0 m<br/>Altitude maximale: 68 m<br/>Vitesse de montée: 346,3 m/h<br/>Vitesse de descente: 434,1 m/h<br/>Gain d'altitude: 1018 m<br/>Perte d'altitude: 1044 m<br/>Temps de montée: 02:56<br/>Temps de descente: 02:24<br/></p>]]></cmt>
    <type><![CDATA[user]]></type>
  </wpt>
  <trk>
    <name><![CDATA[Doëlan]]></name>
    <trkseg>
      <trkpt lat="47.76833" lon="-3.55219">
        <ele>6</ele>
        <time>2018-07-14T11:04:28Z</time>
      </trkpt>
      <trkpt lat="47.76833" lon="-3.55215">
        <ele>6</ele>
        <time>2018-07-14T11:04:29Z</time>
      </trkpt>
      <trkpt lat="47.76832" lon="-3.55212">
        <ele>6</ele>
        <time>2018-07-14T11:04:30Z</time>
      </trkpt>
      <trkpt lat="47.76831" lon="-3.55208">
        <ele>7</ele>
        <time>2018-07-14T11:04:31Z</time>
      </trkpt>
      <trkpt lat="47.76829" lon="-3.55206">
        <ele>7</ele>
        <time>2018-07-14T11:04:32Z</time>
      </trkpt>
      <trkpt lat="47.76827" lon="-3.55203">
        <ele>7</ele>
        <time>2018-07-14T11:04:33Z</time>
      </trkpt>
      <trkpt lat="47.76824" lon="-3.55202">
        <ele>8</ele>
        <time>2018-07-14T11:04:34Z</time>
      </trkpt>
      <trkpt lat="47.76821" lon="-3.552">
        <ele>8</ele>
        <time>2018-07-14T11:04:35Z</time>
      </trkpt>
      <trkpt lat="47.76818" lon="-3.55198">
        <ele>8</ele>
        <time>2018-07-14T11:04:36Z</time>
      </trkpt>
      <trkpt lat="47.76816" lon="-3.55196">
        <ele>8</ele>
        <time>2018-07-14T11:04:37Z</time>
      </trkpt>
      <trkpt lat="47.76813" lon="-3.55194">
        <ele>9</ele>
        <time>2018-07-14T11:04:38Z</time>
      </trkpt>
      <trkpt lat="47.7681" lon="-3.55192">
        <ele>9</ele>
        <time>2018-07-14T11:04:39Z</time>
      </trkpt>
      <trkpt lat="47.76808" lon="-3.55189">
        <ele>9</ele>
        <time>2018-07-14T11:04:40Z</time>
      </trkpt>
      <trkpt lat="47.76805" lon="-3.55187">
        <ele>10</ele>
        <time>2018-07-14T11:04:41Z</time>
      </trkpt>
      <trkpt lat="47.76802" lon="-3.55184">
        <ele>10</ele>
        <time>2018-07-14T11:04:42Z</time>
      </trkpt>
      <trkpt lat="47.768" lon="-3.55181">
        <ele>10</ele>
        <time>2018-07-14T11:04:43Z</time>
      </trkpt>
      <trkpt lat="47.76797" lon="-3.55178">
        <ele>10</ele>
        <time>2018-07-14T11:04:44Z</time>
      </trkpt>
      <trkpt lat="47.76794" lon="-3.55175">
        <ele>11</ele>
        <time>2018-07-14T11:04:45Z</time>
      </trkpt>
      <trkpt lat="47.76791" lon="-3.55172">
        <ele>11</ele>
        <time>2018-07-14T11:04:46Z</time>
      </trkpt>
      <trkpt lat="47.76788" lon="-3.55168">
        <ele>11</ele>
        <time>2018-07-14T11:04:47Z</time>
      </trkpt>
      <trkpt lat="47.76785" lon="-3.55164">
        <ele>11</ele>
        <time>2018-07-14T11:04:48Z</time>
      </trkpt>
      <trkpt lat="47.76782" lon="-3.55159">
        <ele>12</ele>
        <time>2018-07-14T11:04:49Z</time>
      </trkpt>
      <trkpt lat="47.7678" lon="-3.55155">
        <ele>12</ele>
        <time>2018-07-14T11:04:50Z</time>
      </trkpt>
      <trkpt lat="47.76777" lon="-3.55151">
        <ele>12</ele>
        <time>2018-07-14T11:04:51Z</time>
      </trkpt>
      <trkpt lat="47.76773" lon="-3.55147">
        <ele>12</ele>
        <time>2018-07-14T11:04:52Z</time>
      </trkpt>
      <trkpt lat="47.7677" lon="-3.55142">
        <ele>12</ele>
        <time>2018-07-14T11:04:53Z</time>
      </trkpt>
      <trkpt lat="47.76767" lon="-3.55138">
        <ele>12</ele>
        <time>2018-07-14T11:04:54Z</time>
      </trkpt>
      <trkpt lat="47.76763" lon="-3.55134">
        <ele>13</ele>
        <time>2018-07-14T11:04:55Z</time>
      </trkpt>
      <trkpt lat="47.7676" lon="-3.5513">
        <ele>13</ele>
        <time>2018-07-14T11:04:56Z</time>
      </trkpt>
      <trkpt lat="47.76756" lon="-3.55126">
        <ele>13</ele>
        <time>2018-07-14T11:04:57Z</time>
      </trkpt>
      <trkpt lat="47.76752" lon="-3.55123">
        <ele>13</ele>
        <time>2018-07-14T11:04:58Z</time>
      </trkpt>
      <trkpt lat="47.76748" lon="-3.5512">
        <ele>13</ele>
        <time>2018-07-14T11:04:59Z</time>
      </trkpt>
      <trkpt lat="47.76744" lon="-3.55117">
        <ele>13</ele>
        <time>2018-07-14T11:05:00Z</time>
      </trkpt>
      <trkpt lat="47.76739" lon="-3.55115">
        <ele>13</ele>
        <time>2018-07-14T11:05:01Z</time>
      </trkpt>
      <trkpt lat="47.76735" lon="-3.55113">
        <ele>13</ele>
        <time>2018-07-14T11:05:02Z</time>
      </trkpt>
      <trkpt lat="47.76731" lon="-3.55111">
        <ele>13</ele>
        <time>2018-07-14T11:05:03Z</time>
      </trkpt>
      <trkpt lat="47.76726" lon="-3.55109">
        <ele>13</ele>
        <time>2018-07-14T11:05:04Z</time>
      </trkpt>
      <trkpt lat="47.76722" lon="-3.55108">
        <ele>14</ele>
        <time>2018-07-14T11:05:05Z</time>
      </trkpt>
      <trkpt lat="47.76717" lon="-3.55106">
        <ele>14</ele>
        <time>2018-07-14T11:05:06Z</time>
      </trkpt>
      <trkpt lat="47.76712" lon="-3.55105">
        <ele>14</ele>
        <time>2018-07-14T11:05:07Z</time>
      </trkpt>
      <trkpt lat="47.76708" lon="-3.55103">
        <ele>14</ele>
        <time>2018-07-14T11:05:08Z</time>
      </trkpt>
      <trkpt lat="47.76703" lon="-3.55101">
        <ele>14</ele>
        <time>2018-07-14T11:05:09Z</time>
      </trkpt>
      <trkpt lat="47.76698" lon="-3.551">
        <ele>14</ele>
        <time>2018-07-14T11:05:10Z</time>
      </trkpt>
      <trkpt lat="47.76693" lon="-3.55098">
        <ele>14</ele>
        <time>2018-07-14T11:05:11Z</time>
      </trkpt>
      <trkpt lat="47.76689" lon="-3.55097">
        <ele>14</ele>
        <time>2018-07-14T11:05:12Z</time>
      </trkpt>
      <trkpt lat="47.76684" lon="-3.55095">
        <ele>14</ele>
        <time>2018-07-14T11:05:13Z</time>
      </trkpt>
      <trkpt lat="47.76679" lon="-3.55094">
        <ele>14</ele>
        <time>2018-07-14T11:05:14Z</time>
      </trkpt>
      <trkpt lat="47.76675" lon="-3.55093">
        <ele>14</ele>
        <time>2018-07-14T11:05:15Z</time>
      </trkpt>
      <trkpt lat="47.7667" lon="-3.55094">
        <ele>14</ele>
        <time>2018-07-14T11:05:16Z</time>
      </trkpt>
      <trkpt lat="47.76666" lon="-3.55096">
        <ele>14</ele>
        <time>2018-07-14T11:05:17Z</time>
      </trkpt>
      <trkpt lat="47.76662" lon="-3.55099">
        <ele>14</ele>
        <time>2018-07-14T11:05:18Z</time>
      </trkpt>
      <trkpt lat="47.76658" lon="-3.55103">
        <ele>14</ele>
        <time>2018-07-14T11:05:19Z</time>
      </trkpt>
      <trkpt lat="47.76655" lon="-3.55108">
        <ele>14</ele>
        <time>2018-07-14T11:05:20Z</time>
      </trkpt>
      <trkpt lat="47.76653" lon="-3.55114">
        <ele>14</ele>
        <time>2018-07-14T11:05:21Z</time>
      </trkpt>
      <trkpt lat="47.76651" lon="-3.55121">
        <ele>14</ele>
        <time>2018-07-14T11:05:22Z</time>
      </trkpt>
      <trkpt lat="47.7665" lon="-3.55129">
        <ele>14</ele>
        <time>2018-07-14T11:05:23Z</time>
      </trkpt>
      <trkpt lat="47.76649" lon="-3.55137">
        <ele>14</ele>
        <time>2018-07-14T11:05:24Z</time>
      </trkpt>
      <trkpt lat="47.76648" lon="-3.55146">
        <ele>14</ele>
        <time>2018-07-14T11:05:25Z</time>
      </trkpt>
      <trkpt lat="47.76648" lon="-3.55154">
        <ele>13</ele>
        <time>2018-07-14T11:05:26Z</time>
      </trkpt>
      <trkpt lat="47.76649" lon="-3.55164">
        <ele>13</ele>
        <time>2018-07-14T11:05:27Z</time>
      </trkpt>
      <trkpt lat="47.76649" lon="-3.55173">
        <ele>13</ele>
        <time>2018-07-14T11:05:28Z</time>
      </trkpt>
      <trkpt lat="47.7665" lon="-3.55183">
        <ele>13</ele>
        <time>2018-07-14T11:05:29Z</time>
      </trkpt>
      <trkpt lat="47.7665" lon="-3.55192">
        <ele>13</ele>
        <time>2018-07-14T11:05:30Z</time>
      </trkpt>
      <trkpt lat="47.7665" lon="-3.55202">
        <ele>12</ele>
        <time>2018-07-14T11:05:31Z</time>
      </trkpt>
      <trkpt lat="47.76651" lon="-3.55211">
        <ele>12</ele>
        <time>2018-07-14T11:05:32Z</time>
      </trkpt>
      <trkpt lat="47.76651" lon="-3.55221">
        <ele>12</ele>
        <time>2018-07-14T11:05:33Z</time>
      </trkpt>
      <trkpt lat="47.76652" lon="-3.55231">
        <ele>12</ele>
        <time>2018-07-14T11:05:34Z</time>
      </trkpt>
      <trkpt lat="47.76652" lon="-3.55242">
        <ele>12</ele>
        <time>2018-07-14T11:05:35Z</time>
      </trkpt>
      <trkpt lat="47.76653" lon="-3.55252">
        <ele>11</ele>
        <time>2018-07-14T11:05:36Z</time>
      </trkpt>
      <trkpt lat="47.76653" lon="-3.55263">
        <ele>11</ele>
        <time>2018-07-14T11:05:37Z</time>
      </trkpt>
      <trkpt lat="47.76653" lon="-3.55274">
        <ele>11</ele>
        <time>2018-07-14T11:05:38Z</time>
      </trkpt>
      <trkpt lat="47.76654" lon="-3.55285">
        <ele>11</ele>
        <time>2018-07-14T11:05:39Z</time>
      </trkpt>
      <trkpt lat="47.76654" lon="-3.55296">
        <ele>11</ele>
        <time>2018-07-14T11:05:40Z</time>
      </trkpt>
      <trkpt lat="47.76654" lon="-3.55307">
        <ele>11</ele>
        <time>2018-07-14T11:05:41Z</time>
      </trkpt>
      <trkpt lat="47.76655" lon="-3.55318">
        <ele>11</ele>
        <time>2018-07-14T11:05:42Z</time>
      </trkpt>
      <trkpt lat="47.76656" lon="-3.55328">
        <ele>11</ele>
        <time>2018-07-14T11:05:43Z</time>
      </trkpt>
      <trkpt lat="47.76656" lon="-3.55339">
        <ele>11</ele>
        <time>2018-07-14T11:05:44Z</time>
      </trkpt>
      <trkpt lat="47.76656" lon="-3.5535">
        <ele>11</ele>
        <time>2018-07-14T11:05:45Z</time>
      </trkpt>
      <trkpt lat="47.76657" lon="-3.5536">
        <ele>11</ele>
        <time>2018-07-14T11:05:46Z</time>
      </trkpt>
      <trkpt lat="47.76657" lon="-3.55371">
        <ele>11</ele>
        <time>2018-07-14T11:05:47Z</time>
      </trkpt>
      <trkpt lat="47.76658" lon="-3.55381">
        <ele>11</ele>
        <time>2018-07-14T11:05:48Z</time>
      </trkpt>
      <trkpt lat="47.76659" lon="-3.55392">
        <ele>10</ele>
        <time>2018-07-14T11:05:49Z</time>
      </trkpt>
      <trkpt lat="47.76659" lon="-3.55403">
        <ele>10</ele>
        <time>2018-07-14T11:05:50Z</time>
      </trkpt>
      <trkpt lat="47.7666" lon="-3.55413">
        <ele>10</ele>
        <time>2018-07-14T11:05:51Z</time>
      </trkpt>
      <trkpt lat="47.7666" lon="-3.55424">
        <ele>10</ele>
        <time>2018-07-14T11:05:52Z</time>
      </trkpt>
      <trkpt lat="47.76661" lon="-3.55435">
        <ele>9</ele>
        <time>2018-07-14T11:05:53Z</time>
      </trkpt>
      <trkpt lat="47.76662" lon="-3.55446">
        <ele>9</ele>
        <time>2018-07-14T11:05:54Z</time>
      </trkpt>
      <trkpt lat="47.76663" lon="-3.55456">
        <ele>9</ele>
        <time>2018-07-14T11:05:55Z</time>
      </trkpt>
      <trkpt lat="47.76664" lon="-3.55466">
        <ele>9</ele>
        <time>2018-07-14T11:05:56Z</time>
      </trkpt>
      <trkpt lat="47.76666" lon="-3.55476">
        <ele>9</ele>
        <time>2018-07-14T11:05:57Z</time>
      </trkpt>
      <trkpt lat="47.76669" lon="-3.55485">
        <ele>9</ele>
        <time>2018-07-14T11:05:58Z</time>
      </trkpt>
      <trkpt lat="47.76672" lon="-3.55495">
        <ele>9</ele>
        <time>2018-07-14T11:05:59Z</time>
      </trkpt>
      <trkpt lat="47.76675" lon="-3.55503">
        <ele>9</ele>
        <time>2018-07-14T11:06:00Z</time>
      </trkpt>
      <trkpt lat="47.76679" lon="-3.55511">
        <ele>9</ele>
        <time>2018-07-14T11:06:01Z</time>
      </trkpt>
      <trkpt lat="47.76682" lon="-3.55517">
        <ele>9</ele>
        <time>2018-07-14T11:06:02Z</time>
      </trkpt>
      <trkpt lat="47.76684" lon="-3.55523">
        <ele>8</ele>
        <time>2018-07-14T11:06:03Z</time>
      </trkpt>
      <trkpt lat="47.76687" lon="-3.55527">
        <ele>8</ele>
        <time>2018-07-14T11:06:04Z</time>
      </trkpt>
      <trkpt lat="47.76688" lon="-3.55531">
        <ele>8</ele>
        <time>2018-07-14T11:06:05Z</time>
      </trkpt>
      <trkpt lat="47.7669" lon="-3.55535">
        <ele>8</ele>
        <time>2018-07-14T11:06:06Z</time>
      </trkpt>
      <trkpt lat="47.76691" lon="-3.55539">
        <ele>8</ele>
        <time>2018-07-14T11:06:07Z</time>
      </trkpt>
      <trkpt lat="47.76693" lon="-3.55544">
        <ele>8</ele>
        <time>2018-07-14T11:06:08Z</time>
      </trkpt>
      <trkpt lat="47.76695" lon="-3.55547">
        <ele>8</ele>
        <time>2018-07-14T11:06:09Z</time>
      </trkpt>
      <trkpt lat="47.76696" lon="-3.55551">
        <ele>8</ele>
        <time>2018-07-14T11:06:10Z</time>
      </trkpt>
      <trkpt lat="47.76699" lon="-3.55552">
        <ele>8</ele>
        <time>2018-07-14T11:06:11Z</time>
      </trkpt>
      <trkpt lat="47.76702" lon="-3.55553">
        <ele>8</ele>
        <time>2018-07-14T11:06:12Z</time>
      </trkpt>
      <trkpt lat="47.76704" lon="-3.55551">
        <ele>8</ele>
        <time>2018-07-14T11:06:13Z</time>
      </trkpt>
      <trkpt lat="47.76706" lon="-3.55547">
        <ele>7</ele>
        <time>2018-07-14T11:06:14Z</time>
      </trkpt>
      <trkpt lat="47.76708" lon="-3.55544">
        <ele>7</ele>
        <time>2018-07-14T11:06:15Z</time>
      </trkpt>
      <trkpt lat="47.76709" lon="-3.55541">
        <ele>7</ele>
        <time>2018-07-14T11:06:16Z</time>
      </trkpt>
      <trkpt lat="47.76711" lon="-3.55539">
        <ele>7</ele>
        <time>2018-07-14T11:06:17Z</time>
      </trkpt>
      <trkpt lat="47.76714" lon="-3.55538">
        <ele>7</ele>
        <time>2018-07-14T11:06:18Z</time>
      </trkpt>
      <trkpt lat="47.76717" lon="-3.55537">
        <ele>7</ele>
        <time>2018-07-14T11:06:19Z</time>
      </trkpt>
      <trkpt lat="47.7672" lon="-3.55536">
        <ele>7</ele>
        <time>2018-07-14T11:06:20Z</time>
      </trkpt>
      <trkpt lat="47.76724" lon="-3.55534">
        <ele>7</ele>
        <time>2018-07-14T11:06:21Z</time>
      </trkpt>
      <trkpt lat="47.76727" lon="-3.55531">
        <ele>7</ele>
        <time>2018-07-14T11:06:22Z</time>
      </trkpt>
      <trkpt lat="47.76731" lon="-3.55528">
        <ele>7</ele>
        <time>2018-07-14T11:06:23Z</time>
      </trkpt>
      <trkpt lat="47.76735" lon="-3.55525">
        <ele>6</ele>
        <time>2018-07-14T11:06:24Z</time>
      </trkpt>
      <trkpt lat="47.76739" lon="-3.55522">
        <ele>6</ele>
        <time>2018-07-14T11:06:25Z</time>
      </trkpt>
      <trkpt lat="47.76743" lon="-3.5552">
        <ele>6</ele>
        <time>2018-07-14T11:06:26Z</time>
      </trkpt>
      <trkpt lat="47.76747" lon="-3.55519">
        <ele>6</ele>
        <time>2018-07-14T11:06:27Z</time>
      </trkpt>
      <trkpt lat="47.76751" lon="-3.55519">
        <ele>6</ele>
        <time>2018-07-14T11:06:28Z</time>
      </trkpt>
      <trkpt lat="47.76755" lon="-3.55521">
        <ele>6</ele>
        <time>2018-07-14T11:06:29Z</time>
      </trkpt>
      <trkpt lat="47.76759" lon="-3.55525">
        <ele>6</ele>
        <time>2018-07-14T11:06:30Z</time>
      </trkpt>
      <trkpt lat="47.76762" lon="-3.5553">
        <ele>6</ele>
        <time>2018-07-14T11:06:31Z</time>
      </trkpt>
      <trkpt lat="47.76764" lon="-3.55535">
        <ele>6</ele>
        <time>2018-07-14T11:06:32Z</time>
      </trkpt>
      <trkpt lat="47.76766" lon="-3.55541">
        <ele>7</ele>
        <time>2018-07-14T11:06:33Z</time>
      </trkpt>
      <trkpt lat="47.76768" lon="-3.55547">
        <ele>7</ele>
        <time>2018-07-14T11:06:34Z</time>
      </trkpt>
      <trkpt lat="47.7677" lon="-3.55552">
        <ele>7</ele>
        <time>2018-07-14T11:06:35Z</time>
      </trkpt>
      <trkpt lat="47.76772" lon="-3.55558">
        <ele>7</ele>
        <time>2018-07-14T11:06:36Z</time>
      </trkpt>
      <trkpt lat="47.76774" lon="-3.55563">
        <ele>7</ele>
        <time>2018-07-14T11:06:37Z</time>
      </trkpt>
      <trkpt lat="47.76777" lon="-3.55567">
        <ele>7</ele>
        <time>2018-07-14T11:06:38Z</time>
      </trkpt>
      <trkpt lat="47.76779" lon="-3.55571">
        <ele>7</ele>
        <time>2018-07-14T11:06:39Z</time>
      </trkpt>
      <trkpt lat="47.76781" lon="-3.55574">
        <ele>8</ele>
        <time>2018-07-14T11:06:40Z</time>
      </trkpt>
      <trkpt lat="47.76784" lon="-3.55578">
        <ele>8</ele>
        <time>2018-07-14T11:06:41Z</time>
      </trkpt>
      <trkpt lat="47.76786" lon="-3.55581">
        <ele>8</ele>
        <time>2018-07-14T11:06:42Z</time>
      </trkpt>
      <trkpt lat="47.76789" lon="-3.55585">
        <ele>8</ele>
        <time>2018-07-14T11:06:43Z</time>
      </trkpt>
      <trkpt lat="47.76792" lon="-3.55589">
        <ele>8</ele>
        <time>2018-07-14T11:06:44Z</time>
      </trkpt>
      <trkpt lat="47.76794" lon="-3.55593">
        <ele>8</ele>
        <time>2018-07-14T11:06:45Z</time>
      </trkpt>
      <trkpt lat="47.76797" lon="-3.55596">
        <ele>9</ele>
        <time>2018-07-14T11:06:46Z</time>
      </trkpt>
      <trkpt lat="47.768" lon="-3.556">
        <ele>9</ele>
        <time>2018-07-14T11:06:47Z</time>
      </trkpt>
      <trkpt lat="47.76801" lon="-3.55604">
        <ele>9</ele>
        <time>2018-07-14T11:06:48Z</time>
      </trkpt>
      <trkpt lat="47.76803" lon="-3.55608">
        <ele>9</ele>
        <time>2018-07-14T11:06:49Z</time>
      </trkpt>
      <trkpt lat="47.76804" lon="-3.55612">
        <ele>9</ele>
        <time>2018-07-14T11:06:50Z</time>
      </trkpt>
      <trkpt lat="47.76804" lon="-3.55617">
        <ele>9</ele>
        <time>2018-07-14T11:06:51Z</time>
      </trkpt>
      <trkpt lat="47.76804" lon="-3.55622">
        <ele>9</ele>
        <time>2018-07-14T11:06:52Z</time>
      </trkpt>
      <trkpt lat="47.76805" lon="-3.55627">
        <ele>9</ele>
        <time>2018-07-14T11:06:53Z</time>
      </trkpt>
      <trkpt lat="47.76807" lon="-3.55632">
        <ele>9</ele>
        <time>2018-07-14T11:06:54Z</time>
      </trkpt>
      <trkpt lat="47.76808" lon="-3.55637">
        <ele>9</ele>
        <time>2018-07-14T11:06:55Z</time>
      </trkpt>
      <trkpt lat="47.76811" lon="-3.55642">
        <ele>10</ele>
        <time>2018-07-14T11:06:56Z</time>
      </trkpt>
      <trkpt lat="47.76813" lon="-3.55646">
        <ele>10</ele>
        <time>2018-07-14T11:06:57Z</time>
      </trkpt>
      <trkpt lat="47.76816" lon="-3.5565">
        <ele>10</ele>
        <time>2018-07-14T11:06:58Z</time>
      </trkpt>
      <trkpt lat="47.7682" lon="-3.55654">
        <ele>10</ele>
        <time>2018-07-14T11:06:59Z</time>
      </trkpt>
      <trkpt lat="47.76824" lon="-3.55657">
        <ele>10</ele>
        <time>2018-07-14T11:07:00Z</time>
      </trkpt>
      <trkpt lat="47.76828" lon="-3.55661">
        <ele>10</ele>
        <time>2018-07-14T11:07:01Z</time>
      </trkpt>
      <trkpt lat="47.76831" lon="-3.55664">
        <ele>10</ele>
        <time>2018-07-14T11:07:02Z</time>
      </trkpt>
      <trkpt lat="47.76836" lon="-3.55668">
        <ele>9</ele>
        <time>2018-07-14T11:07:03Z</time>
      </trkpt>
      <trkpt lat="47.7684" lon="-3.55671">
        <ele>9</ele>
        <time>2018-07-14T11:07:04Z</time>
      </trkpt>
      <trkpt lat="47.76844" lon="-3.55674">
        <ele>9</ele>
        <time>2018-07-14T11:07:05Z</time>
      </trkpt>
      <trkpt lat="47.76849" lon="-3.55678">
        <ele>9</ele>
        <time>2018-07-14T11:07:06Z</time>
      </trkpt>
      <trkpt lat="47.76852" lon="-3.55682">
        <ele>10</ele>
        <time>2018-07-14T11:07:07Z</time>
      </trkpt>
      <trkpt lat="47.76856" lon="-3.55686">
        <ele>10</ele>
        <time>2018-07-14T11:07:08Z</time>
      </trkpt>
      <trkpt lat="47.7686" lon="-3.5569">
        <ele>10</ele>
        <time>2018-07-14T11:07:09Z</time>
      </trkpt>
      <trkpt lat="47.76863" lon="-3.55694">
        <ele>10</ele>
        <time>2018-07-14T11:07:10Z</time>
      </trkpt>
      <trkpt lat="47.76866" lon="-3.55698">
        <ele>10</ele>
        <time>2018-07-14T11:07:11Z</time>
      </trkpt>
      <trkpt lat="47.76869" lon="-3.55703">
        <ele>10</ele>
        <time>2018-07-14T11:07:12Z</time>
      </trkpt>
      <trkpt lat="47.76871" lon="-3.55708">
        <ele>10</ele>
        <time>2018-07-14T11:07:13Z</time>
      </trkpt>
      <trkpt lat="47.76874" lon="-3.55713">
        <ele>10</ele>
        <time>2018-07-14T11:07:14Z</time>
      </trkpt>
      <trkpt lat="47.76876" lon="-3.55719">
        <ele>11</ele>
        <time>2018-07-14T11:07:15Z</time>
      </trkpt>
      <trkpt lat="47.76876" lon="-3.55725">
        <ele>11</ele>
        <time>2018-07-14T11:07:16Z</time>
      </trkpt>
      <trkpt lat="47.76876" lon="-3.55732">
        <ele>11</ele>
        <time>2018-07-14T11:07:17Z</time>
      </trkpt>
      <trkpt lat="47.76876" lon="-3.55739">
        <ele>11</ele>
        <time>2018-07-14T11:07:18Z</time>
      </trkpt>
      <trkpt lat="47.76875" lon="-3.55745">
        <ele>11</ele>
        <time>2018-07-14T11:07:19Z</time>
      </trkpt>
      <trkpt lat="47.76873" lon="-3.55752">
        <ele>11</ele>
        <time>2018-07-14T11:07:20Z</time>
      </trkpt>
      <trkpt lat="47.76871" lon="-3.55758">
        <ele>11</ele>
        <time>2018-07-14T11:07:21Z</time>
      </trkpt>
      <trkpt lat="47.7687" lon="-3.55765">
        <ele>11</ele>
        <time>2018-07-14T11:07:22Z</time>
      </trkpt>
      <trkpt lat="47.76868" lon="-3.55772">
        <ele>12</ele>
        <time>2018-07-14T11:07:23Z</time>
      </trkpt>
      <trkpt lat="47.76866" lon="-3.55778">
        <ele>12</ele>
        <time>2018-07-14T11:07:24Z</time>
      </trkpt>
      <trkpt lat="47.76864" lon="-3.55784">
        <ele>12</ele>
        <time>2018-07-14T11:07:25Z</time>
      </trkpt>
      <trkpt lat="47.76862" lon="-3.5579">
        <ele>12</ele>
        <time>2018-07-14T11:07:26Z</time>
      </trkpt>
      <trkpt lat="47.7686" lon="-3.55796">
        <ele>13</ele>
        <time>2018-07-14T11:07:27Z</time>
      </trkpt>
      <trkpt lat="47.76859" lon="-3.55802">
        <ele>13</ele>
        <time>2018-07-14T11:07:28Z</time>
      </trkpt>
      <trkpt lat="47.76858" lon="-3.55807">
        <ele>13</ele>
        <time>2018-07-14T11:07:29Z</time>
      </trkpt>
      <trkpt lat="47.76857" lon="-3.55812">
        <ele>13</ele>
        <time>2018-07-14T11:07:30Z</time>
      </trkpt>
      <trkpt lat="47.76857" lon="-3.55817">
        <ele>13</ele>
        <time>2018-07-14T11:07:31Z</time>
      </trkpt>
      <trkpt lat="47.76858" lon="-3.55821">
        <ele>14</ele>
        <time>2018-07-14T11:07:32Z</time>
      </trkpt>
      <trkpt lat="47.76859" lon="-3.55826">
        <ele>14</ele>
        <time>2018-07-14T11:07:33Z</time>
      </trkpt>
      <trkpt lat="47.76861" lon="-3.55831">
        <ele>14</ele>
        <time>2018-07-14T11:07:34Z</time>
      </trkpt>
      <trkpt lat="47.76863" lon="-3.55836">
        <ele>14</ele>
        <time>2018-07-14T11:07:35Z</time>
      </trkpt>
      <trkpt lat="47.76867" lon="-3.5584">
        <ele>14</ele>
        <time>2018-07-14T11:07:36Z</time>
      </trkpt>
      <trkpt lat="47.76871" lon="-3.55843">
        <ele>14</ele>
        <time>2018-07-14T11:07:37Z</time>
      </trkpt>
      <trkpt lat="47.76875" lon="-3.55846">
        <ele>14</ele>
        <time>2018-07-14T11:07:38Z</time>
      </trkpt>
      <trkpt lat="47.7688" lon="-3.55848">
        <ele>14</ele>
        <time>2018-07-14T11:07:39Z</time>
      </trkpt>
      <trkpt lat="47.76884" lon="-3.5585">
        <ele>14</ele>
        <time>2018-07-14T11:07:40Z</time>
      </trkpt>
      <trkpt lat="47.76889" lon="-3.55852">
        <ele>14</ele>
        <time>2018-07-14T11:07:41Z</time>
      </trkpt>
      <trkpt lat="47.76893" lon="-3.55854">
        <ele>15</ele>
        <time>2018-07-14T11:07:42Z</time>
      </trkpt>
      <trkpt lat="47.76898" lon="-3.55856">
        <ele>15</ele>
        <time>2018-07-14T11:07:43Z</time>
      </trkpt>
      <trkpt lat="47.76902" lon="-3.55858">
        <ele>15</ele>
        <time>2018-07-14T11:07:44Z</time>
      </trkpt>
      <trkpt lat="47.76907" lon="-3.55859">
        <ele>15</ele>
        <time>2018-07-14T11:07:45Z</time>
      </trkpt>
      <trkpt lat="47.76911" lon="-3.55861">
        <ele>15</ele>
        <time>2018-07-14T11:07:46Z</time>
      </trkpt>
      <trkpt lat="47.76915" lon="-3.55862">
        <ele>16</ele>
        <time>2018-07-14T11:07:47Z</time>
      </trkpt>
      <trkpt lat="47.7692" lon="-3.55863">
        <ele>16</ele>
        <time>2018-07-14T11:07:48Z</time>
      </trkpt>
      <trkpt lat="47.76924" lon="-3.55863">
        <ele>16</ele>
        <time>2018-07-14T11:07:49Z</time>
      </trkpt>
      <trkpt lat="47.76928" lon="-3.55864">
        <ele>16</ele>
        <time>2018-07-14T11:07:50Z</time>
      </trkpt>
      <trkpt lat="47.76932" lon="-3.55865">
        <ele>16</ele>
        <time>2018-07-14T11:07:51Z</time>
      </trkpt>
      <trkpt lat="47.76936" lon="-3.55865">
        <ele>17</ele>
        <time>2018-07-14T11:07:52Z</time>
      </trkpt>
      <trkpt lat="47.7694" lon="-3.55866">
        <ele>17</ele>
        <time>2018-07-14T11:07:53Z</time>
      </trkpt>
      <trkpt lat="47.76943" lon="-3.55866">
        <ele>17</ele>
        <time>2018-07-14T11:07:54Z</time>
      </trkpt>
      <trkpt lat="47.76947" lon="-3.55865">
        <ele>17</ele>
        <time>2018-07-14T11:07:55Z</time>
      </trkpt>
      <trkpt lat="47.7695" lon="-3.55865">
        <ele>17</ele>
        <time>2018-07-14T11:07:56Z</time>
      </trkpt>
      <trkpt lat="47.76954" lon="-3.55864">
        <ele>17</ele>
        <time>2018-07-14T11:07:57Z</time>
      </trkpt>
      <trkpt lat="47.76957" lon="-3.55863">
        <ele>17</ele>
        <time>2018-07-14T11:07:58Z</time>
      </trkpt>
      <trkpt lat="47.76961" lon="-3.55862">
        <ele>18</ele>
        <time>2018-07-14T11:07:59Z</time>
      </trkpt>
      <trkpt lat="47.76965" lon="-3.55862">
        <ele>18</ele>
        <time>2018-07-14T11:08:00Z</time>
      </trkpt>
      <trkpt lat="47.76968" lon="-3.55861">
        <ele>18</ele>
        <time>2018-07-14T11:08:01Z</time>
      </trkpt>
      <trkpt lat="47.76972" lon="-3.5586">
        <ele>19</ele>
        <time>2018-07-14T11:08:02Z</time>
      </trkpt>
      <trkpt lat="47.76975" lon="-3.5586">
        <ele>19</ele>
        <time>2018-07-14T11:08:03Z</time>
      </trkpt>
      <trkpt lat="47.76978" lon="-3.5586">
        <ele>20</ele>
        <time>2018-07-14T11:08:04Z</time>
      </trkpt>
      <trkpt lat="47.76981" lon="-3.5586">
        <ele>20</ele>
        <time>2018-07-14T11:08:05Z</time>
      </trkpt>
      <trkpt lat="47.76984" lon="-3.5586">
        <ele>20</ele>
        <time>2018-07-14T11:08:06Z</time>
      </trkpt>
      <trkpt lat="47.76987" lon="-3.5586">
        <ele>21</ele>
        <time>2018-07-14T11:08:07Z</time>
      </trkpt>
      <trkpt lat="47.7699" lon="-3.5586">
        <ele>21</ele>
        <time>2018-07-14T11:08:08Z</time>
      </trkpt>
      <trkpt lat="47.76994" lon="-3.5586">
        <ele>21</ele>
        <time>2018-07-14T11:08:09Z</time>
      </trkpt>
      <trkpt lat="47.76996" lon="-3.55859">
        <ele>22</ele>
        <time>2018-07-14T11:08:10Z</time>
      </trkpt>
      <trkpt lat="47.76999" lon="-3.55859">
        <ele>22</ele>
        <time>2018-07-14T11:08:11Z</time>
      </trkpt>
      <trkpt lat="47.77001" lon="-3.55857">
        <ele>22</ele>
        <time>2018-07-14T11:08:12Z</time>
      </trkpt>
      <trkpt lat="47.77003" lon="-3.55857">
        <ele>23</ele>
        <time>2018-07-14T11:08:13Z</time>
      </trkpt>
      <trkpt lat="47.77004" lon="-3.55856">
        <ele>23</ele>
        <time>2018-07-14T11:08:14Z</time>
      </trkpt>
      <trkpt lat="47.77007" lon="-3.55856">
        <ele>23</ele>
        <time>2018-07-14T11:08:15Z</time>
      </trkpt>
      <trkpt lat="47.77008" lon="-3.55855">
        <ele>23</ele>
        <time>2018-07-14T11:08:16Z</time>
      </trkpt>
      <trkpt lat="47.77011" lon="-3.55855">
        <ele>24</ele>
        <time>2018-07-14T11:08:17Z</time>
      </trkpt>
      <trkpt lat="47.77013" lon="-3.55855">
        <ele>24</ele>
        <time>2018-07-14T11:08:18Z</time>
      </trkpt>
      <trkpt lat="47.77016" lon="-3.55855">
        <ele>24</ele>
        <time>2018-07-14T11:08:19Z</time>
      </trkpt>
      <trkpt lat="47.77019" lon="-3.55856">
        <ele>24</ele>
        <time>2018-07-14T11:08:20Z</time>
      </trkpt>
      <trkpt lat="47.77023" lon="-3.55856">
        <ele>24</ele>
        <time>2018-07-14T11:08:21Z</time>
      </trkpt>
      <trkpt lat="47.77026" lon="-3.55857">
        <ele>24</ele>
        <time>2018-07-14T11:08:22Z</time>
      </trkpt>
      <trkpt lat="47.7703" lon="-3.55859">
        <ele>24</ele>
        <time>2018-07-14T11:08:23Z</time>
      </trkpt>
      <trkpt lat="47.77034" lon="-3.5586">
        <ele>24</ele>
        <time>2018-07-14T11:08:24Z</time>
      </trkpt>
      <trkpt lat="47.77037" lon="-3.55862">
        <ele>25</ele>
        <time>2018-07-14T11:08:25Z</time>
      </trkpt>
      <trkpt lat="47.77041" lon="-3.55864">
        <ele>25</ele>
        <time>2018-07-14T11:08:26Z</time>
      </trkpt>
      <trkpt lat="47.77045" lon="-3.55866">
        <ele>25</ele>
        <time>2018-07-14T11:08:27Z</time>
      </trkpt>
      <trkpt lat="47.77049" lon="-3.55868">
        <ele>25</ele>
        <time>2018-07-14T11:08:28Z</time>
      </trkpt>
      <trkpt lat="47.77053" lon="-3.5587">
        <ele>25</ele>
        <time>2018-07-14T11:08:29Z</time>
      </trkpt>
      <trkpt lat="47.77057" lon="-3.55873">
        <ele>25</ele>
        <time>2018-07-14T11:08:30Z</time>
      </trkpt>
      <trkpt lat="47.7706" lon="-3.55875">
        <ele>25</ele>
        <time>2018-07-14T11:08:31Z</time>
      </trkpt>
      <trkpt lat="47.77064" lon="-3.55877">
        <ele>25</ele>
        <time>2018-07-14T11:08:32Z</time>
      </trkpt>
      <trkpt lat="47.77068" lon="-3.55879">
        <ele>26</ele>
        <time>2018-07-14T11:08:33Z</time>
      </trkpt>
      <trkpt lat="47.77072" lon="-3.55881">
        <ele>26</ele>
        <time>2018-07-14T11:08:34Z</time>
      </trkpt>
      <trkpt lat="47.77076" lon="-3.55884">
        <ele>26</ele>
        <time>2018-07-14T11:08:35Z</time>
      </trkpt>
      <trkpt lat="47.7708" lon="-3.55886">
        <ele>26</ele>
        <time>2018-07-14T11:08:36Z</time>
      </trkpt>
      <trkpt lat="47.77083" lon="-3.55888">
        <ele>26</ele>
        <time>2018-07-14T11:08:37Z</time>
      </trkpt>
      <trkpt lat="47.77087" lon="-3.55889">
        <ele>26</ele>
        <time>2018-07-14T11:08:38Z</time>
      </trkpt>
      <trkpt lat="47.77091" lon="-3.55891">
        <ele>26</ele>
        <time>2018-07-14T11:08:39Z</time>
      </trkpt>
      <trkpt lat="47.77095" lon="-3.55892">
        <ele>26</ele>
        <time>2018-07-14T11:08:40Z</time>
      </trkpt>
      <trkpt lat="47.77099" lon="-3.55893">
        <ele>26</ele>
        <time>2018-07-14T11:08:41Z</time>
      </trkpt>
      <trkpt lat="47.77103" lon="-3.55895">
        <ele>26</ele>
        <time>2018-07-14T11:08:42Z</time>
      </trkpt>
      <trkpt lat="47.77107" lon="-3.55896">
        <ele>27</ele>
        <time>2018-07-14T11:08:43Z</time>
      </trkpt>
      <trkpt lat="47.77112" lon="-3.55897">
        <ele>27</ele>
        <time>2018-07-14T11:08:44Z</time>
      </trkpt>
      <trkpt lat="47.77116" lon="-3.55897">
        <ele>27</ele>
        <time>2018-07-14T11:08:45Z</time>
      </trkpt>
      <trkpt lat="47.7712" lon="-3.55897">
        <ele>27</ele>
        <time>2018-07-14T11:08:46Z</time>
      </trkpt>
      <trkpt lat="47.77125" lon="-3.55897">
        <ele>27</ele>
        <time>2018-07-14T11:08:47Z</time>
      </trkpt>
      <trkpt lat="47.77129" lon="-3.55897">
        <ele>27</ele>
        <time>2018-07-14T11:08:48Z</time>
      </trkpt>
      <trkpt lat="47.77134" lon="-3.55896">
        <ele>27</ele>
        <time>2018-07-14T11:08:49Z</time>
      </trkpt>
      <trkpt lat="47.77139" lon="-3.55896">
        <ele>27</ele>
        <time>2018-07-14T11:08:50Z</time>
      </trkpt>
      <trkpt lat="47.77143" lon="-3.55896">
        <ele>27</ele>
        <time>2018-07-14T11:08:51Z</time>
      </trkpt>
      <trkpt lat="47.77148" lon="-3.55895">
        <ele>28</ele>
        <time>2018-07-14T11:08:52Z</time>
      </trkpt>
      <trkpt lat="47.77153" lon="-3.55895">
        <ele>28</ele>
        <time>2018-07-14T11:08:53Z</time>
      </trkpt>
      <trkpt lat="47.77158" lon="-3.55894">
        <ele>28</ele>
        <time>2018-07-14T11:08:54Z</time>
      </trkpt>
      <trkpt lat="47.77162" lon="-3.55894">
        <ele>28</ele>
        <time>2018-07-14T11:08:55Z</time>
      </trkpt>
      <trkpt lat="47.77167" lon="-3.55894">
        <ele>28</ele>
        <time>2018-07-14T11:08:56Z</time>
      </trkpt>
      <trkpt lat="47.77171" lon="-3.55894">
        <ele>28</ele>
        <time>2018-07-14T11:08:57Z</time>
      </trkpt>
      <trkpt lat="47.77176" lon="-3.55895">
        <ele>29</ele>
        <time>2018-07-14T11:08:58Z</time>
      </trkpt>
      <trkpt lat="47.7718" lon="-3.55896">
        <ele>29</ele>
        <time>2018-07-14T11:08:59Z</time>
      </trkpt>
      <trkpt lat="47.77184" lon="-3.55897">
        <ele>29</ele>
        <time>2018-07-14T11:09:00Z</time>
      </trkpt>
      <trkpt lat="47.77189" lon="-3.55897">
        <ele>29</ele>
        <time>2018-07-14T11:09:01Z</time>
      </trkpt>
      <trkpt lat="47.77194" lon="-3.55898">
        <ele>29</ele>
        <time>2018-07-14T11:09:02Z</time>
      </trkpt>
      <trkpt lat="47.772" lon="-3.55899">
        <ele>29</ele>
        <time>2018-07-14T11:09:03Z</time>
      </trkpt>
      <trkpt lat="47.77205" lon="-3.55901">
        <ele>29</ele>
        <time>2018-07-14T11:09:04Z</time>
      </trkpt>
      <trkpt lat="47.7721" lon="-3.55902">
        <ele>29</ele>
        <time>2018-07-14T11:09:05Z</time>
      </trkpt>
      <trkpt lat="47.77215" lon="-3.55904">
        <ele>29</ele>
        <time>2018-07-14T11:09:06Z</time>
      </trkpt>
      <trkpt lat="47.77219" lon="-3.55905">
        <ele>28</ele>
        <time>2018-07-14T11:09:07Z</time>
      </trkpt>
      <trkpt lat="47.77224" lon="-3.55907">
        <ele>29</ele>
        <time>2018-07-14T11:09:08Z</time>
      </trkpt>
      <trkpt lat="47.77228" lon="-3.55909">
        <ele>29</ele>
        <time>2018-07-14T11:09:09Z</time>
      </trkpt>
      <trkpt lat="47.77231" lon="-3.5591">
        <ele>29</ele>
        <time>2018-07-14T11:09:10Z</time>
      </trkpt>
      <trkpt lat="47.77234" lon="-3.55912">
        <ele>29</ele>
        <time>2018-07-14T11:09:11Z</time>
      </trkpt>
      <trkpt lat="47.77238" lon="-3.55913">
        <ele>29</ele>
        <time>2018-07-14T11:09:12Z</time>
      </trkpt>
      <trkpt lat="47.77241" lon="-3.55914">
        <ele>29</ele>
        <time>2018-07-14T11:09:13Z</time>
      </trkpt>
      <trkpt lat="47.77245" lon="-3.55915">
        <ele>29</ele>
        <time>2018-07-14T11:09:14Z</time>
      </trkpt>
      <trkpt lat="47.77248" lon="-3.55914">
        <ele>29</ele>
        <time>2018-07-14T11:09:15Z</time>
      </trkpt>
      <trkpt lat="47.77252" lon="-3.55912">
        <ele>28</ele>
        <time>2018-07-14T11:09:16Z</time>
      </trkpt>
      <trkpt lat="47.77257" lon="-3.55912">
        <ele>28</ele>
        <time>2018-07-14T11:09:17Z</time>
      </trkpt>
      <trkpt lat="47.77261" lon="-3.55912">
        <ele>28</ele>
        <time>2018-07-14T11:09:18Z</time>
      </trkpt>
      <trkpt lat="47.77266" lon="-3.55914">
        <ele>28</ele>
        <time>2018-07-14T11:09:19Z</time>
      </trkpt>
      <trkpt lat="47.7727" lon="-3.55916">
        <ele>28</ele>
        <time>2018-07-14T11:09:20Z</time>
      </trkpt>
      <trkpt lat="47.77274" lon="-3.55919">
        <ele>28</ele>
        <time>2018-07-14T11:09:21Z</time>
      </trkpt>
      <trkpt lat="47.77277" lon="-3.55923">
        <ele>28</ele>
        <time>2018-07-14T11:09:22Z</time>
      </trkpt>
      <trkpt lat="47.77279" lon="-3.55928">
        <ele>28</ele>
        <time>2018-07-14T11:09:23Z</time>
      </trkpt>
      <trkpt lat="47.7728" lon="-3.55933">
        <ele>28</ele>
        <time>2018-07-14T11:09:24Z</time>
      </trkpt>
      <trkpt lat="47.77282" lon="-3.55938">
        <ele>28</ele>
        <time>2018-07-14T11:09:25Z</time>
      </trkpt>
      <trkpt lat="47.77283" lon="-3.55944">
        <ele>28</ele>
        <time>2018-07-14T11:09:26Z</time>
      </trkpt>
      <trkpt lat="47.77285" lon="-3.55949">
        <ele>28</ele>
        <time>2018-07-14T11:09:27Z</time>
      </trkpt>
      <trkpt lat="47.77286" lon="-3.55954">
        <ele>28</ele>
        <time>2018-07-14T11:09:28Z</time>
      </trkpt>
      <trkpt lat="47.77287" lon="-3.55958">
        <ele>28</ele>
        <time>2018-07-14T11:09:29Z</time>
      </trkpt>
      <trkpt lat="47.77289" lon="-3.55962">
        <ele>28</ele>
        <time>2018-07-14T11:09:30Z</time>
      </trkpt>
      <trkpt lat="47.7729" lon="-3.55966">
        <ele>29</ele>
        <time>2018-07-14T11:09:31Z</time>
      </trkpt>
      <trkpt lat="47.7729" lon="-3.5597">
        <ele>29</ele>
        <time>2018-07-14T11:09:32Z</time>
      </trkpt>
      <trkpt lat="47.77291" lon="-3.55972">
        <ele>29</ele>
        <time>2018-07-14T11:09:33Z</time>
      </trkpt>
      <trkpt lat="47.77292" lon="-3.55975">
        <ele>29</ele>
        <time>2018-07-14T11:09:34Z</time>
      </trkpt>
      <trkpt lat="47.77293" lon="-3.55978">
        <ele>29</ele>
        <time>2018-07-14T11:09:35Z</time>
      </trkpt>
      <trkpt lat="47.77295" lon="-3.5598">
        <ele>29</ele>
        <time>2018-07-14T11:09:36Z</time>
      </trkpt>
      <trkpt lat="47.77297" lon="-3.55983">
        <ele>29</ele>
        <time>2018-07-14T11:09:37Z</time>
      </trkpt>
      <trkpt lat="47.77299" lon="-3.55986">
        <ele>29</ele>
        <time>2018-07-14T11:09:38Z</time>
      </trkpt>
      <trkpt lat="47.77302" lon="-3.55989">
        <ele>29</ele>
        <time>2018-07-14T11:09:39Z</time>
      </trkpt>
      <trkpt lat="47.77304" lon="-3.55993">
        <ele>30</ele>
        <time>2018-07-14T11:09:40Z</time>
      </trkpt>
      <trkpt lat="47.77306" lon="-3.55997">
        <ele>30</ele>
        <time>2018-07-14T11:09:41Z</time>
      </trkpt>
      <trkpt lat="47.77308" lon="-3.56001">
        <ele>30</ele>
        <time>2018-07-14T11:09:42Z</time>
      </trkpt>
      <trkpt lat="47.7731" lon="-3.56005">
        <ele>30</ele>
        <time>2018-07-14T11:09:43Z</time>
      </trkpt>
      <trkpt lat="47.77311" lon="-3.56009">
        <ele>31</ele>
        <time>2018-07-14T11:09:44Z</time>
      </trkpt>
      <trkpt lat="47.77313" lon="-3.56013">
        <ele>31</ele>
        <time>2018-07-14T11:09:45Z</time>
      </trkpt>
      <trkpt lat="47.77314" lon="-3.56017">
        <ele>31</ele>
        <time>2018-07-14T11:09:46Z</time>
      </trkpt>
      <trkpt lat="47.77315" lon="-3.5602">
        <ele>31</ele>
        <time>2018-07-14T11:09:47Z</time>
      </trkpt>
      <trkpt lat="47.77316" lon="-3.56023">
        <ele>31</ele>
        <time>2018-07-14T11:09:48Z</time>
      </trkpt>
      <trkpt lat="47.77317" lon="-3.56027">
        <ele>31</ele>
        <time>2018-07-14T11:09:49Z</time>
      </trkpt>
      <trkpt lat="47.77318" lon="-3.5603">
        <ele>31</ele>
        <time>2018-07-14T11:09:50Z</time>
      </trkpt>
      <trkpt lat="47.77319" lon="-3.56033">
        <ele>31</ele>
        <time>2018-07-14T11:09:51Z</time>
      </trkpt>
      <trkpt lat="47.7732" lon="-3.56036">
        <ele>31</ele>
        <time>2018-07-14T11:09:52Z</time>
      </trkpt>
      <trkpt lat="47.77322" lon="-3.56039">
        <ele>31</ele>
        <time>2018-07-14T11:09:53Z</time>
      </trkpt>
      <trkpt lat="47.77323" lon="-3.56042">
        <ele>31</ele>
        <time>2018-07-14T11:09:54Z</time>
      </trkpt>
      <trkpt lat="47.77324" lon="-3.56044">
        <ele>31</ele>
        <time>2018-07-14T11:09:55Z</time>
      </trkpt>
      <trkpt lat="47.77326" lon="-3.56047">
        <ele>31</ele>
        <time>2018-07-14T11:09:56Z</time>
      </trkpt>
      <trkpt lat="47.77327" lon="-3.5605">
        <ele>31</ele>
        <time>2018-07-14T11:09:57Z</time>
      </trkpt>
      <trkpt lat="47.77329" lon="-3.56052">
        <ele>31</ele>
        <time>2018-07-14T11:09:58Z</time>
      </trkpt>
      <trkpt lat="47.77331" lon="-3.56054">
        <ele>31</ele>
        <time>2018-07-14T11:09:59Z</time>
      </trkpt>
      <trkpt lat="47.77333" lon="-3.56056">
        <ele>32</ele>
        <time>2018-07-14T11:10:00Z</time>
      </trkpt>
      <trkpt lat="47.77335" lon="-3.56058">
        <ele>32</ele>
        <time>2018-07-14T11:10:01Z</time>
      </trkpt>
      <trkpt lat="47.77338" lon="-3.5606">
        <ele>32</ele>
        <time>2018-07-14T11:10:02Z</time>
      </trkpt>
      <trkpt lat="47.77341" lon="-3.56062">
        <ele>32</ele>
        <time>2018-07-14T11:10:03Z</time>
      </trkpt>
      <trkpt lat="47.77343" lon="-3.56063">
        <ele>32</ele>
        <time>2018-07-14T11:10:04Z</time>
      </trkpt>
      <trkpt lat="47.77347" lon="-3.56065">
        <ele>32</ele>
        <time>2018-07-14T11:10:05Z</time>
      </trkpt>
      <trkpt lat="47.7735" lon="-3.56067">
        <ele>33</ele>
        <time>2018-07-14T11:10:06Z</time>
      </trkpt>
      <trkpt lat="47.77353" lon="-3.56068">
        <ele>33</ele>
        <time>2018-07-14T11:10:07Z</time>
      </trkpt>
      <trkpt lat="47.77356" lon="-3.56069">
        <ele>33</ele>
        <time>2018-07-14T11:10:08Z</time>
      </trkpt>
      <trkpt lat="47.7736" lon="-3.56069">
        <ele>33</ele>
        <time>2018-07-14T11:10:09Z</time>
      </trkpt>
      <trkpt lat="47.77363" lon="-3.5607">
        <ele>33</ele>
        <time>2018-07-14T11:10:10Z</time>
      </trkpt>
      <trkpt lat="47.77367" lon="-3.56071">
        <ele>34</ele>
        <time>2018-07-14T11:10:11Z</time>
      </trkpt>
      <trkpt lat="47.7737" lon="-3.56072">
        <ele>34</ele>
        <time>2018-07-14T11:10:12Z</time>
      </trkpt>
      <trkpt lat="47.77374" lon="-3.56073">
        <ele>34</ele>
        <time>2018-07-14T11:10:13Z</time>
      </trkpt>
      <trkpt lat="47.77377" lon="-3.56075">
        <ele>34</ele>
        <time>2018-07-14T11:10:14Z</time>
      </trkpt>
      <trkpt lat="47.77381" lon="-3.56077">
        <ele>34</ele>
        <time>2018-07-14T11:10:15Z</time>
      </trkpt>
      <trkpt lat="47.77384" lon="-3.56079">
        <ele>35</ele>
        <time>2018-07-14T11:10:16Z</time>
      </trkpt>
      <trkpt lat="47.77387" lon="-3.56081">
        <ele>35</ele>
        <time>2018-07-14T11:10:17Z</time>
      </trkpt>
      <trkpt lat="47.77391" lon="-3.56082">
        <ele>35</ele>
        <time>2018-07-14T11:10:18Z</time>
      </trkpt>
      <trkpt lat="47.77394" lon="-3.56084">
        <ele>35</ele>
        <time>2018-07-14T11:10:19Z</time>
      </trkpt>
      <trkpt lat="47.77398" lon="-3.56086">
        <ele>35</ele>
        <time>2018-07-14T11:10:20Z</time>
      </trkpt>
      <trkpt lat="47.77401" lon="-3.56088">
        <ele>35</ele>
        <time>2018-07-14T11:10:21Z</time>
      </trkpt>
      <trkpt lat="47.77405" lon="-3.5609">
        <ele>35</ele>
        <time>2018-07-14T11:10:22Z</time>
      </trkpt>
      <trkpt lat="47.77408" lon="-3.56092">
        <ele>36</ele>
        <time>2018-07-14T11:10:23Z</time>
      </trkpt>
      <trkpt lat="47.77412" lon="-3.56094">
        <ele>36</ele>
        <time>2018-07-14T11:10:24Z</time>
      </trkpt>
      <trkpt lat="47.77416" lon="-3.56096">
        <ele>36</ele>
        <time>2018-07-14T11:10:25Z</time>
      </trkpt>
      <trkpt lat="47.7742" lon="-3.56098">
        <ele>36</ele>
        <time>2018-07-14T11:10:26Z</time>
      </trkpt>
      <trkpt lat="47.77424" lon="-3.561">
        <ele>36</ele>
        <time>2018-07-14T11:10:27Z</time>
      </trkpt>
      <trkpt lat="47.77427" lon="-3.56102">
        <ele>36</ele>
        <time>2018-07-14T11:10:28Z</time>
      </trkpt>
      <trkpt lat="47.77431" lon="-3.56104">
        <ele>36</ele>
        <time>2018-07-14T11:10:29Z</time>
      </trkpt>
      <trkpt lat="47.77435" lon="-3.56106">
        <ele>37</ele>
        <time>2018-07-14T11:10:30Z</time>
      </trkpt>
      <trkpt lat="47.77439" lon="-3.56108">
        <ele>37</ele>
        <time>2018-07-14T11:10:31Z</time>
      </trkpt>
      <trkpt lat="47.77443" lon="-3.56111">
        <ele>37</ele>
        <time>2018-07-14T11:10:32Z</time>
      </trkpt>
      <trkpt lat="47.77447" lon="-3.56113">
        <ele>37</ele>
        <time>2018-07-14T11:10:33Z</time>
      </trkpt>
      <trkpt lat="47.77451" lon="-3.56115">
        <ele>37</ele>
        <time>2018-07-14T11:10:34Z</time>
      </trkpt>
      <trkpt lat="47.77455" lon="-3.56117">
        <ele>37</ele>
        <time>2018-07-14T11:10:35Z</time>
      </trkpt>
      <trkpt lat="47.77459" lon="-3.56119">
        <ele>38</ele>
        <time>2018-07-14T11:10:36Z</time>
      </trkpt>
      <trkpt lat="47.77463" lon="-3.56121">
        <ele>38</ele>
        <time>2018-07-14T11:10:37Z</time>
      </trkpt>
      <trkpt lat="47.77467" lon="-3.56123">
        <ele>38</ele>
        <time>2018-07-14T11:10:38Z</time>
      </trkpt>
      <trkpt lat="47.77471" lon="-3.56126">
        <ele>38</ele>
        <time>2018-07-14T11:10:39Z</time>
      </trkpt>
      <trkpt lat="47.77475" lon="-3.56128">
        <ele>38</ele>
        <time>2018-07-14T11:10:40Z</time>
      </trkpt>
      <trkpt lat="47.77479" lon="-3.5613">
        <ele>38</ele>
        <time>2018-07-14T11:10:41Z</time>
      </trkpt>
      <trkpt lat="47.77483" lon="-3.56132">
        <ele>38</ele>
        <time>2018-07-14T11:10:42Z</time>
      </trkpt>
      <trkpt lat="47.77487" lon="-3.56134">
        <ele>39</ele>
        <time>2018-07-14T11:10:43Z</time>
      </trkpt>
      <trkpt lat="47.77491" lon="-3.56136">
        <ele>39</ele>
        <time>2018-07-14T11:10:44Z</time>
      </trkpt>
      <trkpt lat="47.77495" lon="-3.56138">
        <ele>39</ele>
        <time>2018-07-14T11:10:45Z</time>
      </trkpt>
      <trkpt lat="47.77499" lon="-3.5614">
        <ele>39</ele>
        <time>2018-07-14T11:10:46Z</time>
      </trkpt>
      <trkpt lat="47.77503" lon="-3.56142">
        <ele>39</ele>
        <time>2018-07-14T11:10:47Z</time>
      </trkpt>
      <trkpt lat="47.77507" lon="-3.56145">
        <ele>39</ele>
        <time>2018-07-14T11:10:48Z</time>
      </trkpt>
      <trkpt lat="47.77511" lon="-3.56147">
        <ele>39</ele>
        <time>2018-07-14T11:10:49Z</time>
      </trkpt>
      <trkpt lat="47.77515" lon="-3.56149">
        <ele>39</ele>
        <time>2018-07-14T11:10:50Z</time>
      </trkpt>
      <trkpt lat="47.77519" lon="-3.56151">
        <ele>39</ele>
        <time>2018-07-14T11:10:51Z</time>
      </trkpt>
      <trkpt lat="47.77523" lon="-3.56153">
        <ele>39</ele>
        <time>2018-07-14T11:10:52Z</time>
      </trkpt>
      <trkpt lat="47.77527" lon="-3.56156">
        <ele>40</ele>
        <time>2018-07-14T11:10:53Z</time>
      </trkpt>
      <trkpt lat="47.77531" lon="-3.56159">
        <ele>40</ele>
        <time>2018-07-14T11:10:54Z</time>
      </trkpt>
      <trkpt lat="47.77535" lon="-3.56162">
        <ele>40</ele>
        <time>2018-07-14T11:10:55Z</time>
      </trkpt>
      <trkpt lat="47.77539" lon="-3.56165">
        <ele>40</ele>
        <time>2018-07-14T11:10:56Z</time>
      </trkpt>
      <trkpt lat="47.77543" lon="-3.56169">
        <ele>40</ele>
        <time>2018-07-14T11:10:57Z</time>
      </trkpt>
      <trkpt lat="47.77547" lon="-3.56172">
        <ele>40</ele>
        <time>2018-07-14T11:10:58Z</time>
      </trkpt>
      <trkpt lat="47.77551" lon="-3.56175">
        <ele>40</ele>
        <time>2018-07-14T11:10:59Z</time>
      </trkpt>
      <trkpt lat="47.77555" lon="-3.56178">
        <ele>40</ele>
        <time>2018-07-14T11:11:00Z</time>
      </trkpt>
      <trkpt lat="47.77559" lon="-3.56181">
        <ele>40</ele>
        <time>2018-07-14T11:11:01Z</time>
      </trkpt>
      <trkpt lat="47.77563" lon="-3.56184">
        <ele>40</ele>
        <time>2018-07-14T11:11:02Z</time>
      </trkpt>
      <trkpt lat="47.77567" lon="-3.56187">
        <ele>41</ele>
        <time>2018-07-14T11:11:03Z</time>
      </trkpt>
      <trkpt lat="47.77571" lon="-3.5619">
        <ele>41</ele>
        <time>2018-07-14T11:11:04Z</time>
      </trkpt>
      <trkpt lat="47.77575" lon="-3.56193">
        <ele>41</ele>
        <time>2018-07-14T11:11:05Z</time>
      </trkpt>
      <trkpt lat="47.77579" lon="-3.56195">
        <ele>41</ele>
        <time>2018-07-14T11:11:06Z</time>
      </trkpt>
      <trkpt lat="47.77583" lon="-3.56198">
        <ele>41</ele>
        <time>2018-07-14T11:11:07Z</time>
      </trkpt>
      <trkpt lat="47.77587" lon="-3.56201">
        <ele>41</ele>
        <time>2018-07-14T11:11:08Z</time>
      </trkpt>
      <trkpt lat="47.77592" lon="-3.56203">
        <ele>41</ele>
        <time>2018-07-14T11:11:09Z</time>
      </trkpt>
      <trkpt lat="47.77596" lon="-3.56206">
        <ele>41</ele>
        <time>2018-07-14T11:11:10Z</time>
      </trkpt>
      <trkpt lat="47.776" lon="-3.56208">
        <ele>41</ele>
        <time>2018-07-14T11:11:11Z</time>
      </trkpt>
      <trkpt lat="47.77605" lon="-3.56211">
        <ele>41</ele>
        <time>2018-07-14T11:11:12Z</time>
      </trkpt>
      <trkpt lat="47.77609" lon="-3.56213">
        <ele>41</ele>
        <time>2018-07-14T11:11:13Z</time>
      </trkpt>
      <trkpt lat="47.77613" lon="-3.56216">
        <ele>41</ele>
        <time>2018-07-14T11:11:14Z</time>
      </trkpt>
      <trkpt lat="47.77617" lon="-3.56218">
        <ele>41</ele>
        <time>2018-07-14T11:11:15Z</time>
      </trkpt>
      <trkpt lat="47.77621" lon="-3.56221">
        <ele>41</ele>
        <time>2018-07-14T11:11:16Z</time>
      </trkpt>
      <trkpt lat="47.77626" lon="-3.56224">
        <ele>41</ele>
        <time>2018-07-14T11:11:17Z</time>
      </trkpt>
      <trkpt lat="47.7763" lon="-3.56227">
        <ele>41</ele>
        <time>2018-07-14T11:11:18Z</time>
      </trkpt>
      <trkpt lat="47.77634" lon="-3.56229">
        <ele>41</ele>
        <time>2018-07-14T11:11:19Z</time>
      </trkpt>
      <trkpt lat="47.77638" lon="-3.56232">
        <ele>41</ele>
        <time>2018-07-14T11:11:20Z</time>
      </trkpt>
      <trkpt lat="47.77642" lon="-3.56235">
        <ele>41</ele>
        <time>2018-07-14T11:11:21Z</time>
      </trkpt>
      <trkpt lat="47.77647" lon="-3.56237">
        <ele>41</ele>
        <time>2018-07-14T11:11:22Z</time>
      </trkpt>
      <trkpt lat="47.77651" lon="-3.5624">
        <ele>41</ele>
        <time>2018-07-14T11:11:23Z</time>
      </trkpt>
      <trkpt lat="47.77654" lon="-3.56243">
        <ele>41</ele>
        <time>2018-07-14T11:11:24Z</time>
      </trkpt>
      <trkpt lat="47.77659" lon="-3.56245">
        <ele>41</ele>
        <time>2018-07-14T11:11:25Z</time>
      </trkpt>
      <trkpt lat="47.77663" lon="-3.56248">
        <ele>41</ele>
        <time>2018-07-14T11:11:26Z</time>
      </trkpt>
      <trkpt lat="47.77667" lon="-3.5625">
        <ele>41</ele>
        <time>2018-07-14T11:11:27Z</time>
      </trkpt>
      <trkpt lat="47.77671" lon="-3.56252">
        <ele>41</ele>
        <time>2018-07-14T11:11:28Z</time>
      </trkpt>
      <trkpt lat="47.77675" lon="-3.56253">
        <ele>41</ele>
        <time>2018-07-14T11:11:29Z</time>
      </trkpt>
      <trkpt lat="47.7768" lon="-3.56255">
        <ele>41</ele>
        <time>2018-07-14T11:11:30Z</time>
      </trkpt>
      <trkpt lat="47.77684" lon="-3.56257">
        <ele>41</ele>
        <time>2018-07-14T11:11:31Z</time>
      </trkpt>
      <trkpt lat="47.77689" lon="-3.5626">
        <ele>41</ele>
        <time>2018-07-14T11:11:32Z</time>
      </trkpt>
      <trkpt lat="47.77694" lon="-3.56263">
        <ele>41</ele>
        <time>2018-07-14T11:11:33Z</time>
      </trkpt>
      <trkpt lat="47.77699" lon="-3.56267">
        <ele>41</ele>
        <time>2018-07-14T11:11:34Z</time>
      </trkpt>
      <trkpt lat="47.77703" lon="-3.56272">
        <ele>42</ele>
        <time>2018-07-14T11:11:35Z</time>
      </trkpt>
      <trkpt lat="47.77706" lon="-3.56277">
        <ele>42</ele>
        <time>2018-07-14T11:11:36Z</time>
      </trkpt>
      <trkpt lat="47.77708" lon="-3.56284">
        <ele>42</ele>
        <time>2018-07-14T11:11:37Z</time>
      </trkpt>
      <trkpt lat="47.7771" lon="-3.56291">
        <ele>41</ele>
        <time>2018-07-14T11:11:38Z</time>
      </trkpt>
      <trkpt lat="47.77712" lon="-3.56298">
        <ele>41</ele>
        <time>2018-07-14T11:11:39Z</time>
      </trkpt>
      <trkpt lat="47.77712" lon="-3.56306">
        <ele>42</ele>
        <time>2018-07-14T11:11:40Z</time>
      </trkpt>
      <trkpt lat="47.77713" lon="-3.56313">
        <ele>42</ele>
        <time>2018-07-14T11:11:41Z</time>
      </trkpt>
      <trkpt lat="47.77713" lon="-3.56319">
        <ele>42</ele>
        <time>2018-07-14T11:11:42Z</time>
      </trkpt>
      <trkpt lat="47.77713" lon="-3.56326">
        <ele>42</ele>
        <time>2018-07-14T11:11:43Z</time>
      </trkpt>
      <trkpt lat="47.77713" lon="-3.56332">
        <ele>43</ele>
        <time>2018-07-14T11:11:44Z</time>
      </trkpt>
      <trkpt lat="47.77713" lon="-3.56337">
        <ele>43</ele>
        <time>2018-07-14T11:11:45Z</time>
      </trkpt>
      <trkpt lat="47.77712" lon="-3.56341">
        <ele>44</ele>
        <time>2018-07-14T11:11:46Z</time>
      </trkpt>
      <trkpt lat="47.7771" lon="-3.56345">
        <ele>44</ele>
        <time>2018-07-14T11:11:47Z</time>
      </trkpt>
      <trkpt lat="47.77708" lon="-3.56348">
        <ele>44</ele>
        <time>2018-07-14T11:11:48Z</time>
      </trkpt>
      <trkpt lat="47.77705" lon="-3.56351">
        <ele>45</ele>
        <time>2018-07-14T11:11:49Z</time>
      </trkpt>
      <trkpt lat="47.77701" lon="-3.56353">
        <ele>45</ele>
        <time>2018-07-14T11:11:50Z</time>
      </trkpt>
      <trkpt lat="47.77696" lon="-3.56354">
        <ele>45</ele>
        <time>2018-07-14T11:11:51Z</time>
      </trkpt>
      <trkpt lat="47.77691" lon="-3.56353">
        <ele>45</ele>
        <time>2018-07-14T11:11:52Z</time>
      </trkpt>
      <trkpt lat="47.77686" lon="-3.56352">
        <ele>46</ele>
        <time>2018-07-14T11:11:53Z</time>
      </trkpt>
      <trkpt lat="47.77681" lon="-3.56351">
        <ele>46</ele>
        <time>2018-07-14T11:11:54Z</time>
      </trkpt>
      <trkpt lat="47.77676" lon="-3.56351">
        <ele>46</ele>
        <time>2018-07-14T11:11:55Z</time>
      </trkpt>
      <trkpt lat="47.77671" lon="-3.56351">
        <ele>46</ele>
        <time>2018-07-14T11:11:56Z</time>
      </trkpt>
      <trkpt lat="47.77666" lon="-3.56351">
        <ele>47</ele>
        <time>2018-07-14T11:11:57Z</time>
      </trkpt>
      <trkpt lat="47.77661" lon="-3.5635">
        <ele>47</ele>
        <time>2018-07-14T11:11:58Z</time>
      </trkpt>
      <trkpt lat="47.77657" lon="-3.56349">
        <ele>47</ele>
        <time>2018-07-14T11:11:59Z</time>
      </trkpt>
      <trkpt lat="47.77652" lon="-3.56348">
        <ele>47</ele>
        <time>2018-07-14T11:12:00Z</time>
      </trkpt>
      <trkpt lat="47.77647" lon="-3.56346">
        <ele>47</ele>
        <time>2018-07-14T11:12:01Z</time>
      </trkpt>
      <trkpt lat="47.77642" lon="-3.56346">
        <ele>47</ele>
        <time>2018-07-14T11:12:02Z</time>
      </trkpt>
      <trkpt lat="47.77637" lon="-3.56345">
        <ele>48</ele>
        <time>2018-07-14T11:12:03Z</time>
      </trkpt>
      <trkpt lat="47.77632" lon="-3.56344">
        <ele>48</ele>
        <time>2018-07-14T11:12:04Z</time>
      </trkpt>
      <trkpt lat="47.77628" lon="-3.56343">
        <ele>48</ele>
        <time>2018-07-14T11:12:05Z</time>
      </trkpt>
      <trkpt lat="47.77623" lon="-3.56342">
        <ele>48</ele>
        <time>2018-07-14T11:12:06Z</time>
      </trkpt>
      <trkpt lat="47.77618" lon="-3.56342">
        <ele>48</ele>
        <time>2018-07-14T11:12:07Z</time>
      </trkpt>
      <trkpt lat="47.77613" lon="-3.56343">
        <ele>48</ele>
        <time>2018-07-14T11:12:08Z</time>
      </trkpt>
      <trkpt lat="47.77608" lon="-3.56344">
        <ele>48</ele>
        <time>2018-07-14T11:12:09Z</time>
      </trkpt>
      <trkpt lat="47.77603" lon="-3.56345">
        <ele>48</ele>
        <time>2018-07-14T11:12:10Z</time>
      </trkpt>
      <trkpt lat="47.77598" lon="-3.56346">
        <ele>48</ele>
        <time>2018-07-14T11:12:11Z</time>
      </trkpt>
      <trkpt lat="47.77594" lon="-3.56348">
        <ele>48</ele>
        <time>2018-07-14T11:12:12Z</time>
      </trkpt>
      <trkpt lat="47.77589" lon="-3.5635">
        <ele>48</ele>
        <time>2018-07-14T11:12:13Z</time>
      </trkpt>
      <trkpt lat="47.77586" lon="-3.56354">
        <ele>48</ele>
        <time>2018-07-14T11:12:14Z</time>
      </trkpt>
      <trkpt lat="47.77582" lon="-3.56357">
        <ele>48</ele>
        <time>2018-07-14T11:12:15Z</time>
      </trkpt>
      <trkpt lat="47.77579" lon="-3.56361">
        <ele>48</ele>
        <time>2018-07-14T11:12:16Z</time>
      </trkpt>
      <trkpt lat="47.77576" lon="-3.56365">
        <ele>48</ele>
        <time>2018-07-14T11:12:17Z</time>
      </trkpt>
      <trkpt lat="47.77573" lon="-3.56369">
        <ele>48</ele>
        <time>2018-07-14T11:12:18Z</time>
      </trkpt>
      <trkpt lat="47.7757" lon="-3.56373">
        <ele>48</ele>
        <time>2018-07-14T11:12:19Z</time>
      </trkpt>
      <trkpt lat="47.77568" lon="-3.56378">
        <ele>48</ele>
        <time>2018-07-14T11:12:20Z</time>
      </trkpt>
      <trkpt lat="47.77565" lon="-3.56383">
        <ele>47</ele>
        <time>2018-07-14T11:12:21Z</time>
      </trkpt>
      <trkpt lat="47.77562" lon="-3.56388">
        <ele>47</ele>
        <time>2018-07-14T11:12:22Z</time>
      </trkpt>
      <trkpt lat="47.77559" lon="-3.56394">
        <ele>47</ele>
        <time>2018-07-14T11:12:23Z</time>
      </trkpt>
      <trkpt lat="47.77556" lon="-3.564">
        <ele>47</ele>
        <time>2018-07-14T11:12:24Z</time>
      </trkpt>
      <trkpt lat="47.77553" lon="-3.56406">
        <ele>47</ele>
        <time>2018-07-14T11:12:25Z</time>
      </trkpt>
      <trkpt lat="47.7755" lon="-3.56412">
        <ele>47</ele>
        <time>2018-07-14T11:12:26Z</time>
      </trkpt>
      <trkpt lat="47.77546" lon="-3.56417">
        <ele>46</ele>
        <time>2018-07-14T11:12:27Z</time>
      </trkpt>
      <trkpt lat="47.77542" lon="-3.56422">
        <ele>46</ele>
        <time>2018-07-14T11:12:28Z</time>
      </trkpt>
      <trkpt lat="47.77537" lon="-3.56427">
        <ele>46</ele>
        <time>2018-07-14T11:12:29Z</time>
      </trkpt>
      <trkpt lat="47.77532" lon="-3.56433">
        <ele>46</ele>
        <time>2018-07-14T11:12:30Z</time>
      </trkpt>
      <trkpt lat="47.77527" lon="-3.56438">
        <ele>46</ele>
        <time>2018-07-14T11:12:31Z</time>
      </trkpt>
      <trkpt lat="47.77523" lon="-3.56444">
        <ele>46</ele>
        <time>2018-07-14T11:12:32Z</time>
      </trkpt>
      <trkpt lat="47.77518" lon="-3.5645">
        <ele>45</ele>
        <time>2018-07-14T11:12:33Z</time>
      </trkpt>
      <trkpt lat="47.77514" lon="-3.56457">
        <ele>45</ele>
        <time>2018-07-14T11:12:34Z</time>
      </trkpt>
      <trkpt lat="47.77509" lon="-3.56463">
        <ele>45</ele>
        <time>2018-07-14T11:12:35Z</time>
      </trkpt>
      <trkpt lat="47.77505" lon="-3.5647">
        <ele>45</ele>
        <time>2018-07-14T11:12:36Z</time>
      </trkpt>
      <trkpt lat="47.77502" lon="-3.56476">
        <ele>45</ele>
        <time>2018-07-14T11:12:37Z</time>
      </trkpt>
      <trkpt lat="47.77498" lon="-3.56483">
        <ele>44</ele>
        <time>2018-07-14T11:12:38Z</time>
      </trkpt>
      <trkpt lat="47.77494" lon="-3.5649">
        <ele>44</ele>
        <time>2018-07-14T11:12:39Z</time>
      </trkpt>
      <trkpt lat="47.7749" lon="-3.56496">
        <ele>44</ele>
        <time>2018-07-14T11:12:40Z</time>
      </trkpt>
      <trkpt lat="47.77487" lon="-3.56503">
        <ele>44</ele>
        <time>2018-07-14T11:12:41Z</time>
      </trkpt>
      <trkpt lat="47.77484" lon="-3.56511">
        <ele>44</ele>
        <time>2018-07-14T11:12:42Z</time>
      </trkpt>
      <trkpt lat="47.77481" lon="-3.56518">
        <ele>44</ele>
        <time>2018-07-14T11:12:43Z</time>
      </trkpt>
      <trkpt lat="47.77478" lon="-3.56524">
        <ele>45</ele>
        <time>2018-07-14T11:12:44Z</time>
      </trkpt>
      <trkpt lat="47.77475" lon="-3.5653">
        <ele>45</ele>
        <time>2018-07-14T11:12:45Z</time>
      </trkpt>
      <trkpt lat="47.77472" lon="-3.56535">
        <ele>45</ele>
        <time>2018-07-14T11:12:46Z</time>
      </trkpt>
      <trkpt lat="47.77468" lon="-3.56539">
        <ele>45</ele>
        <time>2018-07-14T11:12:47Z</time>
      </trkpt>
      <trkpt lat="47.77464" lon="-3.56542">
        <ele>45</ele>
        <time>2018-07-14T11:12:48Z</time>
      </trkpt>
      <trkpt lat="47.7746" lon="-3.56545">
        <ele>45</ele>
        <time>2018-07-14T11:12:49Z</time>
      </trkpt>
      <trkpt lat="47.77456" lon="-3.56547">
        <ele>45</ele>
        <time>2018-07-14T11:12:50Z</time>
      </trkpt>
      <trkpt lat="47.77451" lon="-3.56547">
        <ele>45</ele>
        <time>2018-07-14T11:12:51Z</time>
      </trkpt>
      <trkpt lat="47.77447" lon="-3.56545">
        <ele>45</ele>
        <time>2018-07-14T11:12:52Z</time>
      </trkpt>
      <trkpt lat="47.77442" lon="-3.56542">
        <ele>45</ele>
        <time>2018-07-14T11:12:53Z</time>
      </trkpt>
      <trkpt lat="47.77437" lon="-3.56539">
        <ele>45</ele>
        <time>2018-07-14T11:12:54Z</time>
      </trkpt>
      <trkpt lat="47.77433" lon="-3.56536">
        <ele>45</ele>
        <time>2018-07-14T11:12:55Z</time>
      </trkpt>
      <trkpt lat="47.7743" lon="-3.56535">
        <ele>45</ele>
        <time>2018-07-14T11:12:56Z</time>
      </trkpt>
      <trkpt lat="47.77428" lon="-3.56533">
        <ele>45</ele>
        <time>2018-07-14T11:12:57Z</time>
      </trkpt>
      <trkpt lat="47.77428" lon="-3.56533">
        <ele>45</ele>
        <time>2018-07-14T11:12:58Z</time>
      </trkpt>
      <trkpt lat="47.77428" lon="-3.56533">
        <ele>45</ele>
        <time>2018-07-14T11:12:59Z</time>
      </trkpt>
      <trkpt lat="47.77428" lon="-3.56534">
        <ele>46</ele>
        <time>2018-07-14T11:13:00Z</time>
      </trkpt>
      <trkpt lat="47.7743" lon="-3.56537">
        <ele>45</ele>
        <time>2018-07-14T11:13:01Z</time>
      </trkpt>
      <trkpt lat="47.7743" lon="-3.56541">
        <ele>45</ele>
        <time>2018-07-14T11:13:02Z</time>
      </trkpt>
      <trkpt lat="47.77431" lon="-3.56544">
        <ele>45</ele>
        <time>2018-07-14T11:13:03Z</time>
      </trkpt>
      <trkpt lat="47.7743" lon="-3.56546">
        <ele>45</ele>
        <time>2018-07-14T11:13:04Z</time>
      </trkpt>
      <trkpt lat="47.77428" lon="-3.56549">
        <ele>45</ele>
        <time>2018-07-14T11:13:05Z</time>
      </trkpt>
      <trkpt lat="47.77427" lon="-3.5655">
        <ele>45</ele>
        <time>2018-07-14T11:13:06Z</time>
      </trkpt>
      <trkpt lat="47.77424" lon="-3.56551">
        <ele>45</ele>
        <time>2018-07-14T11:13:07Z</time>
      </trkpt>
      <trkpt lat="47.77421" lon="-3.56552">
        <ele>45</ele>
        <time>2018-07-14T11:13:08Z</time>
      </trkpt>
      <trkpt lat="47.77417" lon="-3.56552">
        <ele>45</ele>
        <time>2018-07-14T11:13:09Z</time>
      </trkpt>
      <trkpt lat="47.77412" lon="-3.56552">
        <ele>45</ele>
        <time>2018-07-14T11:13:10Z</time>
      </trkpt>
      <trkpt lat="47.77408" lon="-3.56551">
        <ele>45</ele>
        <time>2018-07-14T11:13:11Z</time>
      </trkpt>
      <trkpt lat="47.77403" lon="-3.56551">
        <ele>45</ele>
        <time>2018-07-14T11:13:12Z</time>
      </trkpt>
      <trkpt lat="47.77398" lon="-3.56551">
        <ele>45</ele>
        <time>2018-07-14T11:13:13Z</time>
      </trkpt>
      <trkpt lat="47.77394" lon="-3.5655">
        <ele>45</ele>
        <time>2018-07-14T11:13:14Z</time>
      </trkpt>
      <trkpt lat="47.77389" lon="-3.56549">
        <ele>45</ele>
        <time>2018-07-14T11:13:15Z</time>
      </trkpt>
      <trkpt lat="47.77384" lon="-3.56548">
        <ele>45</ele>
        <time>2018-07-14T11:13:16Z</time>
      </trkpt>
      <trkpt lat="47.77378" lon="-3.56548">
        <ele>45</ele>
        <time>2018-07-14T11:13:17Z</time>
      </trkpt>
      <trkpt lat="47.77373" lon="-3.56546">
        <ele>45</ele>
        <time>2018-07-14T11:13:18Z</time>
      </trkpt>
      <trkpt lat="47.77368" lon="-3.56545">
        <ele>45</ele>
        <time>2018-07-14T11:13:19Z</time>
      </trkpt>
      <trkpt lat="47.77362" lon="-3.56543">
        <ele>45</ele>
        <time>2018-07-14T11:13:20Z</time>
      </trkpt>
      <trkpt lat="47.77357" lon="-3.56541">
        <ele>45</ele>
        <time>2018-07-14T11:13:21Z</time>
      </trkpt>
      <trkpt lat="47.77352" lon="-3.56539">
        <ele>45</ele>
        <time>2018-07-14T11:13:22Z</time>
      </trkpt>
      <trkpt lat="47.77346" lon="-3.56536">
        <ele>45</ele>
        <time>2018-07-14T11:13:23Z</time>
      </trkpt>
      <trkpt lat="47.77341" lon="-3.56534">
        <ele>45</ele>
        <time>2018-07-14T11:13:24Z</time>
      </trkpt>
      <trkpt lat="47.77336" lon="-3.56532">
        <ele>45</ele>
        <time>2018-07-14T11:13:25Z</time>
      </trkpt>
      <trkpt lat="47.77331" lon="-3.56529">
        <ele>45</ele>
        <time>2018-07-14T11:13:26Z</time>
      </trkpt>
      <trkpt lat="47.77326" lon="-3.56526">
        <ele>44</ele>
        <time>2018-07-14T11:13:27Z</time>
      </trkpt>
      <trkpt lat="47.77322" lon="-3.56522">
        <ele>44</ele>
        <time>2018-07-14T11:13:28Z</time>
      </trkpt>
      <trkpt lat="47.77317" lon="-3.56518">
        <ele>44</ele>
        <time>2018-07-14T11:13:29Z</time>
      </trkpt>
      <trkpt lat="47.77313" lon="-3.56515">
        <ele>44</ele>
        <time>2018-07-14T11:13:30Z</time>
      </trkpt>
      <trkpt lat="47.77308" lon="-3.56512">
        <ele>44</ele>
        <time>2018-07-14T11:13:31Z</time>
      </trkpt>
      <trkpt lat="47.77303" lon="-3.5651">
        <ele>44</ele>
        <time>2018-07-14T11:13:32Z</time>
      </trkpt>
      <trkpt lat="47.77298" lon="-3.56508">
        <ele>44</ele>
        <time>2018-07-14T11:13:33Z</time>
      </trkpt>
      <trkpt lat="47.77293" lon="-3.56505">
        <ele>44</ele>
        <time>2018-07-14T11:13:34Z</time>
      </trkpt>
      <trkpt lat="47.77289" lon="-3.56502">
        <ele>44</ele>
        <time>2018-07-14T11:13:35Z</time>
      </trkpt>
      <trkpt lat="47.77284" lon="-3.56501">
        <ele>44</ele>
        <time>2018-07-14T11:13:36Z</time>
      </trkpt>
      <trkpt lat="47.7728" lon="-3.56499">
        <ele>44</ele>
        <time>2018-07-14T11:13:37Z</time>
      </trkpt>
      <trkpt lat="47.77274" lon="-3.56499">
        <ele>44</ele>
        <time>2018-07-14T11:13:38Z</time>
      </trkpt>
      <trkpt lat="47.77269" lon="-3.565">
        <ele>44</ele>
        <time>2018-07-14T11:13:39Z</time>
      </trkpt>
      <trkpt lat="47.77263" lon="-3.56502">
        <ele>44</ele>
        <time>2018-07-14T11:13:40Z</time>
      </trkpt>
      <trkpt lat="47.77257" lon="-3.56505">
        <ele>44</ele>
        <time>2018-07-14T11:13:41Z</time>
      </trkpt>
      <trkpt lat="47.77253" lon="-3.56509">
        <ele>44</ele>
        <time>2018-07-14T11:13:42Z</time>
      </trkpt>
      <trkpt lat="47.77248" lon="-3.56515">
        <ele>44</ele>
        <time>2018-07-14T11:13:43Z</time>
      </trkpt>
      <trkpt lat="47.77243" lon="-3.5652">
        <ele>43</ele>
        <time>2018-07-14T11:13:44Z</time>
      </trkpt>
      <trkpt lat="47.77238" lon="-3.56526">
        <ele>43</ele>
        <time>2018-07-14T11:13:45Z</time>
      </trkpt>
      <trkpt lat="47.77233" lon="-3.56531">
        <ele>43</ele>
        <time>2018-07-14T11:13:46Z</time>
      </trkpt>
      <trkpt lat="47.77228" lon="-3.56535">
        <ele>43</ele>
        <time>2018-07-14T11:13:47Z</time>
      </trkpt>
      <trkpt lat="47.77223" lon="-3.56539">
        <ele>43</ele>
        <time>2018-07-14T11:13:48Z</time>
      </trkpt>
      <trkpt lat="47.77217" lon="-3.56543">
        <ele>43</ele>
        <time>2018-07-14T11:13:49Z</time>
      </trkpt>
      <trkpt lat="47.77212" lon="-3.56547">
        <ele>43</ele>
        <time>2018-07-14T11:13:50Z</time>
      </trkpt>
      <trkpt lat="47.77206" lon="-3.56551">
        <ele>43</ele>
        <time>2018-07-14T11:13:51Z</time>
      </trkpt>
      <trkpt lat="47.77201" lon="-3.56554">
        <ele>43</ele>
        <time>2018-07-14T11:13:52Z</time>
      </trkpt>
      <trkpt lat="47.77195" lon="-3.56558">
        <ele>43</ele>
        <time>2018-07-14T11:13:53Z</time>
      </trkpt>
      <trkpt lat="47.7719" lon="-3.56563">
        <ele>42</ele>
        <time>2018-07-14T11:13:54Z</time>
      </trkpt>
      <trkpt lat="47.77184" lon="-3.56568">
        <ele>42</ele>
        <time>2018-07-14T11:13:55Z</time>
      </trkpt>
      <trkpt lat="47.77178" lon="-3.56573">
        <ele>42</ele>
        <time>2018-07-14T11:13:56Z</time>
      </trkpt>
      <trkpt lat="47.77173" lon="-3.56578">
        <ele>42</ele>
        <time>2018-07-14T11:13:57Z</time>
      </trkpt>
      <trkpt lat="47.77168" lon="-3.56584">
        <ele>42</ele>
        <time>2018-07-14T11:13:58Z</time>
      </trkpt>
      <trkpt lat="47.77163" lon="-3.56591">
        <ele>41</ele>
        <time>2018-07-14T11:13:59Z</time>
      </trkpt>
      <trkpt lat="47.77159" lon="-3.566">
        <ele>41</ele>
        <time>2018-07-14T11:14:00Z</time>
      </trkpt>
      <trkpt lat="47.77155" lon="-3.56609">
        <ele>41</ele>
        <time>2018-07-14T11:14:01Z</time>
      </trkpt>
      <trkpt lat="47.7715" lon="-3.5662">
        <ele>40</ele>
        <time>2018-07-14T11:14:02Z</time>
      </trkpt>
      <trkpt lat="47.77146" lon="-3.56633">
        <ele>40</ele>
        <time>2018-07-14T11:14:03Z</time>
      </trkpt>
      <trkpt lat="47.77142" lon="-3.56646">
        <ele>39</ele>
        <time>2018-07-14T11:14:04Z</time>
      </trkpt>
      <trkpt lat="47.77138" lon="-3.5666">
        <ele>39</ele>
        <time>2018-07-14T11:14:05Z</time>
      </trkpt>
      <trkpt lat="47.77135" lon="-3.56673">
        <ele>38</ele>
        <time>2018-07-14T11:14:06Z</time>
      </trkpt>
      <trkpt lat="47.77131" lon="-3.56685">
        <ele>38</ele>
        <time>2018-07-14T11:14:07Z</time>
      </trkpt>
      <trkpt lat="47.77128" lon="-3.56696">
        <ele>38</ele>
        <time>2018-07-14T11:14:08Z</time>
      </trkpt>
      <trkpt lat="47.77126" lon="-3.56707">
        <ele>37</ele>
        <time>2018-07-14T11:14:09Z</time>
      </trkpt>
      <trkpt lat="47.77124" lon="-3.56716">
        <ele>37</ele>
        <time>2018-07-14T11:14:10Z</time>
      </trkpt>
      <trkpt lat="47.77122" lon="-3.56725">
        <ele>37</ele>
        <time>2018-07-14T11:14:11Z</time>
      </trkpt>
      <trkpt lat="47.7712" lon="-3.56734">
        <ele>37</ele>
        <time>2018-07-14T11:14:12Z</time>
      </trkpt>
      <trkpt lat="47.77119" lon="-3.56742">
        <ele>37</ele>
        <time>2018-07-14T11:14:13Z</time>
      </trkpt>
      <trkpt lat="47.77117" lon="-3.56751">
        <ele>37</ele>
        <time>2018-07-14T11:14:14Z</time>
      </trkpt>
      <trkpt lat="47.77115" lon="-3.56759">
        <ele>37</ele>
        <time>2018-07-14T11:14:15Z</time>
      </trkpt>
      <trkpt lat="47.77113" lon="-3.56768">
        <ele>38</ele>
        <time>2018-07-14T11:14:16Z</time>
      </trkpt>
      <trkpt lat="47.77112" lon="-3.56776">
        <ele>38</ele>
        <time>2018-07-14T11:14:17Z</time>
      </trkpt>
      <trkpt lat="47.7711" lon="-3.56784">
        <ele>38</ele>
        <time>2018-07-14T11:14:18Z</time>
      </trkpt>
      <trkpt lat="47.77109" lon="-3.56792">
        <ele>38</ele>
        <time>2018-07-14T11:14:19Z</time>
      </trkpt>
      <trkpt lat="47.77107" lon="-3.568">
        <ele>38</ele>
        <time>2018-07-14T11:14:20Z</time>
      </trkpt>
      <trkpt lat="47.77106" lon="-3.56808">
        <ele>38</ele>
        <time>2018-07-14T11:14:21Z</time>
      </trkpt>
      <trkpt lat="47.77106" lon="-3.56814">
        <ele>39</ele>
        <time>2018-07-14T11:14:22Z</time>
      </trkpt>
      <trkpt lat="47.77106" lon="-3.56819">
        <ele>39</ele>
        <time>2018-07-14T11:14:23Z</time>
      </trkpt>
      <trkpt lat="47.77109" lon="-3.56821">
        <ele>39</ele>
        <time>2018-07-14T11:14:24Z</time>
      </trkpt>
      <trkpt lat="47.77111" lon="-3.56821">
        <ele>39</ele>
        <time>2018-07-14T11:14:25Z</time>
      </trkpt>
      <trkpt lat="47.77114" lon="-3.56819">
        <ele>39</ele>
        <time>2018-07-14T11:14:26Z</time>
      </trkpt>
      <trkpt lat="47.77118" lon="-3.56819">
        <ele>39</ele>
        <time>2018-07-14T11:14:27Z</time>
      </trkpt>
      <trkpt lat="47.77122" lon="-3.56819">
        <ele>39</ele>
        <time>2018-07-14T11:14:28Z</time>
      </trkpt>
      <trkpt lat="47.77126" lon="-3.5682">
        <ele>39</ele>
        <time>2018-07-14T11:14:29Z</time>
      </trkpt>
      <trkpt lat="47.7713" lon="-3.56821">
        <ele>39</ele>
        <time>2018-07-14T11:14:30Z</time>
      </trkpt>
      <trkpt lat="47.77134" lon="-3.56822">
        <ele>40</ele>
        <time>2018-07-14T11:14:31Z</time>
      </trkpt>
      <trkpt lat="47.77139" lon="-3.56824">
        <ele>40</ele>
        <time>2018-07-14T11:14:32Z</time>
      </trkpt>
      <trkpt lat="47.77143" lon="-3.56825">
        <ele>40</ele>
        <time>2018-07-14T11:14:33Z</time>
      </trkpt>
      <trkpt lat="47.77148" lon="-3.56826">
        <ele>41</ele>
        <time>2018-07-14T11:14:34Z</time>
      </trkpt>
      <trkpt lat="47.77152" lon="-3.56828">
        <ele>41</ele>
        <time>2018-07-14T11:14:35Z</time>
      </trkpt>
      <trkpt lat="47.77156" lon="-3.56829">
        <ele>41</ele>
        <time>2018-07-14T11:14:36Z</time>
      </trkpt>
      <trkpt lat="47.7716" lon="-3.56831">
        <ele>41</ele>
        <time>2018-07-14T11:14:37Z</time>
      </trkpt>
      <trkpt lat="47.77164" lon="-3.56833">
        <ele>41</ele>
        <time>2018-07-14T11:14:38Z</time>
      </trkpt>
      <trkpt lat="47.77168" lon="-3.56835">
        <ele>41</ele>
        <time>2018-07-14T11:14:39Z</time>
      </trkpt>
      <trkpt lat="47.77172" lon="-3.56837">
        <ele>41</ele>
        <time>2018-07-14T11:14:40Z</time>
      </trkpt>
      <trkpt lat="47.77176" lon="-3.56838">
        <ele>41</ele>
        <time>2018-07-14T11:14:41Z</time>
      </trkpt>
      <trkpt lat="47.77181" lon="-3.56841">
        <ele>41</ele>
        <time>2018-07-14T11:14:42Z</time>
      </trkpt>
      <trkpt lat="47.77186" lon="-3.56843">
        <ele>42</ele>
        <time>2018-07-14T11:14:43Z</time>
      </trkpt>
      <trkpt lat="47.77191" lon="-3.56845">
        <ele>42</ele>
        <time>2018-07-14T11:14:44Z</time>
      </trkpt>
      <trkpt lat="47.77195" lon="-3.56847">
        <ele>42</ele>
        <time>2018-07-14T11:14:45Z</time>
      </trkpt>
      <trkpt lat="47.772" lon="-3.56849">
        <ele>42</ele>
        <time>2018-07-14T11:14:46Z</time>
      </trkpt>
      <trkpt lat="47.77204" lon="-3.56851">
        <ele>42</ele>
        <time>2018-07-14T11:14:47Z</time>
      </trkpt>
      <trkpt lat="47.77209" lon="-3.56853">
        <ele>42</ele>
        <time>2018-07-14T11:14:48Z</time>
      </trkpt>
      <trkpt lat="47.77213" lon="-3.56856">
        <ele>42</ele>
        <time>2018-07-14T11:14:49Z</time>
      </trkpt>
      <trkpt lat="47.77217" lon="-3.56858">
        <ele>42</ele>
        <time>2018-07-14T11:14:50Z</time>
      </trkpt>
      <trkpt lat="47.77222" lon="-3.56861">
        <ele>42</ele>
        <time>2018-07-14T11:14:51Z</time>
      </trkpt>
      <trkpt lat="47.77226" lon="-3.56863">
        <ele>42</ele>
        <time>2018-07-14T11:14:52Z</time>
      </trkpt>
      <trkpt lat="47.77231" lon="-3.56866">
        <ele>43</ele>
        <time>2018-07-14T11:14:53Z</time>
      </trkpt>
      <trkpt lat="47.77235" lon="-3.56869">
        <ele>43</ele>
        <time>2018-07-14T11:14:54Z</time>
      </trkpt>
      <trkpt lat="47.7724" lon="-3.56872">
        <ele>43</ele>
        <time>2018-07-14T11:14:55Z</time>
      </trkpt>
      <trkpt lat="47.77245" lon="-3.56874">
        <ele>43</ele>
        <time>2018-07-14T11:14:56Z</time>
      </trkpt>
      <trkpt lat="47.77249" lon="-3.56877">
        <ele>43</ele>
        <time>2018-07-14T11:14:57Z</time>
      </trkpt>
      <trkpt lat="47.77254" lon="-3.5688">
        <ele>43</ele>
        <time>2018-07-14T11:14:58Z</time>
      </trkpt>
      <trkpt lat="47.77258" lon="-3.56883">
        <ele>43</ele>
        <time>2018-07-14T11:14:59Z</time>
      </trkpt>
      <trkpt lat="47.77263" lon="-3.56885">
        <ele>43</ele>
        <time>2018-07-14T11:15:00Z</time>
      </trkpt>
      <trkpt lat="47.77267" lon="-3.56888">
        <ele>43</ele>
        <time>2018-07-14T11:15:01Z</time>
      </trkpt>
      <trkpt lat="47.77271" lon="-3.56891">
        <ele>44</ele>
        <time>2018-07-14T11:15:02Z</time>
      </trkpt>
      <trkpt lat="47.77275" lon="-3.56894">
        <ele>44</ele>
        <time>2018-07-14T11:15:03Z</time>
      </trkpt>
      <trkpt lat="47.77279" lon="-3.56897">
        <ele>44</ele>
        <time>2018-07-14T11:15:04Z</time>
      </trkpt>
      <trkpt lat="47.77284" lon="-3.569">
        <ele>44</ele>
        <time>2018-07-14T11:15:05Z</time>
      </trkpt>
      <trkpt lat="47.77289" lon="-3.56903">
        <ele>44</ele>
        <time>2018-07-14T11:15:06Z</time>
      </trkpt>
      <trkpt lat="47.77293" lon="-3.56906">
        <ele>44</ele>
        <time>2018-07-14T11:15:07Z</time>
      </trkpt>
      <trkpt lat="47.77298" lon="-3.56908">
        <ele>44</ele>
        <time>2018-07-14T11:15:08Z</time>
      </trkpt>
      <trkpt lat="47.77303" lon="-3.56911">
        <ele>44</ele>
        <time>2018-07-14T11:15:09Z</time>
      </trkpt>
      <trkpt lat="47.77308" lon="-3.56913">
        <ele>44</ele>
        <time>2018-07-14T11:15:10Z</time>
      </trkpt>
      <trkpt lat="47.77313" lon="-3.56915">
        <ele>44</ele>
        <time>2018-07-14T11:15:11Z</time>
      </trkpt>
      <trkpt lat="47.77318" lon="-3.56917">
        <ele>44</ele>
        <time>2018-07-14T11:15:12Z</time>
      </trkpt>
      <trkpt lat="47.77323" lon="-3.56919">
        <ele>44</ele>
        <time>2018-07-14T11:15:13Z</time>
      </trkpt>
      <trkpt lat="47.77327" lon="-3.56921">
        <ele>44</ele>
        <time>2018-07-14T11:15:14Z</time>
      </trkpt>
      <trkpt lat="47.77332" lon="-3.56923">
        <ele>44</ele>
        <time>2018-07-14T11:15:15Z</time>
      </trkpt>
      <trkpt lat="47.77336" lon="-3.56926">
        <ele>44</ele>
        <time>2018-07-14T11:15:16Z</time>
      </trkpt>
      <trkpt lat="47.7734" lon="-3.56929">
        <ele>44</ele>
        <time>2018-07-14T11:15:17Z</time>
      </trkpt>
      <trkpt lat="47.77345" lon="-3.56932">
        <ele>44</ele>
        <time>2018-07-14T11:15:18Z</time>
      </trkpt>
      <trkpt lat="47.7735" lon="-3.56935">
        <ele>44</ele>
        <time>2018-07-14T11:15:19Z</time>
      </trkpt>
      <trkpt lat="47.77355" lon="-3.56939">
        <ele>44</ele>
        <time>2018-07-14T11:15:20Z</time>
      </trkpt>
      <trkpt lat="47.7736" lon="-3.56944">
        <ele>44</ele>
        <time>2018-07-14T11:15:21Z</time>
      </trkpt>
      <trkpt lat="47.77365" lon="-3.56949">
        <ele>44</ele>
        <time>2018-07-14T11:15:22Z</time>
      </trkpt>
      <trkpt lat="47.7737" lon="-3.56955">
        <ele>44</ele>
        <time>2018-07-14T11:15:23Z</time>
      </trkpt>
      <trkpt lat="47.77375" lon="-3.56959">
        <ele>44</ele>
        <time>2018-07-14T11:15:24Z</time>
      </trkpt>
      <trkpt lat="47.77379" lon="-3.56965">
        <ele>44</ele>
        <time>2018-07-14T11:15:25Z</time>
      </trkpt>
      <trkpt lat="47.77384" lon="-3.56969">
        <ele>44</ele>
        <time>2018-07-14T11:15:26Z</time>
      </trkpt>
      <trkpt lat="47.77388" lon="-3.56974">
        <ele>44</ele>
        <time>2018-07-14T11:15:27Z</time>
      </trkpt>
      <trkpt lat="47.77392" lon="-3.56978">
        <ele>44</ele>
        <time>2018-07-14T11:15:28Z</time>
      </trkpt>
      <trkpt lat="47.77397" lon="-3.56983">
        <ele>45</ele>
        <time>2018-07-14T11:15:29Z</time>
      </trkpt>
      <trkpt lat="47.77401" lon="-3.56987">
        <ele>45</ele>
        <time>2018-07-14T11:15:30Z</time>
      </trkpt>
      <trkpt lat="47.77406" lon="-3.56991">
        <ele>45</ele>
        <time>2018-07-14T11:15:31Z</time>
      </trkpt>
      <trkpt lat="47.77411" lon="-3.56994">
        <ele>45</ele>
        <time>2018-07-14T11:15:32Z</time>
      </trkpt>
      <trkpt lat="47.77416" lon="-3.56996">
        <ele>45</ele>
        <time>2018-07-14T11:15:33Z</time>
      </trkpt>
      <trkpt lat="47.77421" lon="-3.56998">
        <ele>45</ele>
        <time>2018-07-14T11:15:34Z</time>
      </trkpt>
      <trkpt lat="47.77426" lon="-3.57">
        <ele>45</ele>
        <time>2018-07-14T11:15:35Z</time>
      </trkpt>
      <trkpt lat="47.77431" lon="-3.57">
        <ele>45</ele>
        <time>2018-07-14T11:15:36Z</time>
      </trkpt>
      <trkpt lat="47.77436" lon="-3.56999">
        <ele>45</ele>
        <time>2018-07-14T11:15:37Z</time>
      </trkpt>
      <trkpt lat="47.77441" lon="-3.56999">
        <ele>46</ele>
        <time>2018-07-14T11:15:38Z</time>
      </trkpt>
      <trkpt lat="47.77446" lon="-3.56998">
        <ele>46</ele>
        <time>2018-07-14T11:15:39Z</time>
      </trkpt>
      <trkpt lat="47.77451" lon="-3.56996">
        <ele>46</ele>
        <time>2018-07-14T11:15:40Z</time>
      </trkpt>
      <trkpt lat="47.77455" lon="-3.56995">
        <ele>46</ele>
        <time>2018-07-14T11:15:41Z</time>
      </trkpt>
      <trkpt lat="47.7746" lon="-3.56992">
        <ele>46</ele>
        <time>2018-07-14T11:15:42Z</time>
      </trkpt>
      <trkpt lat="47.77465" lon="-3.5699">
        <ele>46</ele>
        <time>2018-07-14T11:15:43Z</time>
      </trkpt>
      <trkpt lat="47.7747" lon="-3.56988">
        <ele>46</ele>
        <time>2018-07-14T11:15:44Z</time>
      </trkpt>
      <trkpt lat="47.77475" lon="-3.56985">
        <ele>47</ele>
        <time>2018-07-14T11:15:45Z</time>
      </trkpt>
      <trkpt lat="47.7748" lon="-3.56982">
        <ele>47</ele>
        <time>2018-07-14T11:15:46Z</time>
      </trkpt>
      <trkpt lat="47.77484" lon="-3.56979">
        <ele>47</ele>
        <time>2018-07-14T11:15:47Z</time>
      </trkpt>
      <trkpt lat="47.77489" lon="-3.56976">
        <ele>47</ele>
        <time>2018-07-14T11:15:48Z</time>
      </trkpt>
      <trkpt lat="47.77494" lon="-3.56973">
        <ele>47</ele>
        <time>2018-07-14T11:15:49Z</time>
      </trkpt>
      <trkpt lat="47.77499" lon="-3.56969">
        <ele>48</ele>
        <time>2018-07-14T11:15:50Z</time>
      </trkpt>
      <trkpt lat="47.77504" lon="-3.56965">
        <ele>48</ele>
        <time>2018-07-14T11:15:51Z</time>
      </trkpt>
      <trkpt lat="47.77509" lon="-3.56961">
        <ele>48</ele>
        <time>2018-07-14T11:15:52Z</time>
      </trkpt>
      <trkpt lat="47.77513" lon="-3.56957">
        <ele>48</ele>
        <time>2018-07-14T11:15:53Z</time>
      </trkpt>
      <trkpt lat="47.77518" lon="-3.56952">
        <ele>48</ele>
        <time>2018-07-14T11:15:54Z</time>
      </trkpt>
      <trkpt lat="47.77523" lon="-3.56948">
        <ele>48</ele>
        <time>2018-07-14T11:15:55Z</time>
      </trkpt>
      <trkpt lat="47.77528" lon="-3.56944">
        <ele>48</ele>
        <time>2018-07-14T11:15:56Z</time>
      </trkpt>
      <trkpt lat="47.77533" lon="-3.5694">
        <ele>48</ele>
        <time>2018-07-14T11:15:57Z</time>
      </trkpt>
      <trkpt lat="47.77537" lon="-3.56936">
        <ele>48</ele>
        <time>2018-07-14T11:15:58Z</time>
      </trkpt>
      <trkpt lat="47.77542" lon="-3.56933">
        <ele>48</ele>
        <time>2018-07-14T11:15:59Z</time>
      </trkpt>
      <trkpt lat="47.77548" lon="-3.56929">
        <ele>48</ele>
        <time>2018-07-14T11:16:00Z</time>
      </trkpt>
      <trkpt lat="47.77553" lon="-3.56926">
        <ele>48</ele>
        <time>2018-07-14T11:16:01Z</time>
      </trkpt>
      <trkpt lat="47.77558" lon="-3.56923">
        <ele>48</ele>
        <time>2018-07-14T11:16:02Z</time>
      </trkpt>
      <trkpt lat="47.77563" lon="-3.56921">
        <ele>48</ele>
        <time>2018-07-14T11:16:03Z</time>
      </trkpt>
      <trkpt lat="47.77569" lon="-3.56918">
        <ele>48</ele>
        <time>2018-07-14T11:16:04Z</time>
      </trkpt>
      <trkpt lat="47.77574" lon="-3.56916">
        <ele>48</ele>
        <time>2018-07-14T11:16:05Z</time>
      </trkpt>
      <trkpt lat="47.7758" lon="-3.56914">
        <ele>48</ele>
        <time>2018-07-14T11:16:06Z</time>
      </trkpt>
      <trkpt lat="47.77585" lon="-3.56912">
        <ele>48</ele>
        <time>2018-07-14T11:16:07Z</time>
      </trkpt>
      <trkpt lat="47.77591" lon="-3.5691">
        <ele>48</ele>
        <time>2018-07-14T11:16:08Z</time>
      </trkpt>
      <trkpt lat="47.77597" lon="-3.56907">
        <ele>48</ele>
        <time>2018-07-14T11:16:09Z</time>
      </trkpt>
      <trkpt lat="47.77603" lon="-3.56906">
        <ele>48</ele>
        <time>2018-07-14T11:16:10Z</time>
      </trkpt>
      <trkpt lat="47.77609" lon="-3.56904">
        <ele>48</ele>
        <time>2018-07-14T11:16:11Z</time>
      </trkpt>
      <trkpt lat="47.77614" lon="-3.56902">
        <ele>48</ele>
        <time>2018-07-14T11:16:12Z</time>
      </trkpt>
      <trkpt lat="47.77619" lon="-3.56901">
        <ele>48</ele>
        <time>2018-07-14T11:16:13Z</time>
      </trkpt>
      <trkpt lat="47.77623" lon="-3.569">
        <ele>49</ele>
        <time>2018-07-14T11:16:14Z</time>
      </trkpt>
      <trkpt lat="47.77626" lon="-3.56899">
        <ele>49</ele>
        <time>2018-07-14T11:16:15Z</time>
      </trkpt>
      <trkpt lat="47.77628" lon="-3.56899">
        <ele>49</ele>
        <time>2018-07-14T11:16:16Z</time>
      </trkpt>
      <trkpt lat="47.77629" lon="-3.56899">
        <ele>49</ele>
        <time>2018-07-14T11:16:17Z</time>
      </trkpt>
      <trkpt lat="47.77631" lon="-3.569">
        <ele>49</ele>
        <time>2018-07-14T11:16:18Z</time>
      </trkpt>
      <trkpt lat="47.77634" lon="-3.56903">
        <ele>49</ele>
        <time>2018-07-14T11:16:19Z</time>
      </trkpt>
      <trkpt lat="47.77635" lon="-3.56908">
        <ele>49</ele>
        <time>2018-07-14T11:16:20Z</time>
      </trkpt>
      <trkpt lat="47.77635" lon="-3.56914">
        <ele>49</ele>
        <time>2018-07-14T11:16:21Z</time>
      </trkpt>
      <trkpt lat="47.77636" lon="-3.56922">
        <ele>49</ele>
        <time>2018-07-14T11:16:22Z</time>
      </trkpt>
      <trkpt lat="47.77636" lon="-3.5693">
        <ele>48</ele>
        <time>2018-07-14T11:16:23Z</time>
      </trkpt>
      <trkpt lat="47.77636" lon="-3.56938">
        <ele>48</ele>
        <time>2018-07-14T11:16:24Z</time>
      </trkpt>
      <trkpt lat="47.77637" lon="-3.56948">
        <ele>47</ele>
        <time>2018-07-14T11:16:25Z</time>
      </trkpt>
      <trkpt lat="47.77637" lon="-3.56957">
        <ele>47</ele>
        <time>2018-07-14T11:16:26Z</time>
      </trkpt>
      <trkpt lat="47.77638" lon="-3.56968">
        <ele>46</ele>
        <time>2018-07-14T11:16:27Z</time>
      </trkpt>
      <trkpt lat="47.77639" lon="-3.56979">
        <ele>46</ele>
        <time>2018-07-14T11:16:28Z</time>
      </trkpt>
      <trkpt lat="47.7764" lon="-3.5699">
        <ele>45</ele>
        <time>2018-07-14T11:16:29Z</time>
      </trkpt>
      <trkpt lat="47.77641" lon="-3.57002">
        <ele>45</ele>
        <time>2018-07-14T11:16:30Z</time>
      </trkpt>
      <trkpt lat="47.77642" lon="-3.57015">
        <ele>44</ele>
        <time>2018-07-14T11:16:31Z</time>
      </trkpt>
      <trkpt lat="47.77642" lon="-3.57027">
        <ele>44</ele>
        <time>2018-07-14T11:16:32Z</time>
      </trkpt>
      <trkpt lat="47.77643" lon="-3.57039">
        <ele>43</ele>
        <time>2018-07-14T11:16:33Z</time>
      </trkpt>
      <trkpt lat="47.77644" lon="-3.57052">
        <ele>43</ele>
        <time>2018-07-14T11:16:34Z</time>
      </trkpt>
      <trkpt lat="47.77645" lon="-3.57064">
        <ele>43</ele>
        <time>2018-07-14T11:16:35Z</time>
      </trkpt>
      <trkpt lat="47.77647" lon="-3.57076">
        <ele>42</ele>
        <time>2018-07-14T11:16:36Z</time>
      </trkpt>
      <trkpt lat="47.77649" lon="-3.57088">
        <ele>42</ele>
        <time>2018-07-14T11:16:37Z</time>
      </trkpt>
      <trkpt lat="47.7765" lon="-3.57098">
        <ele>42</ele>
        <time>2018-07-14T11:16:38Z</time>
      </trkpt>
      <trkpt lat="47.77651" lon="-3.57108">
        <ele>41</ele>
        <time>2018-07-14T11:16:39Z</time>
      </trkpt>
      <trkpt lat="47.77652" lon="-3.57116">
        <ele>41</ele>
        <time>2018-07-14T11:16:40Z</time>
      </trkpt>
      <trkpt lat="47.77653" lon="-3.57122">
        <ele>41</ele>
        <time>2018-07-14T11:16:41Z</time>
      </trkpt>
      <trkpt lat="47.77655" lon="-3.57127">
        <ele>41</ele>
        <time>2018-07-14T11:16:42Z</time>
      </trkpt>
      <trkpt lat="47.77656" lon="-3.57131">
        <ele>41</ele>
        <time>2018-07-14T11:16:43Z</time>
      </trkpt>
      <trkpt lat="47.77656" lon="-3.57133">
        <ele>41</ele>
        <time>2018-07-14T11:16:44Z</time>
      </trkpt>
      <trkpt lat="47.77656" lon="-3.57134">
        <ele>41</ele>
        <time>2018-07-14T11:16:45Z</time>
      </trkpt>
      <trkpt lat="47.77657" lon="-3.57134">
        <ele>41</ele>
        <time>2018-07-14T11:16:46Z</time>
      </trkpt>
      <trkpt lat="47.77657" lon="-3.57134">
        <ele>41</ele>
        <time>2018-07-14T11:16:47Z</time>
      </trkpt>
      <trkpt lat="47.77656" lon="-3.57139">
        <ele>40</ele>
        <time>2018-07-14T11:16:48Z</time>
      </trkpt>
      <trkpt lat="47.77656" lon="-3.57142">
        <ele>40</ele>
        <time>2018-07-14T11:16:49Z</time>
      </trkpt>
      <trkpt lat="47.77655" lon="-3.57145">
        <ele>40</ele>
        <time>2018-07-14T11:16:50Z</time>
      </trkpt>
      <trkpt lat="47.77654" lon="-3.57148">
        <ele>41</ele>
        <time>2018-07-14T11:16:51Z</time>
      </trkpt>
      <trkpt lat="47.77655" lon="-3.57152">
        <ele>41</ele>
        <time>2018-07-14T11:16:52Z</time>
      </trkpt>
      <trkpt lat="47.77656" lon="-3.57156">
        <ele>41</ele>
        <time>2018-07-14T11:16:53Z</time>
      </trkpt>
      <trkpt lat="47.77657" lon="-3.57161">
        <ele>41</ele>
        <time>2018-07-14T11:16:54Z</time>
      </trkpt>
      <trkpt lat="47.77657" lon="-3.57166">
        <ele>41</ele>
        <time>2018-07-14T11:16:55Z</time>
      </trkpt>
      <trkpt lat="47.77658" lon="-3.57171">
        <ele>41</ele>
        <time>2018-07-14T11:16:56Z</time>
      </trkpt>
      <trkpt lat="47.77658" lon="-3.57176">
        <ele>41</ele>
        <time>2018-07-14T11:16:57Z</time>
      </trkpt>
      <trkpt lat="47.77658" lon="-3.57182">
        <ele>41</ele>
        <time>2018-07-14T11:16:58Z</time>
      </trkpt>
      <trkpt lat="47.77658" lon="-3.57188">
        <ele>41</ele>
        <time>2018-07-14T11:16:59Z</time>
      </trkpt>
      <trkpt lat="47.77658" lon="-3.57195">
        <ele>42</ele>
        <time>2018-07-14T11:17:00Z</time>
      </trkpt>
      <trkpt lat="47.77658" lon="-3.57201">
        <ele>42</ele>
        <time>2018-07-14T11:17:01Z</time>
      </trkpt>
      <trkpt lat="47.77658" lon="-3.57207">
        <ele>42</ele>
        <time>2018-07-14T11:17:02Z</time>
      </trkpt>
      <trkpt lat="47.77658" lon="-3.57214">
        <ele>42</ele>
        <time>2018-07-14T11:17:03Z</time>
      </trkpt>
      <trkpt lat="47.77657" lon="-3.5722">
        <ele>42</ele>
        <time>2018-07-14T11:17:04Z</time>
      </trkpt>
      <trkpt lat="47.77657" lon="-3.57226">
        <ele>42</ele>
        <time>2018-07-14T11:17:05Z</time>
      </trkpt>
      <trkpt lat="47.77656" lon="-3.57232">
        <ele>42</ele>
        <time>2018-07-14T11:17:06Z</time>
      </trkpt>
      <trkpt lat="47.77655" lon="-3.57239">
        <ele>43</ele>
        <time>2018-07-14T11:17:07Z</time>
      </trkpt>
      <trkpt lat="47.77653" lon="-3.57245">
        <ele>43</ele>
        <time>2018-07-14T11:17:08Z</time>
      </trkpt>
      <trkpt lat="47.77651" lon="-3.57252">
        <ele>43</ele>
        <time>2018-07-14T11:17:09Z</time>
      </trkpt>
      <trkpt lat="47.7765" lon="-3.57258">
        <ele>43</ele>
        <time>2018-07-14T11:17:10Z</time>
      </trkpt>
      <trkpt lat="47.77647" lon="-3.57265">
        <ele>43</ele>
        <time>2018-07-14T11:17:11Z</time>
      </trkpt>
      <trkpt lat="47.77645" lon="-3.57271">
        <ele>43</ele>
        <time>2018-07-14T11:17:12Z</time>
      </trkpt>
      <trkpt lat="47.77643" lon="-3.57278">
        <ele>43</ele>
        <time>2018-07-14T11:17:13Z</time>
      </trkpt>
      <trkpt lat="47.77641" lon="-3.57285">
        <ele>43</ele>
        <time>2018-07-14T11:17:14Z</time>
      </trkpt>
      <trkpt lat="47.7764" lon="-3.57292">
        <ele>43</ele>
        <time>2018-07-14T11:17:15Z</time>
      </trkpt>
      <trkpt lat="47.77638" lon="-3.573">
        <ele>43</ele>
        <time>2018-07-14T11:17:16Z</time>
      </trkpt>
      <trkpt lat="47.77637" lon="-3.57307">
        <ele>43</ele>
        <time>2018-07-14T11:17:17Z</time>
      </trkpt>
      <trkpt lat="47.77635" lon="-3.57315">
        <ele>43</ele>
        <time>2018-07-14T11:17:18Z</time>
      </trkpt>
      <trkpt lat="47.77634" lon="-3.57323">
        <ele>43</ele>
        <time>2018-07-14T11:17:19Z</time>
      </trkpt>
      <trkpt lat="47.77633" lon="-3.5733">
        <ele>43</ele>
        <time>2018-07-14T11:17:20Z</time>
      </trkpt>
      <trkpt lat="47.77633" lon="-3.57338">
        <ele>43</ele>
        <time>2018-07-14T11:17:21Z</time>
      </trkpt>
      <trkpt lat="47.77632" lon="-3.57346">
        <ele>44</ele>
        <time>2018-07-14T11:17:22Z</time>
      </trkpt>
      <trkpt lat="47.77631" lon="-3.57354">
        <ele>44</ele>
        <time>2018-07-14T11:17:23Z</time>
      </trkpt>
      <trkpt lat="47.77631" lon="-3.57362">
        <ele>44</ele>
        <time>2018-07-14T11:17:24Z</time>
      </trkpt>
      <trkpt lat="47.7763" lon="-3.5737">
        <ele>44</ele>
        <time>2018-07-14T11:17:25Z</time>
      </trkpt>
      <trkpt lat="47.7763" lon="-3.57379">
        <ele>44</ele>
        <time>2018-07-14T11:17:26Z</time>
      </trkpt>
      <trkpt lat="47.7763" lon="-3.57387">
        <ele>44</ele>
        <time>2018-07-14T11:17:27Z</time>
      </trkpt>
      <trkpt lat="47.77629" lon="-3.57396">
        <ele>44</ele>
        <time>2018-07-14T11:17:28Z</time>
      </trkpt>
      <trkpt lat="47.77629" lon="-3.57405">
        <ele>43</ele>
        <time>2018-07-14T11:17:29Z</time>
      </trkpt>
      <trkpt lat="47.77628" lon="-3.57414">
        <ele>43</ele>
        <time>2018-07-14T11:17:30Z</time>
      </trkpt>
      <trkpt lat="47.77628" lon="-3.57423">
        <ele>43</ele>
        <time>2018-07-14T11:17:31Z</time>
      </trkpt>
      <trkpt lat="47.77627" lon="-3.57432">
        <ele>43</ele>
        <time>2018-07-14T11:17:32Z</time>
      </trkpt>
      <trkpt lat="47.77626" lon="-3.57439">
        <ele>43</ele>
        <time>2018-07-14T11:17:33Z</time>
      </trkpt>
      <trkpt lat="47.77626" lon="-3.57445">
        <ele>43</ele>
        <time>2018-07-14T11:17:34Z</time>
      </trkpt>
      <trkpt lat="47.77627" lon="-3.5745">
        <ele>43</ele>
        <time>2018-07-14T11:17:35Z</time>
      </trkpt>
      <trkpt lat="47.77628" lon="-3.57451">
        <ele>43</ele>
        <time>2018-07-14T11:17:36Z</time>
      </trkpt>
      <trkpt lat="47.77631" lon="-3.5745">
        <ele>43</ele>
        <time>2018-07-14T11:17:37Z</time>
      </trkpt>
      <trkpt lat="47.77633" lon="-3.57448">
        <ele>43</ele>
        <time>2018-07-14T11:17:38Z</time>
      </trkpt>
      <trkpt lat="47.77635" lon="-3.57445">
        <ele>42</ele>
        <time>2018-07-14T11:17:39Z</time>
      </trkpt>
      <trkpt lat="47.77638" lon="-3.57442">
        <ele>42</ele>
        <time>2018-07-14T11:17:40Z</time>
      </trkpt>
      <trkpt lat="47.77641" lon="-3.5744">
        <ele>42</ele>
        <time>2018-07-14T11:17:41Z</time>
      </trkpt>
      <trkpt lat="47.77643" lon="-3.57438">
        <ele>42</ele>
        <time>2018-07-14T11:17:42Z</time>
      </trkpt>
      <trkpt lat="47.77646" lon="-3.57436">
        <ele>42</ele>
        <time>2018-07-14T11:17:43Z</time>
      </trkpt>
      <trkpt lat="47.77649" lon="-3.57435">
        <ele>42</ele>
        <time>2018-07-14T11:17:44Z</time>
      </trkpt>
      <trkpt lat="47.77652" lon="-3.57433">
        <ele>42</ele>
        <time>2018-07-14T11:17:45Z</time>
      </trkpt>
      <trkpt lat="47.77656" lon="-3.57432">
        <ele>42</ele>
        <time>2018-07-14T11:17:46Z</time>
      </trkpt>
      <trkpt lat="47.7766" lon="-3.5743">
        <ele>42</ele>
        <time>2018-07-14T11:17:47Z</time>
      </trkpt>
      <trkpt lat="47.77665" lon="-3.57428">
        <ele>41</ele>
        <time>2018-07-14T11:17:48Z</time>
      </trkpt>
      <trkpt lat="47.7767" lon="-3.57426">
        <ele>41</ele>
        <time>2018-07-14T11:17:49Z</time>
      </trkpt>
      <trkpt lat="47.77675" lon="-3.57424">
        <ele>41</ele>
        <time>2018-07-14T11:17:50Z</time>
      </trkpt>
      <trkpt lat="47.7768" lon="-3.57423">
        <ele>41</ele>
        <time>2018-07-14T11:17:51Z</time>
      </trkpt>
      <trkpt lat="47.77684" lon="-3.57423">
        <ele>41</ele>
        <time>2018-07-14T11:17:52Z</time>
      </trkpt>
      <trkpt lat="47.77688" lon="-3.57422">
        <ele>41</ele>
        <time>2018-07-14T11:17:53Z</time>
      </trkpt>
      <trkpt lat="47.77693" lon="-3.57421">
        <ele>41</ele>
        <time>2018-07-14T11:17:54Z</time>
      </trkpt>
      <trkpt lat="47.77698" lon="-3.57419">
        <ele>41</ele>
        <time>2018-07-14T11:17:55Z</time>
      </trkpt>
      <trkpt lat="47.77703" lon="-3.57417">
        <ele>41</ele>
        <time>2018-07-14T11:17:56Z</time>
      </trkpt>
      <trkpt lat="47.77708" lon="-3.57415">
        <ele>41</ele>
        <time>2018-07-14T11:17:57Z</time>
      </trkpt>
      <trkpt lat="47.77713" lon="-3.57413">
        <ele>41</ele>
        <time>2018-07-14T11:17:58Z</time>
      </trkpt>
      <trkpt lat="47.77718" lon="-3.57412">
        <ele>41</ele>
        <time>2018-07-14T11:17:59Z</time>
      </trkpt>
      <trkpt lat="47.77723" lon="-3.57409">
        <ele>42</ele>
        <time>2018-07-14T11:18:00Z</time>
      </trkpt>
      <trkpt lat="47.77728" lon="-3.57407">
        <ele>42</ele>
        <time>2018-07-14T11:18:01Z</time>
      </trkpt>
      <trkpt lat="47.77733" lon="-3.57404">
        <ele>42</ele>
        <time>2018-07-14T11:18:02Z</time>
      </trkpt>
      <trkpt lat="47.77738" lon="-3.57402">
        <ele>42</ele>
        <time>2018-07-14T11:18:03Z</time>
      </trkpt>
      <trkpt lat="47.77743" lon="-3.574">
        <ele>42</ele>
        <time>2018-07-14T11:18:04Z</time>
      </trkpt>
      <trkpt lat="47.77749" lon="-3.57398">
        <ele>42</ele>
        <time>2018-07-14T11:18:05Z</time>
      </trkpt>
      <trkpt lat="47.77754" lon="-3.57396">
        <ele>43</ele>
        <time>2018-07-14T11:18:06Z</time>
      </trkpt>
      <trkpt lat="47.77759" lon="-3.57394">
        <ele>43</ele>
        <time>2018-07-14T11:18:07Z</time>
      </trkpt>
      <trkpt lat="47.77764" lon="-3.57392">
        <ele>43</ele>
        <time>2018-07-14T11:18:08Z</time>
      </trkpt>
      <trkpt lat="47.77769" lon="-3.5739">
        <ele>43</ele>
        <time>2018-07-14T11:18:09Z</time>
      </trkpt>
      <trkpt lat="47.77774" lon="-3.57388">
        <ele>44</ele>
        <time>2018-07-14T11:18:10Z</time>
      </trkpt>
      <trkpt lat="47.77779" lon="-3.57386">
        <ele>44</ele>
        <time>2018-07-14T11:18:11Z</time>
      </trkpt>
      <trkpt lat="47.77783" lon="-3.57385">
        <ele>44</ele>
        <time>2018-07-14T11:18:12Z</time>
      </trkpt>
      <trkpt lat="47.77788" lon="-3.57385">
        <ele>44</ele>
        <time>2018-07-14T11:18:13Z</time>
      </trkpt>
      <trkpt lat="47.77792" lon="-3.57385">
        <ele>44</ele>
        <time>2018-07-14T11:18:14Z</time>
      </trkpt>
      <trkpt lat="47.77797" lon="-3.57383">
        <ele>44</ele>
        <time>2018-07-14T11:18:15Z</time>
      </trkpt>
      <trkpt lat="47.77801" lon="-3.57382">
        <ele>44</ele>
        <time>2018-07-14T11:18:16Z</time>
      </trkpt>
      <trkpt lat="47.77805" lon="-3.57381">
        <ele>45</ele>
        <time>2018-07-14T11:18:17Z</time>
      </trkpt>
      <trkpt lat="47.7781" lon="-3.5738">
        <ele>45</ele>
        <time>2018-07-14T11:18:18Z</time>
      </trkpt>
      <trkpt lat="47.77815" lon="-3.57379">
        <ele>45</ele>
        <time>2018-07-14T11:18:19Z</time>
      </trkpt>
      <trkpt lat="47.77819" lon="-3.57377">
        <ele>45</ele>
        <time>2018-07-14T11:18:20Z</time>
      </trkpt>
      <trkpt lat="47.77825" lon="-3.57375">
        <ele>45</ele>
        <time>2018-07-14T11:18:21Z</time>
      </trkpt>
      <trkpt lat="47.77829" lon="-3.57373">
        <ele>45</ele>
        <time>2018-07-14T11:18:22Z</time>
      </trkpt>
      <trkpt lat="47.77834" lon="-3.57371">
        <ele>45</ele>
        <time>2018-07-14T11:18:23Z</time>
      </trkpt>
      <trkpt lat="47.77839" lon="-3.5737">
        <ele>46</ele>
        <time>2018-07-14T11:18:24Z</time>
      </trkpt>
      <trkpt lat="47.77843" lon="-3.5737">
        <ele>46</ele>
        <time>2018-07-14T11:18:25Z</time>
      </trkpt>
      <trkpt lat="47.77848" lon="-3.5737">
        <ele>46</ele>
        <time>2018-07-14T11:18:26Z</time>
      </trkpt>
      <trkpt lat="47.77853" lon="-3.57369">
        <ele>46</ele>
        <time>2018-07-14T11:18:27Z</time>
      </trkpt>
      <trkpt lat="47.77857" lon="-3.57368">
        <ele>46</ele>
        <time>2018-07-14T11:18:28Z</time>
      </trkpt>
      <trkpt lat="47.77862" lon="-3.57367">
        <ele>47</ele>
        <time>2018-07-14T11:18:29Z</time>
      </trkpt>
      <trkpt lat="47.77867" lon="-3.57366">
        <ele>47</ele>
        <time>2018-07-14T11:18:30Z</time>
      </trkpt>
      <trkpt lat="47.77872" lon="-3.57365">
        <ele>47</ele>
        <time>2018-07-14T11:18:31Z</time>
      </trkpt>
      <trkpt lat="47.77877" lon="-3.57364">
        <ele>47</ele>
        <time>2018-07-14T11:18:32Z</time>
      </trkpt>
      <trkpt lat="47.77882" lon="-3.57363">
        <ele>47</ele>
        <time>2018-07-14T11:18:33Z</time>
      </trkpt>
      <trkpt lat="47.77888" lon="-3.57362">
        <ele>47</ele>
        <time>2018-07-14T11:18:34Z</time>
      </trkpt>
      <trkpt lat="47.77894" lon="-3.57361">
        <ele>47</ele>
        <time>2018-07-14T11:18:35Z</time>
      </trkpt>
      <trkpt lat="47.77899" lon="-3.5736">
        <ele>47</ele>
        <time>2018-07-14T11:18:36Z</time>
      </trkpt>
      <trkpt lat="47.77903" lon="-3.5736">
        <ele>48</ele>
        <time>2018-07-14T11:18:37Z</time>
      </trkpt>
      <trkpt lat="47.77908" lon="-3.5736">
        <ele>48</ele>
        <time>2018-07-14T11:18:38Z</time>
      </trkpt>
      <trkpt lat="47.77913" lon="-3.5736">
        <ele>48</ele>
        <time>2018-07-14T11:18:39Z</time>
      </trkpt>
      <trkpt lat="47.77917" lon="-3.57359">
        <ele>48</ele>
        <time>2018-07-14T11:18:40Z</time>
      </trkpt>
      <trkpt lat="47.77922" lon="-3.57359">
        <ele>48</ele>
        <time>2018-07-14T11:18:41Z</time>
      </trkpt>
      <trkpt lat="47.77927" lon="-3.57359">
        <ele>48</ele>
        <time>2018-07-14T11:18:42Z</time>
      </trkpt>
      <trkpt lat="47.77932" lon="-3.57358">
        <ele>48</ele>
        <time>2018-07-14T11:18:43Z</time>
      </trkpt>
      <trkpt lat="47.77938" lon="-3.57357">
        <ele>48</ele>
        <time>2018-07-14T11:18:44Z</time>
      </trkpt>
      <trkpt lat="47.77944" lon="-3.57357">
        <ele>49</ele>
        <time>2018-07-14T11:18:45Z</time>
      </trkpt>
      <trkpt lat="47.77949" lon="-3.57357">
        <ele>49</ele>
        <time>2018-07-14T11:18:46Z</time>
      </trkpt>
      <trkpt lat="47.77954" lon="-3.57357">
        <ele>49</ele>
        <time>2018-07-14T11:18:47Z</time>
      </trkpt>
      <trkpt lat="47.7796" lon="-3.57357">
        <ele>49</ele>
        <time>2018-07-14T11:18:48Z</time>
      </trkpt>
      <trkpt lat="47.77965" lon="-3.57357">
        <ele>49</ele>
        <time>2018-07-14T11:18:49Z</time>
      </trkpt>
      <trkpt lat="47.77971" lon="-3.57357">
        <ele>49</ele>
        <time>2018-07-14T11:18:50Z</time>
      </trkpt>
      <trkpt lat="47.77976" lon="-3.57356">
        <ele>49</ele>
        <time>2018-07-14T11:18:51Z</time>
      </trkpt>
      <trkpt lat="47.77982" lon="-3.57355">
        <ele>49</ele>
        <time>2018-07-14T11:18:52Z</time>
      </trkpt>
      <trkpt lat="47.77989" lon="-3.57355">
        <ele>49</ele>
        <time>2018-07-14T11:18:53Z</time>
      </trkpt>
      <trkpt lat="47.77995" lon="-3.57355">
        <ele>49</ele>
        <time>2018-07-14T11:18:54Z</time>
      </trkpt>
      <trkpt lat="47.78001" lon="-3.57356">
        <ele>49</ele>
        <time>2018-07-14T11:18:55Z</time>
      </trkpt>
      <trkpt lat="47.78006" lon="-3.57359">
        <ele>49</ele>
        <time>2018-07-14T11:18:56Z</time>
      </trkpt>
      <trkpt lat="47.78011" lon="-3.57364">
        <ele>49</ele>
        <time>2018-07-14T11:18:57Z</time>
      </trkpt>
      <trkpt lat="47.78014" lon="-3.57371">
        <ele>50</ele>
        <time>2018-07-14T11:18:58Z</time>
      </trkpt>
      <trkpt lat="47.78016" lon="-3.57378">
        <ele>50</ele>
        <time>2018-07-14T11:18:59Z</time>
      </trkpt>
      <trkpt lat="47.78018" lon="-3.57385">
        <ele>50</ele>
        <time>2018-07-14T11:19:00Z</time>
      </trkpt>
      <trkpt lat="47.7802" lon="-3.57391">
        <ele>50</ele>
        <time>2018-07-14T11:19:01Z</time>
      </trkpt>
      <trkpt lat="47.78021" lon="-3.57397">
        <ele>50</ele>
        <time>2018-07-14T11:19:02Z</time>
      </trkpt>
      <trkpt lat="47.78022" lon="-3.57403">
        <ele>50</ele>
        <time>2018-07-14T11:19:03Z</time>
      </trkpt>
      <trkpt lat="47.78024" lon="-3.57408">
        <ele>51</ele>
        <time>2018-07-14T11:19:04Z</time>
      </trkpt>
      <trkpt lat="47.78026" lon="-3.57413">
        <ele>51</ele>
        <time>2018-07-14T11:19:05Z</time>
      </trkpt>
      <trkpt lat="47.78028" lon="-3.57418">
        <ele>51</ele>
        <time>2018-07-14T11:19:06Z</time>
      </trkpt>
      <trkpt lat="47.78031" lon="-3.57422">
        <ele>51</ele>
        <time>2018-07-14T11:19:07Z</time>
      </trkpt>
      <trkpt lat="47.78034" lon="-3.57426">
        <ele>51</ele>
        <time>2018-07-14T11:19:08Z</time>
      </trkpt>
      <trkpt lat="47.78037" lon="-3.57431">
        <ele>51</ele>
        <time>2018-07-14T11:19:09Z</time>
      </trkpt>
      <trkpt lat="47.78039" lon="-3.57435">
        <ele>51</ele>
        <time>2018-07-14T11:19:10Z</time>
      </trkpt>
      <trkpt lat="47.78042" lon="-3.57439">
        <ele>51</ele>
        <time>2018-07-14T11:19:11Z</time>
      </trkpt>
      <trkpt lat="47.78046" lon="-3.57444">
        <ele>51</ele>
        <time>2018-07-14T11:19:12Z</time>
      </trkpt>
      <trkpt lat="47.7805" lon="-3.57447">
        <ele>51</ele>
        <time>2018-07-14T11:19:13Z</time>
      </trkpt>
      <trkpt lat="47.78053" lon="-3.57452">
        <ele>51</ele>
        <time>2018-07-14T11:19:14Z</time>
      </trkpt>
      <trkpt lat="47.78054" lon="-3.57457">
        <ele>50</ele>
        <time>2018-07-14T11:19:15Z</time>
      </trkpt>
      <trkpt lat="47.78056" lon="-3.57461">
        <ele>50</ele>
        <time>2018-07-14T11:19:16Z</time>
      </trkpt>
      <trkpt lat="47.78056" lon="-3.57467">
        <ele>50</ele>
        <time>2018-07-14T11:19:17Z</time>
      </trkpt>
      <trkpt lat="47.78056" lon="-3.57473">
        <ele>50</ele>
        <time>2018-07-14T11:19:18Z</time>
      </trkpt>
      <trkpt lat="47.78057" lon="-3.57478">
        <ele>50</ele>
        <time>2018-07-14T11:19:19Z</time>
      </trkpt>
      <trkpt lat="47.78059" lon="-3.57482">
        <ele>50</ele>
        <time>2018-07-14T11:19:20Z</time>
      </trkpt>
      <trkpt lat="47.78061" lon="-3.57485">
        <ele>49</ele>
        <time>2018-07-14T11:19:21Z</time>
      </trkpt>
      <trkpt lat="47.78064" lon="-3.57489">
        <ele>49</ele>
        <time>2018-07-14T11:19:22Z</time>
      </trkpt>
      <trkpt lat="47.78068" lon="-3.57492">
        <ele>49</ele>
        <time>2018-07-14T11:19:23Z</time>
      </trkpt>
      <trkpt lat="47.78071" lon="-3.57496">
        <ele>49</ele>
        <time>2018-07-14T11:19:24Z</time>
      </trkpt>
      <trkpt lat="47.78075" lon="-3.575">
        <ele>49</ele>
        <time>2018-07-14T11:19:25Z</time>
      </trkpt>
      <trkpt lat="47.78078" lon="-3.57503">
        <ele>49</ele>
        <time>2018-07-14T11:19:26Z</time>
      </trkpt>
      <trkpt lat="47.78081" lon="-3.57506">
        <ele>48</ele>
        <time>2018-07-14T11:19:27Z</time>
      </trkpt>
      <trkpt lat="47.78085" lon="-3.57509">
        <ele>48</ele>
        <time>2018-07-14T11:19:28Z</time>
      </trkpt>
      <trkpt lat="47.78088" lon="-3.57513">
        <ele>48</ele>
        <time>2018-07-14T11:19:29Z</time>
      </trkpt>
      <trkpt lat="47.78092" lon="-3.57516">
        <ele>48</ele>
        <time>2018-07-14T11:19:30Z</time>
      </trkpt>
      <trkpt lat="47.78095" lon="-3.5752">
        <ele>48</ele>
        <time>2018-07-14T11:19:31Z</time>
      </trkpt>
      <trkpt lat="47.78099" lon="-3.57523">
        <ele>48</ele>
        <time>2018-07-14T11:19:32Z</time>
      </trkpt>
      <trkpt lat="47.78102" lon="-3.57526">
        <ele>48</ele>
        <time>2018-07-14T11:19:33Z</time>
      </trkpt>
      <trkpt lat="47.78106" lon="-3.57529">
        <ele>48</ele>
        <time>2018-07-14T11:19:34Z</time>
      </trkpt>
      <trkpt lat="47.78109" lon="-3.57533">
        <ele>48</ele>
        <time>2018-07-14T11:19:35Z</time>
      </trkpt>
      <trkpt lat="47.78112" lon="-3.57539">
        <ele>47</ele>
        <time>2018-07-14T11:19:36Z</time>
      </trkpt>
      <trkpt lat="47.78114" lon="-3.57545">
        <ele>47</ele>
        <time>2018-07-14T11:19:37Z</time>
      </trkpt>
      <trkpt lat="47.78115" lon="-3.57552">
        <ele>47</ele>
        <time>2018-07-14T11:19:38Z</time>
      </trkpt>
      <trkpt lat="47.78116" lon="-3.5756">
        <ele>47</ele>
        <time>2018-07-14T11:19:39Z</time>
      </trkpt>
      <trkpt lat="47.78116" lon="-3.57567">
        <ele>47</ele>
        <time>2018-07-14T11:19:40Z</time>
      </trkpt>
      <trkpt lat="47.78116" lon="-3.57574">
        <ele>47</ele>
        <time>2018-07-14T11:19:41Z</time>
      </trkpt>
      <trkpt lat="47.78117" lon="-3.57582">
        <ele>47</ele>
        <time>2018-07-14T11:19:42Z</time>
      </trkpt>
      <trkpt lat="47.78117" lon="-3.57589">
        <ele>47</ele>
        <time>2018-07-14T11:19:43Z</time>
      </trkpt>
      <trkpt lat="47.78118" lon="-3.57596">
        <ele>47</ele>
        <time>2018-07-14T11:19:44Z</time>
      </trkpt>
      <trkpt lat="47.78118" lon="-3.57603">
        <ele>48</ele>
        <time>2018-07-14T11:19:45Z</time>
      </trkpt>
      <trkpt lat="47.78119" lon="-3.57611">
        <ele>48</ele>
        <time>2018-07-14T11:19:46Z</time>
      </trkpt>
      <trkpt lat="47.7812" lon="-3.57619">
        <ele>48</ele>
        <time>2018-07-14T11:19:47Z</time>
      </trkpt>
      <trkpt lat="47.7812" lon="-3.57627">
        <ele>48</ele>
        <time>2018-07-14T11:19:48Z</time>
      </trkpt>
      <trkpt lat="47.78121" lon="-3.57635">
        <ele>48</ele>
        <time>2018-07-14T11:19:49Z</time>
      </trkpt>
      <trkpt lat="47.78122" lon="-3.57642">
        <ele>48</ele>
        <time>2018-07-14T11:19:50Z</time>
      </trkpt>
      <trkpt lat="47.78124" lon="-3.57649">
        <ele>48</ele>
        <time>2018-07-14T11:19:51Z</time>
      </trkpt>
      <trkpt lat="47.78126" lon="-3.57657">
        <ele>48</ele>
        <time>2018-07-14T11:19:52Z</time>
      </trkpt>
      <trkpt lat="47.78127" lon="-3.57664">
        <ele>48</ele>
        <time>2018-07-14T11:19:53Z</time>
      </trkpt>
      <trkpt lat="47.78129" lon="-3.57671">
        <ele>48</ele>
        <time>2018-07-14T11:19:54Z</time>
      </trkpt>
      <trkpt lat="47.7813" lon="-3.57678">
        <ele>48</ele>
        <time>2018-07-14T11:19:55Z</time>
      </trkpt>
      <trkpt lat="47.78131" lon="-3.57686">
        <ele>48</ele>
        <time>2018-07-14T11:19:56Z</time>
      </trkpt>
      <trkpt lat="47.78131" lon="-3.57694">
        <ele>48</ele>
        <time>2018-07-14T11:19:57Z</time>
      </trkpt>
      <trkpt lat="47.78131" lon="-3.57701">
        <ele>48</ele>
        <time>2018-07-14T11:19:58Z</time>
      </trkpt>
      <trkpt lat="47.78131" lon="-3.57708">
        <ele>48</ele>
        <time>2018-07-14T11:19:59Z</time>
      </trkpt>
      <trkpt lat="47.7813" lon="-3.57717">
        <ele>48</ele>
        <time>2018-07-14T11:20:00Z</time>
      </trkpt>
      <trkpt lat="47.7813" lon="-3.57725">
        <ele>48</ele>
        <time>2018-07-14T11:20:01Z</time>
      </trkpt>
      <trkpt lat="47.78128" lon="-3.57732">
        <ele>48</ele>
        <time>2018-07-14T11:20:02Z</time>
      </trkpt>
      <trkpt lat="47.78128" lon="-3.5774">
        <ele>48</ele>
        <time>2018-07-14T11:20:03Z</time>
      </trkpt>
      <trkpt lat="47.78128" lon="-3.57746">
        <ele>48</ele>
        <time>2018-07-14T11:20:04Z</time>
      </trkpt>
      <trkpt lat="47.78129" lon="-3.57753">
        <ele>48</ele>
        <time>2018-07-14T11:20:05Z</time>
      </trkpt>
      <trkpt lat="47.7813" lon="-3.57759">
        <ele>48</ele>
        <time>2018-07-14T11:20:06Z</time>
      </trkpt>
      <trkpt lat="47.78132" lon="-3.57766">
        <ele>49</ele>
        <time>2018-07-14T11:20:07Z</time>
      </trkpt>
      <trkpt lat="47.78132" lon="-3.57772">
        <ele>49</ele>
        <time>2018-07-14T11:20:08Z</time>
      </trkpt>
      <trkpt lat="47.78131" lon="-3.57778">
        <ele>49</ele>
        <time>2018-07-14T11:20:09Z</time>
      </trkpt>
      <trkpt lat="47.78131" lon="-3.57783">
        <ele>49</ele>
        <time>2018-07-14T11:20:10Z</time>
      </trkpt>
      <trkpt lat="47.7813" lon="-3.57788">
        <ele>49</ele>
        <time>2018-07-14T11:20:11Z</time>
      </trkpt>
      <trkpt lat="47.7813" lon="-3.57792">
        <ele>49</ele>
        <time>2018-07-14T11:20:12Z</time>
      </trkpt>
      <trkpt lat="47.7813" lon="-3.57797">
        <ele>49</ele>
        <time>2018-07-14T11:20:13Z</time>
      </trkpt>
      <trkpt lat="47.78129" lon="-3.57803">
        <ele>49</ele>
        <time>2018-07-14T11:20:14Z</time>
      </trkpt>
      <trkpt lat="47.78129" lon="-3.57807">
        <ele>49</ele>
        <time>2018-07-14T11:20:15Z</time>
      </trkpt>
      <trkpt lat="47.78129" lon="-3.57812">
        <ele>49</ele>
        <time>2018-07-14T11:20:16Z</time>
      </trkpt>
      <trkpt lat="47.7813" lon="-3.57818">
        <ele>49</ele>
        <time>2018-07-14T11:20:17Z</time>
      </trkpt>
      <trkpt lat="47.78131" lon="-3.57821">
        <ele>49</ele>
        <time>2018-07-14T11:20:18Z</time>
      </trkpt>
      <trkpt lat="47.78134" lon="-3.57822">
        <ele>48</ele>
        <time>2018-07-14T11:20:19Z</time>
      </trkpt>
      <trkpt lat="47.78136" lon="-3.57822">
        <ele>48</ele>
        <time>2018-07-14T11:20:20Z</time>
      </trkpt>
      <trkpt lat="47.78139" lon="-3.57823">
        <ele>48</ele>
        <time>2018-07-14T11:20:21Z</time>
      </trkpt>
      <trkpt lat="47.78143" lon="-3.57823">
        <ele>48</ele>
        <time>2018-07-14T11:20:22Z</time>
      </trkpt>
      <trkpt lat="47.78147" lon="-3.57824">
        <ele>48</ele>
        <time>2018-07-14T11:20:23Z</time>
      </trkpt>
      <trkpt lat="47.78151" lon="-3.57825">
        <ele>48</ele>
        <time>2018-07-14T11:20:24Z</time>
      </trkpt>
      <trkpt lat="47.78156" lon="-3.57827">
        <ele>48</ele>
        <time>2018-07-14T11:20:25Z</time>
      </trkpt>
      <trkpt lat="47.7816" lon="-3.57829">
        <ele>48</ele>
        <time>2018-07-14T11:20:26Z</time>
      </trkpt>
      <trkpt lat="47.78165" lon="-3.57831">
        <ele>48</ele>
        <time>2018-07-14T11:20:27Z</time>
      </trkpt>
      <trkpt lat="47.7817" lon="-3.57832">
        <ele>48</ele>
        <time>2018-07-14T11:20:28Z</time>
      </trkpt>
      <trkpt lat="47.78174" lon="-3.57833">
        <ele>48</ele>
        <time>2018-07-14T11:20:29Z</time>
      </trkpt>
      <trkpt lat="47.78179" lon="-3.57835">
        <ele>48</ele>
        <time>2018-07-14T11:20:30Z</time>
      </trkpt>
      <trkpt lat="47.78185" lon="-3.57838">
        <ele>48</ele>
        <time>2018-07-14T11:20:31Z</time>
      </trkpt>
      <trkpt lat="47.7819" lon="-3.57841">
        <ele>49</ele>
        <time>2018-07-14T11:20:32Z</time>
      </trkpt>
      <trkpt lat="47.78195" lon="-3.57843">
        <ele>49</ele>
        <time>2018-07-14T11:20:33Z</time>
      </trkpt>
      <trkpt lat="47.782" lon="-3.57846">
        <ele>49</ele>
        <time>2018-07-14T11:20:34Z</time>
      </trkpt>
      <trkpt lat="47.78205" lon="-3.57849">
        <ele>49</ele>
        <time>2018-07-14T11:20:35Z</time>
      </trkpt>
      <trkpt lat="47.78208" lon="-3.57854">
        <ele>49</ele>
        <time>2018-07-14T11:20:36Z</time>
      </trkpt>
      <trkpt lat="47.78209" lon="-3.57858">
        <ele>49</ele>
        <time>2018-07-14T11:20:37Z</time>
      </trkpt>
      <trkpt lat="47.78209" lon="-3.57862">
        <ele>49</ele>
        <time>2018-07-14T11:20:38Z</time>
      </trkpt>
      <trkpt lat="47.78208" lon="-3.57867">
        <ele>50</ele>
        <time>2018-07-14T11:20:39Z</time>
      </trkpt>
      <trkpt lat="47.78207" lon="-3.57872">
        <ele>50</ele>
        <time>2018-07-14T11:20:40Z</time>
      </trkpt>
      <trkpt lat="47.78207" lon="-3.57878">
        <ele>50</ele>
        <time>2018-07-14T11:20:41Z</time>
      </trkpt>
      <trkpt lat="47.78206" lon="-3.57885">
        <ele>50</ele>
        <time>2018-07-14T11:20:42Z</time>
      </trkpt>
      <trkpt lat="47.78205" lon="-3.57894">
        <ele>50</ele>
        <time>2018-07-14T11:20:43Z</time>
      </trkpt>
      <trkpt lat="47.78203" lon="-3.57901">
        <ele>50</ele>
        <time>2018-07-14T11:20:44Z</time>
      </trkpt>
      <trkpt lat="47.78202" lon="-3.57908">
        <ele>50</ele>
        <time>2018-07-14T11:20:45Z</time>
      </trkpt>
      <trkpt lat="47.78201" lon="-3.57915">
        <ele>50</ele>
        <time>2018-07-14T11:20:46Z</time>
      </trkpt>
      <trkpt lat="47.782" lon="-3.57923">
        <ele>51</ele>
        <time>2018-07-14T11:20:47Z</time>
      </trkpt>
      <trkpt lat="47.78199" lon="-3.57929">
        <ele>51</ele>
        <time>2018-07-14T11:20:48Z</time>
      </trkpt>
      <trkpt lat="47.78198" lon="-3.57936">
        <ele>51</ele>
        <time>2018-07-14T11:20:49Z</time>
      </trkpt>
      <trkpt lat="47.78199" lon="-3.57941">
        <ele>51</ele>
        <time>2018-07-14T11:20:50Z</time>
      </trkpt>
      <trkpt lat="47.78202" lon="-3.57944">
        <ele>51</ele>
        <time>2018-07-14T11:20:51Z</time>
      </trkpt>
      <trkpt lat="47.78204" lon="-3.57947">
        <ele>51</ele>
        <time>2018-07-14T11:20:52Z</time>
      </trkpt>
      <trkpt lat="47.78208" lon="-3.57949">
        <ele>52</ele>
        <time>2018-07-14T11:20:53Z</time>
      </trkpt>
      <trkpt lat="47.78212" lon="-3.57951">
        <ele>52</ele>
        <time>2018-07-14T11:20:54Z</time>
      </trkpt>
      <trkpt lat="47.78215" lon="-3.57954">
        <ele>52</ele>
        <time>2018-07-14T11:20:55Z</time>
      </trkpt>
      <trkpt lat="47.78219" lon="-3.57956">
        <ele>52</ele>
        <time>2018-07-14T11:20:56Z</time>
      </trkpt>
      <trkpt lat="47.78222" lon="-3.57958">
        <ele>52</ele>
        <time>2018-07-14T11:20:57Z</time>
      </trkpt>
      <trkpt lat="47.78226" lon="-3.5796">
        <ele>52</ele>
        <time>2018-07-14T11:20:58Z</time>
      </trkpt>
      <trkpt lat="47.7823" lon="-3.57962">
        <ele>52</ele>
        <time>2018-07-14T11:20:59Z</time>
      </trkpt>
      <trkpt lat="47.78233" lon="-3.57964">
        <ele>52</ele>
        <time>2018-07-14T11:21:00Z</time>
      </trkpt>
      <trkpt lat="47.78235" lon="-3.57965">
        <ele>52</ele>
        <time>2018-07-14T11:21:01Z</time>
      </trkpt>
      <trkpt lat="47.78235" lon="-3.57966">
        <ele>52</ele>
        <time>2018-07-14T11:21:02Z</time>
      </trkpt>
      <trkpt lat="47.78236" lon="-3.57966">
        <ele>53</ele>
        <time>2018-07-14T11:21:03Z</time>
      </trkpt>
      <trkpt lat="47.78236" lon="-3.57966">
        <ele>53</ele>
        <time>2018-07-14T11:21:04Z</time>
      </trkpt>
      <trkpt lat="47.78236" lon="-3.57967">
        <ele>53</ele>
        <time>2018-07-14T11:21:05Z</time>
      </trkpt>
      <trkpt lat="47.78238" lon="-3.5797">
        <ele>53</ele>
        <time>2018-07-14T11:21:06Z</time>
      </trkpt>
      <trkpt lat="47.78238" lon="-3.57972">
        <ele>53</ele>
        <time>2018-07-14T11:21:07Z</time>
      </trkpt>
      <trkpt lat="47.78239" lon="-3.57975">
        <ele>53</ele>
        <time>2018-07-14T11:21:08Z</time>
      </trkpt>
      <trkpt lat="47.7824" lon="-3.57978">
        <ele>53</ele>
        <time>2018-07-14T11:21:09Z</time>
      </trkpt>
      <trkpt lat="47.78241" lon="-3.57982">
        <ele>53</ele>
        <time>2018-07-14T11:21:10Z</time>
      </trkpt>
      <trkpt lat="47.78242" lon="-3.57985">
        <ele>53</ele>
        <time>2018-07-14T11:21:11Z</time>
      </trkpt>
      <trkpt lat="47.78243" lon="-3.57987">
        <ele>54</ele>
        <time>2018-07-14T11:21:12Z</time>
      </trkpt>
      <trkpt lat="47.78245" lon="-3.5799">
        <ele>54</ele>
        <time>2018-07-14T11:21:13Z</time>
      </trkpt>
      <trkpt lat="47.78248" lon="-3.57992">
        <ele>54</ele>
        <time>2018-07-14T11:21:14Z</time>
      </trkpt>
      <trkpt lat="47.78251" lon="-3.57995">
        <ele>54</ele>
        <time>2018-07-14T11:21:15Z</time>
      </trkpt>
      <trkpt lat="47.78254" lon="-3.57998">
        <ele>54</ele>
        <time>2018-07-14T11:21:16Z</time>
      </trkpt>
      <trkpt lat="47.78257" lon="-3.58001">
        <ele>54</ele>
        <time>2018-07-14T11:21:17Z</time>
      </trkpt>
      <trkpt lat="47.7826" lon="-3.58005">
        <ele>54</ele>
        <time>2018-07-14T11:21:18Z</time>
      </trkpt>
      <trkpt lat="47.78264" lon="-3.58008">
        <ele>54</ele>
        <time>2018-07-14T11:21:19Z</time>
      </trkpt>
      <trkpt lat="47.78267" lon="-3.58011">
        <ele>54</ele>
        <time>2018-07-14T11:21:20Z</time>
      </trkpt>
      <trkpt lat="47.78271" lon="-3.58014">
        <ele>54</ele>
        <time>2018-07-14T11:21:21Z</time>
      </trkpt>
      <trkpt lat="47.78274" lon="-3.58018">
        <ele>55</ele>
        <time>2018-07-14T11:21:22Z</time>
      </trkpt>
      <trkpt lat="47.78278" lon="-3.58022">
        <ele>55</ele>
        <time>2018-07-14T11:21:23Z</time>
      </trkpt>
      <trkpt lat="47.78281" lon="-3.58025">
        <ele>55</ele>
        <time>2018-07-14T11:21:24Z</time>
      </trkpt>
      <trkpt lat="47.78285" lon="-3.58029">
        <ele>55</ele>
        <time>2018-07-14T11:21:25Z</time>
      </trkpt>
      <trkpt lat="47.78289" lon="-3.58032">
        <ele>55</ele>
        <time>2018-07-14T11:21:26Z</time>
      </trkpt>
      <trkpt lat="47.78293" lon="-3.58036">
        <ele>56</ele>
        <time>2018-07-14T11:21:27Z</time>
      </trkpt>
      <trkpt lat="47.78297" lon="-3.5804">
        <ele>56</ele>
        <time>2018-07-14T11:21:28Z</time>
      </trkpt>
      <trkpt lat="47.78301" lon="-3.58043">
        <ele>56</ele>
        <time>2018-07-14T11:21:29Z</time>
      </trkpt>
      <trkpt lat="47.78304" lon="-3.58047">
        <ele>56</ele>
        <time>2018-07-14T11:21:30Z</time>
      </trkpt>
      <trkpt lat="47.78308" lon="-3.5805">
        <ele>57</ele>
        <time>2018-07-14T11:21:31Z</time>
      </trkpt>
      <trkpt lat="47.78312" lon="-3.58054">
        <ele>57</ele>
        <time>2018-07-14T11:21:32Z</time>
      </trkpt>
      <trkpt lat="47.78316" lon="-3.58058">
        <ele>57</ele>
        <time>2018-07-14T11:21:33Z</time>
      </trkpt>
      <trkpt lat="47.78319" lon="-3.58061">
        <ele>57</ele>
        <time>2018-07-14T11:21:34Z</time>
      </trkpt>
      <trkpt lat="47.78322" lon="-3.58065">
        <ele>57</ele>
        <time>2018-07-14T11:21:35Z</time>
      </trkpt>
      <trkpt lat="47.78326" lon="-3.58069">
        <ele>58</ele>
        <time>2018-07-14T11:21:36Z</time>
      </trkpt>
      <trkpt lat="47.7833" lon="-3.58072">
        <ele>58</ele>
        <time>2018-07-14T11:21:37Z</time>
      </trkpt>
      <trkpt lat="47.78334" lon="-3.58076">
        <ele>58</ele>
        <time>2018-07-14T11:21:38Z</time>
      </trkpt>
      <trkpt lat="47.78338" lon="-3.5808">
        <ele>58</ele>
        <time>2018-07-14T11:21:39Z</time>
      </trkpt>
      <trkpt lat="47.78341" lon="-3.58084">
        <ele>58</ele>
        <time>2018-07-14T11:21:40Z</time>
      </trkpt>
      <trkpt lat="47.78345" lon="-3.58087">
        <ele>58</ele>
        <time>2018-07-14T11:21:41Z</time>
      </trkpt>
      <trkpt lat="47.78349" lon="-3.58091">
        <ele>59</ele>
        <time>2018-07-14T11:21:42Z</time>
      </trkpt>
      <trkpt lat="47.78353" lon="-3.58095">
        <ele>59</ele>
        <time>2018-07-14T11:21:43Z</time>
      </trkpt>
      <trkpt lat="47.78356" lon="-3.58098">
        <ele>59</ele>
        <time>2018-07-14T11:21:44Z</time>
      </trkpt>
      <trkpt lat="47.7836" lon="-3.58102">
        <ele>59</ele>
        <time>2018-07-14T11:21:45Z</time>
      </trkpt>
      <trkpt lat="47.78363" lon="-3.58106">
        <ele>59</ele>
        <time>2018-07-14T11:21:46Z</time>
      </trkpt>
      <trkpt lat="47.78366" lon="-3.5811">
        <ele>59</ele>
        <time>2018-07-14T11:21:47Z</time>
      </trkpt>
      <trkpt lat="47.78368" lon="-3.58116">
        <ele>59</ele>
        <time>2018-07-14T11:21:48Z</time>
      </trkpt>
      <trkpt lat="47.78369" lon="-3.58122">
        <ele>59</ele>
        <time>2018-07-14T11:21:49Z</time>
      </trkpt>
      <trkpt lat="47.78369" lon="-3.58129">
        <ele>59</ele>
        <time>2018-07-14T11:21:50Z</time>
      </trkpt>
      <trkpt lat="47.78369" lon="-3.58137">
        <ele>59</ele>
        <time>2018-07-14T11:21:51Z</time>
      </trkpt>
      <trkpt lat="47.78368" lon="-3.58144">
        <ele>59</ele>
        <time>2018-07-14T11:21:52Z</time>
      </trkpt>
      <trkpt lat="47.78368" lon="-3.58152">
        <ele>59</ele>
        <time>2018-07-14T11:21:53Z</time>
      </trkpt>
      <trkpt lat="47.78368" lon="-3.58159">
        <ele>59</ele>
        <time>2018-07-14T11:21:54Z</time>
      </trkpt>
      <trkpt lat="47.7837" lon="-3.58166">
        <ele>59</ele>
        <time>2018-07-14T11:21:55Z</time>
      </trkpt>
      <trkpt lat="47.78373" lon="-3.58171">
        <ele>59</ele>
        <time>2018-07-14T11:21:56Z</time>
      </trkpt>
      <trkpt lat="47.78376" lon="-3.58174">
        <ele>59</ele>
        <time>2018-07-14T11:21:57Z</time>
      </trkpt>
      <trkpt lat="47.7838" lon="-3.58174">
        <ele>59</ele>
        <time>2018-07-14T11:21:58Z</time>
      </trkpt>
      <trkpt lat="47.78384" lon="-3.58173">
        <ele>59</ele>
        <time>2018-07-14T11:21:59Z</time>
      </trkpt>
      <trkpt lat="47.78388" lon="-3.58173">
        <ele>59</ele>
        <time>2018-07-14T11:22:00Z</time>
      </trkpt>
      <trkpt lat="47.78392" lon="-3.58172">
        <ele>59</ele>
        <time>2018-07-14T11:22:01Z</time>
      </trkpt>
      <trkpt lat="47.78396" lon="-3.58171">
        <ele>59</ele>
        <time>2018-07-14T11:22:02Z</time>
      </trkpt>
      <trkpt lat="47.78401" lon="-3.5817">
        <ele>59</ele>
        <time>2018-07-14T11:22:03Z</time>
      </trkpt>
      <trkpt lat="47.78406" lon="-3.58169">
        <ele>59</ele>
        <time>2018-07-14T11:22:04Z</time>
      </trkpt>
      <trkpt lat="47.7841" lon="-3.58168">
        <ele>60</ele>
        <time>2018-07-14T11:22:05Z</time>
      </trkpt>
      <trkpt lat="47.78414" lon="-3.58168">
        <ele>60</ele>
        <time>2018-07-14T11:22:06Z</time>
      </trkpt>
      <trkpt lat="47.78419" lon="-3.58167">
        <ele>60</ele>
        <time>2018-07-14T11:22:07Z</time>
      </trkpt>
      <trkpt lat="47.78422" lon="-3.58166">
        <ele>60</ele>
        <time>2018-07-14T11:22:08Z</time>
      </trkpt>
      <trkpt lat="47.78427" lon="-3.58165">
        <ele>60</ele>
        <time>2018-07-14T11:22:09Z</time>
      </trkpt>
      <trkpt lat="47.78431" lon="-3.58165">
        <ele>60</ele>
        <time>2018-07-14T11:22:10Z</time>
      </trkpt>
      <trkpt lat="47.78436" lon="-3.58165">
        <ele>60</ele>
        <time>2018-07-14T11:22:11Z</time>
      </trkpt>
      <trkpt lat="47.78441" lon="-3.58165">
        <ele>60</ele>
        <time>2018-07-14T11:22:12Z</time>
      </trkpt>
      <trkpt lat="47.78445" lon="-3.58165">
        <ele>60</ele>
        <time>2018-07-14T11:22:13Z</time>
      </trkpt>
      <trkpt lat="47.7845" lon="-3.58164">
        <ele>60</ele>
        <time>2018-07-14T11:22:14Z</time>
      </trkpt>
      <trkpt lat="47.78455" lon="-3.58164">
        <ele>61</ele>
        <time>2018-07-14T11:22:15Z</time>
      </trkpt>
      <trkpt lat="47.78461" lon="-3.58164">
        <ele>61</ele>
        <time>2018-07-14T11:22:16Z</time>
      </trkpt>
      <trkpt lat="47.78466" lon="-3.58164">
        <ele>61</ele>
        <time>2018-07-14T11:22:17Z</time>
      </trkpt>
      <trkpt lat="47.78472" lon="-3.58163">
        <ele>61</ele>
        <time>2018-07-14T11:22:18Z</time>
      </trkpt>
      <trkpt lat="47.78477" lon="-3.58163">
        <ele>60</ele>
        <time>2018-07-14T11:22:19Z</time>
      </trkpt>
      <trkpt lat="47.78483" lon="-3.58163">
        <ele>60</ele>
        <time>2018-07-14T11:22:20Z</time>
      </trkpt>
      <trkpt lat="47.78488" lon="-3.58164">
        <ele>60</ele>
        <time>2018-07-14T11:22:21Z</time>
      </trkpt>
      <trkpt lat="47.78494" lon="-3.58164">
        <ele>60</ele>
        <time>2018-07-14T11:22:22Z</time>
      </trkpt>
      <trkpt lat="47.785" lon="-3.58165">
        <ele>60</ele>
        <time>2018-07-14T11:22:23Z</time>
      </trkpt>
      <trkpt lat="47.78506" lon="-3.58165">
        <ele>61</ele>
        <time>2018-07-14T11:22:24Z</time>
      </trkpt>
      <trkpt lat="47.78512" lon="-3.58166">
        <ele>61</ele>
        <time>2018-07-14T11:22:25Z</time>
      </trkpt>
      <trkpt lat="47.78518" lon="-3.58167">
        <ele>60</ele>
        <time>2018-07-14T11:22:26Z</time>
      </trkpt>
      <trkpt lat="47.78524" lon="-3.58167">
        <ele>60</ele>
        <time>2018-07-14T11:22:27Z</time>
      </trkpt>
      <trkpt lat="47.78531" lon="-3.58168">
        <ele>60</ele>
        <time>2018-07-14T11:22:28Z</time>
      </trkpt>
      <trkpt lat="47.78537" lon="-3.58169">
        <ele>60</ele>
        <time>2018-07-14T11:22:29Z</time>
      </trkpt>
      <trkpt lat="47.78544" lon="-3.5817">
        <ele>60</ele>
        <time>2018-07-14T11:22:30Z</time>
      </trkpt>
      <trkpt lat="47.7855" lon="-3.5817">
        <ele>60</ele>
        <time>2018-07-14T11:22:31Z</time>
      </trkpt>
      <trkpt lat="47.78557" lon="-3.58171">
        <ele>60</ele>
        <time>2018-07-14T11:22:32Z</time>
      </trkpt>
      <trkpt lat="47.78564" lon="-3.58171">
        <ele>59</ele>
        <time>2018-07-14T11:22:33Z</time>
      </trkpt>
      <trkpt lat="47.78571" lon="-3.58171">
        <ele>59</ele>
        <time>2018-07-14T11:22:34Z</time>
      </trkpt>
      <trkpt lat="47.78578" lon="-3.58172">
        <ele>59</ele>
        <time>2018-07-14T11:22:35Z</time>
      </trkpt>
      <trkpt lat="47.78585" lon="-3.58172">
        <ele>59</ele>
        <time>2018-07-14T11:22:36Z</time>
      </trkpt>
      <trkpt lat="47.78592" lon="-3.58171">
        <ele>59</ele>
        <time>2018-07-14T11:22:37Z</time>
      </trkpt>
      <trkpt lat="47.78598" lon="-3.58171">
        <ele>59</ele>
        <time>2018-07-14T11:22:38Z</time>
      </trkpt>
      <trkpt lat="47.78604" lon="-3.5817">
        <ele>59</ele>
        <time>2018-07-14T11:22:39Z</time>
      </trkpt>
      <trkpt lat="47.7861" lon="-3.58168">
        <ele>58</ele>
        <time>2018-07-14T11:22:40Z</time>
      </trkpt>
      <trkpt lat="47.78615" lon="-3.58167">
        <ele>58</ele>
        <time>2018-07-14T11:22:41Z</time>
      </trkpt>
      <trkpt lat="47.7862" lon="-3.58167">
        <ele>58</ele>
        <time>2018-07-14T11:22:42Z</time>
      </trkpt>
      <trkpt lat="47.78626" lon="-3.58169">
        <ele>58</ele>
        <time>2018-07-14T11:22:43Z</time>
      </trkpt>
      <trkpt lat="47.78631" lon="-3.58172">
        <ele>58</ele>
        <time>2018-07-14T11:22:44Z</time>
      </trkpt>
      <trkpt lat="47.78635" lon="-3.58175">
        <ele>58</ele>
        <time>2018-07-14T11:22:45Z</time>
      </trkpt>
      <trkpt lat="47.7864" lon="-3.58179">
        <ele>57</ele>
        <time>2018-07-14T11:22:46Z</time>
      </trkpt>
      <trkpt lat="47.78645" lon="-3.58182">
        <ele>57</ele>
        <time>2018-07-14T11:22:47Z</time>
      </trkpt>
      <trkpt lat="47.78649" lon="-3.58184">
        <ele>57</ele>
        <time>2018-07-14T11:22:48Z</time>
      </trkpt>
      <trkpt lat="47.78653" lon="-3.58187">
        <ele>57</ele>
        <time>2018-07-14T11:22:49Z</time>
      </trkpt>
      <trkpt lat="47.78657" lon="-3.58189">
        <ele>57</ele>
        <time>2018-07-14T11:22:50Z</time>
      </trkpt>
      <trkpt lat="47.78661" lon="-3.58191">
        <ele>57</ele>
        <time>2018-07-14T11:22:51Z</time>
      </trkpt>
      <trkpt lat="47.78664" lon="-3.58194">
        <ele>57</ele>
        <time>2018-07-14T11:22:52Z</time>
      </trkpt>
      <trkpt lat="47.78668" lon="-3.58196">
        <ele>57</ele>
        <time>2018-07-14T11:22:53Z</time>
      </trkpt>
      <trkpt lat="47.78671" lon="-3.58199">
        <ele>57</ele>
        <time>2018-07-14T11:22:54Z</time>
      </trkpt>
      <trkpt lat="47.78675" lon="-3.58202">
        <ele>57</ele>
        <time>2018-07-14T11:22:55Z</time>
      </trkpt>
      <trkpt lat="47.78679" lon="-3.58205">
        <ele>57</ele>
        <time>2018-07-14T11:22:56Z</time>
      </trkpt>
      <trkpt lat="47.78683" lon="-3.58208">
        <ele>57</ele>
        <time>2018-07-14T11:22:57Z</time>
      </trkpt>
      <trkpt lat="47.78687" lon="-3.58211">
        <ele>57</ele>
        <time>2018-07-14T11:22:58Z</time>
      </trkpt>
      <trkpt lat="47.78691" lon="-3.58214">
        <ele>57</ele>
        <time>2018-07-14T11:22:59Z</time>
      </trkpt>
      <trkpt lat="47.78696" lon="-3.58217">
        <ele>57</ele>
        <time>2018-07-14T11:23:00Z</time>
      </trkpt>
      <trkpt lat="47.787" lon="-3.5822">
        <ele>57</ele>
        <time>2018-07-14T11:23:01Z</time>
      </trkpt>
      <trkpt lat="47.78705" lon="-3.58224">
        <ele>57</ele>
        <time>2018-07-14T11:23:02Z</time>
      </trkpt>
      <trkpt lat="47.78708" lon="-3.58229">
        <ele>57</ele>
        <time>2018-07-14T11:23:03Z</time>
      </trkpt>
      <trkpt lat="47.78712" lon="-3.58235">
        <ele>57</ele>
        <time>2018-07-14T11:23:04Z</time>
      </trkpt>
      <trkpt lat="47.78714" lon="-3.58242">
        <ele>57</ele>
        <time>2018-07-14T11:23:05Z</time>
      </trkpt>
      <trkpt lat="47.78714" lon="-3.58248">
        <ele>57</ele>
        <time>2018-07-14T11:23:06Z</time>
      </trkpt>
      <trkpt lat="47.78715" lon="-3.58255">
        <ele>57</ele>
        <time>2018-07-14T11:23:07Z</time>
      </trkpt>
      <trkpt lat="47.78716" lon="-3.58262">
        <ele>56</ele>
        <time>2018-07-14T11:23:08Z</time>
      </trkpt>
      <trkpt lat="47.78717" lon="-3.58269">
        <ele>56</ele>
        <time>2018-07-14T11:23:09Z</time>
      </trkpt>
      <trkpt lat="47.78717" lon="-3.58276">
        <ele>56</ele>
        <time>2018-07-14T11:23:10Z</time>
      </trkpt>
      <trkpt lat="47.78717" lon="-3.58282">
        <ele>56</ele>
        <time>2018-07-14T11:23:11Z</time>
      </trkpt>
      <trkpt lat="47.78714" lon="-3.58285">
        <ele>56</ele>
        <time>2018-07-14T11:23:12Z</time>
      </trkpt>
      <trkpt lat="47.78711" lon="-3.58287">
        <ele>56</ele>
        <time>2018-07-14T11:23:13Z</time>
      </trkpt>
      <trkpt lat="47.78707" lon="-3.58287">
        <ele>56</ele>
        <time>2018-07-14T11:23:14Z</time>
      </trkpt>
      <trkpt lat="47.78703" lon="-3.58286">
        <ele>56</ele>
        <time>2018-07-14T11:23:15Z</time>
      </trkpt>
      <trkpt lat="47.78699" lon="-3.58286">
        <ele>55</ele>
        <time>2018-07-14T11:23:16Z</time>
      </trkpt>
      <trkpt lat="47.78694" lon="-3.58286">
        <ele>55</ele>
        <time>2018-07-14T11:23:17Z</time>
      </trkpt>
      <trkpt lat="47.78689" lon="-3.58286">
        <ele>55</ele>
        <time>2018-07-14T11:23:18Z</time>
      </trkpt>
      <trkpt lat="47.78684" lon="-3.58286">
        <ele>55</ele>
        <time>2018-07-14T11:23:19Z</time>
      </trkpt>
      <trkpt lat="47.78679" lon="-3.58285">
        <ele>55</ele>
        <time>2018-07-14T11:23:20Z</time>
      </trkpt>
      <trkpt lat="47.78675" lon="-3.58287">
        <ele>55</ele>
        <time>2018-07-14T11:23:21Z</time>
      </trkpt>
      <trkpt lat="47.78673" lon="-3.5829">
        <ele>55</ele>
        <time>2018-07-14T11:23:22Z</time>
      </trkpt>
      <trkpt lat="47.78672" lon="-3.58295">
        <ele>55</ele>
        <time>2018-07-14T11:23:23Z</time>
      </trkpt>
      <trkpt lat="47.78674" lon="-3.58302">
        <ele>56</ele>
        <time>2018-07-14T11:23:24Z</time>
      </trkpt>
      <trkpt lat="47.78676" lon="-3.58309">
        <ele>56</ele>
        <time>2018-07-14T11:23:25Z</time>
      </trkpt>
      <trkpt lat="47.78679" lon="-3.58316">
        <ele>55</ele>
        <time>2018-07-14T11:23:26Z</time>
      </trkpt>
      <trkpt lat="47.78683" lon="-3.58324">
        <ele>55</ele>
        <time>2018-07-14T11:23:27Z</time>
      </trkpt>
      <trkpt lat="47.78686" lon="-3.58332">
        <ele>55</ele>
        <time>2018-07-14T11:23:28Z</time>
      </trkpt>
      <trkpt lat="47.78689" lon="-3.5834">
        <ele>55</ele>
        <time>2018-07-14T11:23:29Z</time>
      </trkpt>
      <trkpt lat="47.78692" lon="-3.58349">
        <ele>55</ele>
        <time>2018-07-14T11:23:30Z</time>
      </trkpt>
      <trkpt lat="47.78695" lon="-3.58358">
        <ele>55</ele>
        <time>2018-07-14T11:23:31Z</time>
      </trkpt>
      <trkpt lat="47.78698" lon="-3.58367">
        <ele>55</ele>
        <time>2018-07-14T11:23:32Z</time>
      </trkpt>
      <trkpt lat="47.78701" lon="-3.58376">
        <ele>54</ele>
        <time>2018-07-14T11:23:33Z</time>
      </trkpt>
      <trkpt lat="47.78704" lon="-3.58384">
        <ele>54</ele>
        <time>2018-07-14T11:23:34Z</time>
      </trkpt>
      <trkpt lat="47.78708" lon="-3.58393">
        <ele>54</ele>
        <time>2018-07-14T11:23:35Z</time>
      </trkpt>
      <trkpt lat="47.78711" lon="-3.58402">
        <ele>54</ele>
        <time>2018-07-14T11:23:36Z</time>
      </trkpt>
      <trkpt lat="47.78714" lon="-3.58411">
        <ele>54</ele>
        <time>2018-07-14T11:23:37Z</time>
      </trkpt>
      <trkpt lat="47.78717" lon="-3.5842">
        <ele>53</ele>
        <time>2018-07-14T11:23:38Z</time>
      </trkpt>
      <trkpt lat="47.7872" lon="-3.58429">
        <ele>53</ele>
        <time>2018-07-14T11:23:39Z</time>
      </trkpt>
      <trkpt lat="47.78724" lon="-3.58437">
        <ele>53</ele>
        <time>2018-07-14T11:23:40Z</time>
      </trkpt>
      <trkpt lat="47.78727" lon="-3.58446">
        <ele>53</ele>
        <time>2018-07-14T11:23:41Z</time>
      </trkpt>
      <trkpt lat="47.78731" lon="-3.58455">
        <ele>52</ele>
        <time>2018-07-14T11:23:42Z</time>
      </trkpt>
      <trkpt lat="47.78735" lon="-3.58464">
        <ele>52</ele>
        <time>2018-07-14T11:23:43Z</time>
      </trkpt>
      <trkpt lat="47.78739" lon="-3.58473">
        <ele>52</ele>
        <time>2018-07-14T11:23:44Z</time>
      </trkpt>
      <trkpt lat="47.78743" lon="-3.58482">
        <ele>52</ele>
        <time>2018-07-14T11:23:45Z</time>
      </trkpt>
      <trkpt lat="47.78747" lon="-3.58491">
        <ele>51</ele>
        <time>2018-07-14T11:23:46Z</time>
      </trkpt>
      <trkpt lat="47.78751" lon="-3.58499">
        <ele>51</ele>
        <time>2018-07-14T11:23:47Z</time>
      </trkpt>
      <trkpt lat="47.78755" lon="-3.58508">
        <ele>51</ele>
        <time>2018-07-14T11:23:48Z</time>
      </trkpt>
      <trkpt lat="47.78759" lon="-3.58518">
        <ele>51</ele>
        <time>2018-07-14T11:23:49Z</time>
      </trkpt>
      <trkpt lat="47.78763" lon="-3.58527">
        <ele>51</ele>
        <time>2018-07-14T11:23:50Z</time>
      </trkpt>
      <trkpt lat="47.78766" lon="-3.58537">
        <ele>50</ele>
        <time>2018-07-14T11:23:51Z</time>
      </trkpt>
      <trkpt lat="47.7877" lon="-3.58547">
        <ele>50</ele>
        <time>2018-07-14T11:23:52Z</time>
      </trkpt>
      <trkpt lat="47.78773" lon="-3.58557">
        <ele>50</ele>
        <time>2018-07-14T11:23:53Z</time>
      </trkpt>
      <trkpt lat="47.78775" lon="-3.58567">
        <ele>50</ele>
        <time>2018-07-14T11:23:54Z</time>
      </trkpt>
      <trkpt lat="47.78777" lon="-3.58577">
        <ele>49</ele>
        <time>2018-07-14T11:23:55Z</time>
      </trkpt>
      <trkpt lat="47.78778" lon="-3.58588">
        <ele>49</ele>
        <time>2018-07-14T11:23:56Z</time>
      </trkpt>
      <trkpt lat="47.7878" lon="-3.58599">
        <ele>49</ele>
        <time>2018-07-14T11:23:57Z</time>
      </trkpt>
      <trkpt lat="47.78781" lon="-3.58609">
        <ele>48</ele>
        <time>2018-07-14T11:23:58Z</time>
      </trkpt>
      <trkpt lat="47.78783" lon="-3.5862">
        <ele>48</ele>
        <time>2018-07-14T11:23:59Z</time>
      </trkpt>
      <trkpt lat="47.78785" lon="-3.5863">
        <ele>48</ele>
        <time>2018-07-14T11:24:00Z</time>
      </trkpt>
      <trkpt lat="47.78787" lon="-3.5864">
        <ele>48</ele>
        <time>2018-07-14T11:24:01Z</time>
      </trkpt>
      <trkpt lat="47.78789" lon="-3.58651">
        <ele>48</ele>
        <time>2018-07-14T11:24:02Z</time>
      </trkpt>
      <trkpt lat="47.7879" lon="-3.58661">
        <ele>47</ele>
        <time>2018-07-14T11:24:03Z</time>
      </trkpt>
      <trkpt lat="47.78792" lon="-3.58671">
        <ele>47</ele>
        <time>2018-07-14T11:24:04Z</time>
      </trkpt>
      <trkpt lat="47.78793" lon="-3.58681">
        <ele>47</ele>
        <time>2018-07-14T11:24:05Z</time>
      </trkpt>
      <trkpt lat="47.78795" lon="-3.58691">
        <ele>47</ele>
        <time>2018-07-14T11:24:06Z</time>
      </trkpt>
      <trkpt lat="47.78796" lon="-3.587">
        <ele>47</ele>
        <time>2018-07-14T11:24:07Z</time>
      </trkpt>
      <trkpt lat="47.78798" lon="-3.58709">
        <ele>47</ele>
        <time>2018-07-14T11:24:08Z</time>
      </trkpt>
      <trkpt lat="47.78799" lon="-3.58719">
        <ele>47</ele>
        <time>2018-07-14T11:24:09Z</time>
      </trkpt>
      <trkpt lat="47.788" lon="-3.58728">
        <ele>46</ele>
        <time>2018-07-14T11:24:10Z</time>
      </trkpt>
      <trkpt lat="47.78801" lon="-3.58737">
        <ele>46</ele>
        <time>2018-07-14T11:24:11Z</time>
      </trkpt>
      <trkpt lat="47.78802" lon="-3.58746">
        <ele>46</ele>
        <time>2018-07-14T11:24:12Z</time>
      </trkpt>
      <trkpt lat="47.78802" lon="-3.58754">
        <ele>46</ele>
        <time>2018-07-14T11:24:13Z</time>
      </trkpt>
      <trkpt lat="47.788" lon="-3.58762">
        <ele>46</ele>
        <time>2018-07-14T11:24:14Z</time>
      </trkpt>
      <trkpt lat="47.78798" lon="-3.58768">
        <ele>46</ele>
        <time>2018-07-14T11:24:15Z</time>
      </trkpt>
      <trkpt lat="47.78796" lon="-3.58775">
        <ele>46</ele>
        <time>2018-07-14T11:24:16Z</time>
      </trkpt>
      <trkpt lat="47.78794" lon="-3.58781">
        <ele>46</ele>
        <time>2018-07-14T11:24:17Z</time>
      </trkpt>
      <trkpt lat="47.78792" lon="-3.58788">
        <ele>46</ele>
        <time>2018-07-14T11:24:18Z</time>
      </trkpt>
      <trkpt lat="47.7879" lon="-3.58794">
        <ele>46</ele>
        <time>2018-07-14T11:24:19Z</time>
      </trkpt>
      <trkpt lat="47.78788" lon="-3.58801">
        <ele>46</ele>
        <time>2018-07-14T11:24:20Z</time>
      </trkpt>
      <trkpt lat="47.78786" lon="-3.58808">
        <ele>46</ele>
        <time>2018-07-14T11:24:21Z</time>
      </trkpt>
      <trkpt lat="47.78784" lon="-3.58815">
        <ele>47</ele>
        <time>2018-07-14T11:24:22Z</time>
      </trkpt>
      <trkpt lat="47.78781" lon="-3.58822">
        <ele>47</ele>
        <time>2018-07-14T11:24:23Z</time>
      </trkpt>
      <trkpt lat="47.78779" lon="-3.58828">
        <ele>47</ele>
        <time>2018-07-14T11:24:24Z</time>
      </trkpt>
      <trkpt lat="47.78776" lon="-3.58835">
        <ele>47</ele>
        <time>2018-07-14T11:24:25Z</time>
      </trkpt>
      <trkpt lat="47.78773" lon="-3.58841">
        <ele>47</ele>
        <time>2018-07-14T11:24:26Z</time>
      </trkpt>
      <trkpt lat="47.7877" lon="-3.58847">
        <ele>47</ele>
        <time>2018-07-14T11:24:27Z</time>
      </trkpt>
      <trkpt lat="47.78767" lon="-3.58851">
        <ele>47</ele>
        <time>2018-07-14T11:24:28Z</time>
      </trkpt>
      <trkpt lat="47.78764" lon="-3.58853">
        <ele>47</ele>
        <time>2018-07-14T11:24:29Z</time>
      </trkpt>
      <trkpt lat="47.78761" lon="-3.58854">
        <ele>47</ele>
        <time>2018-07-14T11:24:30Z</time>
      </trkpt>
      <trkpt lat="47.78757" lon="-3.58854">
        <ele>47</ele>
        <time>2018-07-14T11:24:31Z</time>
      </trkpt>
      <trkpt lat="47.78753" lon="-3.58854">
        <ele>47</ele>
        <time>2018-07-14T11:24:32Z</time>
      </trkpt>
      <trkpt lat="47.78749" lon="-3.58855">
        <ele>47</ele>
        <time>2018-07-14T11:24:33Z</time>
      </trkpt>
      <trkpt lat="47.78744" lon="-3.58856">
        <ele>47</ele>
        <time>2018-07-14T11:24:34Z</time>
      </trkpt>
      <trkpt lat="47.7874" lon="-3.58857">
        <ele>47</ele>
        <time>2018-07-14T11:24:35Z</time>
      </trkpt>
      <trkpt lat="47.78735" lon="-3.58858">
        <ele>47</ele>
        <time>2018-07-14T11:24:36Z</time>
      </trkpt>
      <trkpt lat="47.78732" lon="-3.58859">
        <ele>47</ele>
        <time>2018-07-14T11:24:37Z</time>
      </trkpt>
      <trkpt lat="47.78728" lon="-3.58859">
        <ele>47</ele>
        <time>2018-07-14T11:24:38Z</time>
      </trkpt>
      <trkpt lat="47.78724" lon="-3.5886">
        <ele>47</ele>
        <time>2018-07-14T11:24:39Z</time>
      </trkpt>
      <trkpt lat="47.7872" lon="-3.58861">
        <ele>47</ele>
        <time>2018-07-14T11:24:40Z</time>
      </trkpt>
      <trkpt lat="47.78715" lon="-3.58863">
        <ele>47</ele>
        <time>2018-07-14T11:24:41Z</time>
      </trkpt>
      <trkpt lat="47.7871" lon="-3.58865">
        <ele>47</ele>
        <time>2018-07-14T11:24:42Z</time>
      </trkpt>
      <trkpt lat="47.78705" lon="-3.58867">
        <ele>47</ele>
        <time>2018-07-14T11:24:43Z</time>
      </trkpt>
      <trkpt lat="47.78701" lon="-3.58869">
        <ele>47</ele>
        <time>2018-07-14T11:24:44Z</time>
      </trkpt>
      <trkpt lat="47.78697" lon="-3.58872">
        <ele>47</ele>
        <time>2018-07-14T11:24:45Z</time>
      </trkpt>
      <trkpt lat="47.78693" lon="-3.58873">
        <ele>47</ele>
        <time>2018-07-14T11:24:46Z</time>
      </trkpt>
      <trkpt lat="47.7869" lon="-3.58876">
        <ele>47</ele>
        <time>2018-07-14T11:24:47Z</time>
      </trkpt>
      <trkpt lat="47.78686" lon="-3.58879">
        <ele>47</ele>
        <time>2018-07-14T11:24:48Z</time>
      </trkpt>
      <trkpt lat="47.78683" lon="-3.58881">
        <ele>47</ele>
        <time>2018-07-14T11:24:49Z</time>
      </trkpt>
      <trkpt lat="47.78678" lon="-3.58884">
        <ele>47</ele>
        <time>2018-07-14T11:24:50Z</time>
      </trkpt>
      <trkpt lat="47.78674" lon="-3.58886">
        <ele>47</ele>
        <time>2018-07-14T11:24:51Z</time>
      </trkpt>
      <trkpt lat="47.78669" lon="-3.58888">
        <ele>47</ele>
        <time>2018-07-14T11:24:52Z</time>
      </trkpt>
      <trkpt lat="47.78665" lon="-3.5889">
        <ele>47</ele>
        <time>2018-07-14T11:24:53Z</time>
      </trkpt>
      <trkpt lat="47.78662" lon="-3.58892">
        <ele>47</ele>
        <time>2018-07-14T11:24:54Z</time>
      </trkpt>
      <trkpt lat="47.78658" lon="-3.58893">
        <ele>47</ele>
        <time>2018-07-14T11:24:55Z</time>
      </trkpt>
      <trkpt lat="47.78654" lon="-3.58896">
        <ele>47</ele>
        <time>2018-07-14T11:24:56Z</time>
      </trkpt>
      <trkpt lat="47.78649" lon="-3.58898">
        <ele>47</ele>
        <time>2018-07-14T11:24:57Z</time>
      </trkpt>
      <trkpt lat="47.78645" lon="-3.58901">
        <ele>47</ele>
        <time>2018-07-14T11:24:58Z</time>
      </trkpt>
      <trkpt lat="47.78641" lon="-3.58903">
        <ele>47</ele>
        <time>2018-07-14T11:24:59Z</time>
      </trkpt>
      <trkpt lat="47.78636" lon="-3.58905">
        <ele>47</ele>
        <time>2018-07-14T11:25:00Z</time>
      </trkpt>
      <trkpt lat="47.78632" lon="-3.58907">
        <ele>47</ele>
        <time>2018-07-14T11:25:01Z</time>
      </trkpt>
      <trkpt lat="47.78629" lon="-3.58909">
        <ele>47</ele>
        <time>2018-07-14T11:25:02Z</time>
      </trkpt>
      <trkpt lat="47.78625" lon="-3.58911">
        <ele>47</ele>
        <time>2018-07-14T11:25:03Z</time>
      </trkpt>
      <trkpt lat="47.78622" lon="-3.58912">
        <ele>47</ele>
        <time>2018-07-14T11:25:04Z</time>
      </trkpt>
      <trkpt lat="47.78618" lon="-3.58914">
        <ele>47</ele>
        <time>2018-07-14T11:25:05Z</time>
      </trkpt>
      <trkpt lat="47.78614" lon="-3.58916">
        <ele>47</ele>
        <time>2018-07-14T11:25:06Z</time>
      </trkpt>
      <trkpt lat="47.7861" lon="-3.58919">
        <ele>47</ele>
        <time>2018-07-14T11:25:07Z</time>
      </trkpt>
      <trkpt lat="47.78605" lon="-3.58922">
        <ele>47</ele>
        <time>2018-07-14T11:25:08Z</time>
      </trkpt>
      <trkpt lat="47.78601" lon="-3.58925">
        <ele>47</ele>
        <time>2018-07-14T11:25:09Z</time>
      </trkpt>
      <trkpt lat="47.78597" lon="-3.58928">
        <ele>47</ele>
        <time>2018-07-14T11:25:10Z</time>
      </trkpt>
      <trkpt lat="47.78593" lon="-3.58931">
        <ele>47</ele>
        <time>2018-07-14T11:25:11Z</time>
      </trkpt>
      <trkpt lat="47.78589" lon="-3.58934">
        <ele>47</ele>
        <time>2018-07-14T11:25:12Z</time>
      </trkpt>
      <trkpt lat="47.78584" lon="-3.58938">
        <ele>47</ele>
        <time>2018-07-14T11:25:13Z</time>
      </trkpt>
      <trkpt lat="47.7858" lon="-3.58942">
        <ele>47</ele>
        <time>2018-07-14T11:25:14Z</time>
      </trkpt>
      <trkpt lat="47.78576" lon="-3.58945">
        <ele>46</ele>
        <time>2018-07-14T11:25:15Z</time>
      </trkpt>
      <trkpt lat="47.78571" lon="-3.5895">
        <ele>46</ele>
        <time>2018-07-14T11:25:16Z</time>
      </trkpt>
      <trkpt lat="47.78567" lon="-3.58955">
        <ele>46</ele>
        <time>2018-07-14T11:25:17Z</time>
      </trkpt>
      <trkpt lat="47.78563" lon="-3.5896">
        <ele>47</ele>
        <time>2018-07-14T11:25:18Z</time>
      </trkpt>
      <trkpt lat="47.78559" lon="-3.58965">
        <ele>47</ele>
        <time>2018-07-14T11:25:19Z</time>
      </trkpt>
      <trkpt lat="47.78554" lon="-3.5897">
        <ele>47</ele>
        <time>2018-07-14T11:25:20Z</time>
      </trkpt>
      <trkpt lat="47.78549" lon="-3.58975">
        <ele>47</ele>
        <time>2018-07-14T11:25:21Z</time>
      </trkpt>
      <trkpt lat="47.78544" lon="-3.58979">
        <ele>47</ele>
        <time>2018-07-14T11:25:22Z</time>
      </trkpt>
      <trkpt lat="47.78538" lon="-3.58982">
        <ele>47</ele>
        <time>2018-07-14T11:25:23Z</time>
      </trkpt>
      <trkpt lat="47.78532" lon="-3.58985">
        <ele>47</ele>
        <time>2018-07-14T11:25:24Z</time>
      </trkpt>
      <trkpt lat="47.78527" lon="-3.58988">
        <ele>47</ele>
        <time>2018-07-14T11:25:25Z</time>
      </trkpt>
      <trkpt lat="47.78521" lon="-3.58991">
        <ele>48</ele>
        <time>2018-07-14T11:25:26Z</time>
      </trkpt>
      <trkpt lat="47.78516" lon="-3.58994">
        <ele>48</ele>
        <time>2018-07-14T11:25:27Z</time>
      </trkpt>
      <trkpt lat="47.78511" lon="-3.58996">
        <ele>48</ele>
        <time>2018-07-14T11:25:28Z</time>
      </trkpt>
      <trkpt lat="47.78506" lon="-3.58998">
        <ele>48</ele>
        <time>2018-07-14T11:25:29Z</time>
      </trkpt>
      <trkpt lat="47.78501" lon="-3.59">
        <ele>48</ele>
        <time>2018-07-14T11:25:30Z</time>
      </trkpt>
      <trkpt lat="47.78495" lon="-3.59002">
        <ele>48</ele>
        <time>2018-07-14T11:25:31Z</time>
      </trkpt>
      <trkpt lat="47.78488" lon="-3.59005">
        <ele>48</ele>
        <time>2018-07-14T11:25:32Z</time>
      </trkpt>
      <trkpt lat="47.78482" lon="-3.59008">
        <ele>49</ele>
        <time>2018-07-14T11:25:33Z</time>
      </trkpt>
      <trkpt lat="47.78476" lon="-3.59011">
        <ele>49</ele>
        <time>2018-07-14T11:25:34Z</time>
      </trkpt>
      <trkpt lat="47.78469" lon="-3.59014">
        <ele>49</ele>
        <time>2018-07-14T11:25:35Z</time>
      </trkpt>
      <trkpt lat="47.78463" lon="-3.59016">
        <ele>49</ele>
        <time>2018-07-14T11:25:36Z</time>
      </trkpt>
      <trkpt lat="47.78456" lon="-3.59019">
        <ele>49</ele>
        <time>2018-07-14T11:25:37Z</time>
      </trkpt>
      <trkpt lat="47.7845" lon="-3.59021">
        <ele>50</ele>
        <time>2018-07-14T11:25:38Z</time>
      </trkpt>
      <trkpt lat="47.78443" lon="-3.59023">
        <ele>50</ele>
        <time>2018-07-14T11:25:39Z</time>
      </trkpt>
      <trkpt lat="47.78436" lon="-3.59025">
        <ele>50</ele>
        <time>2018-07-14T11:25:40Z</time>
      </trkpt>
      <trkpt lat="47.78429" lon="-3.59027">
        <ele>50</ele>
        <time>2018-07-14T11:25:41Z</time>
      </trkpt>
      <trkpt lat="47.78422" lon="-3.59029">
        <ele>50</ele>
        <time>2018-07-14T11:25:42Z</time>
      </trkpt>
      <trkpt lat="47.78416" lon="-3.59031">
        <ele>50</ele>
        <time>2018-07-14T11:25:43Z</time>
      </trkpt>
      <trkpt lat="47.78409" lon="-3.59032">
        <ele>50</ele>
        <time>2018-07-14T11:25:44Z</time>
      </trkpt>
      <trkpt lat="47.78402" lon="-3.59033">
        <ele>50</ele>
        <time>2018-07-14T11:25:45Z</time>
      </trkpt>
      <trkpt lat="47.78395" lon="-3.59032">
        <ele>50</ele>
        <time>2018-07-14T11:25:46Z</time>
      </trkpt>
      <trkpt lat="47.78389" lon="-3.59031">
        <ele>50</ele>
        <time>2018-07-14T11:25:47Z</time>
      </trkpt>
      <trkpt lat="47.78383" lon="-3.59031">
        <ele>49</ele>
        <time>2018-07-14T11:25:48Z</time>
      </trkpt>
      <trkpt lat="47.78376" lon="-3.59031">
        <ele>49</ele>
        <time>2018-07-14T11:25:49Z</time>
      </trkpt>
      <trkpt lat="47.78369" lon="-3.59033">
        <ele>49</ele>
        <time>2018-07-14T11:25:50Z</time>
      </trkpt>
      <trkpt lat="47.78362" lon="-3.59036">
        <ele>49</ele>
        <time>2018-07-14T11:25:51Z</time>
      </trkpt>
      <trkpt lat="47.78355" lon="-3.59038">
        <ele>48</ele>
        <time>2018-07-14T11:25:52Z</time>
      </trkpt>
      <trkpt lat="47.78349" lon="-3.59041">
        <ele>48</ele>
        <time>2018-07-14T11:25:53Z</time>
      </trkpt>
      <trkpt lat="47.78343" lon="-3.59045">
        <ele>48</ele>
        <time>2018-07-14T11:25:54Z</time>
      </trkpt>
      <trkpt lat="47.78337" lon="-3.59049">
        <ele>47</ele>
        <time>2018-07-14T11:25:55Z</time>
      </trkpt>
      <trkpt lat="47.78333" lon="-3.59052">
        <ele>47</ele>
        <time>2018-07-14T11:25:56Z</time>
      </trkpt>
      <trkpt lat="47.78327" lon="-3.59056">
        <ele>47</ele>
        <time>2018-07-14T11:25:57Z</time>
      </trkpt>
      <trkpt lat="47.78322" lon="-3.59059">
        <ele>47</ele>
        <time>2018-07-14T11:25:58Z</time>
      </trkpt>
      <trkpt lat="47.78317" lon="-3.5906">
        <ele>46</ele>
        <time>2018-07-14T11:25:59Z</time>
      </trkpt>
      <trkpt lat="47.78312" lon="-3.59062">
        <ele>46</ele>
        <time>2018-07-14T11:26:00Z</time>
      </trkpt>
      <trkpt lat="47.78307" lon="-3.59063">
        <ele>46</ele>
        <time>2018-07-14T11:26:01Z</time>
      </trkpt>
      <trkpt lat="47.78302" lon="-3.59063">
        <ele>46</ele>
        <time>2018-07-14T11:26:02Z</time>
      </trkpt>
      <trkpt lat="47.78297" lon="-3.59063">
        <ele>46</ele>
        <time>2018-07-14T11:26:03Z</time>
      </trkpt>
      <trkpt lat="47.78292" lon="-3.59063">
        <ele>46</ele>
        <time>2018-07-14T11:26:04Z</time>
      </trkpt>
      <trkpt lat="47.78287" lon="-3.59063">
        <ele>46</ele>
        <time>2018-07-14T11:26:05Z</time>
      </trkpt>
      <trkpt lat="47.78282" lon="-3.59062">
        <ele>46</ele>
        <time>2018-07-14T11:26:06Z</time>
      </trkpt>
      <trkpt lat="47.78277" lon="-3.59061">
        <ele>46</ele>
        <time>2018-07-14T11:26:07Z</time>
      </trkpt>
      <trkpt lat="47.78272" lon="-3.5906">
        <ele>46</ele>
        <time>2018-07-14T11:26:08Z</time>
      </trkpt>
      <trkpt lat="47.78267" lon="-3.59059">
        <ele>46</ele>
        <time>2018-07-14T11:26:09Z</time>
      </trkpt>
      <trkpt lat="47.78262" lon="-3.59057">
        <ele>46</ele>
        <time>2018-07-14T11:26:10Z</time>
      </trkpt>
      <trkpt lat="47.78258" lon="-3.59056">
        <ele>46</ele>
        <time>2018-07-14T11:26:11Z</time>
      </trkpt>
      <trkpt lat="47.78253" lon="-3.59054">
        <ele>46</ele>
        <time>2018-07-14T11:26:12Z</time>
      </trkpt>
      <trkpt lat="47.78248" lon="-3.59053">
        <ele>46</ele>
        <time>2018-07-14T11:26:13Z</time>
      </trkpt>
      <trkpt lat="47.78243" lon="-3.59051">
        <ele>46</ele>
        <time>2018-07-14T11:26:14Z</time>
      </trkpt>
      <trkpt lat="47.78238" lon="-3.59049">
        <ele>47</ele>
        <time>2018-07-14T11:26:15Z</time>
      </trkpt>
      <trkpt lat="47.78234" lon="-3.59048">
        <ele>47</ele>
        <time>2018-07-14T11:26:16Z</time>
      </trkpt>
      <trkpt lat="47.7823" lon="-3.59047">
        <ele>47</ele>
        <time>2018-07-14T11:26:17Z</time>
      </trkpt>
      <trkpt lat="47.78225" lon="-3.59045">
        <ele>47</ele>
        <time>2018-07-14T11:26:18Z</time>
      </trkpt>
      <trkpt lat="47.78222" lon="-3.59044">
        <ele>47</ele>
        <time>2018-07-14T11:26:19Z</time>
      </trkpt>
      <trkpt lat="47.78218" lon="-3.59044">
        <ele>47</ele>
        <time>2018-07-14T11:26:20Z</time>
      </trkpt>
      <trkpt lat="47.78213" lon="-3.59044">
        <ele>48</ele>
        <time>2018-07-14T11:26:21Z</time>
      </trkpt>
      <trkpt lat="47.7821" lon="-3.59047">
        <ele>48</ele>
        <time>2018-07-14T11:26:22Z</time>
      </trkpt>
      <trkpt lat="47.78207" lon="-3.59052">
        <ele>48</ele>
        <time>2018-07-14T11:26:23Z</time>
      </trkpt>
      <trkpt lat="47.78204" lon="-3.59058">
        <ele>48</ele>
        <time>2018-07-14T11:26:24Z</time>
      </trkpt>
      <trkpt lat="47.78201" lon="-3.59064">
        <ele>49</ele>
        <time>2018-07-14T11:26:25Z</time>
      </trkpt>
      <trkpt lat="47.78198" lon="-3.59071">
        <ele>49</ele>
        <time>2018-07-14T11:26:26Z</time>
      </trkpt>
      <trkpt lat="47.78194" lon="-3.59077">
        <ele>49</ele>
        <time>2018-07-14T11:26:27Z</time>
      </trkpt>
      <trkpt lat="47.7819" lon="-3.59084">
        <ele>49</ele>
        <time>2018-07-14T11:26:28Z</time>
      </trkpt>
      <trkpt lat="47.78187" lon="-3.59091">
        <ele>49</ele>
        <time>2018-07-14T11:26:29Z</time>
      </trkpt>
      <trkpt lat="47.78183" lon="-3.59099">
        <ele>50</ele>
        <time>2018-07-14T11:26:30Z</time>
      </trkpt>
      <trkpt lat="47.7818" lon="-3.59106">
        <ele>50</ele>
        <time>2018-07-14T11:26:31Z</time>
      </trkpt>
      <trkpt lat="47.78176" lon="-3.59113">
        <ele>50</ele>
        <time>2018-07-14T11:26:32Z</time>
      </trkpt>
      <trkpt lat="47.78172" lon="-3.59121">
        <ele>50</ele>
        <time>2018-07-14T11:26:33Z</time>
      </trkpt>
      <trkpt lat="47.78168" lon="-3.59129">
        <ele>51</ele>
        <time>2018-07-14T11:26:34Z</time>
      </trkpt>
      <trkpt lat="47.78164" lon="-3.59136">
        <ele>51</ele>
        <time>2018-07-14T11:26:35Z</time>
      </trkpt>
      <trkpt lat="47.7816" lon="-3.59144">
        <ele>51</ele>
        <time>2018-07-14T11:26:36Z</time>
      </trkpt>
      <trkpt lat="47.78156" lon="-3.59152">
        <ele>51</ele>
        <time>2018-07-14T11:26:37Z</time>
      </trkpt>
      <trkpt lat="47.78152" lon="-3.5916">
        <ele>51</ele>
        <time>2018-07-14T11:26:38Z</time>
      </trkpt>
      <trkpt lat="47.78148" lon="-3.59168">
        <ele>51</ele>
        <time>2018-07-14T11:26:39Z</time>
      </trkpt>
      <trkpt lat="47.78144" lon="-3.59177">
        <ele>51</ele>
        <time>2018-07-14T11:26:40Z</time>
      </trkpt>
      <trkpt lat="47.78139" lon="-3.59185">
        <ele>51</ele>
        <time>2018-07-14T11:26:41Z</time>
      </trkpt>
      <trkpt lat="47.78134" lon="-3.59193">
        <ele>51</ele>
        <time>2018-07-14T11:26:42Z</time>
      </trkpt>
      <trkpt lat="47.78129" lon="-3.59201">
        <ele>51</ele>
        <time>2018-07-14T11:26:43Z</time>
      </trkpt>
      <trkpt lat="47.78124" lon="-3.59209">
        <ele>51</ele>
        <time>2018-07-14T11:26:44Z</time>
      </trkpt>
      <trkpt lat="47.78118" lon="-3.59216">
        <ele>51</ele>
        <time>2018-07-14T11:26:45Z</time>
      </trkpt>
      <trkpt lat="47.78112" lon="-3.59224">
        <ele>51</ele>
        <time>2018-07-14T11:26:46Z</time>
      </trkpt>
      <trkpt lat="47.78105" lon="-3.59231">
        <ele>51</ele>
        <time>2018-07-14T11:26:47Z</time>
      </trkpt>
      <trkpt lat="47.78098" lon="-3.59237">
        <ele>51</ele>
        <time>2018-07-14T11:26:48Z</time>
      </trkpt>
      <trkpt lat="47.78091" lon="-3.59243">
        <ele>51</ele>
        <time>2018-07-14T11:26:49Z</time>
      </trkpt>
      <trkpt lat="47.78083" lon="-3.59247">
        <ele>50</ele>
        <time>2018-07-14T11:26:50Z</time>
      </trkpt>
      <trkpt lat="47.78074" lon="-3.59252">
        <ele>50</ele>
        <time>2018-07-14T11:26:51Z</time>
      </trkpt>
      <trkpt lat="47.78065" lon="-3.59256">
        <ele>49</ele>
        <time>2018-07-14T11:26:52Z</time>
      </trkpt>
      <trkpt lat="47.78056" lon="-3.59259">
        <ele>49</ele>
        <time>2018-07-14T11:26:53Z</time>
      </trkpt>
      <trkpt lat="47.78047" lon="-3.59262">
        <ele>48</ele>
        <time>2018-07-14T11:26:54Z</time>
      </trkpt>
      <trkpt lat="47.78038" lon="-3.59265">
        <ele>48</ele>
        <time>2018-07-14T11:26:55Z</time>
      </trkpt>
      <trkpt lat="47.78028" lon="-3.59268">
        <ele>47</ele>
        <time>2018-07-14T11:26:56Z</time>
      </trkpt>
      <trkpt lat="47.78018" lon="-3.5927">
        <ele>47</ele>
        <time>2018-07-14T11:26:57Z</time>
      </trkpt>
      <trkpt lat="47.78008" lon="-3.59273">
        <ele>47</ele>
        <time>2018-07-14T11:26:58Z</time>
      </trkpt>
      <trkpt lat="47.77998" lon="-3.59277">
        <ele>46</ele>
        <time>2018-07-14T11:26:59Z</time>
      </trkpt>
      <trkpt lat="47.77988" lon="-3.5928">
        <ele>46</ele>
        <time>2018-07-14T11:27:00Z</time>
      </trkpt>
      <trkpt lat="47.77978" lon="-3.59283">
        <ele>45</ele>
        <time>2018-07-14T11:27:01Z</time>
      </trkpt>
      <trkpt lat="47.77968" lon="-3.59287">
        <ele>45</ele>
        <time>2018-07-14T11:27:02Z</time>
      </trkpt>
      <trkpt lat="47.77958" lon="-3.59291">
        <ele>45</ele>
        <time>2018-07-14T11:27:03Z</time>
      </trkpt>
      <trkpt lat="47.77948" lon="-3.59296">
        <ele>44</ele>
        <time>2018-07-14T11:27:04Z</time>
      </trkpt>
      <trkpt lat="47.77939" lon="-3.59301">
        <ele>44</ele>
        <time>2018-07-14T11:27:05Z</time>
      </trkpt>
      <trkpt lat="47.7793" lon="-3.59306">
        <ele>43</ele>
        <time>2018-07-14T11:27:06Z</time>
      </trkpt>
      <trkpt lat="47.77921" lon="-3.59312">
        <ele>43</ele>
        <time>2018-07-14T11:27:07Z</time>
      </trkpt>
      <trkpt lat="47.77912" lon="-3.59318">
        <ele>43</ele>
        <time>2018-07-14T11:27:08Z</time>
      </trkpt>
      <trkpt lat="47.77904" lon="-3.59325">
        <ele>42</ele>
        <time>2018-07-14T11:27:09Z</time>
      </trkpt>
      <trkpt lat="47.77896" lon="-3.59331">
        <ele>42</ele>
        <time>2018-07-14T11:27:10Z</time>
      </trkpt>
      <trkpt lat="47.77887" lon="-3.59337">
        <ele>42</ele>
        <time>2018-07-14T11:27:11Z</time>
      </trkpt>
      <trkpt lat="47.77879" lon="-3.59342">
        <ele>42</ele>
        <time>2018-07-14T11:27:12Z</time>
      </trkpt>
      <trkpt lat="47.77871" lon="-3.59348">
        <ele>41</ele>
        <time>2018-07-14T11:27:13Z</time>
      </trkpt>
      <trkpt lat="47.77863" lon="-3.59353">
        <ele>41</ele>
        <time>2018-07-14T11:27:14Z</time>
      </trkpt>
      <trkpt lat="47.77855" lon="-3.59358">
        <ele>41</ele>
        <time>2018-07-14T11:27:15Z</time>
      </trkpt>
      <trkpt lat="47.77847" lon="-3.59363">
        <ele>40</ele>
        <time>2018-07-14T11:27:16Z</time>
      </trkpt>
      <trkpt lat="47.77839" lon="-3.59367">
        <ele>40</ele>
        <time>2018-07-14T11:27:17Z</time>
      </trkpt>
      <trkpt lat="47.77831" lon="-3.59371">
        <ele>40</ele>
        <time>2018-07-14T11:27:18Z</time>
      </trkpt>
      <trkpt lat="47.77822" lon="-3.59375">
        <ele>39</ele>
        <time>2018-07-14T11:27:19Z</time>
      </trkpt>
      <trkpt lat="47.77814" lon="-3.59378">
        <ele>39</ele>
        <time>2018-07-14T11:27:20Z</time>
      </trkpt>
      <trkpt lat="47.77806" lon="-3.59381">
        <ele>39</ele>
        <time>2018-07-14T11:27:21Z</time>
      </trkpt>
      <trkpt lat="47.77798" lon="-3.59384">
        <ele>38</ele>
        <time>2018-07-14T11:27:22Z</time>
      </trkpt>
      <trkpt lat="47.77791" lon="-3.59386">
        <ele>38</ele>
        <time>2018-07-14T11:27:23Z</time>
      </trkpt>
      <trkpt lat="47.77783" lon="-3.59388">
        <ele>38</ele>
        <time>2018-07-14T11:27:24Z</time>
      </trkpt>
      <trkpt lat="47.77775" lon="-3.5939">
        <ele>38</ele>
        <time>2018-07-14T11:27:25Z</time>
      </trkpt>
      <trkpt lat="47.77767" lon="-3.59392">
        <ele>37</ele>
        <time>2018-07-14T11:27:26Z</time>
      </trkpt>
      <trkpt lat="47.77759" lon="-3.59395">
        <ele>37</ele>
        <time>2018-07-14T11:27:27Z</time>
      </trkpt>
      <trkpt lat="47.7775" lon="-3.59397">
        <ele>36</ele>
        <time>2018-07-14T11:27:28Z</time>
      </trkpt>
      <trkpt lat="47.77742" lon="-3.59399">
        <ele>36</ele>
        <time>2018-07-14T11:27:29Z</time>
      </trkpt>
      <trkpt lat="47.77733" lon="-3.59401">
        <ele>36</ele>
        <time>2018-07-14T11:27:30Z</time>
      </trkpt>
      <trkpt lat="47.77725" lon="-3.59403">
        <ele>35</ele>
        <time>2018-07-14T11:27:31Z</time>
      </trkpt>
      <trkpt lat="47.77716" lon="-3.59405">
        <ele>35</ele>
        <time>2018-07-14T11:27:32Z</time>
      </trkpt>
      <trkpt lat="47.77709" lon="-3.59411">
        <ele>34</ele>
        <time>2018-07-14T11:27:33Z</time>
      </trkpt>
      <trkpt lat="47.77703" lon="-3.59417">
        <ele>34</ele>
        <time>2018-07-14T11:27:34Z</time>
      </trkpt>
      <trkpt lat="47.77697" lon="-3.59426">
        <ele>33</ele>
        <time>2018-07-14T11:27:35Z</time>
      </trkpt>
      <trkpt lat="47.77692" lon="-3.59436">
        <ele>33</ele>
        <time>2018-07-14T11:27:36Z</time>
      </trkpt>
      <trkpt lat="47.77688" lon="-3.59447">
        <ele>33</ele>
        <time>2018-07-14T11:27:37Z</time>
      </trkpt>
      <trkpt lat="47.77685" lon="-3.59459">
        <ele>33</ele>
        <time>2018-07-14T11:27:38Z</time>
      </trkpt>
      <trkpt lat="47.77684" lon="-3.59473">
        <ele>32</ele>
        <time>2018-07-14T11:27:39Z</time>
      </trkpt>
      <trkpt lat="47.77684" lon="-3.59485">
        <ele>32</ele>
        <time>2018-07-14T11:27:40Z</time>
      </trkpt>
      <trkpt lat="47.77684" lon="-3.59498">
        <ele>32</ele>
        <time>2018-07-14T11:27:41Z</time>
      </trkpt>
      <trkpt lat="47.77684" lon="-3.5951">
        <ele>31</ele>
        <time>2018-07-14T11:27:42Z</time>
      </trkpt>
      <trkpt lat="47.77684" lon="-3.59522">
        <ele>31</ele>
        <time>2018-07-14T11:27:43Z</time>
      </trkpt>
      <trkpt lat="47.77684" lon="-3.59533">
        <ele>31</ele>
        <time>2018-07-14T11:27:44Z</time>
      </trkpt>
      <trkpt lat="47.77684" lon="-3.59545">
        <ele>30</ele>
        <time>2018-07-14T11:27:45Z</time>
      </trkpt>
      <trkpt lat="47.77685" lon="-3.59556">
        <ele>30</ele>
        <time>2018-07-14T11:27:46Z</time>
      </trkpt>
      <trkpt lat="47.77685" lon="-3.59568">
        <ele>30</ele>
        <time>2018-07-14T11:27:47Z</time>
      </trkpt>
      <trkpt lat="47.77685" lon="-3.59579">
        <ele>29</ele>
        <time>2018-07-14T11:27:48Z</time>
      </trkpt>
      <trkpt lat="47.77686" lon="-3.5959">
        <ele>29</ele>
        <time>2018-07-14T11:27:49Z</time>
      </trkpt>
      <trkpt lat="47.77686" lon="-3.59601">
        <ele>29</ele>
        <time>2018-07-14T11:27:50Z</time>
      </trkpt>
      <trkpt lat="47.77686" lon="-3.59612">
        <ele>29</ele>
        <time>2018-07-14T11:27:51Z</time>
      </trkpt>
      <trkpt lat="47.77686" lon="-3.59623">
        <ele>28</ele>
        <time>2018-07-14T11:27:52Z</time>
      </trkpt>
      <trkpt lat="47.77687" lon="-3.59634">
        <ele>28</ele>
        <time>2018-07-14T11:27:53Z</time>
      </trkpt>
      <trkpt lat="47.77687" lon="-3.59645">
        <ele>28</ele>
        <time>2018-07-14T11:27:54Z</time>
      </trkpt>
      <trkpt lat="47.77687" lon="-3.59656">
        <ele>27</ele>
        <time>2018-07-14T11:27:55Z</time>
      </trkpt>
      <trkpt lat="47.77687" lon="-3.59667">
        <ele>27</ele>
        <time>2018-07-14T11:27:56Z</time>
      </trkpt>
      <trkpt lat="47.77687" lon="-3.59678">
        <ele>27</ele>
        <time>2018-07-14T11:27:57Z</time>
      </trkpt>
      <trkpt lat="47.77687" lon="-3.5969">
        <ele>26</ele>
        <time>2018-07-14T11:27:58Z</time>
      </trkpt>
      <trkpt lat="47.77687" lon="-3.59701">
        <ele>26</ele>
        <time>2018-07-14T11:27:59Z</time>
      </trkpt>
      <trkpt lat="47.77686" lon="-3.59712">
        <ele>26</ele>
        <time>2018-07-14T11:28:00Z</time>
      </trkpt>
      <trkpt lat="47.77686" lon="-3.59723">
        <ele>25</ele>
        <time>2018-07-14T11:28:01Z</time>
      </trkpt>
      <trkpt lat="47.77686" lon="-3.59734">
        <ele>25</ele>
        <time>2018-07-14T11:28:02Z</time>
      </trkpt>
      <trkpt lat="47.77685" lon="-3.59746">
        <ele>25</ele>
        <time>2018-07-14T11:28:03Z</time>
      </trkpt>
      <trkpt lat="47.77685" lon="-3.59758">
        <ele>24</ele>
        <time>2018-07-14T11:28:04Z</time>
      </trkpt>
      <trkpt lat="47.77684" lon="-3.5977">
        <ele>24</ele>
        <time>2018-07-14T11:28:05Z</time>
      </trkpt>
      <trkpt lat="47.77684" lon="-3.59782">
        <ele>24</ele>
        <time>2018-07-14T11:28:06Z</time>
      </trkpt>
      <trkpt lat="47.77684" lon="-3.59795">
        <ele>23</ele>
        <time>2018-07-14T11:28:07Z</time>
      </trkpt>
      <trkpt lat="47.77683" lon="-3.59807">
        <ele>23</ele>
        <time>2018-07-14T11:28:08Z</time>
      </trkpt>
      <trkpt lat="47.77683" lon="-3.5982">
        <ele>22</ele>
        <time>2018-07-14T11:28:09Z</time>
      </trkpt>
      <trkpt lat="47.77682" lon="-3.59832">
        <ele>22</ele>
        <time>2018-07-14T11:28:10Z</time>
      </trkpt>
      <trkpt lat="47.77682" lon="-3.59845">
        <ele>21</ele>
        <time>2018-07-14T11:28:11Z</time>
      </trkpt>
      <trkpt lat="47.77681" lon="-3.59857">
        <ele>21</ele>
        <time>2018-07-14T11:28:12Z</time>
      </trkpt>
      <trkpt lat="47.77681" lon="-3.59869">
        <ele>21</ele>
        <time>2018-07-14T11:28:13Z</time>
      </trkpt>
      <trkpt lat="47.7768" lon="-3.59881">
        <ele>20</ele>
        <time>2018-07-14T11:28:14Z</time>
      </trkpt>
      <trkpt lat="47.7768" lon="-3.59893">
        <ele>20</ele>
        <time>2018-07-14T11:28:15Z</time>
      </trkpt>
      <trkpt lat="47.7768" lon="-3.59904">
        <ele>20</ele>
        <time>2018-07-14T11:28:16Z</time>
      </trkpt>
      <trkpt lat="47.7768" lon="-3.59916">
        <ele>19</ele>
        <time>2018-07-14T11:28:17Z</time>
      </trkpt>
      <trkpt lat="47.7768" lon="-3.59927">
        <ele>19</ele>
        <time>2018-07-14T11:28:18Z</time>
      </trkpt>
      <trkpt lat="47.7768" lon="-3.59939">
        <ele>19</ele>
        <time>2018-07-14T11:28:19Z</time>
      </trkpt>
      <trkpt lat="47.7768" lon="-3.5995">
        <ele>18</ele>
        <time>2018-07-14T11:28:20Z</time>
      </trkpt>
      <trkpt lat="47.7768" lon="-3.59962">
        <ele>18</ele>
        <time>2018-07-14T11:28:21Z</time>
      </trkpt>
      <trkpt lat="47.7768" lon="-3.59973">
        <ele>18</ele>
        <time>2018-07-14T11:28:22Z</time>
      </trkpt>
      <trkpt lat="47.7768" lon="-3.59985">
        <ele>18</ele>
        <time>2018-07-14T11:28:23Z</time>
      </trkpt>
      <trkpt lat="47.7768" lon="-3.59997">
        <ele>17</ele>
        <time>2018-07-14T11:28:24Z</time>
      </trkpt>
      <trkpt lat="47.77681" lon="-3.60008">
        <ele>17</ele>
        <time>2018-07-14T11:28:25Z</time>
      </trkpt>
      <trkpt lat="47.77681" lon="-3.6002">
        <ele>17</ele>
        <time>2018-07-14T11:28:26Z</time>
      </trkpt>
      <trkpt lat="47.77682" lon="-3.60031">
        <ele>17</ele>
        <time>2018-07-14T11:28:27Z</time>
      </trkpt>
      <trkpt lat="47.77682" lon="-3.60042">
        <ele>16</ele>
        <time>2018-07-14T11:28:28Z</time>
      </trkpt>
      <trkpt lat="47.77682" lon="-3.60054">
        <ele>16</ele>
        <time>2018-07-14T11:28:29Z</time>
      </trkpt>
      <trkpt lat="47.77682" lon="-3.60066">
        <ele>16</ele>
        <time>2018-07-14T11:28:30Z</time>
      </trkpt>
      <trkpt lat="47.77681" lon="-3.60078">
        <ele>16</ele>
        <time>2018-07-14T11:28:31Z</time>
      </trkpt>
      <trkpt lat="47.77681" lon="-3.6009">
        <ele>16</ele>
        <time>2018-07-14T11:28:32Z</time>
      </trkpt>
      <trkpt lat="47.77681" lon="-3.60102">
        <ele>15</ele>
        <time>2018-07-14T11:28:33Z</time>
      </trkpt>
      <trkpt lat="47.7768" lon="-3.60114">
        <ele>15</ele>
        <time>2018-07-14T11:28:34Z</time>
      </trkpt>
      <trkpt lat="47.77678" lon="-3.60126">
        <ele>15</ele>
        <time>2018-07-14T11:28:35Z</time>
      </trkpt>
      <trkpt lat="47.77676" lon="-3.60138">
        <ele>15</ele>
        <time>2018-07-14T11:28:36Z</time>
      </trkpt>
      <trkpt lat="47.77673" lon="-3.60149">
        <ele>14</ele>
        <time>2018-07-14T11:28:37Z</time>
      </trkpt>
      <trkpt lat="47.77669" lon="-3.60161">
        <ele>14</ele>
        <time>2018-07-14T11:28:38Z</time>
      </trkpt>
      <trkpt lat="47.77665" lon="-3.60172">
        <ele>14</ele>
        <time>2018-07-14T11:28:39Z</time>
      </trkpt>
      <trkpt lat="47.7766" lon="-3.60183">
        <ele>13</ele>
        <time>2018-07-14T11:28:40Z</time>
      </trkpt>
      <trkpt lat="47.77654" lon="-3.60193">
        <ele>13</ele>
        <time>2018-07-14T11:28:41Z</time>
      </trkpt>
      <trkpt lat="47.7765" lon="-3.60203">
        <ele>13</ele>
        <time>2018-07-14T11:28:42Z</time>
      </trkpt>
      <trkpt lat="47.77646" lon="-3.60213">
        <ele>13</ele>
        <time>2018-07-14T11:28:43Z</time>
      </trkpt>
      <trkpt lat="47.77644" lon="-3.60222">
        <ele>12</ele>
        <time>2018-07-14T11:28:44Z</time>
      </trkpt>
      <trkpt lat="47.77641" lon="-3.60233">
        <ele>12</ele>
        <time>2018-07-14T11:28:45Z</time>
      </trkpt>
      <trkpt lat="47.77639" lon="-3.60244">
        <ele>12</ele>
        <time>2018-07-14T11:28:46Z</time>
      </trkpt>
      <trkpt lat="47.7764" lon="-3.60254">
        <ele>12</ele>
        <time>2018-07-14T11:28:47Z</time>
      </trkpt>
      <trkpt lat="47.77641" lon="-3.60263">
        <ele>12</ele>
        <time>2018-07-14T11:28:48Z</time>
      </trkpt>
      <trkpt lat="47.77642" lon="-3.60271">
        <ele>12</ele>
        <time>2018-07-14T11:28:49Z</time>
      </trkpt>
      <trkpt lat="47.77643" lon="-3.60278">
        <ele>12</ele>
        <time>2018-07-14T11:28:50Z</time>
      </trkpt>
      <trkpt lat="47.77644" lon="-3.60285">
        <ele>12</ele>
        <time>2018-07-14T11:28:51Z</time>
      </trkpt>
      <trkpt lat="47.77645" lon="-3.60292">
        <ele>12</ele>
        <time>2018-07-14T11:28:52Z</time>
      </trkpt>
      <trkpt lat="47.77646" lon="-3.60298">
        <ele>12</ele>
        <time>2018-07-14T11:28:53Z</time>
      </trkpt>
      <trkpt lat="47.77647" lon="-3.60304">
        <ele>12</ele>
        <time>2018-07-14T11:28:54Z</time>
      </trkpt>
      <trkpt lat="47.77648" lon="-3.6031">
        <ele>13</ele>
        <time>2018-07-14T11:28:55Z</time>
      </trkpt>
      <trkpt lat="47.77649" lon="-3.60314">
        <ele>13</ele>
        <time>2018-07-14T11:28:56Z</time>
      </trkpt>
      <trkpt lat="47.7765" lon="-3.6032">
        <ele>13</ele>
        <time>2018-07-14T11:28:57Z</time>
      </trkpt>
      <trkpt lat="47.7765" lon="-3.60325">
        <ele>13</ele>
        <time>2018-07-14T11:28:58Z</time>
      </trkpt>
      <trkpt lat="47.7765" lon="-3.6033">
        <ele>13</ele>
        <time>2018-07-14T11:28:59Z</time>
      </trkpt>
      <trkpt lat="47.7765" lon="-3.60335">
        <ele>13</ele>
        <time>2018-07-14T11:29:00Z</time>
      </trkpt>
      <trkpt lat="47.7765" lon="-3.6034">
        <ele>13</ele>
        <time>2018-07-14T11:29:01Z</time>
      </trkpt>
      <trkpt lat="47.77649" lon="-3.60345">
        <ele>13</ele>
        <time>2018-07-14T11:29:02Z</time>
      </trkpt>
      <trkpt lat="47.77648" lon="-3.60351">
        <ele>13</ele>
        <time>2018-07-14T11:29:03Z</time>
      </trkpt>
      <trkpt lat="47.77646" lon="-3.60356">
        <ele>13</ele>
        <time>2018-07-14T11:29:04Z</time>
      </trkpt>
      <trkpt lat="47.77644" lon="-3.60361">
        <ele>13</ele>
        <time>2018-07-14T11:29:05Z</time>
      </trkpt>
      <trkpt lat="47.77641" lon="-3.60365">
        <ele>14</ele>
        <time>2018-07-14T11:29:06Z</time>
      </trkpt>
      <trkpt lat="47.77638" lon="-3.60368">
        <ele>14</ele>
        <time>2018-07-14T11:29:07Z</time>
      </trkpt>
      <trkpt lat="47.77634" lon="-3.60371">
        <ele>14</ele>
        <time>2018-07-14T11:29:08Z</time>
      </trkpt>
      <trkpt lat="47.77631" lon="-3.60372">
        <ele>14</ele>
        <time>2018-07-14T11:29:09Z</time>
      </trkpt>
      <trkpt lat="47.77627" lon="-3.60373">
        <ele>14</ele>
        <time>2018-07-14T11:29:10Z</time>
      </trkpt>
      <trkpt lat="47.77623" lon="-3.60373">
        <ele>14</ele>
        <time>2018-07-14T11:29:11Z</time>
      </trkpt>
      <trkpt lat="47.77619" lon="-3.60373">
        <ele>14</ele>
        <time>2018-07-14T11:29:12Z</time>
      </trkpt>
      <trkpt lat="47.77615" lon="-3.60373">
        <ele>14</ele>
        <time>2018-07-14T11:29:13Z</time>
      </trkpt>
      <trkpt lat="47.7761" lon="-3.60373">
        <ele>14</ele>
        <time>2018-07-14T11:29:14Z</time>
      </trkpt>
      <trkpt lat="47.77605" lon="-3.60373">
        <ele>14</ele>
        <time>2018-07-14T11:29:15Z</time>
      </trkpt>
      <trkpt lat="47.77601" lon="-3.60374">
        <ele>14</ele>
        <time>2018-07-14T11:29:16Z</time>
      </trkpt>
      <trkpt lat="47.77595" lon="-3.60374">
        <ele>14</ele>
        <time>2018-07-14T11:29:17Z</time>
      </trkpt>
      <trkpt lat="47.7759" lon="-3.60375">
        <ele>14</ele>
        <time>2018-07-14T11:29:18Z</time>
      </trkpt>
      <trkpt lat="47.77585" lon="-3.60375">
        <ele>14</ele>
        <time>2018-07-14T11:29:19Z</time>
      </trkpt>
      <trkpt lat="47.7758" lon="-3.60377">
        <ele>14</ele>
        <time>2018-07-14T11:29:20Z</time>
      </trkpt>
      <trkpt lat="47.77574" lon="-3.60379">
        <ele>14</ele>
        <time>2018-07-14T11:29:21Z</time>
      </trkpt>
      <trkpt lat="47.77569" lon="-3.60381">
        <ele>14</ele>
        <time>2018-07-14T11:29:22Z</time>
      </trkpt>
      <trkpt lat="47.77564" lon="-3.60385">
        <ele>14</ele>
        <time>2018-07-14T11:29:23Z</time>
      </trkpt>
      <trkpt lat="47.77559" lon="-3.60389">
        <ele>14</ele>
        <time>2018-07-14T11:29:24Z</time>
      </trkpt>
      <trkpt lat="47.77554" lon="-3.60393">
        <ele>14</ele>
        <time>2018-07-14T11:29:25Z</time>
      </trkpt>
      <trkpt lat="47.7755" lon="-3.60398">
        <ele>14</ele>
        <time>2018-07-14T11:29:26Z</time>
      </trkpt>
      <trkpt lat="47.77546" lon="-3.60404">
        <ele>14</ele>
        <time>2018-07-14T11:29:27Z</time>
      </trkpt>
      <trkpt lat="47.77542" lon="-3.60409">
        <ele>14</ele>
        <time>2018-07-14T11:29:28Z</time>
      </trkpt>
      <trkpt lat="47.7754" lon="-3.60415">
        <ele>14</ele>
        <time>2018-07-14T11:29:29Z</time>
      </trkpt>
      <trkpt lat="47.77537" lon="-3.60421">
        <ele>14</ele>
        <time>2018-07-14T11:29:30Z</time>
      </trkpt>
      <trkpt lat="47.77534" lon="-3.60428">
        <ele>14</ele>
        <time>2018-07-14T11:29:31Z</time>
      </trkpt>
      <trkpt lat="47.7753" lon="-3.60434">
        <ele>14</ele>
        <time>2018-07-14T11:29:32Z</time>
      </trkpt>
      <trkpt lat="47.77526" lon="-3.6044">
        <ele>14</ele>
        <time>2018-07-14T11:29:33Z</time>
      </trkpt>
      <trkpt lat="47.77521" lon="-3.60446">
        <ele>14</ele>
        <time>2018-07-14T11:29:34Z</time>
      </trkpt>
      <trkpt lat="47.77515" lon="-3.60452">
        <ele>14</ele>
        <time>2018-07-14T11:29:35Z</time>
      </trkpt>
      <trkpt lat="47.7751" lon="-3.60458">
        <ele>13</ele>
        <time>2018-07-14T11:29:36Z</time>
      </trkpt>
      <trkpt lat="47.77503" lon="-3.60463">
        <ele>13</ele>
        <time>2018-07-14T11:29:37Z</time>
      </trkpt>
      <trkpt lat="47.77496" lon="-3.60468">
        <ele>13</ele>
        <time>2018-07-14T11:29:38Z</time>
      </trkpt>
      <trkpt lat="47.7749" lon="-3.60471">
        <ele>13</ele>
        <time>2018-07-14T11:29:39Z</time>
      </trkpt>
      <trkpt lat="47.77483" lon="-3.60475">
        <ele>13</ele>
        <time>2018-07-14T11:29:40Z</time>
      </trkpt>
      <trkpt lat="47.77477" lon="-3.60478">
        <ele>13</ele>
        <time>2018-07-14T11:29:41Z</time>
      </trkpt>
      <trkpt lat="47.7747" lon="-3.60479">
        <ele>13</ele>
        <time>2018-07-14T11:29:42Z</time>
      </trkpt>
      <trkpt lat="47.77464" lon="-3.60481">
        <ele>13</ele>
        <time>2018-07-14T11:29:43Z</time>
      </trkpt>
      <trkpt lat="47.77458" lon="-3.60483">
        <ele>13</ele>
        <time>2018-07-14T11:29:44Z</time>
      </trkpt>
      <trkpt lat="47.77453" lon="-3.60485">
        <ele>13</ele>
        <time>2018-07-14T11:29:45Z</time>
      </trkpt>
      <trkpt lat="47.77447" lon="-3.60488">
        <ele>13</ele>
        <time>2018-07-14T11:29:46Z</time>
      </trkpt>
      <trkpt lat="47.77442" lon="-3.60492">
        <ele>13</ele>
        <time>2018-07-14T11:29:47Z</time>
      </trkpt>
      <trkpt lat="47.77437" lon="-3.60497">
        <ele>13</ele>
        <time>2018-07-14T11:29:48Z</time>
      </trkpt>
      <trkpt lat="47.77433" lon="-3.60503">
        <ele>13</ele>
        <time>2018-07-14T11:29:49Z</time>
      </trkpt>
      <trkpt lat="47.77429" lon="-3.60509">
        <ele>13</ele>
        <time>2018-07-14T11:29:50Z</time>
      </trkpt>
      <trkpt lat="47.77427" lon="-3.60516">
        <ele>14</ele>
        <time>2018-07-14T11:29:51Z</time>
      </trkpt>
      <trkpt lat="47.77424" lon="-3.60523">
        <ele>14</ele>
        <time>2018-07-14T11:29:52Z</time>
      </trkpt>
      <trkpt lat="47.77423" lon="-3.6053">
        <ele>14</ele>
        <time>2018-07-14T11:29:53Z</time>
      </trkpt>
      <trkpt lat="47.77421" lon="-3.60538">
        <ele>14</ele>
        <time>2018-07-14T11:29:54Z</time>
      </trkpt>
      <trkpt lat="47.77419" lon="-3.60546">
        <ele>14</ele>
        <time>2018-07-14T11:29:55Z</time>
      </trkpt>
      <trkpt lat="47.77417" lon="-3.60553">
        <ele>14</ele>
        <time>2018-07-14T11:29:56Z</time>
      </trkpt>
      <trkpt lat="47.77415" lon="-3.6056">
        <ele>14</ele>
        <time>2018-07-14T11:29:57Z</time>
      </trkpt>
      <trkpt lat="47.77412" lon="-3.60567">
        <ele>15</ele>
        <time>2018-07-14T11:29:58Z</time>
      </trkpt>
      <trkpt lat="47.7741" lon="-3.60575">
        <ele>15</ele>
        <time>2018-07-14T11:29:59Z</time>
      </trkpt>
      <trkpt lat="47.77407" lon="-3.60582">
        <ele>15</ele>
        <time>2018-07-14T11:30:00Z</time>
      </trkpt>
      <trkpt lat="47.77404" lon="-3.60589">
        <ele>15</ele>
        <time>2018-07-14T11:30:01Z</time>
      </trkpt>
      <trkpt lat="47.77401" lon="-3.60596">
        <ele>15</ele>
        <time>2018-07-14T11:30:02Z</time>
      </trkpt>
      <trkpt lat="47.77398" lon="-3.60603">
        <ele>15</ele>
        <time>2018-07-14T11:30:03Z</time>
      </trkpt>
      <trkpt lat="47.77395" lon="-3.6061">
        <ele>15</ele>
        <time>2018-07-14T11:30:04Z</time>
      </trkpt>
      <trkpt lat="47.77393" lon="-3.60618">
        <ele>15</ele>
        <time>2018-07-14T11:30:05Z</time>
      </trkpt>
      <trkpt lat="47.77391" lon="-3.60626">
        <ele>15</ele>
        <time>2018-07-14T11:30:06Z</time>
      </trkpt>
      <trkpt lat="47.7739" lon="-3.60634">
        <ele>15</ele>
        <time>2018-07-14T11:30:07Z</time>
      </trkpt>
      <trkpt lat="47.77388" lon="-3.60642">
        <ele>15</ele>
        <time>2018-07-14T11:30:08Z</time>
      </trkpt>
      <trkpt lat="47.77387" lon="-3.6065">
        <ele>15</ele>
        <time>2018-07-14T11:30:09Z</time>
      </trkpt>
      <trkpt lat="47.77385" lon="-3.60658">
        <ele>15</ele>
        <time>2018-07-14T11:30:10Z</time>
      </trkpt>
      <trkpt lat="47.77384" lon="-3.60666">
        <ele>15</ele>
        <time>2018-07-14T11:30:11Z</time>
      </trkpt>
      <trkpt lat="47.77382" lon="-3.60673">
        <ele>15</ele>
        <time>2018-07-14T11:30:12Z</time>
      </trkpt>
      <trkpt lat="47.77381" lon="-3.60681">
        <ele>15</ele>
        <time>2018-07-14T11:30:13Z</time>
      </trkpt>
      <trkpt lat="47.7738" lon="-3.60688">
        <ele>15</ele>
        <time>2018-07-14T11:30:14Z</time>
      </trkpt>
      <trkpt lat="47.77378" lon="-3.60696">
        <ele>15</ele>
        <time>2018-07-14T11:30:15Z</time>
      </trkpt>
      <trkpt lat="47.77377" lon="-3.60704">
        <ele>15</ele>
        <time>2018-07-14T11:30:16Z</time>
      </trkpt>
      <trkpt lat="47.77375" lon="-3.60712">
        <ele>15</ele>
        <time>2018-07-14T11:30:17Z</time>
      </trkpt>
      <trkpt lat="47.77373" lon="-3.6072">
        <ele>15</ele>
        <time>2018-07-14T11:30:18Z</time>
      </trkpt>
      <trkpt lat="47.77372" lon="-3.60727">
        <ele>15</ele>
        <time>2018-07-14T11:30:19Z</time>
      </trkpt>
      <trkpt lat="47.77369" lon="-3.60734">
        <ele>15</ele>
        <time>2018-07-14T11:30:20Z</time>
      </trkpt>
      <trkpt lat="47.77367" lon="-3.6074">
        <ele>15</ele>
        <time>2018-07-14T11:30:21Z</time>
      </trkpt>
      <trkpt lat="47.77365" lon="-3.60745">
        <ele>15</ele>
        <time>2018-07-14T11:30:22Z</time>
      </trkpt>
      <trkpt lat="47.77362" lon="-3.6075">
        <ele>15</ele>
        <time>2018-07-14T11:30:23Z</time>
      </trkpt>
      <trkpt lat="47.7736" lon="-3.60755">
        <ele>15</ele>
        <time>2018-07-14T11:30:24Z</time>
      </trkpt>
      <trkpt lat="47.77357" lon="-3.6076">
        <ele>16</ele>
        <time>2018-07-14T11:30:25Z</time>
      </trkpt>
      <trkpt lat="47.77354" lon="-3.60764">
        <ele>16</ele>
        <time>2018-07-14T11:30:26Z</time>
      </trkpt>
      <trkpt lat="47.7735" lon="-3.60769">
        <ele>16</ele>
        <time>2018-07-14T11:30:27Z</time>
      </trkpt>
      <trkpt lat="47.77346" lon="-3.60773">
        <ele>16</ele>
        <time>2018-07-14T11:30:28Z</time>
      </trkpt>
      <trkpt lat="47.77342" lon="-3.60777">
        <ele>16</ele>
        <time>2018-07-14T11:30:29Z</time>
      </trkpt>
      <trkpt lat="47.77337" lon="-3.60781">
        <ele>15</ele>
        <time>2018-07-14T11:30:30Z</time>
      </trkpt>
      <trkpt lat="47.77333" lon="-3.60784">
        <ele>15</ele>
        <time>2018-07-14T11:30:31Z</time>
      </trkpt>
      <trkpt lat="47.77328" lon="-3.60787">
        <ele>15</ele>
        <time>2018-07-14T11:30:32Z</time>
      </trkpt>
      <trkpt lat="47.77323" lon="-3.60791">
        <ele>15</ele>
        <time>2018-07-14T11:30:33Z</time>
      </trkpt>
      <trkpt lat="47.77319" lon="-3.60795">
        <ele>15</ele>
        <time>2018-07-14T11:30:34Z</time>
      </trkpt>
      <trkpt lat="47.77316" lon="-3.60798">
        <ele>15</ele>
        <time>2018-07-14T11:30:35Z</time>
      </trkpt>
      <trkpt lat="47.77312" lon="-3.60801">
        <ele>15</ele>
        <time>2018-07-14T11:30:36Z</time>
      </trkpt>
      <trkpt lat="47.77307" lon="-3.60803">
        <ele>15</ele>
        <time>2018-07-14T11:30:37Z</time>
      </trkpt>
      <trkpt lat="47.77303" lon="-3.60806">
        <ele>15</ele>
        <time>2018-07-14T11:30:38Z</time>
      </trkpt>
      <trkpt lat="47.77299" lon="-3.60807">
        <ele>15</ele>
        <time>2018-07-14T11:30:39Z</time>
      </trkpt>
      <trkpt lat="47.77295" lon="-3.60809">
        <ele>15</ele>
        <time>2018-07-14T11:30:40Z</time>
      </trkpt>
      <trkpt lat="47.77291" lon="-3.60811">
        <ele>15</ele>
        <time>2018-07-14T11:30:41Z</time>
      </trkpt>
      <trkpt lat="47.77286" lon="-3.60812">
        <ele>15</ele>
        <time>2018-07-14T11:30:42Z</time>
      </trkpt>
      <trkpt lat="47.77282" lon="-3.60813">
        <ele>15</ele>
        <time>2018-07-14T11:30:43Z</time>
      </trkpt>
      <trkpt lat="47.77278" lon="-3.60814">
        <ele>15</ele>
        <time>2018-07-14T11:30:44Z</time>
      </trkpt>
      <trkpt lat="47.77274" lon="-3.60815">
        <ele>15</ele>
        <time>2018-07-14T11:30:45Z</time>
      </trkpt>
      <trkpt lat="47.77271" lon="-3.60815">
        <ele>16</ele>
        <time>2018-07-14T11:30:46Z</time>
      </trkpt>
      <trkpt lat="47.77267" lon="-3.60816">
        <ele>16</ele>
        <time>2018-07-14T11:30:47Z</time>
      </trkpt>
      <trkpt lat="47.77263" lon="-3.60817">
        <ele>16</ele>
        <time>2018-07-14T11:30:48Z</time>
      </trkpt>
      <trkpt lat="47.7726" lon="-3.60817">
        <ele>16</ele>
        <time>2018-07-14T11:30:49Z</time>
      </trkpt>
      <trkpt lat="47.77256" lon="-3.60817">
        <ele>16</ele>
        <time>2018-07-14T11:30:50Z</time>
      </trkpt>
      <trkpt lat="47.77252" lon="-3.60818">
        <ele>16</ele>
        <time>2018-07-14T11:30:51Z</time>
      </trkpt>
      <trkpt lat="47.77248" lon="-3.60819">
        <ele>17</ele>
        <time>2018-07-14T11:30:52Z</time>
      </trkpt>
      <trkpt lat="47.77244" lon="-3.60821">
        <ele>17</ele>
        <time>2018-07-14T11:30:53Z</time>
      </trkpt>
      <trkpt lat="47.7724" lon="-3.60823">
        <ele>17</ele>
        <time>2018-07-14T11:30:54Z</time>
      </trkpt>
      <trkpt lat="47.77236" lon="-3.60825">
        <ele>17</ele>
        <time>2018-07-14T11:30:55Z</time>
      </trkpt>
      <trkpt lat="47.77232" lon="-3.60826">
        <ele>17</ele>
        <time>2018-07-14T11:30:56Z</time>
      </trkpt>
      <trkpt lat="47.77228" lon="-3.60828">
        <ele>17</ele>
        <time>2018-07-14T11:30:57Z</time>
      </trkpt>
      <trkpt lat="47.77224" lon="-3.6083">
        <ele>17</ele>
        <time>2018-07-14T11:30:58Z</time>
      </trkpt>
      <trkpt lat="47.77219" lon="-3.60832">
        <ele>18</ele>
        <time>2018-07-14T11:30:59Z</time>
      </trkpt>
      <trkpt lat="47.77215" lon="-3.60833">
        <ele>18</ele>
        <time>2018-07-14T11:31:00Z</time>
      </trkpt>
      <trkpt lat="47.77211" lon="-3.60835">
        <ele>18</ele>
        <time>2018-07-14T11:31:01Z</time>
      </trkpt>
      <trkpt lat="47.77207" lon="-3.60836">
        <ele>18</ele>
        <time>2018-07-14T11:31:02Z</time>
      </trkpt>
      <trkpt lat="47.77204" lon="-3.60836">
        <ele>18</ele>
        <time>2018-07-14T11:31:03Z</time>
      </trkpt>
      <trkpt lat="47.772" lon="-3.60836">
        <ele>19</ele>
        <time>2018-07-14T11:31:04Z</time>
      </trkpt>
      <trkpt lat="47.77198" lon="-3.60832">
        <ele>19</ele>
        <time>2018-07-14T11:31:05Z</time>
      </trkpt>
      <trkpt lat="47.77197" lon="-3.60828">
        <ele>19</ele>
        <time>2018-07-14T11:31:06Z</time>
      </trkpt>
      <trkpt lat="47.77196" lon="-3.60824">
        <ele>20</ele>
        <time>2018-07-14T11:31:07Z</time>
      </trkpt>
      <trkpt lat="47.77198" lon="-3.60819">
        <ele>20</ele>
        <time>2018-07-14T11:31:08Z</time>
      </trkpt>
      <trkpt lat="47.77199" lon="-3.60815">
        <ele>20</ele>
        <time>2018-07-14T11:31:09Z</time>
      </trkpt>
      <trkpt lat="47.77201" lon="-3.60811">
        <ele>20</ele>
        <time>2018-07-14T11:31:10Z</time>
      </trkpt>
      <trkpt lat="47.77203" lon="-3.60807">
        <ele>20</ele>
        <time>2018-07-14T11:31:11Z</time>
      </trkpt>
      <trkpt lat="47.77204" lon="-3.60802">
        <ele>21</ele>
        <time>2018-07-14T11:31:12Z</time>
      </trkpt>
      <trkpt lat="47.77206" lon="-3.60798">
        <ele>21</ele>
        <time>2018-07-14T11:31:13Z</time>
      </trkpt>
      <trkpt lat="47.77207" lon="-3.60793">
        <ele>21</ele>
        <time>2018-07-14T11:31:14Z</time>
      </trkpt>
      <trkpt lat="47.77207" lon="-3.60788">
        <ele>21</ele>
        <time>2018-07-14T11:31:15Z</time>
      </trkpt>
      <trkpt lat="47.77208" lon="-3.60783">
        <ele>21</ele>
        <time>2018-07-14T11:31:16Z</time>
      </trkpt>
      <trkpt lat="47.77208" lon="-3.60778">
        <ele>22</ele>
        <time>2018-07-14T11:31:17Z</time>
      </trkpt>
      <trkpt lat="47.77208" lon="-3.60773">
        <ele>22</ele>
        <time>2018-07-14T11:31:18Z</time>
      </trkpt>
      <trkpt lat="47.77208" lon="-3.60767">
        <ele>22</ele>
        <time>2018-07-14T11:31:19Z</time>
      </trkpt>
      <trkpt lat="47.77208" lon="-3.60762">
        <ele>22</ele>
        <time>2018-07-14T11:31:20Z</time>
      </trkpt>
      <trkpt lat="47.77208" lon="-3.60757">
        <ele>22</ele>
        <time>2018-07-14T11:31:21Z</time>
      </trkpt>
      <trkpt lat="47.77208" lon="-3.60751">
        <ele>22</ele>
        <time>2018-07-14T11:31:22Z</time>
      </trkpt>
      <trkpt lat="47.77207" lon="-3.60746">
        <ele>23</ele>
        <time>2018-07-14T11:31:23Z</time>
      </trkpt>
      <trkpt lat="47.77206" lon="-3.6074">
        <ele>23</ele>
        <time>2018-07-14T11:31:24Z</time>
      </trkpt>
      <trkpt lat="47.77205" lon="-3.60734">
        <ele>23</ele>
        <time>2018-07-14T11:31:25Z</time>
      </trkpt>
      <trkpt lat="47.77204" lon="-3.60729">
        <ele>23</ele>
        <time>2018-07-14T11:31:26Z</time>
      </trkpt>
      <trkpt lat="47.77202" lon="-3.60724">
        <ele>23</ele>
        <time>2018-07-14T11:31:27Z</time>
      </trkpt>
      <trkpt lat="47.772" lon="-3.60718">
        <ele>23</ele>
        <time>2018-07-14T11:31:28Z</time>
      </trkpt>
      <trkpt lat="47.77198" lon="-3.60714">
        <ele>23</ele>
        <time>2018-07-14T11:31:29Z</time>
      </trkpt>
      <trkpt lat="47.77195" lon="-3.60709">
        <ele>23</ele>
        <time>2018-07-14T11:31:30Z</time>
      </trkpt>
      <trkpt lat="47.77193" lon="-3.60704">
        <ele>24</ele>
        <time>2018-07-14T11:31:31Z</time>
      </trkpt>
      <trkpt lat="47.77191" lon="-3.60698">
        <ele>24</ele>
        <time>2018-07-14T11:31:32Z</time>
      </trkpt>
      <trkpt lat="47.77189" lon="-3.60692">
        <ele>24</ele>
        <time>2018-07-14T11:31:33Z</time>
      </trkpt>
      <trkpt lat="47.77188" lon="-3.60686">
        <ele>24</ele>
        <time>2018-07-14T11:31:34Z</time>
      </trkpt>
      <trkpt lat="47.77186" lon="-3.6068">
        <ele>24</ele>
        <time>2018-07-14T11:31:35Z</time>
      </trkpt>
      <trkpt lat="47.77185" lon="-3.60674">
        <ele>24</ele>
        <time>2018-07-14T11:31:36Z</time>
      </trkpt>
      <trkpt lat="47.77184" lon="-3.60667">
        <ele>24</ele>
        <time>2018-07-14T11:31:37Z</time>
      </trkpt>
      <trkpt lat="47.77183" lon="-3.60661">
        <ele>24</ele>
        <time>2018-07-14T11:31:38Z</time>
      </trkpt>
      <trkpt lat="47.77182" lon="-3.60654">
        <ele>24</ele>
        <time>2018-07-14T11:31:39Z</time>
      </trkpt>
      <trkpt lat="47.77181" lon="-3.60647">
        <ele>25</ele>
        <time>2018-07-14T11:31:40Z</time>
      </trkpt>
      <trkpt lat="47.77181" lon="-3.6064">
        <ele>25</ele>
        <time>2018-07-14T11:31:41Z</time>
      </trkpt>
      <trkpt lat="47.77181" lon="-3.60633">
        <ele>25</ele>
        <time>2018-07-14T11:31:42Z</time>
      </trkpt>
      <trkpt lat="47.7718" lon="-3.60626">
        <ele>25</ele>
        <time>2018-07-14T11:31:43Z</time>
      </trkpt>
      <trkpt lat="47.77179" lon="-3.60619">
        <ele>25</ele>
        <time>2018-07-14T11:31:44Z</time>
      </trkpt>
      <trkpt lat="47.77178" lon="-3.60612">
        <ele>25</ele>
        <time>2018-07-14T11:31:45Z</time>
      </trkpt>
      <trkpt lat="47.77178" lon="-3.60605">
        <ele>25</ele>
        <time>2018-07-14T11:31:46Z</time>
      </trkpt>
      <trkpt lat="47.77178" lon="-3.60598">
        <ele>25</ele>
        <time>2018-07-14T11:31:47Z</time>
      </trkpt>
      <trkpt lat="47.77177" lon="-3.60591">
        <ele>25</ele>
        <time>2018-07-14T11:31:48Z</time>
      </trkpt>
      <trkpt lat="47.77177" lon="-3.60583">
        <ele>25</ele>
        <time>2018-07-14T11:31:49Z</time>
      </trkpt>
      <trkpt lat="47.77176" lon="-3.60576">
        <ele>25</ele>
        <time>2018-07-14T11:31:50Z</time>
      </trkpt>
      <trkpt lat="47.77176" lon="-3.60568">
        <ele>25</ele>
        <time>2018-07-14T11:31:51Z</time>
      </trkpt>
      <trkpt lat="47.77175" lon="-3.60561">
        <ele>26</ele>
        <time>2018-07-14T11:31:52Z</time>
      </trkpt>
      <trkpt lat="47.77175" lon="-3.60553">
        <ele>26</ele>
        <time>2018-07-14T11:31:53Z</time>
      </trkpt>
      <trkpt lat="47.77175" lon="-3.60546">
        <ele>26</ele>
        <time>2018-07-14T11:31:54Z</time>
      </trkpt>
      <trkpt lat="47.77174" lon="-3.60538">
        <ele>26</ele>
        <time>2018-07-14T11:31:55Z</time>
      </trkpt>
      <trkpt lat="47.77174" lon="-3.6053">
        <ele>26</ele>
        <time>2018-07-14T11:31:56Z</time>
      </trkpt>
      <trkpt lat="47.77173" lon="-3.60522">
        <ele>26</ele>
        <time>2018-07-14T11:31:57Z</time>
      </trkpt>
      <trkpt lat="47.77172" lon="-3.60514">
        <ele>26</ele>
        <time>2018-07-14T11:31:58Z</time>
      </trkpt>
      <trkpt lat="47.77172" lon="-3.60506">
        <ele>26</ele>
        <time>2018-07-14T11:31:59Z</time>
      </trkpt>
      <trkpt lat="47.77172" lon="-3.60498">
        <ele>26</ele>
        <time>2018-07-14T11:32:00Z</time>
      </trkpt>
      <trkpt lat="47.77171" lon="-3.6049">
        <ele>26</ele>
        <time>2018-07-14T11:32:01Z</time>
      </trkpt>
      <trkpt lat="47.77171" lon="-3.60482">
        <ele>27</ele>
        <time>2018-07-14T11:32:02Z</time>
      </trkpt>
      <trkpt lat="47.7717" lon="-3.60475">
        <ele>27</ele>
        <time>2018-07-14T11:32:03Z</time>
      </trkpt>
      <trkpt lat="47.7717" lon="-3.60467">
        <ele>27</ele>
        <time>2018-07-14T11:32:04Z</time>
      </trkpt>
      <trkpt lat="47.7717" lon="-3.6046">
        <ele>27</ele>
        <time>2018-07-14T11:32:05Z</time>
      </trkpt>
      <trkpt lat="47.77169" lon="-3.60452">
        <ele>27</ele>
        <time>2018-07-14T11:32:06Z</time>
      </trkpt>
      <trkpt lat="47.77169" lon="-3.60445">
        <ele>27</ele>
        <time>2018-07-14T11:32:07Z</time>
      </trkpt>
      <trkpt lat="47.77169" lon="-3.60437">
        <ele>27</ele>
        <time>2018-07-14T11:32:08Z</time>
      </trkpt>
      <trkpt lat="47.77171" lon="-3.6043">
        <ele>27</ele>
        <time>2018-07-14T11:32:09Z</time>
      </trkpt>
      <trkpt lat="47.77173" lon="-3.60424">
        <ele>27</ele>
        <time>2018-07-14T11:32:10Z</time>
      </trkpt>
      <trkpt lat="47.77175" lon="-3.60418">
        <ele>27</ele>
        <time>2018-07-14T11:32:11Z</time>
      </trkpt>
      <trkpt lat="47.77178" lon="-3.60412">
        <ele>27</ele>
        <time>2018-07-14T11:32:12Z</time>
      </trkpt>
      <trkpt lat="47.7718" lon="-3.60408">
        <ele>27</ele>
        <time>2018-07-14T11:32:13Z</time>
      </trkpt>
      <trkpt lat="47.77183" lon="-3.60403">
        <ele>27</ele>
        <time>2018-07-14T11:32:14Z</time>
      </trkpt>
      <trkpt lat="47.77185" lon="-3.60399">
        <ele>27</ele>
        <time>2018-07-14T11:32:15Z</time>
      </trkpt>
      <trkpt lat="47.77187" lon="-3.60396">
        <ele>27</ele>
        <time>2018-07-14T11:32:16Z</time>
      </trkpt>
      <trkpt lat="47.77189" lon="-3.60394">
        <ele>27</ele>
        <time>2018-07-14T11:32:17Z</time>
      </trkpt>
      <trkpt lat="47.77191" lon="-3.60392">
        <ele>28</ele>
        <time>2018-07-14T11:32:18Z</time>
      </trkpt>
      <trkpt lat="47.77193" lon="-3.60391">
        <ele>28</ele>
        <time>2018-07-14T11:32:19Z</time>
      </trkpt>
      <trkpt lat="47.77196" lon="-3.6039">
        <ele>28</ele>
        <time>2018-07-14T11:32:20Z</time>
      </trkpt>
      <trkpt lat="47.77198" lon="-3.60389">
        <ele>28</ele>
        <time>2018-07-14T11:32:21Z</time>
      </trkpt>
      <trkpt lat="47.772" lon="-3.60388">
        <ele>28</ele>
        <time>2018-07-14T11:32:22Z</time>
      </trkpt>
      <trkpt lat="47.77202" lon="-3.60388">
        <ele>28</ele>
        <time>2018-07-14T11:32:23Z</time>
      </trkpt>
      <trkpt lat="47.77202" lon="-3.6039">
        <ele>28</ele>
        <time>2018-07-14T11:32:24Z</time>
      </trkpt>
      <trkpt lat="47.77202" lon="-3.60392">
        <ele>28</ele>
        <time>2018-07-14T11:32:25Z</time>
      </trkpt>
      <trkpt lat="47.77199" lon="-3.60393">
        <ele>28</ele>
        <time>2018-07-14T11:32:26Z</time>
      </trkpt>
      <trkpt lat="47.77196" lon="-3.60393">
        <ele>28</ele>
        <time>2018-07-14T11:32:27Z</time>
      </trkpt>
      <trkpt lat="47.77193" lon="-3.60392">
        <ele>28</ele>
        <time>2018-07-14T11:32:28Z</time>
      </trkpt>
      <trkpt lat="47.7719" lon="-3.60391">
        <ele>29</ele>
        <time>2018-07-14T11:32:29Z</time>
      </trkpt>
      <trkpt lat="47.77187" lon="-3.60391">
        <ele>29</ele>
        <time>2018-07-14T11:32:30Z</time>
      </trkpt>
      <trkpt lat="47.77183" lon="-3.60391">
        <ele>29</ele>
        <time>2018-07-14T11:32:31Z</time>
      </trkpt>
      <trkpt lat="47.77179" lon="-3.60392">
        <ele>29</ele>
        <time>2018-07-14T11:32:32Z</time>
      </trkpt>
      <trkpt lat="47.77175" lon="-3.60392">
        <ele>29</ele>
        <time>2018-07-14T11:32:33Z</time>
      </trkpt>
      <trkpt lat="47.77171" lon="-3.60393">
        <ele>29</ele>
        <time>2018-07-14T11:32:34Z</time>
      </trkpt>
      <trkpt lat="47.77166" lon="-3.60394">
        <ele>29</ele>
        <time>2018-07-14T11:32:35Z</time>
      </trkpt>
      <trkpt lat="47.77162" lon="-3.60394">
        <ele>29</ele>
        <time>2018-07-14T11:32:36Z</time>
      </trkpt>
      <trkpt lat="47.77158" lon="-3.60393">
        <ele>29</ele>
        <time>2018-07-14T11:32:37Z</time>
      </trkpt>
      <trkpt lat="47.77154" lon="-3.60391">
        <ele>29</ele>
        <time>2018-07-14T11:32:38Z</time>
      </trkpt>
      <trkpt lat="47.77152" lon="-3.60387">
        <ele>29</ele>
        <time>2018-07-14T11:32:39Z</time>
      </trkpt>
      <trkpt lat="47.7715" lon="-3.60382">
        <ele>29</ele>
        <time>2018-07-14T11:32:40Z</time>
      </trkpt>
      <trkpt lat="47.77149" lon="-3.60376">
        <ele>28</ele>
        <time>2018-07-14T11:32:41Z</time>
      </trkpt>
      <trkpt lat="47.77148" lon="-3.60369">
        <ele>28</ele>
        <time>2018-07-14T11:32:42Z</time>
      </trkpt>
      <trkpt lat="47.77148" lon="-3.60363">
        <ele>28</ele>
        <time>2018-07-14T11:32:43Z</time>
      </trkpt>
      <trkpt lat="47.77148" lon="-3.60356">
        <ele>28</ele>
        <time>2018-07-14T11:32:44Z</time>
      </trkpt>
      <trkpt lat="47.77148" lon="-3.60349">
        <ele>28</ele>
        <time>2018-07-14T11:32:45Z</time>
      </trkpt>
      <trkpt lat="47.77148" lon="-3.60342">
        <ele>28</ele>
        <time>2018-07-14T11:32:46Z</time>
      </trkpt>
      <trkpt lat="47.77148" lon="-3.60335">
        <ele>28</ele>
        <time>2018-07-14T11:32:47Z</time>
      </trkpt>
      <trkpt lat="47.77148" lon="-3.60327">
        <ele>28</ele>
        <time>2018-07-14T11:32:48Z</time>
      </trkpt>
      <trkpt lat="47.77148" lon="-3.6032">
        <ele>28</ele>
        <time>2018-07-14T11:32:49Z</time>
      </trkpt>
      <trkpt lat="47.77148" lon="-3.60312">
        <ele>28</ele>
        <time>2018-07-14T11:32:50Z</time>
      </trkpt>
      <trkpt lat="47.77149" lon="-3.60304">
        <ele>28</ele>
        <time>2018-07-14T11:32:51Z</time>
      </trkpt>
      <trkpt lat="47.77149" lon="-3.60297">
        <ele>28</ele>
        <time>2018-07-14T11:32:52Z</time>
      </trkpt>
      <trkpt lat="47.77149" lon="-3.60288">
        <ele>27</ele>
        <time>2018-07-14T11:32:53Z</time>
      </trkpt>
      <trkpt lat="47.77149" lon="-3.60281">
        <ele>27</ele>
        <time>2018-07-14T11:32:54Z</time>
      </trkpt>
      <trkpt lat="47.77149" lon="-3.60272">
        <ele>27</ele>
        <time>2018-07-14T11:32:55Z</time>
      </trkpt>
      <trkpt lat="47.77149" lon="-3.60264">
        <ele>27</ele>
        <time>2018-07-14T11:32:56Z</time>
      </trkpt>
      <trkpt lat="47.77149" lon="-3.60255">
        <ele>27</ele>
        <time>2018-07-14T11:32:57Z</time>
      </trkpt>
      <trkpt lat="47.77148" lon="-3.60246">
        <ele>27</ele>
        <time>2018-07-14T11:32:58Z</time>
      </trkpt>
      <trkpt lat="47.77147" lon="-3.60238">
        <ele>27</ele>
        <time>2018-07-14T11:32:59Z</time>
      </trkpt>
      <trkpt lat="47.77146" lon="-3.60229">
        <ele>26</ele>
        <time>2018-07-14T11:33:00Z</time>
      </trkpt>
      <trkpt lat="47.77145" lon="-3.60222">
        <ele>26</ele>
        <time>2018-07-14T11:33:01Z</time>
      </trkpt>
      <trkpt lat="47.77144" lon="-3.60214">
        <ele>26</ele>
        <time>2018-07-14T11:33:02Z</time>
      </trkpt>
      <trkpt lat="47.77142" lon="-3.60206">
        <ele>26</ele>
        <time>2018-07-14T11:33:03Z</time>
      </trkpt>
      <trkpt lat="47.77141" lon="-3.60199">
        <ele>26</ele>
        <time>2018-07-14T11:33:04Z</time>
      </trkpt>
      <trkpt lat="47.7714" lon="-3.60192">
        <ele>26</ele>
        <time>2018-07-14T11:33:05Z</time>
      </trkpt>
      <trkpt lat="47.7714" lon="-3.60186">
        <ele>27</ele>
        <time>2018-07-14T11:33:06Z</time>
      </trkpt>
      <trkpt lat="47.7714" lon="-3.6018">
        <ele>27</ele>
        <time>2018-07-14T11:33:07Z</time>
      </trkpt>
      <trkpt lat="47.7714" lon="-3.60174">
        <ele>26</ele>
        <time>2018-07-14T11:33:08Z</time>
      </trkpt>
      <trkpt lat="47.7714" lon="-3.60167">
        <ele>26</ele>
        <time>2018-07-14T11:33:09Z</time>
      </trkpt>
      <trkpt lat="47.7714" lon="-3.60161">
        <ele>26</ele>
        <time>2018-07-14T11:33:10Z</time>
      </trkpt>
      <trkpt lat="47.7714" lon="-3.60155">
        <ele>26</ele>
        <time>2018-07-14T11:33:11Z</time>
      </trkpt>
      <trkpt lat="47.77139" lon="-3.60148">
        <ele>26</ele>
        <time>2018-07-14T11:33:12Z</time>
      </trkpt>
      <trkpt lat="47.77139" lon="-3.60141">
        <ele>26</ele>
        <time>2018-07-14T11:33:13Z</time>
      </trkpt>
      <trkpt lat="47.77139" lon="-3.60134">
        <ele>26</ele>
        <time>2018-07-14T11:33:14Z</time>
      </trkpt>
      <trkpt lat="47.77139" lon="-3.60126">
        <ele>26</ele>
        <time>2018-07-14T11:33:15Z</time>
      </trkpt>
      <trkpt lat="47.77139" lon="-3.60119">
        <ele>26</ele>
        <time>2018-07-14T11:33:16Z</time>
      </trkpt>
      <trkpt lat="47.77139" lon="-3.60111">
        <ele>26</ele>
        <time>2018-07-14T11:33:17Z</time>
      </trkpt>
      <trkpt lat="47.7714" lon="-3.60103">
        <ele>26</ele>
        <time>2018-07-14T11:33:18Z</time>
      </trkpt>
      <trkpt lat="47.77141" lon="-3.60095">
        <ele>26</ele>
        <time>2018-07-14T11:33:19Z</time>
      </trkpt>
      <trkpt lat="47.77142" lon="-3.60087">
        <ele>26</ele>
        <time>2018-07-14T11:33:20Z</time>
      </trkpt>
      <trkpt lat="47.77143" lon="-3.6008">
        <ele>25</ele>
        <time>2018-07-14T11:33:21Z</time>
      </trkpt>
      <trkpt lat="47.77145" lon="-3.60072">
        <ele>25</ele>
        <time>2018-07-14T11:33:22Z</time>
      </trkpt>
      <trkpt lat="47.77145" lon="-3.60065">
        <ele>25</ele>
        <time>2018-07-14T11:33:23Z</time>
      </trkpt>
      <trkpt lat="47.77144" lon="-3.60058">
        <ele>26</ele>
        <time>2018-07-14T11:33:24Z</time>
      </trkpt>
      <trkpt lat="47.77142" lon="-3.60052">
        <ele>26</ele>
        <time>2018-07-14T11:33:25Z</time>
      </trkpt>
      <trkpt lat="47.77139" lon="-3.60047">
        <ele>26</ele>
        <time>2018-07-14T11:33:26Z</time>
      </trkpt>
      <trkpt lat="47.77136" lon="-3.60041">
        <ele>26</ele>
        <time>2018-07-14T11:33:27Z</time>
      </trkpt>
      <trkpt lat="47.77132" lon="-3.60036">
        <ele>26</ele>
        <time>2018-07-14T11:33:28Z</time>
      </trkpt>
      <trkpt lat="47.77129" lon="-3.6003">
        <ele>26</ele>
        <time>2018-07-14T11:33:29Z</time>
      </trkpt>
      <trkpt lat="47.77125" lon="-3.60025">
        <ele>26</ele>
        <time>2018-07-14T11:33:30Z</time>
      </trkpt>
      <trkpt lat="47.77121" lon="-3.60018">
        <ele>26</ele>
        <time>2018-07-14T11:33:31Z</time>
      </trkpt>
      <trkpt lat="47.77117" lon="-3.60012">
        <ele>26</ele>
        <time>2018-07-14T11:33:32Z</time>
      </trkpt>
      <trkpt lat="47.77112" lon="-3.60005">
        <ele>25</ele>
        <time>2018-07-14T11:33:33Z</time>
      </trkpt>
      <trkpt lat="47.77106" lon="-3.59998">
        <ele>25</ele>
        <time>2018-07-14T11:33:34Z</time>
      </trkpt>
      <trkpt lat="47.77101" lon="-3.59992">
        <ele>25</ele>
        <time>2018-07-14T11:33:35Z</time>
      </trkpt>
      <trkpt lat="47.77096" lon="-3.59985">
        <ele>25</ele>
        <time>2018-07-14T11:33:36Z</time>
      </trkpt>
      <trkpt lat="47.7709" lon="-3.59978">
        <ele>25</ele>
        <time>2018-07-14T11:33:37Z</time>
      </trkpt>
      <trkpt lat="47.77086" lon="-3.59972">
        <ele>24</ele>
        <time>2018-07-14T11:33:38Z</time>
      </trkpt>
      <trkpt lat="47.77082" lon="-3.59965">
        <ele>24</ele>
        <time>2018-07-14T11:33:39Z</time>
      </trkpt>
      <trkpt lat="47.7708" lon="-3.59957">
        <ele>24</ele>
        <time>2018-07-14T11:33:40Z</time>
      </trkpt>
      <trkpt lat="47.77079" lon="-3.59949">
        <ele>24</ele>
        <time>2018-07-14T11:33:41Z</time>
      </trkpt>
      <trkpt lat="47.77078" lon="-3.59942">
        <ele>24</ele>
        <time>2018-07-14T11:33:42Z</time>
      </trkpt>
      <trkpt lat="47.77078" lon="-3.59935">
        <ele>24</ele>
        <time>2018-07-14T11:33:43Z</time>
      </trkpt>
      <trkpt lat="47.77077" lon="-3.59927">
        <ele>24</ele>
        <time>2018-07-14T11:33:44Z</time>
      </trkpt>
      <trkpt lat="47.77076" lon="-3.5992">
        <ele>24</ele>
        <time>2018-07-14T11:33:45Z</time>
      </trkpt>
      <trkpt lat="47.77076" lon="-3.59912">
        <ele>24</ele>
        <time>2018-07-14T11:33:46Z</time>
      </trkpt>
      <trkpt lat="47.77075" lon="-3.59905">
        <ele>24</ele>
        <time>2018-07-14T11:33:47Z</time>
      </trkpt>
      <trkpt lat="47.77074" lon="-3.59897">
        <ele>23</ele>
        <time>2018-07-14T11:33:48Z</time>
      </trkpt>
      <trkpt lat="47.77072" lon="-3.59889">
        <ele>23</ele>
        <time>2018-07-14T11:33:49Z</time>
      </trkpt>
      <trkpt lat="47.7707" lon="-3.59881">
        <ele>23</ele>
        <time>2018-07-14T11:33:50Z</time>
      </trkpt>
      <trkpt lat="47.77069" lon="-3.59873">
        <ele>23</ele>
        <time>2018-07-14T11:33:51Z</time>
      </trkpt>
      <trkpt lat="47.77067" lon="-3.59864">
        <ele>23</ele>
        <time>2018-07-14T11:33:52Z</time>
      </trkpt>
      <trkpt lat="47.77066" lon="-3.59856">
        <ele>23</ele>
        <time>2018-07-14T11:33:53Z</time>
      </trkpt>
      <trkpt lat="47.77064" lon="-3.5985">
        <ele>22</ele>
        <time>2018-07-14T11:33:54Z</time>
      </trkpt>
      <trkpt lat="47.77061" lon="-3.59845">
        <ele>22</ele>
        <time>2018-07-14T11:33:55Z</time>
      </trkpt>
      <trkpt lat="47.77056" lon="-3.59843">
        <ele>22</ele>
        <time>2018-07-14T11:33:56Z</time>
      </trkpt>
      <trkpt lat="47.77051" lon="-3.59842">
        <ele>22</ele>
        <time>2018-07-14T11:33:57Z</time>
      </trkpt>
      <trkpt lat="47.77048" lon="-3.5984">
        <ele>22</ele>
        <time>2018-07-14T11:33:58Z</time>
      </trkpt>
      <trkpt lat="47.77046" lon="-3.59835">
        <ele>22</ele>
        <time>2018-07-14T11:33:59Z</time>
      </trkpt>
      <trkpt lat="47.77045" lon="-3.59831">
        <ele>22</ele>
        <time>2018-07-14T11:34:00Z</time>
      </trkpt>
      <trkpt lat="47.77045" lon="-3.59825">
        <ele>21</ele>
        <time>2018-07-14T11:34:01Z</time>
      </trkpt>
      <trkpt lat="47.77045" lon="-3.5982">
        <ele>21</ele>
        <time>2018-07-14T11:34:02Z</time>
      </trkpt>
      <trkpt lat="47.77044" lon="-3.59814">
        <ele>21</ele>
        <time>2018-07-14T11:34:03Z</time>
      </trkpt>
      <trkpt lat="47.77044" lon="-3.59809">
        <ele>21</ele>
        <time>2018-07-14T11:34:04Z</time>
      </trkpt>
      <trkpt lat="47.77043" lon="-3.59803">
        <ele>22</ele>
        <time>2018-07-14T11:34:05Z</time>
      </trkpt>
      <trkpt lat="47.77042" lon="-3.59797">
        <ele>22</ele>
        <time>2018-07-14T11:34:06Z</time>
      </trkpt>
      <trkpt lat="47.77042" lon="-3.59792">
        <ele>22</ele>
        <time>2018-07-14T11:34:07Z</time>
      </trkpt>
      <trkpt lat="47.77042" lon="-3.59787">
        <ele>22</ele>
        <time>2018-07-14T11:34:08Z</time>
      </trkpt>
      <trkpt lat="47.77042" lon="-3.59782">
        <ele>22</ele>
        <time>2018-07-14T11:34:09Z</time>
      </trkpt>
      <trkpt lat="47.77043" lon="-3.59777">
        <ele>22</ele>
        <time>2018-07-14T11:34:10Z</time>
      </trkpt>
      <trkpt lat="47.77043" lon="-3.59772">
        <ele>22</ele>
        <time>2018-07-14T11:34:11Z</time>
      </trkpt>
      <trkpt lat="47.77043" lon="-3.59766">
        <ele>22</ele>
        <time>2018-07-14T11:34:12Z</time>
      </trkpt>
      <trkpt lat="47.77043" lon="-3.59761">
        <ele>22</ele>
        <time>2018-07-14T11:34:13Z</time>
      </trkpt>
      <trkpt lat="47.77044" lon="-3.59756">
        <ele>22</ele>
        <time>2018-07-14T11:34:14Z</time>
      </trkpt>
      <trkpt lat="47.77046" lon="-3.5975">
        <ele>22</ele>
        <time>2018-07-14T11:34:15Z</time>
      </trkpt>
      <trkpt lat="47.77048" lon="-3.59745">
        <ele>22</ele>
        <time>2018-07-14T11:34:16Z</time>
      </trkpt>
      <trkpt lat="47.7705" lon="-3.59739">
        <ele>22</ele>
        <time>2018-07-14T11:34:17Z</time>
      </trkpt>
      <trkpt lat="47.77052" lon="-3.59731">
        <ele>22</ele>
        <time>2018-07-14T11:34:18Z</time>
      </trkpt>
      <trkpt lat="47.77055" lon="-3.59723">
        <ele>22</ele>
        <time>2018-07-14T11:34:19Z</time>
      </trkpt>
      <trkpt lat="47.77057" lon="-3.59714">
        <ele>21</ele>
        <time>2018-07-14T11:34:20Z</time>
      </trkpt>
      <trkpt lat="47.77057" lon="-3.59704">
        <ele>21</ele>
        <time>2018-07-14T11:34:21Z</time>
      </trkpt>
      <trkpt lat="47.77057" lon="-3.59695">
        <ele>21</ele>
        <time>2018-07-14T11:34:22Z</time>
      </trkpt>
      <trkpt lat="47.77055" lon="-3.59686">
        <ele>21</ele>
        <time>2018-07-14T11:34:23Z</time>
      </trkpt>
      <trkpt lat="47.77054" lon="-3.59679">
        <ele>21</ele>
        <time>2018-07-14T11:34:24Z</time>
      </trkpt>
      <trkpt lat="47.77052" lon="-3.59672">
        <ele>21</ele>
        <time>2018-07-14T11:34:25Z</time>
      </trkpt>
      <trkpt lat="47.7705" lon="-3.59665">
        <ele>21</ele>
        <time>2018-07-14T11:34:26Z</time>
      </trkpt>
      <trkpt lat="47.77049" lon="-3.59659">
        <ele>22</ele>
        <time>2018-07-14T11:34:27Z</time>
      </trkpt>
      <trkpt lat="47.77047" lon="-3.59652">
        <ele>22</ele>
        <time>2018-07-14T11:34:28Z</time>
      </trkpt>
      <trkpt lat="47.77045" lon="-3.59646">
        <ele>22</ele>
        <time>2018-07-14T11:34:29Z</time>
      </trkpt>
      <trkpt lat="47.77043" lon="-3.5964">
        <ele>22</ele>
        <time>2018-07-14T11:34:30Z</time>
      </trkpt>
      <trkpt lat="47.77041" lon="-3.59633">
        <ele>22</ele>
        <time>2018-07-14T11:34:31Z</time>
      </trkpt>
      <trkpt lat="47.7704" lon="-3.59627">
        <ele>23</ele>
        <time>2018-07-14T11:34:32Z</time>
      </trkpt>
      <trkpt lat="47.77038" lon="-3.59621">
        <ele>23</ele>
        <time>2018-07-14T11:34:33Z</time>
      </trkpt>
      <trkpt lat="47.77037" lon="-3.59615">
        <ele>23</ele>
        <time>2018-07-14T11:34:34Z</time>
      </trkpt>
      <trkpt lat="47.77035" lon="-3.5961">
        <ele>23</ele>
        <time>2018-07-14T11:34:35Z</time>
      </trkpt>
      <trkpt lat="47.77033" lon="-3.59604">
        <ele>24</ele>
        <time>2018-07-14T11:34:36Z</time>
      </trkpt>
      <trkpt lat="47.77032" lon="-3.59598">
        <ele>24</ele>
        <time>2018-07-14T11:34:37Z</time>
      </trkpt>
      <trkpt lat="47.7703" lon="-3.59592">
        <ele>24</ele>
        <time>2018-07-14T11:34:38Z</time>
      </trkpt>
      <trkpt lat="47.77029" lon="-3.59586">
        <ele>24</ele>
        <time>2018-07-14T11:34:39Z</time>
      </trkpt>
      <trkpt lat="47.77028" lon="-3.59579">
        <ele>24</ele>
        <time>2018-07-14T11:34:40Z</time>
      </trkpt>
      <trkpt lat="47.77027" lon="-3.59572">
        <ele>24</ele>
        <time>2018-07-14T11:34:41Z</time>
      </trkpt>
      <trkpt lat="47.77027" lon="-3.59566">
        <ele>25</ele>
        <time>2018-07-14T11:34:42Z</time>
      </trkpt>
      <trkpt lat="47.77028" lon="-3.59559">
        <ele>25</ele>
        <time>2018-07-14T11:34:43Z</time>
      </trkpt>
      <trkpt lat="47.7703" lon="-3.59553">
        <ele>25</ele>
        <time>2018-07-14T11:34:44Z</time>
      </trkpt>
      <trkpt lat="47.77031" lon="-3.59547">
        <ele>25</ele>
        <time>2018-07-14T11:34:45Z</time>
      </trkpt>
      <trkpt lat="47.77033" lon="-3.59543">
        <ele>25</ele>
        <time>2018-07-14T11:34:46Z</time>
      </trkpt>
      <trkpt lat="47.77035" lon="-3.59539">
        <ele>26</ele>
        <time>2018-07-14T11:34:47Z</time>
      </trkpt>
      <trkpt lat="47.77038" lon="-3.59535">
        <ele>26</ele>
        <time>2018-07-14T11:34:48Z</time>
      </trkpt>
      <trkpt lat="47.77041" lon="-3.59531">
        <ele>26</ele>
        <time>2018-07-14T11:34:49Z</time>
      </trkpt>
      <trkpt lat="47.77044" lon="-3.59527">
        <ele>26</ele>
        <time>2018-07-14T11:34:50Z</time>
      </trkpt>
      <trkpt lat="47.77047" lon="-3.59524">
        <ele>26</ele>
        <time>2018-07-14T11:34:51Z</time>
      </trkpt>
      <trkpt lat="47.77051" lon="-3.59521">
        <ele>26</ele>
        <time>2018-07-14T11:34:52Z</time>
      </trkpt>
      <trkpt lat="47.77055" lon="-3.59518">
        <ele>26</ele>
        <time>2018-07-14T11:34:53Z</time>
      </trkpt>
      <trkpt lat="47.77059" lon="-3.59516">
        <ele>26</ele>
        <time>2018-07-14T11:34:54Z</time>
      </trkpt>
      <trkpt lat="47.77062" lon="-3.59514">
        <ele>27</ele>
        <time>2018-07-14T11:34:55Z</time>
      </trkpt>
      <trkpt lat="47.77064" lon="-3.59513">
        <ele>27</ele>
        <time>2018-07-14T11:34:56Z</time>
      </trkpt>
      <trkpt lat="47.77066" lon="-3.59513">
        <ele>27</ele>
        <time>2018-07-14T11:34:57Z</time>
      </trkpt>
      <trkpt lat="47.77067" lon="-3.59515">
        <ele>27</ele>
        <time>2018-07-14T11:34:58Z</time>
      </trkpt>
      <trkpt lat="47.77067" lon="-3.59516">
        <ele>27</ele>
        <time>2018-07-14T11:34:59Z</time>
      </trkpt>
      <trkpt lat="47.77065" lon="-3.59515">
        <ele>27</ele>
        <time>2018-07-14T11:35:00Z</time>
      </trkpt>
      <trkpt lat="47.77063" lon="-3.59512">
        <ele>27</ele>
        <time>2018-07-14T11:35:01Z</time>
      </trkpt>
      <trkpt lat="47.77061" lon="-3.59509">
        <ele>27</ele>
        <time>2018-07-14T11:35:02Z</time>
      </trkpt>
      <trkpt lat="47.77061" lon="-3.59504">
        <ele>27</ele>
        <time>2018-07-14T11:35:03Z</time>
      </trkpt>
      <trkpt lat="47.77061" lon="-3.595">
        <ele>27</ele>
        <time>2018-07-14T11:35:04Z</time>
      </trkpt>
      <trkpt lat="47.77061" lon="-3.59494">
        <ele>27</ele>
        <time>2018-07-14T11:35:05Z</time>
      </trkpt>
      <trkpt lat="47.77063" lon="-3.5949">
        <ele>27</ele>
        <time>2018-07-14T11:35:06Z</time>
      </trkpt>
      <trkpt lat="47.77064" lon="-3.59486">
        <ele>27</ele>
        <time>2018-07-14T11:35:07Z</time>
      </trkpt>
      <trkpt lat="47.77066" lon="-3.59481">
        <ele>27</ele>
        <time>2018-07-14T11:35:08Z</time>
      </trkpt>
      <trkpt lat="47.77068" lon="-3.59476">
        <ele>27</ele>
        <time>2018-07-14T11:35:09Z</time>
      </trkpt>
      <trkpt lat="47.77069" lon="-3.5947">
        <ele>27</ele>
        <time>2018-07-14T11:35:10Z</time>
      </trkpt>
      <trkpt lat="47.77071" lon="-3.59465">
        <ele>27</ele>
        <time>2018-07-14T11:35:11Z</time>
      </trkpt>
      <trkpt lat="47.77073" lon="-3.5946">
        <ele>27</ele>
        <time>2018-07-14T11:35:12Z</time>
      </trkpt>
      <trkpt lat="47.77074" lon="-3.59454">
        <ele>27</ele>
        <time>2018-07-14T11:35:13Z</time>
      </trkpt>
      <trkpt lat="47.77074" lon="-3.59449">
        <ele>27</ele>
        <time>2018-07-14T11:35:14Z</time>
      </trkpt>
      <trkpt lat="47.77074" lon="-3.59443">
        <ele>27</ele>
        <time>2018-07-14T11:35:15Z</time>
      </trkpt>
      <trkpt lat="47.77074" lon="-3.59437">
        <ele>27</ele>
        <time>2018-07-14T11:35:16Z</time>
      </trkpt>
      <trkpt lat="47.77073" lon="-3.59432">
        <ele>27</ele>
        <time>2018-07-14T11:35:17Z</time>
      </trkpt>
      <trkpt lat="47.77072" lon="-3.59426">
        <ele>27</ele>
        <time>2018-07-14T11:35:18Z</time>
      </trkpt>
      <trkpt lat="47.77071" lon="-3.5942">
        <ele>27</ele>
        <time>2018-07-14T11:35:19Z</time>
      </trkpt>
      <trkpt lat="47.77071" lon="-3.59414">
        <ele>27</ele>
        <time>2018-07-14T11:35:20Z</time>
      </trkpt>
      <trkpt lat="47.7707" lon="-3.59408">
        <ele>28</ele>
        <time>2018-07-14T11:35:21Z</time>
      </trkpt>
      <trkpt lat="47.7707" lon="-3.59401">
        <ele>28</ele>
        <time>2018-07-14T11:35:22Z</time>
      </trkpt>
      <trkpt lat="47.77069" lon="-3.59395">
        <ele>28</ele>
        <time>2018-07-14T11:35:23Z</time>
      </trkpt>
      <trkpt lat="47.77069" lon="-3.59388">
        <ele>28</ele>
        <time>2018-07-14T11:35:24Z</time>
      </trkpt>
      <trkpt lat="47.77069" lon="-3.59381">
        <ele>28</ele>
        <time>2018-07-14T11:35:25Z</time>
      </trkpt>
      <trkpt lat="47.7707" lon="-3.59374">
        <ele>29</ele>
        <time>2018-07-14T11:35:26Z</time>
      </trkpt>
      <trkpt lat="47.7707" lon="-3.59368">
        <ele>29</ele>
        <time>2018-07-14T11:35:27Z</time>
      </trkpt>
      <trkpt lat="47.77071" lon="-3.5936">
        <ele>29</ele>
        <time>2018-07-14T11:35:28Z</time>
      </trkpt>
      <trkpt lat="47.77071" lon="-3.59353">
        <ele>29</ele>
        <time>2018-07-14T11:35:29Z</time>
      </trkpt>
      <trkpt lat="47.77071" lon="-3.59346">
        <ele>29</ele>
        <time>2018-07-14T11:35:30Z</time>
      </trkpt>
      <trkpt lat="47.77072" lon="-3.59339">
        <ele>29</ele>
        <time>2018-07-14T11:35:31Z</time>
      </trkpt>
      <trkpt lat="47.77072" lon="-3.59332">
        <ele>29</ele>
        <time>2018-07-14T11:35:32Z</time>
      </trkpt>
      <trkpt lat="47.77072" lon="-3.59324">
        <ele>30</ele>
        <time>2018-07-14T11:35:33Z</time>
      </trkpt>
      <trkpt lat="47.77072" lon="-3.59317">
        <ele>30</ele>
        <time>2018-07-14T11:35:34Z</time>
      </trkpt>
      <trkpt lat="47.77073" lon="-3.59311">
        <ele>30</ele>
        <time>2018-07-14T11:35:35Z</time>
      </trkpt>
      <trkpt lat="47.77073" lon="-3.59304">
        <ele>30</ele>
        <time>2018-07-14T11:35:36Z</time>
      </trkpt>
      <trkpt lat="47.77074" lon="-3.59297">
        <ele>30</ele>
        <time>2018-07-14T11:35:37Z</time>
      </trkpt>
      <trkpt lat="47.77074" lon="-3.59289">
        <ele>30</ele>
        <time>2018-07-14T11:35:38Z</time>
      </trkpt>
      <trkpt lat="47.77076" lon="-3.59282">
        <ele>30</ele>
        <time>2018-07-14T11:35:39Z</time>
      </trkpt>
      <trkpt lat="47.77077" lon="-3.59275">
        <ele>30</ele>
        <time>2018-07-14T11:35:40Z</time>
      </trkpt>
      <trkpt lat="47.77078" lon="-3.59267">
        <ele>30</ele>
        <time>2018-07-14T11:35:41Z</time>
      </trkpt>
      <trkpt lat="47.77079" lon="-3.5926">
        <ele>30</ele>
        <time>2018-07-14T11:35:42Z</time>
      </trkpt>
      <trkpt lat="47.77079" lon="-3.59253">
        <ele>30</ele>
        <time>2018-07-14T11:35:43Z</time>
      </trkpt>
      <trkpt lat="47.77079" lon="-3.59246">
        <ele>30</ele>
        <time>2018-07-14T11:35:44Z</time>
      </trkpt>
      <trkpt lat="47.77079" lon="-3.59238">
        <ele>30</ele>
        <time>2018-07-14T11:35:45Z</time>
      </trkpt>
      <trkpt lat="47.77079" lon="-3.59231">
        <ele>30</ele>
        <time>2018-07-14T11:35:46Z</time>
      </trkpt>
      <trkpt lat="47.7708" lon="-3.59224">
        <ele>30</ele>
        <time>2018-07-14T11:35:47Z</time>
      </trkpt>
      <trkpt lat="47.77082" lon="-3.59217">
        <ele>30</ele>
        <time>2018-07-14T11:35:48Z</time>
      </trkpt>
      <trkpt lat="47.77084" lon="-3.5921">
        <ele>30</ele>
        <time>2018-07-14T11:35:49Z</time>
      </trkpt>
      <trkpt lat="47.77086" lon="-3.59202">
        <ele>30</ele>
        <time>2018-07-14T11:35:50Z</time>
      </trkpt>
      <trkpt lat="47.77089" lon="-3.59194">
        <ele>30</ele>
        <time>2018-07-14T11:35:51Z</time>
      </trkpt>
      <trkpt lat="47.77093" lon="-3.59187">
        <ele>30</ele>
        <time>2018-07-14T11:35:52Z</time>
      </trkpt>
      <trkpt lat="47.77096" lon="-3.59178">
        <ele>30</ele>
        <time>2018-07-14T11:35:53Z</time>
      </trkpt>
      <trkpt lat="47.77099" lon="-3.59171">
        <ele>29</ele>
        <time>2018-07-14T11:35:54Z</time>
      </trkpt>
      <trkpt lat="47.77101" lon="-3.59164">
        <ele>29</ele>
        <time>2018-07-14T11:35:55Z</time>
      </trkpt>
      <trkpt lat="47.77103" lon="-3.59158">
        <ele>29</ele>
        <time>2018-07-14T11:35:56Z</time>
      </trkpt>
      <trkpt lat="47.77103" lon="-3.59154">
        <ele>29</ele>
        <time>2018-07-14T11:35:57Z</time>
      </trkpt>
      <trkpt lat="47.77101" lon="-3.5915">
        <ele>29</ele>
        <time>2018-07-14T11:35:58Z</time>
      </trkpt>
      <trkpt lat="47.77099" lon="-3.59147">
        <ele>29</ele>
        <time>2018-07-14T11:35:59Z</time>
      </trkpt>
      <trkpt lat="47.77096" lon="-3.59145">
        <ele>28</ele>
        <time>2018-07-14T11:36:00Z</time>
      </trkpt>
      <trkpt lat="47.77092" lon="-3.59143">
        <ele>28</ele>
        <time>2018-07-14T11:36:01Z</time>
      </trkpt>
      <trkpt lat="47.77089" lon="-3.59141">
        <ele>28</ele>
        <time>2018-07-14T11:36:02Z</time>
      </trkpt>
      <trkpt lat="47.77085" lon="-3.59139">
        <ele>28</ele>
        <time>2018-07-14T11:36:03Z</time>
      </trkpt>
      <trkpt lat="47.77081" lon="-3.59136">
        <ele>28</ele>
        <time>2018-07-14T11:36:04Z</time>
      </trkpt>
      <trkpt lat="47.77076" lon="-3.59133">
        <ele>28</ele>
        <time>2018-07-14T11:36:05Z</time>
      </trkpt>
      <trkpt lat="47.77073" lon="-3.5913">
        <ele>28</ele>
        <time>2018-07-14T11:36:06Z</time>
      </trkpt>
      <trkpt lat="47.77069" lon="-3.59127">
        <ele>28</ele>
        <time>2018-07-14T11:36:07Z</time>
      </trkpt>
      <trkpt lat="47.77065" lon="-3.59124">
        <ele>28</ele>
        <time>2018-07-14T11:36:08Z</time>
      </trkpt>
      <trkpt lat="47.77061" lon="-3.5912">
        <ele>28</ele>
        <time>2018-07-14T11:36:09Z</time>
      </trkpt>
      <trkpt lat="47.77056" lon="-3.59117">
        <ele>28</ele>
        <time>2018-07-14T11:36:10Z</time>
      </trkpt>
      <trkpt lat="47.77051" lon="-3.59113">
        <ele>28</ele>
        <time>2018-07-14T11:36:11Z</time>
      </trkpt>
      <trkpt lat="47.77046" lon="-3.59109">
        <ele>28</ele>
        <time>2018-07-14T11:36:12Z</time>
      </trkpt>
      <trkpt lat="47.77041" lon="-3.59105">
        <ele>28</ele>
        <time>2018-07-14T11:36:13Z</time>
      </trkpt>
      <trkpt lat="47.77036" lon="-3.59101">
        <ele>28</ele>
        <time>2018-07-14T11:36:14Z</time>
      </trkpt>
      <trkpt lat="47.77031" lon="-3.59096">
        <ele>28</ele>
        <time>2018-07-14T11:36:15Z</time>
      </trkpt>
      <trkpt lat="47.77027" lon="-3.5909">
        <ele>28</ele>
        <time>2018-07-14T11:36:16Z</time>
      </trkpt>
      <trkpt lat="47.77023" lon="-3.59084">
        <ele>28</ele>
        <time>2018-07-14T11:36:17Z</time>
      </trkpt>
      <trkpt lat="47.77019" lon="-3.59077">
        <ele>28</ele>
        <time>2018-07-14T11:36:18Z</time>
      </trkpt>
      <trkpt lat="47.77015" lon="-3.59071">
        <ele>28</ele>
        <time>2018-07-14T11:36:19Z</time>
      </trkpt>
      <trkpt lat="47.77011" lon="-3.59064">
        <ele>28</ele>
        <time>2018-07-14T11:36:20Z</time>
      </trkpt>
      <trkpt lat="47.77007" lon="-3.59056">
        <ele>28</ele>
        <time>2018-07-14T11:36:21Z</time>
      </trkpt>
      <trkpt lat="47.77004" lon="-3.5905">
        <ele>28</ele>
        <time>2018-07-14T11:36:22Z</time>
      </trkpt>
      <trkpt lat="47.77002" lon="-3.59043">
        <ele>28</ele>
        <time>2018-07-14T11:36:23Z</time>
      </trkpt>
      <trkpt lat="47.76999" lon="-3.59036">
        <ele>28</ele>
        <time>2018-07-14T11:36:24Z</time>
      </trkpt>
      <trkpt lat="47.76996" lon="-3.59029">
        <ele>28</ele>
        <time>2018-07-14T11:36:25Z</time>
      </trkpt>
      <trkpt lat="47.76993" lon="-3.59023">
        <ele>28</ele>
        <time>2018-07-14T11:36:26Z</time>
      </trkpt>
      <trkpt lat="47.7699" lon="-3.59016">
        <ele>28</ele>
        <time>2018-07-14T11:36:27Z</time>
      </trkpt>
      <trkpt lat="47.76986" lon="-3.59008">
        <ele>28</ele>
        <time>2018-07-14T11:36:28Z</time>
      </trkpt>
      <trkpt lat="47.76983" lon="-3.59001">
        <ele>28</ele>
        <time>2018-07-14T11:36:29Z</time>
      </trkpt>
      <trkpt lat="47.7698" lon="-3.58993">
        <ele>29</ele>
        <time>2018-07-14T11:36:30Z</time>
      </trkpt>
      <trkpt lat="47.76977" lon="-3.58985">
        <ele>28</ele>
        <time>2018-07-14T11:36:31Z</time>
      </trkpt>
      <trkpt lat="47.76974" lon="-3.58978">
        <ele>29</ele>
        <time>2018-07-14T11:36:32Z</time>
      </trkpt>
      <trkpt lat="47.7697" lon="-3.5897">
        <ele>29</ele>
        <time>2018-07-14T11:36:33Z</time>
      </trkpt>
      <trkpt lat="47.76967" lon="-3.58963">
        <ele>29</ele>
        <time>2018-07-14T11:36:34Z</time>
      </trkpt>
      <trkpt lat="47.76965" lon="-3.58956">
        <ele>29</ele>
        <time>2018-07-14T11:36:35Z</time>
      </trkpt>
      <trkpt lat="47.76963" lon="-3.58949">
        <ele>29</ele>
        <time>2018-07-14T11:36:36Z</time>
      </trkpt>
      <trkpt lat="47.76961" lon="-3.58944">
        <ele>29</ele>
        <time>2018-07-14T11:36:37Z</time>
      </trkpt>
      <trkpt lat="47.76958" lon="-3.58937">
        <ele>29</ele>
        <time>2018-07-14T11:36:38Z</time>
      </trkpt>
      <trkpt lat="47.76956" lon="-3.58931">
        <ele>29</ele>
        <time>2018-07-14T11:36:39Z</time>
      </trkpt>
      <trkpt lat="47.76954" lon="-3.58924">
        <ele>29</ele>
        <time>2018-07-14T11:36:40Z</time>
      </trkpt>
      <trkpt lat="47.76952" lon="-3.58917">
        <ele>29</ele>
        <time>2018-07-14T11:36:41Z</time>
      </trkpt>
      <trkpt lat="47.7695" lon="-3.5891">
        <ele>29</ele>
        <time>2018-07-14T11:36:42Z</time>
      </trkpt>
      <trkpt lat="47.76948" lon="-3.58903">
        <ele>29</ele>
        <time>2018-07-14T11:36:43Z</time>
      </trkpt>
      <trkpt lat="47.76946" lon="-3.58896">
        <ele>29</ele>
        <time>2018-07-14T11:36:44Z</time>
      </trkpt>
      <trkpt lat="47.76944" lon="-3.58889">
        <ele>29</ele>
        <time>2018-07-14T11:36:45Z</time>
      </trkpt>
      <trkpt lat="47.76942" lon="-3.58881">
        <ele>29</ele>
        <time>2018-07-14T11:36:46Z</time>
      </trkpt>
      <trkpt lat="47.76942" lon="-3.58873">
        <ele>29</ele>
        <time>2018-07-14T11:36:47Z</time>
      </trkpt>
      <trkpt lat="47.76941" lon="-3.58865">
        <ele>29</ele>
        <time>2018-07-14T11:36:48Z</time>
      </trkpt>
      <trkpt lat="47.76941" lon="-3.58856">
        <ele>29</ele>
        <time>2018-07-14T11:36:49Z</time>
      </trkpt>
      <trkpt lat="47.76941" lon="-3.58848">
        <ele>29</ele>
        <time>2018-07-14T11:36:50Z</time>
      </trkpt>
      <trkpt lat="47.76941" lon="-3.58839">
        <ele>28</ele>
        <time>2018-07-14T11:36:51Z</time>
      </trkpt>
      <trkpt lat="47.7694" lon="-3.5883">
        <ele>28</ele>
        <time>2018-07-14T11:36:52Z</time>
      </trkpt>
      <trkpt lat="47.7694" lon="-3.58821">
        <ele>28</ele>
        <time>2018-07-14T11:36:53Z</time>
      </trkpt>
      <trkpt lat="47.7694" lon="-3.58814">
        <ele>28</ele>
        <time>2018-07-14T11:36:54Z</time>
      </trkpt>
      <trkpt lat="47.76938" lon="-3.58806">
        <ele>28</ele>
        <time>2018-07-14T11:36:55Z</time>
      </trkpt>
      <trkpt lat="47.76935" lon="-3.58799">
        <ele>27</ele>
        <time>2018-07-14T11:36:56Z</time>
      </trkpt>
      <trkpt lat="47.76931" lon="-3.58791">
        <ele>27</ele>
        <time>2018-07-14T11:36:57Z</time>
      </trkpt>
      <trkpt lat="47.76929" lon="-3.58785">
        <ele>27</ele>
        <time>2018-07-14T11:36:58Z</time>
      </trkpt>
      <trkpt lat="47.76926" lon="-3.5878">
        <ele>26</ele>
        <time>2018-07-14T11:36:59Z</time>
      </trkpt>
      <trkpt lat="47.76926" lon="-3.58776">
        <ele>26</ele>
        <time>2018-07-14T11:37:00Z</time>
      </trkpt>
      <trkpt lat="47.76927" lon="-3.58774">
        <ele>26</ele>
        <time>2018-07-14T11:37:01Z</time>
      </trkpt>
      <trkpt lat="47.76929" lon="-3.58773">
        <ele>25</ele>
        <time>2018-07-14T11:37:02Z</time>
      </trkpt>
      <trkpt lat="47.76931" lon="-3.58772">
        <ele>25</ele>
        <time>2018-07-14T11:37:03Z</time>
      </trkpt>
      <trkpt lat="47.76934" lon="-3.58772">
        <ele>25</ele>
        <time>2018-07-14T11:37:04Z</time>
      </trkpt>
      <trkpt lat="47.76936" lon="-3.58773">
        <ele>25</ele>
        <time>2018-07-14T11:37:05Z</time>
      </trkpt>
      <trkpt lat="47.76938" lon="-3.58773">
        <ele>24</ele>
        <time>2018-07-14T11:37:06Z</time>
      </trkpt>
      <trkpt lat="47.76941" lon="-3.58773">
        <ele>24</ele>
        <time>2018-07-14T11:37:07Z</time>
      </trkpt>
      <trkpt lat="47.76944" lon="-3.58774">
        <ele>24</ele>
        <time>2018-07-14T11:37:08Z</time>
      </trkpt>
      <trkpt lat="47.76947" lon="-3.58774">
        <ele>24</ele>
        <time>2018-07-14T11:37:09Z</time>
      </trkpt>
      <trkpt lat="47.7695" lon="-3.58775">
        <ele>24</ele>
        <time>2018-07-14T11:37:10Z</time>
      </trkpt>
      <trkpt lat="47.76953" lon="-3.58776">
        <ele>24</ele>
        <time>2018-07-14T11:37:11Z</time>
      </trkpt>
      <trkpt lat="47.76956" lon="-3.58777">
        <ele>24</ele>
        <time>2018-07-14T11:37:12Z</time>
      </trkpt>
      <trkpt lat="47.76958" lon="-3.58778">
        <ele>24</ele>
        <time>2018-07-14T11:37:13Z</time>
      </trkpt>
      <trkpt lat="47.76961" lon="-3.58779">
        <ele>24</ele>
        <time>2018-07-14T11:37:14Z</time>
      </trkpt>
      <trkpt lat="47.76964" lon="-3.58781">
        <ele>24</ele>
        <time>2018-07-14T11:37:15Z</time>
      </trkpt>
      <trkpt lat="47.76967" lon="-3.58782">
        <ele>23</ele>
        <time>2018-07-14T11:37:16Z</time>
      </trkpt>
      <trkpt lat="47.76969" lon="-3.58783">
        <ele>23</ele>
        <time>2018-07-14T11:37:17Z</time>
      </trkpt>
      <trkpt lat="47.76972" lon="-3.58784">
        <ele>23</ele>
        <time>2018-07-14T11:37:18Z</time>
      </trkpt>
      <trkpt lat="47.76975" lon="-3.58786">
        <ele>23</ele>
        <time>2018-07-14T11:37:19Z</time>
      </trkpt>
      <trkpt lat="47.76978" lon="-3.58787">
        <ele>23</ele>
        <time>2018-07-14T11:37:20Z</time>
      </trkpt>
      <trkpt lat="47.76981" lon="-3.58788">
        <ele>24</ele>
        <time>2018-07-14T11:37:21Z</time>
      </trkpt>
      <trkpt lat="47.76984" lon="-3.5879">
        <ele>24</ele>
        <time>2018-07-14T11:37:22Z</time>
      </trkpt>
      <trkpt lat="47.76987" lon="-3.58792">
        <ele>24</ele>
        <time>2018-07-14T11:37:23Z</time>
      </trkpt>
      <trkpt lat="47.7699" lon="-3.58793">
        <ele>24</ele>
        <time>2018-07-14T11:37:24Z</time>
      </trkpt>
      <trkpt lat="47.76993" lon="-3.58795">
        <ele>24</ele>
        <time>2018-07-14T11:37:25Z</time>
      </trkpt>
      <trkpt lat="47.76996" lon="-3.58797">
        <ele>25</ele>
        <time>2018-07-14T11:37:26Z</time>
      </trkpt>
      <trkpt lat="47.76999" lon="-3.58799">
        <ele>25</ele>
        <time>2018-07-14T11:37:27Z</time>
      </trkpt>
      <trkpt lat="47.77001" lon="-3.58801">
        <ele>25</ele>
        <time>2018-07-14T11:37:28Z</time>
      </trkpt>
      <trkpt lat="47.77004" lon="-3.58803">
        <ele>25</ele>
        <time>2018-07-14T11:37:29Z</time>
      </trkpt>
      <trkpt lat="47.77007" lon="-3.58805">
        <ele>25</ele>
        <time>2018-07-14T11:37:30Z</time>
      </trkpt>
      <trkpt lat="47.77009" lon="-3.58807">
        <ele>25</ele>
        <time>2018-07-14T11:37:31Z</time>
      </trkpt>
      <trkpt lat="47.77012" lon="-3.5881">
        <ele>25</ele>
        <time>2018-07-14T11:37:32Z</time>
      </trkpt>
      <trkpt lat="47.77014" lon="-3.58812">
        <ele>26</ele>
        <time>2018-07-14T11:37:33Z</time>
      </trkpt>
      <trkpt lat="47.77017" lon="-3.58813">
        <ele>26</ele>
        <time>2018-07-14T11:37:34Z</time>
      </trkpt>
      <trkpt lat="47.7702" lon="-3.58813">
        <ele>26</ele>
        <time>2018-07-14T11:37:35Z</time>
      </trkpt>
      <trkpt lat="47.77022" lon="-3.58812">
        <ele>26</ele>
        <time>2018-07-14T11:37:36Z</time>
      </trkpt>
      <trkpt lat="47.77024" lon="-3.5881">
        <ele>25</ele>
        <time>2018-07-14T11:37:37Z</time>
      </trkpt>
      <trkpt lat="47.77027" lon="-3.58807">
        <ele>25</ele>
        <time>2018-07-14T11:37:38Z</time>
      </trkpt>
      <trkpt lat="47.77029" lon="-3.58805">
        <ele>25</ele>
        <time>2018-07-14T11:37:39Z</time>
      </trkpt>
      <trkpt lat="47.77031" lon="-3.58803">
        <ele>25</ele>
        <time>2018-07-14T11:37:40Z</time>
      </trkpt>
      <trkpt lat="47.77034" lon="-3.58801">
        <ele>26</ele>
        <time>2018-07-14T11:37:41Z</time>
      </trkpt>
      <trkpt lat="47.77036" lon="-3.58799">
        <ele>26</ele>
        <time>2018-07-14T11:37:42Z</time>
      </trkpt>
      <trkpt lat="47.77038" lon="-3.58795">
        <ele>26</ele>
        <time>2018-07-14T11:37:43Z</time>
      </trkpt>
      <trkpt lat="47.7704" lon="-3.58791">
        <ele>26</ele>
        <time>2018-07-14T11:37:44Z</time>
      </trkpt>
      <trkpt lat="47.77043" lon="-3.58788">
        <ele>26</ele>
        <time>2018-07-14T11:37:45Z</time>
      </trkpt>
      <trkpt lat="47.77045" lon="-3.58784">
        <ele>26</ele>
        <time>2018-07-14T11:37:46Z</time>
      </trkpt>
      <trkpt lat="47.77047" lon="-3.5878">
        <ele>26</ele>
        <time>2018-07-14T11:37:47Z</time>
      </trkpt>
      <trkpt lat="47.77049" lon="-3.58775">
        <ele>26</ele>
        <time>2018-07-14T11:37:48Z</time>
      </trkpt>
      <trkpt lat="47.77051" lon="-3.58771">
        <ele>26</ele>
        <time>2018-07-14T11:37:49Z</time>
      </trkpt>
      <trkpt lat="47.77053" lon="-3.58767">
        <ele>26</ele>
        <time>2018-07-14T11:37:50Z</time>
      </trkpt>
      <trkpt lat="47.77055" lon="-3.58762">
        <ele>26</ele>
        <time>2018-07-14T11:37:51Z</time>
      </trkpt>
      <trkpt lat="47.77058" lon="-3.58758">
        <ele>26</ele>
        <time>2018-07-14T11:37:52Z</time>
      </trkpt>
      <trkpt lat="47.7706" lon="-3.58754">
        <ele>26</ele>
        <time>2018-07-14T11:37:53Z</time>
      </trkpt>
      <trkpt lat="47.77063" lon="-3.58749">
        <ele>26</ele>
        <time>2018-07-14T11:37:54Z</time>
      </trkpt>
      <trkpt lat="47.77066" lon="-3.58746">
        <ele>26</ele>
        <time>2018-07-14T11:37:55Z</time>
      </trkpt>
      <trkpt lat="47.77069" lon="-3.58742">
        <ele>26</ele>
        <time>2018-07-14T11:37:56Z</time>
      </trkpt>
      <trkpt lat="47.77071" lon="-3.58737">
        <ele>26</ele>
        <time>2018-07-14T11:37:57Z</time>
      </trkpt>
      <trkpt lat="47.77073" lon="-3.58731">
        <ele>26</ele>
        <time>2018-07-14T11:37:58Z</time>
      </trkpt>
      <trkpt lat="47.77076" lon="-3.58726">
        <ele>26</ele>
        <time>2018-07-14T11:37:59Z</time>
      </trkpt>
      <trkpt lat="47.77079" lon="-3.58721">
        <ele>26</ele>
        <time>2018-07-14T11:38:00Z</time>
      </trkpt>
      <trkpt lat="47.77081" lon="-3.58719">
        <ele>26</ele>
        <time>2018-07-14T11:38:01Z</time>
      </trkpt>
      <trkpt lat="47.77083" lon="-3.58719">
        <ele>26</ele>
        <time>2018-07-14T11:38:02Z</time>
      </trkpt>
      <trkpt lat="47.77086" lon="-3.58721">
        <ele>25</ele>
        <time>2018-07-14T11:38:03Z</time>
      </trkpt>
      <trkpt lat="47.77087" lon="-3.58724">
        <ele>25</ele>
        <time>2018-07-14T11:38:04Z</time>
      </trkpt>
      <trkpt lat="47.77089" lon="-3.58726">
        <ele>25</ele>
        <time>2018-07-14T11:38:05Z</time>
      </trkpt>
      <trkpt lat="47.77091" lon="-3.58728">
        <ele>25</ele>
        <time>2018-07-14T11:38:06Z</time>
      </trkpt>
      <trkpt lat="47.77094" lon="-3.58731">
        <ele>25</ele>
        <time>2018-07-14T11:38:07Z</time>
      </trkpt>
      <trkpt lat="47.77096" lon="-3.58733">
        <ele>25</ele>
        <time>2018-07-14T11:38:08Z</time>
      </trkpt>
      <trkpt lat="47.77099" lon="-3.58734">
        <ele>25</ele>
        <time>2018-07-14T11:38:09Z</time>
      </trkpt>
      <trkpt lat="47.77102" lon="-3.58735">
        <ele>25</ele>
        <time>2018-07-14T11:38:10Z</time>
      </trkpt>
      <trkpt lat="47.77105" lon="-3.58735">
        <ele>25</ele>
        <time>2018-07-14T11:38:11Z</time>
      </trkpt>
      <trkpt lat="47.77108" lon="-3.58736">
        <ele>24</ele>
        <time>2018-07-14T11:38:12Z</time>
      </trkpt>
      <trkpt lat="47.77111" lon="-3.58737">
        <ele>24</ele>
        <time>2018-07-14T11:38:13Z</time>
      </trkpt>
      <trkpt lat="47.77115" lon="-3.58738">
        <ele>24</ele>
        <time>2018-07-14T11:38:14Z</time>
      </trkpt>
      <trkpt lat="47.77119" lon="-3.58738">
        <ele>24</ele>
        <time>2018-07-14T11:38:15Z</time>
      </trkpt>
      <trkpt lat="47.77123" lon="-3.58739">
        <ele>24</ele>
        <time>2018-07-14T11:38:16Z</time>
      </trkpt>
      <trkpt lat="47.77127" lon="-3.58739">
        <ele>24</ele>
        <time>2018-07-14T11:38:17Z</time>
      </trkpt>
      <trkpt lat="47.77131" lon="-3.5874">
        <ele>24</ele>
        <time>2018-07-14T11:38:18Z</time>
      </trkpt>
      <trkpt lat="47.77135" lon="-3.5874">
        <ele>24</ele>
        <time>2018-07-14T11:38:19Z</time>
      </trkpt>
      <trkpt lat="47.7714" lon="-3.58739">
        <ele>24</ele>
        <time>2018-07-14T11:38:20Z</time>
      </trkpt>
      <trkpt lat="47.77145" lon="-3.58739">
        <ele>24</ele>
        <time>2018-07-14T11:38:21Z</time>
      </trkpt>
      <trkpt lat="47.7715" lon="-3.58738">
        <ele>24</ele>
        <time>2018-07-14T11:38:22Z</time>
      </trkpt>
      <trkpt lat="47.77154" lon="-3.58739">
        <ele>24</ele>
        <time>2018-07-14T11:38:23Z</time>
      </trkpt>
      <trkpt lat="47.77157" lon="-3.58739">
        <ele>24</ele>
        <time>2018-07-14T11:38:24Z</time>
      </trkpt>
      <trkpt lat="47.7716" lon="-3.58742">
        <ele>24</ele>
        <time>2018-07-14T11:38:25Z</time>
      </trkpt>
      <trkpt lat="47.77162" lon="-3.58745">
        <ele>24</ele>
        <time>2018-07-14T11:38:26Z</time>
      </trkpt>
      <trkpt lat="47.77165" lon="-3.58748">
        <ele>24</ele>
        <time>2018-07-14T11:38:27Z</time>
      </trkpt>
      <trkpt lat="47.77168" lon="-3.58752">
        <ele>25</ele>
        <time>2018-07-14T11:38:28Z</time>
      </trkpt>
      <trkpt lat="47.77172" lon="-3.58755">
        <ele>25</ele>
        <time>2018-07-14T11:38:29Z</time>
      </trkpt>
      <trkpt lat="47.77176" lon="-3.58758">
        <ele>25</ele>
        <time>2018-07-14T11:38:30Z</time>
      </trkpt>
      <trkpt lat="47.77181" lon="-3.58762">
        <ele>25</ele>
        <time>2018-07-14T11:38:31Z</time>
      </trkpt>
      <trkpt lat="47.77185" lon="-3.58764">
        <ele>25</ele>
        <time>2018-07-14T11:38:32Z</time>
      </trkpt>
      <trkpt lat="47.7719" lon="-3.58767">
        <ele>25</ele>
        <time>2018-07-14T11:38:33Z</time>
      </trkpt>
      <trkpt lat="47.77194" lon="-3.5877">
        <ele>26</ele>
        <time>2018-07-14T11:38:34Z</time>
      </trkpt>
      <trkpt lat="47.77198" lon="-3.58772">
        <ele>26</ele>
        <time>2018-07-14T11:38:35Z</time>
      </trkpt>
      <trkpt lat="47.77203" lon="-3.58773">
        <ele>26</ele>
        <time>2018-07-14T11:38:36Z</time>
      </trkpt>
      <trkpt lat="47.77208" lon="-3.58775">
        <ele>26</ele>
        <time>2018-07-14T11:38:37Z</time>
      </trkpt>
      <trkpt lat="47.77212" lon="-3.58777">
        <ele>27</ele>
        <time>2018-07-14T11:38:38Z</time>
      </trkpt>
      <trkpt lat="47.77216" lon="-3.5878">
        <ele>27</ele>
        <time>2018-07-14T11:38:39Z</time>
      </trkpt>
      <trkpt lat="47.77221" lon="-3.58782">
        <ele>27</ele>
        <time>2018-07-14T11:38:40Z</time>
      </trkpt>
      <trkpt lat="47.77225" lon="-3.58786">
        <ele>28</ele>
        <time>2018-07-14T11:38:41Z</time>
      </trkpt>
      <trkpt lat="47.77229" lon="-3.58789">
        <ele>28</ele>
        <time>2018-07-14T11:38:42Z</time>
      </trkpt>
      <trkpt lat="47.77234" lon="-3.58792">
        <ele>28</ele>
        <time>2018-07-14T11:38:43Z</time>
      </trkpt>
      <trkpt lat="47.77238" lon="-3.58795">
        <ele>29</ele>
        <time>2018-07-14T11:38:44Z</time>
      </trkpt>
      <trkpt lat="47.77242" lon="-3.58798">
        <ele>29</ele>
        <time>2018-07-14T11:38:45Z</time>
      </trkpt>
      <trkpt lat="47.77245" lon="-3.58801">
        <ele>29</ele>
        <time>2018-07-14T11:38:46Z</time>
      </trkpt>
      <trkpt lat="47.77249" lon="-3.58804">
        <ele>30</ele>
        <time>2018-07-14T11:38:47Z</time>
      </trkpt>
      <trkpt lat="47.77253" lon="-3.58805">
        <ele>30</ele>
        <time>2018-07-14T11:38:48Z</time>
      </trkpt>
      <trkpt lat="47.77257" lon="-3.58807">
        <ele>30</ele>
        <time>2018-07-14T11:38:49Z</time>
      </trkpt>
      <trkpt lat="47.77261" lon="-3.5881">
        <ele>31</ele>
        <time>2018-07-14T11:38:50Z</time>
      </trkpt>
      <trkpt lat="47.77265" lon="-3.58813">
        <ele>31</ele>
        <time>2018-07-14T11:38:51Z</time>
      </trkpt>
      <trkpt lat="47.77268" lon="-3.58816">
        <ele>31</ele>
        <time>2018-07-14T11:38:52Z</time>
      </trkpt>
      <trkpt lat="47.77272" lon="-3.5882">
        <ele>31</ele>
        <time>2018-07-14T11:38:53Z</time>
      </trkpt>
      <trkpt lat="47.77275" lon="-3.58825">
        <ele>32</ele>
        <time>2018-07-14T11:38:54Z</time>
      </trkpt>
      <trkpt lat="47.77278" lon="-3.58829">
        <ele>32</ele>
        <time>2018-07-14T11:38:55Z</time>
      </trkpt>
      <trkpt lat="47.7728" lon="-3.58833">
        <ele>32</ele>
        <time>2018-07-14T11:38:56Z</time>
      </trkpt>
      <trkpt lat="47.77282" lon="-3.58837">
        <ele>32</ele>
        <time>2018-07-14T11:38:57Z</time>
      </trkpt>
      <trkpt lat="47.77284" lon="-3.58841">
        <ele>32</ele>
        <time>2018-07-14T11:38:58Z</time>
      </trkpt>
      <trkpt lat="47.77286" lon="-3.58846">
        <ele>33</ele>
        <time>2018-07-14T11:38:59Z</time>
      </trkpt>
      <trkpt lat="47.77288" lon="-3.58851">
        <ele>33</ele>
        <time>2018-07-14T11:39:00Z</time>
      </trkpt>
      <trkpt lat="47.7729" lon="-3.58857">
        <ele>33</ele>
        <time>2018-07-14T11:39:01Z</time>
      </trkpt>
      <trkpt lat="47.7729" lon="-3.58863">
        <ele>33</ele>
        <time>2018-07-14T11:39:02Z</time>
      </trkpt>
      <trkpt lat="47.7729" lon="-3.58869">
        <ele>33</ele>
        <time>2018-07-14T11:39:03Z</time>
      </trkpt>
      <trkpt lat="47.77291" lon="-3.58875">
        <ele>33</ele>
        <time>2018-07-14T11:39:04Z</time>
      </trkpt>
      <trkpt lat="47.77292" lon="-3.58881">
        <ele>34</ele>
        <time>2018-07-14T11:39:05Z</time>
      </trkpt>
      <trkpt lat="47.77294" lon="-3.58885">
        <ele>34</ele>
        <time>2018-07-14T11:39:06Z</time>
      </trkpt>
      <trkpt lat="47.77299" lon="-3.58886">
        <ele>34</ele>
        <time>2018-07-14T11:39:07Z</time>
      </trkpt>
      <trkpt lat="47.77303" lon="-3.58887">
        <ele>34</ele>
        <time>2018-07-14T11:39:08Z</time>
      </trkpt>
      <trkpt lat="47.77307" lon="-3.58887">
        <ele>35</ele>
        <time>2018-07-14T11:39:09Z</time>
      </trkpt>
      <trkpt lat="47.77312" lon="-3.58888">
        <ele>35</ele>
        <time>2018-07-14T11:39:10Z</time>
      </trkpt>
      <trkpt lat="47.77316" lon="-3.58889">
        <ele>35</ele>
        <time>2018-07-14T11:39:11Z</time>
      </trkpt>
      <trkpt lat="47.77321" lon="-3.5889">
        <ele>36</ele>
        <time>2018-07-14T11:39:12Z</time>
      </trkpt>
      <trkpt lat="47.77326" lon="-3.58891">
        <ele>36</ele>
        <time>2018-07-14T11:39:13Z</time>
      </trkpt>
      <trkpt lat="47.7733" lon="-3.58892">
        <ele>37</ele>
        <time>2018-07-14T11:39:14Z</time>
      </trkpt>
      <trkpt lat="47.77335" lon="-3.58893">
        <ele>37</ele>
        <time>2018-07-14T11:39:15Z</time>
      </trkpt>
      <trkpt lat="47.7734" lon="-3.58894">
        <ele>37</ele>
        <time>2018-07-14T11:39:16Z</time>
      </trkpt>
      <trkpt lat="47.77344" lon="-3.58895">
        <ele>38</ele>
        <time>2018-07-14T11:39:17Z</time>
      </trkpt>
      <trkpt lat="47.77349" lon="-3.58896">
        <ele>38</ele>
        <time>2018-07-14T11:39:18Z</time>
      </trkpt>
      <trkpt lat="47.77354" lon="-3.58897">
        <ele>38</ele>
        <time>2018-07-14T11:39:19Z</time>
      </trkpt>
      <trkpt lat="47.77359" lon="-3.58898">
        <ele>39</ele>
        <time>2018-07-14T11:39:20Z</time>
      </trkpt>
      <trkpt lat="47.77363" lon="-3.58898">
        <ele>39</ele>
        <time>2018-07-14T11:39:21Z</time>
      </trkpt>
      <trkpt lat="47.77368" lon="-3.58899">
        <ele>39</ele>
        <time>2018-07-14T11:39:22Z</time>
      </trkpt>
      <trkpt lat="47.77373" lon="-3.58899">
        <ele>40</ele>
        <time>2018-07-14T11:39:23Z</time>
      </trkpt>
      <trkpt lat="47.77378" lon="-3.58899">
        <ele>40</ele>
        <time>2018-07-14T11:39:24Z</time>
      </trkpt>
      <trkpt lat="47.77382" lon="-3.58899">
        <ele>40</ele>
        <time>2018-07-14T11:39:25Z</time>
      </trkpt>
      <trkpt lat="47.77387" lon="-3.58899">
        <ele>41</ele>
        <time>2018-07-14T11:39:26Z</time>
      </trkpt>
      <trkpt lat="47.77392" lon="-3.58899">
        <ele>41</ele>
        <time>2018-07-14T11:39:27Z</time>
      </trkpt>
      <trkpt lat="47.77396" lon="-3.58898">
        <ele>41</ele>
        <time>2018-07-14T11:39:28Z</time>
      </trkpt>
      <trkpt lat="47.77401" lon="-3.58899">
        <ele>41</ele>
        <time>2018-07-14T11:39:29Z</time>
      </trkpt>
      <trkpt lat="47.77405" lon="-3.58898">
        <ele>42</ele>
        <time>2018-07-14T11:39:30Z</time>
      </trkpt>
      <trkpt lat="47.7741" lon="-3.58898">
        <ele>42</ele>
        <time>2018-07-14T11:39:31Z</time>
      </trkpt>
      <trkpt lat="47.77415" lon="-3.58897">
        <ele>42</ele>
        <time>2018-07-14T11:39:32Z</time>
      </trkpt>
      <trkpt lat="47.7742" lon="-3.58897">
        <ele>43</ele>
        <time>2018-07-14T11:39:33Z</time>
      </trkpt>
      <trkpt lat="47.77424" lon="-3.58897">
        <ele>43</ele>
        <time>2018-07-14T11:39:34Z</time>
      </trkpt>
      <trkpt lat="47.77429" lon="-3.58897">
        <ele>43</ele>
        <time>2018-07-14T11:39:35Z</time>
      </trkpt>
      <trkpt lat="47.77434" lon="-3.58897">
        <ele>43</ele>
        <time>2018-07-14T11:39:36Z</time>
      </trkpt>
      <trkpt lat="47.77438" lon="-3.58898">
        <ele>44</ele>
        <time>2018-07-14T11:39:37Z</time>
      </trkpt>
      <trkpt lat="47.77443" lon="-3.58897">
        <ele>44</ele>
        <time>2018-07-14T11:39:38Z</time>
      </trkpt>
      <trkpt lat="47.77447" lon="-3.58894">
        <ele>44</ele>
        <time>2018-07-14T11:39:39Z</time>
      </trkpt>
      <trkpt lat="47.77451" lon="-3.5889">
        <ele>44</ele>
        <time>2018-07-14T11:39:40Z</time>
      </trkpt>
      <trkpt lat="47.77453" lon="-3.58884">
        <ele>44</ele>
        <time>2018-07-14T11:39:41Z</time>
      </trkpt>
      <trkpt lat="47.77453" lon="-3.58878">
        <ele>44</ele>
        <time>2018-07-14T11:39:42Z</time>
      </trkpt>
      <trkpt lat="47.77453" lon="-3.58872">
        <ele>44</ele>
        <time>2018-07-14T11:39:43Z</time>
      </trkpt>
      <trkpt lat="47.77452" lon="-3.58865">
        <ele>44</ele>
        <time>2018-07-14T11:39:44Z</time>
      </trkpt>
      <trkpt lat="47.77452" lon="-3.58858">
        <ele>44</ele>
        <time>2018-07-14T11:39:45Z</time>
      </trkpt>
      <trkpt lat="47.77452" lon="-3.58851">
        <ele>44</ele>
        <time>2018-07-14T11:39:46Z</time>
      </trkpt>
      <trkpt lat="47.77451" lon="-3.58843">
        <ele>44</ele>
        <time>2018-07-14T11:39:47Z</time>
      </trkpt>
      <trkpt lat="47.77451" lon="-3.58836">
        <ele>44</ele>
        <time>2018-07-14T11:39:48Z</time>
      </trkpt>
      <trkpt lat="47.77451" lon="-3.58827">
        <ele>44</ele>
        <time>2018-07-14T11:39:49Z</time>
      </trkpt>
      <trkpt lat="47.7745" lon="-3.58819">
        <ele>44</ele>
        <time>2018-07-14T11:39:50Z</time>
      </trkpt>
      <trkpt lat="47.7745" lon="-3.58811">
        <ele>44</ele>
        <time>2018-07-14T11:39:51Z</time>
      </trkpt>
      <trkpt lat="47.77449" lon="-3.58803">
        <ele>44</ele>
        <time>2018-07-14T11:39:52Z</time>
      </trkpt>
      <trkpt lat="47.77448" lon="-3.58794">
        <ele>44</ele>
        <time>2018-07-14T11:39:53Z</time>
      </trkpt>
      <trkpt lat="47.77447" lon="-3.58785">
        <ele>44</ele>
        <time>2018-07-14T11:39:54Z</time>
      </trkpt>
      <trkpt lat="47.77446" lon="-3.58777">
        <ele>44</ele>
        <time>2018-07-14T11:39:55Z</time>
      </trkpt>
      <trkpt lat="47.77445" lon="-3.58768">
        <ele>44</ele>
        <time>2018-07-14T11:39:56Z</time>
      </trkpt>
      <trkpt lat="47.77444" lon="-3.58759">
        <ele>44</ele>
        <time>2018-07-14T11:39:57Z</time>
      </trkpt>
      <trkpt lat="47.77442" lon="-3.5875">
        <ele>44</ele>
        <time>2018-07-14T11:39:58Z</time>
      </trkpt>
      <trkpt lat="47.77441" lon="-3.58741">
        <ele>43</ele>
        <time>2018-07-14T11:39:59Z</time>
      </trkpt>
      <trkpt lat="47.77441" lon="-3.58732">
        <ele>43</ele>
        <time>2018-07-14T11:40:00Z</time>
      </trkpt>
      <trkpt lat="47.7744" lon="-3.58723">
        <ele>43</ele>
        <time>2018-07-14T11:40:01Z</time>
      </trkpt>
      <trkpt lat="47.7744" lon="-3.58714">
        <ele>43</ele>
        <time>2018-07-14T11:40:02Z</time>
      </trkpt>
      <trkpt lat="47.77441" lon="-3.58705">
        <ele>43</ele>
        <time>2018-07-14T11:40:03Z</time>
      </trkpt>
      <trkpt lat="47.77441" lon="-3.58695">
        <ele>42</ele>
        <time>2018-07-14T11:40:04Z</time>
      </trkpt>
      <trkpt lat="47.77442" lon="-3.58685">
        <ele>42</ele>
        <time>2018-07-14T11:40:05Z</time>
      </trkpt>
      <trkpt lat="47.77443" lon="-3.58676">
        <ele>42</ele>
        <time>2018-07-14T11:40:06Z</time>
      </trkpt>
      <trkpt lat="47.77444" lon="-3.58666">
        <ele>42</ele>
        <time>2018-07-14T11:40:07Z</time>
      </trkpt>
      <trkpt lat="47.77445" lon="-3.58656">
        <ele>42</ele>
        <time>2018-07-14T11:40:08Z</time>
      </trkpt>
      <trkpt lat="47.77446" lon="-3.58648">
        <ele>42</ele>
        <time>2018-07-14T11:40:09Z</time>
      </trkpt>
      <trkpt lat="47.77448" lon="-3.5864">
        <ele>41</ele>
        <time>2018-07-14T11:40:10Z</time>
      </trkpt>
      <trkpt lat="47.7745" lon="-3.58637">
        <ele>41</ele>
        <time>2018-07-14T11:40:11Z</time>
      </trkpt>
      <trkpt lat="47.77452" lon="-3.58636">
        <ele>41</ele>
        <time>2018-07-14T11:40:12Z</time>
      </trkpt>
      <trkpt lat="47.77453" lon="-3.58636">
        <ele>41</ele>
        <time>2018-07-14T11:40:13Z</time>
      </trkpt>
      <trkpt lat="47.77453" lon="-3.58636">
        <ele>41</ele>
        <time>2018-07-14T11:40:14Z</time>
      </trkpt>
      <trkpt lat="47.77453" lon="-3.58635">
        <ele>41</ele>
        <time>2018-07-14T11:40:15Z</time>
      </trkpt>
      <trkpt lat="47.77453" lon="-3.58633">
        <ele>41</ele>
        <time>2018-07-14T11:40:16Z</time>
      </trkpt>
      <trkpt lat="47.77453" lon="-3.5863">
        <ele>41</ele>
        <time>2018-07-14T11:40:17Z</time>
      </trkpt>
      <trkpt lat="47.77452" lon="-3.58627">
        <ele>41</ele>
        <time>2018-07-14T11:40:18Z</time>
      </trkpt>
      <trkpt lat="47.77451" lon="-3.58624">
        <ele>42</ele>
        <time>2018-07-14T11:40:19Z</time>
      </trkpt>
      <trkpt lat="47.7745" lon="-3.5862">
        <ele>42</ele>
        <time>2018-07-14T11:40:20Z</time>
      </trkpt>
      <trkpt lat="47.7745" lon="-3.58615">
        <ele>42</ele>
        <time>2018-07-14T11:40:21Z</time>
      </trkpt>
      <trkpt lat="47.7745" lon="-3.5861">
        <ele>42</ele>
        <time>2018-07-14T11:40:22Z</time>
      </trkpt>
      <trkpt lat="47.77451" lon="-3.58604">
        <ele>42</ele>
        <time>2018-07-14T11:40:23Z</time>
      </trkpt>
      <trkpt lat="47.77452" lon="-3.58599">
        <ele>42</ele>
        <time>2018-07-14T11:40:24Z</time>
      </trkpt>
      <trkpt lat="47.77453" lon="-3.58593">
        <ele>42</ele>
        <time>2018-07-14T11:40:25Z</time>
      </trkpt>
      <trkpt lat="47.77455" lon="-3.58587">
        <ele>43</ele>
        <time>2018-07-14T11:40:26Z</time>
      </trkpt>
      <trkpt lat="47.77458" lon="-3.58584">
        <ele>43</ele>
        <time>2018-07-14T11:40:27Z</time>
      </trkpt>
      <trkpt lat="47.77462" lon="-3.58583">
        <ele>43</ele>
        <time>2018-07-14T11:40:28Z</time>
      </trkpt>
      <trkpt lat="47.77467" lon="-3.58583">
        <ele>43</ele>
        <time>2018-07-14T11:40:29Z</time>
      </trkpt>
      <trkpt lat="47.77471" lon="-3.58584">
        <ele>43</ele>
        <time>2018-07-14T11:40:30Z</time>
      </trkpt>
      <trkpt lat="47.77476" lon="-3.58586">
        <ele>43</ele>
        <time>2018-07-14T11:40:31Z</time>
      </trkpt>
      <trkpt lat="47.7748" lon="-3.58587">
        <ele>44</ele>
        <time>2018-07-14T11:40:32Z</time>
      </trkpt>
      <trkpt lat="47.77484" lon="-3.58587">
        <ele>44</ele>
        <time>2018-07-14T11:40:33Z</time>
      </trkpt>
      <trkpt lat="47.77489" lon="-3.58588">
        <ele>44</ele>
        <time>2018-07-14T11:40:34Z</time>
      </trkpt>
      <trkpt lat="47.77493" lon="-3.58589">
        <ele>44</ele>
        <time>2018-07-14T11:40:35Z</time>
      </trkpt>
      <trkpt lat="47.77498" lon="-3.5859">
        <ele>44</ele>
        <time>2018-07-14T11:40:36Z</time>
      </trkpt>
      <trkpt lat="47.77502" lon="-3.5859">
        <ele>44</ele>
        <time>2018-07-14T11:40:37Z</time>
      </trkpt>
      <trkpt lat="47.77507" lon="-3.5859">
        <ele>44</ele>
        <time>2018-07-14T11:40:38Z</time>
      </trkpt>
      <trkpt lat="47.77512" lon="-3.58591">
        <ele>45</ele>
        <time>2018-07-14T11:40:39Z</time>
      </trkpt>
      <trkpt lat="47.77517" lon="-3.58591">
        <ele>45</ele>
        <time>2018-07-14T11:40:40Z</time>
      </trkpt>
      <trkpt lat="47.77522" lon="-3.58591">
        <ele>45</ele>
        <time>2018-07-14T11:40:41Z</time>
      </trkpt>
      <trkpt lat="47.77526" lon="-3.58591">
        <ele>45</ele>
        <time>2018-07-14T11:40:42Z</time>
      </trkpt>
      <trkpt lat="47.77531" lon="-3.5859">
        <ele>45</ele>
        <time>2018-07-14T11:40:43Z</time>
      </trkpt>
      <trkpt lat="47.77536" lon="-3.5859">
        <ele>46</ele>
        <time>2018-07-14T11:40:44Z</time>
      </trkpt>
      <trkpt lat="47.77541" lon="-3.5859">
        <ele>46</ele>
        <time>2018-07-14T11:40:45Z</time>
      </trkpt>
      <trkpt lat="47.77546" lon="-3.5859">
        <ele>46</ele>
        <time>2018-07-14T11:40:46Z</time>
      </trkpt>
      <trkpt lat="47.77551" lon="-3.5859">
        <ele>46</ele>
        <time>2018-07-14T11:40:47Z</time>
      </trkpt>
      <trkpt lat="47.77556" lon="-3.5859">
        <ele>46</ele>
        <time>2018-07-14T11:40:48Z</time>
      </trkpt>
      <trkpt lat="47.77561" lon="-3.5859">
        <ele>46</ele>
        <time>2018-07-14T11:40:49Z</time>
      </trkpt>
      <trkpt lat="47.77565" lon="-3.5859">
        <ele>46</ele>
        <time>2018-07-14T11:40:50Z</time>
      </trkpt>
      <trkpt lat="47.7757" lon="-3.58589">
        <ele>46</ele>
        <time>2018-07-14T11:40:51Z</time>
      </trkpt>
      <trkpt lat="47.77575" lon="-3.58588">
        <ele>46</ele>
        <time>2018-07-14T11:40:52Z</time>
      </trkpt>
      <trkpt lat="47.7758" lon="-3.58588">
        <ele>47</ele>
        <time>2018-07-14T11:40:53Z</time>
      </trkpt>
      <trkpt lat="47.77586" lon="-3.58587">
        <ele>47</ele>
        <time>2018-07-14T11:40:54Z</time>
      </trkpt>
      <trkpt lat="47.77591" lon="-3.58586">
        <ele>47</ele>
        <time>2018-07-14T11:40:55Z</time>
      </trkpt>
      <trkpt lat="47.77597" lon="-3.58586">
        <ele>47</ele>
        <time>2018-07-14T11:40:56Z</time>
      </trkpt>
      <trkpt lat="47.77602" lon="-3.58585">
        <ele>47</ele>
        <time>2018-07-14T11:40:57Z</time>
      </trkpt>
      <trkpt lat="47.77608" lon="-3.58584">
        <ele>47</ele>
        <time>2018-07-14T11:40:58Z</time>
      </trkpt>
      <trkpt lat="47.77613" lon="-3.58583">
        <ele>47</ele>
        <time>2018-07-14T11:40:59Z</time>
      </trkpt>
      <trkpt lat="47.77618" lon="-3.58582">
        <ele>47</ele>
        <time>2018-07-14T11:41:00Z</time>
      </trkpt>
      <trkpt lat="47.77624" lon="-3.58581">
        <ele>47</ele>
        <time>2018-07-14T11:41:01Z</time>
      </trkpt>
      <trkpt lat="47.77629" lon="-3.5858">
        <ele>47</ele>
        <time>2018-07-14T11:41:02Z</time>
      </trkpt>
      <trkpt lat="47.77635" lon="-3.5858">
        <ele>46</ele>
        <time>2018-07-14T11:41:03Z</time>
      </trkpt>
      <trkpt lat="47.77641" lon="-3.58579">
        <ele>46</ele>
        <time>2018-07-14T11:41:04Z</time>
      </trkpt>
      <trkpt lat="47.77647" lon="-3.58578">
        <ele>46</ele>
        <time>2018-07-14T11:41:05Z</time>
      </trkpt>
      <trkpt lat="47.77652" lon="-3.58578">
        <ele>46</ele>
        <time>2018-07-14T11:41:06Z</time>
      </trkpt>
      <trkpt lat="47.77657" lon="-3.58577">
        <ele>46</ele>
        <time>2018-07-14T11:41:07Z</time>
      </trkpt>
      <trkpt lat="47.77663" lon="-3.58577">
        <ele>46</ele>
        <time>2018-07-14T11:41:08Z</time>
      </trkpt>
      <trkpt lat="47.77668" lon="-3.58577">
        <ele>46</ele>
        <time>2018-07-14T11:41:09Z</time>
      </trkpt>
      <trkpt lat="47.77674" lon="-3.58577">
        <ele>46</ele>
        <time>2018-07-14T11:41:10Z</time>
      </trkpt>
      <trkpt lat="47.77679" lon="-3.58576">
        <ele>46</ele>
        <time>2018-07-14T11:41:11Z</time>
      </trkpt>
      <trkpt lat="47.77684" lon="-3.58576">
        <ele>45</ele>
        <time>2018-07-14T11:41:12Z</time>
      </trkpt>
      <trkpt lat="47.7769" lon="-3.58575">
        <ele>45</ele>
        <time>2018-07-14T11:41:13Z</time>
      </trkpt>
      <trkpt lat="47.77695" lon="-3.58574">
        <ele>45</ele>
        <time>2018-07-14T11:41:14Z</time>
      </trkpt>
      <trkpt lat="47.777" lon="-3.58573">
        <ele>45</ele>
        <time>2018-07-14T11:41:15Z</time>
      </trkpt>
      <trkpt lat="47.77706" lon="-3.58572">
        <ele>45</ele>
        <time>2018-07-14T11:41:16Z</time>
      </trkpt>
      <trkpt lat="47.77712" lon="-3.58572">
        <ele>45</ele>
        <time>2018-07-14T11:41:17Z</time>
      </trkpt>
      <trkpt lat="47.77717" lon="-3.58574">
        <ele>45</ele>
        <time>2018-07-14T11:41:18Z</time>
      </trkpt>
      <trkpt lat="47.77723" lon="-3.58575">
        <ele>45</ele>
        <time>2018-07-14T11:41:19Z</time>
      </trkpt>
      <trkpt lat="47.77729" lon="-3.58576">
        <ele>45</ele>
        <time>2018-07-14T11:41:20Z</time>
      </trkpt>
      <trkpt lat="47.77736" lon="-3.58577">
        <ele>45</ele>
        <time>2018-07-14T11:41:21Z</time>
      </trkpt>
      <trkpt lat="47.77742" lon="-3.58578">
        <ele>45</ele>
        <time>2018-07-14T11:41:22Z</time>
      </trkpt>
      <trkpt lat="47.77748" lon="-3.5858">
        <ele>45</ele>
        <time>2018-07-14T11:41:23Z</time>
      </trkpt>
      <trkpt lat="47.77754" lon="-3.58581">
        <ele>45</ele>
        <time>2018-07-14T11:41:24Z</time>
      </trkpt>
      <trkpt lat="47.7776" lon="-3.58584">
        <ele>45</ele>
        <time>2018-07-14T11:41:25Z</time>
      </trkpt>
      <trkpt lat="47.77766" lon="-3.58585">
        <ele>45</ele>
        <time>2018-07-14T11:41:26Z</time>
      </trkpt>
      <trkpt lat="47.77772" lon="-3.58587">
        <ele>44</ele>
        <time>2018-07-14T11:41:27Z</time>
      </trkpt>
      <trkpt lat="47.77778" lon="-3.58589">
        <ele>44</ele>
        <time>2018-07-14T11:41:28Z</time>
      </trkpt>
      <trkpt lat="47.77783" lon="-3.58591">
        <ele>44</ele>
        <time>2018-07-14T11:41:29Z</time>
      </trkpt>
      <trkpt lat="47.77789" lon="-3.58592">
        <ele>44</ele>
        <time>2018-07-14T11:41:30Z</time>
      </trkpt>
      <trkpt lat="47.77793" lon="-3.58594">
        <ele>44</ele>
        <time>2018-07-14T11:41:31Z</time>
      </trkpt>
      <trkpt lat="47.77797" lon="-3.58597">
        <ele>44</ele>
        <time>2018-07-14T11:41:32Z</time>
      </trkpt>
      <trkpt lat="47.77801" lon="-3.58602">
        <ele>44</ele>
        <time>2018-07-14T11:41:33Z</time>
      </trkpt>
      <trkpt lat="47.77805" lon="-3.58605">
        <ele>43</ele>
        <time>2018-07-14T11:41:34Z</time>
      </trkpt>
      <trkpt lat="47.77809" lon="-3.58607">
        <ele>43</ele>
        <time>2018-07-14T11:41:35Z</time>
      </trkpt>
      <trkpt lat="47.77814" lon="-3.58609">
        <ele>43</ele>
        <time>2018-07-14T11:41:36Z</time>
      </trkpt>
      <trkpt lat="47.77819" lon="-3.5861">
        <ele>43</ele>
        <time>2018-07-14T11:41:37Z</time>
      </trkpt>
      <trkpt lat="47.77825" lon="-3.5861">
        <ele>43</ele>
        <time>2018-07-14T11:41:38Z</time>
      </trkpt>
      <trkpt lat="47.7783" lon="-3.5861">
        <ele>42</ele>
        <time>2018-07-14T11:41:39Z</time>
      </trkpt>
      <trkpt lat="47.77835" lon="-3.58609">
        <ele>42</ele>
        <time>2018-07-14T11:41:40Z</time>
      </trkpt>
      <trkpt lat="47.77841" lon="-3.58607">
        <ele>42</ele>
        <time>2018-07-14T11:41:41Z</time>
      </trkpt>
      <trkpt lat="47.77846" lon="-3.58605">
        <ele>43</ele>
        <time>2018-07-14T11:41:42Z</time>
      </trkpt>
      <trkpt lat="47.77851" lon="-3.58603">
        <ele>43</ele>
        <time>2018-07-14T11:41:43Z</time>
      </trkpt>
      <trkpt lat="47.77855" lon="-3.58602">
        <ele>43</ele>
        <time>2018-07-14T11:41:44Z</time>
      </trkpt>
      <trkpt lat="47.7786" lon="-3.586">
        <ele>42</ele>
        <time>2018-07-14T11:41:45Z</time>
      </trkpt>
      <trkpt lat="47.77864" lon="-3.58598">
        <ele>42</ele>
        <time>2018-07-14T11:41:46Z</time>
      </trkpt>
      <trkpt lat="47.77867" lon="-3.58595">
        <ele>42</ele>
        <time>2018-07-14T11:41:47Z</time>
      </trkpt>
      <trkpt lat="47.7787" lon="-3.5859">
        <ele>42</ele>
        <time>2018-07-14T11:41:48Z</time>
      </trkpt>
      <trkpt lat="47.77871" lon="-3.58584">
        <ele>42</ele>
        <time>2018-07-14T11:41:49Z</time>
      </trkpt>
      <trkpt lat="47.77871" lon="-3.58577">
        <ele>42</ele>
        <time>2018-07-14T11:41:50Z</time>
      </trkpt>
      <trkpt lat="47.7787" lon="-3.58571">
        <ele>42</ele>
        <time>2018-07-14T11:41:51Z</time>
      </trkpt>
      <trkpt lat="47.7787" lon="-3.58564">
        <ele>42</ele>
        <time>2018-07-14T11:41:52Z</time>
      </trkpt>
      <trkpt lat="47.77869" lon="-3.58557">
        <ele>42</ele>
        <time>2018-07-14T11:41:53Z</time>
      </trkpt>
      <trkpt lat="47.77867" lon="-3.58551">
        <ele>42</ele>
        <time>2018-07-14T11:41:54Z</time>
      </trkpt>
      <trkpt lat="47.77865" lon="-3.58544">
        <ele>42</ele>
        <time>2018-07-14T11:41:55Z</time>
      </trkpt>
      <trkpt lat="47.77864" lon="-3.58538">
        <ele>43</ele>
        <time>2018-07-14T11:41:56Z</time>
      </trkpt>
      <trkpt lat="47.77862" lon="-3.5853">
        <ele>43</ele>
        <time>2018-07-14T11:41:57Z</time>
      </trkpt>
      <trkpt lat="47.77861" lon="-3.58523">
        <ele>43</ele>
        <time>2018-07-14T11:41:58Z</time>
      </trkpt>
      <trkpt lat="47.77859" lon="-3.58516">
        <ele>43</ele>
        <time>2018-07-14T11:41:59Z</time>
      </trkpt>
      <trkpt lat="47.77857" lon="-3.58509">
        <ele>43</ele>
        <time>2018-07-14T11:42:00Z</time>
      </trkpt>
      <trkpt lat="47.77856" lon="-3.58503">
        <ele>43</ele>
        <time>2018-07-14T11:42:01Z</time>
      </trkpt>
      <trkpt lat="47.77854" lon="-3.58496">
        <ele>44</ele>
        <time>2018-07-14T11:42:02Z</time>
      </trkpt>
      <trkpt lat="47.77852" lon="-3.58489">
        <ele>44</ele>
        <time>2018-07-14T11:42:03Z</time>
      </trkpt>
      <trkpt lat="47.77851" lon="-3.58483">
        <ele>44</ele>
        <time>2018-07-14T11:42:04Z</time>
      </trkpt>
      <trkpt lat="47.7785" lon="-3.5848">
        <ele>44</ele>
        <time>2018-07-14T11:42:05Z</time>
      </trkpt>
      <trkpt lat="47.77849" lon="-3.58477">
        <ele>44</ele>
        <time>2018-07-14T11:42:06Z</time>
      </trkpt>
      <trkpt lat="47.77849" lon="-3.58474">
        <ele>45</ele>
        <time>2018-07-14T11:42:07Z</time>
      </trkpt>
      <trkpt lat="47.77848" lon="-3.58471">
        <ele>45</ele>
        <time>2018-07-14T11:42:08Z</time>
      </trkpt>
      <trkpt lat="47.77848" lon="-3.58468">
        <ele>45</ele>
        <time>2018-07-14T11:42:09Z</time>
      </trkpt>
      <trkpt lat="47.77848" lon="-3.58463">
        <ele>45</ele>
        <time>2018-07-14T11:42:10Z</time>
      </trkpt>
      <trkpt lat="47.77848" lon="-3.58458">
        <ele>45</ele>
        <time>2018-07-14T11:42:11Z</time>
      </trkpt>
      <trkpt lat="47.77847" lon="-3.58452">
        <ele>46</ele>
        <time>2018-07-14T11:42:12Z</time>
      </trkpt>
      <trkpt lat="47.77847" lon="-3.58446">
        <ele>46</ele>
        <time>2018-07-14T11:42:13Z</time>
      </trkpt>
      <trkpt lat="47.77847" lon="-3.5844">
        <ele>46</ele>
        <time>2018-07-14T11:42:14Z</time>
      </trkpt>
      <trkpt lat="47.77846" lon="-3.58434">
        <ele>46</ele>
        <time>2018-07-14T11:42:15Z</time>
      </trkpt>
      <trkpt lat="47.77846" lon="-3.58427">
        <ele>46</ele>
        <time>2018-07-14T11:42:16Z</time>
      </trkpt>
      <trkpt lat="47.77845" lon="-3.58421">
        <ele>46</ele>
        <time>2018-07-14T11:42:17Z</time>
      </trkpt>
      <trkpt lat="47.77845" lon="-3.58414">
        <ele>46</ele>
        <time>2018-07-14T11:42:18Z</time>
      </trkpt>
      <trkpt lat="47.77844" lon="-3.58407">
        <ele>46</ele>
        <time>2018-07-14T11:42:19Z</time>
      </trkpt>
      <trkpt lat="47.77844" lon="-3.58401">
        <ele>47</ele>
        <time>2018-07-14T11:42:20Z</time>
      </trkpt>
      <trkpt lat="47.77843" lon="-3.58394">
        <ele>47</ele>
        <time>2018-07-14T11:42:21Z</time>
      </trkpt>
      <trkpt lat="47.77843" lon="-3.58387">
        <ele>47</ele>
        <time>2018-07-14T11:42:22Z</time>
      </trkpt>
      <trkpt lat="47.77842" lon="-3.58379">
        <ele>47</ele>
        <time>2018-07-14T11:42:23Z</time>
      </trkpt>
      <trkpt lat="47.77842" lon="-3.58372">
        <ele>48</ele>
        <time>2018-07-14T11:42:24Z</time>
      </trkpt>
      <trkpt lat="47.77841" lon="-3.58365">
        <ele>48</ele>
        <time>2018-07-14T11:42:25Z</time>
      </trkpt>
      <trkpt lat="47.77841" lon="-3.58357">
        <ele>48</ele>
        <time>2018-07-14T11:42:26Z</time>
      </trkpt>
      <trkpt lat="47.77841" lon="-3.5835">
        <ele>48</ele>
        <time>2018-07-14T11:42:27Z</time>
      </trkpt>
      <trkpt lat="47.77841" lon="-3.58343">
        <ele>48</ele>
        <time>2018-07-14T11:42:28Z</time>
      </trkpt>
      <trkpt lat="47.7784" lon="-3.58335">
        <ele>48</ele>
        <time>2018-07-14T11:42:29Z</time>
      </trkpt>
      <trkpt lat="47.7784" lon="-3.58328">
        <ele>48</ele>
        <time>2018-07-14T11:42:30Z</time>
      </trkpt>
      <trkpt lat="47.7784" lon="-3.5832">
        <ele>48</ele>
        <time>2018-07-14T11:42:31Z</time>
      </trkpt>
      <trkpt lat="47.77841" lon="-3.58312">
        <ele>48</ele>
        <time>2018-07-14T11:42:32Z</time>
      </trkpt>
      <trkpt lat="47.77842" lon="-3.58306">
        <ele>48</ele>
        <time>2018-07-14T11:42:33Z</time>
      </trkpt>
      <trkpt lat="47.77845" lon="-3.58301">
        <ele>48</ele>
        <time>2018-07-14T11:42:34Z</time>
      </trkpt>
      <trkpt lat="47.77848" lon="-3.58298">
        <ele>48</ele>
        <time>2018-07-14T11:42:35Z</time>
      </trkpt>
      <trkpt lat="47.77852" lon="-3.58297">
        <ele>48</ele>
        <time>2018-07-14T11:42:36Z</time>
      </trkpt>
      <trkpt lat="47.77857" lon="-3.58295">
        <ele>48</ele>
        <time>2018-07-14T11:42:37Z</time>
      </trkpt>
      <trkpt lat="47.7786" lon="-3.58291">
        <ele>48</ele>
        <time>2018-07-14T11:42:38Z</time>
      </trkpt>
      <trkpt lat="47.77862" lon="-3.58285">
        <ele>48</ele>
        <time>2018-07-14T11:42:39Z</time>
      </trkpt>
      <trkpt lat="47.77863" lon="-3.58278">
        <ele>48</ele>
        <time>2018-07-14T11:42:40Z</time>
      </trkpt>
      <trkpt lat="47.77864" lon="-3.5827">
        <ele>48</ele>
        <time>2018-07-14T11:42:41Z</time>
      </trkpt>
      <trkpt lat="47.77867" lon="-3.58264">
        <ele>48</ele>
        <time>2018-07-14T11:42:42Z</time>
      </trkpt>
      <trkpt lat="47.7787" lon="-3.58258">
        <ele>48</ele>
        <time>2018-07-14T11:42:43Z</time>
      </trkpt>
      <trkpt lat="47.77871" lon="-3.58251">
        <ele>48</ele>
        <time>2018-07-14T11:42:44Z</time>
      </trkpt>
      <trkpt lat="47.77873" lon="-3.58243">
        <ele>47</ele>
        <time>2018-07-14T11:42:45Z</time>
      </trkpt>
      <trkpt lat="47.77874" lon="-3.58235">
        <ele>47</ele>
        <time>2018-07-14T11:42:46Z</time>
      </trkpt>
      <trkpt lat="47.77875" lon="-3.58227">
        <ele>47</ele>
        <time>2018-07-14T11:42:47Z</time>
      </trkpt>
      <trkpt lat="47.77876" lon="-3.58219">
        <ele>47</ele>
        <time>2018-07-14T11:42:48Z</time>
      </trkpt>
      <trkpt lat="47.77877" lon="-3.5821">
        <ele>47</ele>
        <time>2018-07-14T11:42:49Z</time>
      </trkpt>
      <trkpt lat="47.77878" lon="-3.58202">
        <ele>46</ele>
        <time>2018-07-14T11:42:50Z</time>
      </trkpt>
      <trkpt lat="47.7788" lon="-3.58193">
        <ele>46</ele>
        <time>2018-07-14T11:42:51Z</time>
      </trkpt>
      <trkpt lat="47.77881" lon="-3.58184">
        <ele>46</ele>
        <time>2018-07-14T11:42:52Z</time>
      </trkpt>
      <trkpt lat="47.77882" lon="-3.58175">
        <ele>46</ele>
        <time>2018-07-14T11:42:53Z</time>
      </trkpt>
      <trkpt lat="47.77884" lon="-3.58166">
        <ele>45</ele>
        <time>2018-07-14T11:42:54Z</time>
      </trkpt>
      <trkpt lat="47.77885" lon="-3.58157">
        <ele>45</ele>
        <time>2018-07-14T11:42:55Z</time>
      </trkpt>
      <trkpt lat="47.77887" lon="-3.58148">
        <ele>45</ele>
        <time>2018-07-14T11:42:56Z</time>
      </trkpt>
      <trkpt lat="47.77888" lon="-3.5814">
        <ele>45</ele>
        <time>2018-07-14T11:42:57Z</time>
      </trkpt>
      <trkpt lat="47.7789" lon="-3.58132">
        <ele>45</ele>
        <time>2018-07-14T11:42:58Z</time>
      </trkpt>
      <trkpt lat="47.77891" lon="-3.58124">
        <ele>45</ele>
        <time>2018-07-14T11:42:59Z</time>
      </trkpt>
      <trkpt lat="47.77893" lon="-3.58117">
        <ele>45</ele>
        <time>2018-07-14T11:43:00Z</time>
      </trkpt>
      <trkpt lat="47.77895" lon="-3.58109">
        <ele>44</ele>
        <time>2018-07-14T11:43:01Z</time>
      </trkpt>
      <trkpt lat="47.77897" lon="-3.58102">
        <ele>44</ele>
        <time>2018-07-14T11:43:02Z</time>
      </trkpt>
      <trkpt lat="47.77898" lon="-3.58095">
        <ele>44</ele>
        <time>2018-07-14T11:43:03Z</time>
      </trkpt>
      <trkpt lat="47.779" lon="-3.58087">
        <ele>44</ele>
        <time>2018-07-14T11:43:04Z</time>
      </trkpt>
      <trkpt lat="47.77903" lon="-3.5808">
        <ele>44</ele>
        <time>2018-07-14T11:43:05Z</time>
      </trkpt>
      <trkpt lat="47.77905" lon="-3.58073">
        <ele>44</ele>
        <time>2018-07-14T11:43:06Z</time>
      </trkpt>
      <trkpt lat="47.77908" lon="-3.58067">
        <ele>44</ele>
        <time>2018-07-14T11:43:07Z</time>
      </trkpt>
      <trkpt lat="47.7791" lon="-3.58062">
        <ele>44</ele>
        <time>2018-07-14T11:43:08Z</time>
      </trkpt>
      <trkpt lat="47.77913" lon="-3.58057">
        <ele>44</ele>
        <time>2018-07-14T11:43:09Z</time>
      </trkpt>
      <trkpt lat="47.77915" lon="-3.58052">
        <ele>44</ele>
        <time>2018-07-14T11:43:10Z</time>
      </trkpt>
      <trkpt lat="47.77917" lon="-3.58048">
        <ele>44</ele>
        <time>2018-07-14T11:43:11Z</time>
      </trkpt>
      <trkpt lat="47.77918" lon="-3.58044">
        <ele>43</ele>
        <time>2018-07-14T11:43:12Z</time>
      </trkpt>
      <trkpt lat="47.7792" lon="-3.58041">
        <ele>43</ele>
        <time>2018-07-14T11:43:13Z</time>
      </trkpt>
      <trkpt lat="47.7792" lon="-3.58038">
        <ele>43</ele>
        <time>2018-07-14T11:43:14Z</time>
      </trkpt>
      <trkpt lat="47.77918" lon="-3.58034">
        <ele>43</ele>
        <time>2018-07-14T11:43:15Z</time>
      </trkpt>
      <trkpt lat="47.77916" lon="-3.5803">
        <ele>43</ele>
        <time>2018-07-14T11:43:16Z</time>
      </trkpt>
      <trkpt lat="47.77914" lon="-3.58026">
        <ele>44</ele>
        <time>2018-07-14T11:43:17Z</time>
      </trkpt>
      <trkpt lat="47.77911" lon="-3.58022">
        <ele>44</ele>
        <time>2018-07-14T11:43:18Z</time>
      </trkpt>
      <trkpt lat="47.77907" lon="-3.58019">
        <ele>44</ele>
        <time>2018-07-14T11:43:19Z</time>
      </trkpt>
      <trkpt lat="47.77903" lon="-3.58016">
        <ele>44</ele>
        <time>2018-07-14T11:43:20Z</time>
      </trkpt>
      <trkpt lat="47.77898" lon="-3.58012">
        <ele>44</ele>
        <time>2018-07-14T11:43:21Z</time>
      </trkpt>
      <trkpt lat="47.77893" lon="-3.5801">
        <ele>44</ele>
        <time>2018-07-14T11:43:22Z</time>
      </trkpt>
      <trkpt lat="47.77887" lon="-3.58009">
        <ele>44</ele>
        <time>2018-07-14T11:43:23Z</time>
      </trkpt>
      <trkpt lat="47.77881" lon="-3.58007">
        <ele>44</ele>
        <time>2018-07-14T11:43:24Z</time>
      </trkpt>
      <trkpt lat="47.77876" lon="-3.58006">
        <ele>44</ele>
        <time>2018-07-14T11:43:25Z</time>
      </trkpt>
      <trkpt lat="47.77871" lon="-3.58005">
        <ele>44</ele>
        <time>2018-07-14T11:43:26Z</time>
      </trkpt>
      <trkpt lat="47.77867" lon="-3.58003">
        <ele>44</ele>
        <time>2018-07-14T11:43:27Z</time>
      </trkpt>
      <trkpt lat="47.77862" lon="-3.58002">
        <ele>44</ele>
        <time>2018-07-14T11:43:28Z</time>
      </trkpt>
      <trkpt lat="47.77857" lon="-3.58">
        <ele>44</ele>
        <time>2018-07-14T11:43:29Z</time>
      </trkpt>
      <trkpt lat="47.77852" lon="-3.57997">
        <ele>44</ele>
        <time>2018-07-14T11:43:30Z</time>
      </trkpt>
      <trkpt lat="47.77848" lon="-3.57995">
        <ele>44</ele>
        <time>2018-07-14T11:43:31Z</time>
      </trkpt>
      <trkpt lat="47.77842" lon="-3.57992">
        <ele>44</ele>
        <time>2018-07-14T11:43:32Z</time>
      </trkpt>
      <trkpt lat="47.77838" lon="-3.57988">
        <ele>44</ele>
        <time>2018-07-14T11:43:33Z</time>
      </trkpt>
      <trkpt lat="47.77833" lon="-3.57985">
        <ele>43</ele>
        <time>2018-07-14T11:43:34Z</time>
      </trkpt>
      <trkpt lat="47.77829" lon="-3.57981">
        <ele>43</ele>
        <time>2018-07-14T11:43:35Z</time>
      </trkpt>
      <trkpt lat="47.77825" lon="-3.57977">
        <ele>43</ele>
        <time>2018-07-14T11:43:36Z</time>
      </trkpt>
      <trkpt lat="47.77821" lon="-3.57974">
        <ele>44</ele>
        <time>2018-07-14T11:43:37Z</time>
      </trkpt>
      <trkpt lat="47.77817" lon="-3.5797">
        <ele>44</ele>
        <time>2018-07-14T11:43:38Z</time>
      </trkpt>
      <trkpt lat="47.77813" lon="-3.57967">
        <ele>44</ele>
        <time>2018-07-14T11:43:39Z</time>
      </trkpt>
      <trkpt lat="47.7781" lon="-3.57963">
        <ele>44</ele>
        <time>2018-07-14T11:43:40Z</time>
      </trkpt>
      <trkpt lat="47.77806" lon="-3.57959">
        <ele>44</ele>
        <time>2018-07-14T11:43:41Z</time>
      </trkpt>
      <trkpt lat="47.77802" lon="-3.57954">
        <ele>44</ele>
        <time>2018-07-14T11:43:42Z</time>
      </trkpt>
      <trkpt lat="47.77798" lon="-3.5795">
        <ele>44</ele>
        <time>2018-07-14T11:43:43Z</time>
      </trkpt>
      <trkpt lat="47.77795" lon="-3.57944">
        <ele>44</ele>
        <time>2018-07-14T11:43:44Z</time>
      </trkpt>
      <trkpt lat="47.77792" lon="-3.5794">
        <ele>44</ele>
        <time>2018-07-14T11:43:45Z</time>
      </trkpt>
      <trkpt lat="47.77788" lon="-3.57936">
        <ele>44</ele>
        <time>2018-07-14T11:43:46Z</time>
      </trkpt>
      <trkpt lat="47.77783" lon="-3.57933">
        <ele>44</ele>
        <time>2018-07-14T11:43:47Z</time>
      </trkpt>
      <trkpt lat="47.77778" lon="-3.5793">
        <ele>44</ele>
        <time>2018-07-14T11:43:48Z</time>
      </trkpt>
      <trkpt lat="47.77773" lon="-3.57928">
        <ele>44</ele>
        <time>2018-07-14T11:43:49Z</time>
      </trkpt>
      <trkpt lat="47.77767" lon="-3.57928">
        <ele>44</ele>
        <time>2018-07-14T11:43:50Z</time>
      </trkpt>
      <trkpt lat="47.7776" lon="-3.57927">
        <ele>44</ele>
        <time>2018-07-14T11:43:51Z</time>
      </trkpt>
      <trkpt lat="47.77754" lon="-3.57927">
        <ele>44</ele>
        <time>2018-07-14T11:43:52Z</time>
      </trkpt>
      <trkpt lat="47.77747" lon="-3.57926">
        <ele>44</ele>
        <time>2018-07-14T11:43:53Z</time>
      </trkpt>
      <trkpt lat="47.77741" lon="-3.57924">
        <ele>44</ele>
        <time>2018-07-14T11:43:54Z</time>
      </trkpt>
      <trkpt lat="47.77734" lon="-3.57922">
        <ele>44</ele>
        <time>2018-07-14T11:43:55Z</time>
      </trkpt>
      <trkpt lat="47.77727" lon="-3.57918">
        <ele>44</ele>
        <time>2018-07-14T11:43:56Z</time>
      </trkpt>
      <trkpt lat="47.77721" lon="-3.57913">
        <ele>44</ele>
        <time>2018-07-14T11:43:57Z</time>
      </trkpt>
      <trkpt lat="47.77715" lon="-3.57908">
        <ele>44</ele>
        <time>2018-07-14T11:43:58Z</time>
      </trkpt>
      <trkpt lat="47.7771" lon="-3.57902">
        <ele>44</ele>
        <time>2018-07-14T11:43:59Z</time>
      </trkpt>
      <trkpt lat="47.77704" lon="-3.57898">
        <ele>44</ele>
        <time>2018-07-14T11:44:00Z</time>
      </trkpt>
      <trkpt lat="47.777" lon="-3.57894">
        <ele>44</ele>
        <time>2018-07-14T11:44:01Z</time>
      </trkpt>
      <trkpt lat="47.77696" lon="-3.57888">
        <ele>44</ele>
        <time>2018-07-14T11:44:02Z</time>
      </trkpt>
      <trkpt lat="47.77692" lon="-3.57882">
        <ele>44</ele>
        <time>2018-07-14T11:44:03Z</time>
      </trkpt>
      <trkpt lat="47.77688" lon="-3.57876">
        <ele>44</ele>
        <time>2018-07-14T11:44:04Z</time>
      </trkpt>
      <trkpt lat="47.77686" lon="-3.5787">
        <ele>44</ele>
        <time>2018-07-14T11:44:05Z</time>
      </trkpt>
      <trkpt lat="47.77685" lon="-3.57865">
        <ele>44</ele>
        <time>2018-07-14T11:44:06Z</time>
      </trkpt>
      <trkpt lat="47.77686" lon="-3.57861">
        <ele>44</ele>
        <time>2018-07-14T11:44:07Z</time>
      </trkpt>
      <trkpt lat="47.77688" lon="-3.57856">
        <ele>44</ele>
        <time>2018-07-14T11:44:08Z</time>
      </trkpt>
      <trkpt lat="47.77691" lon="-3.57853">
        <ele>43</ele>
        <time>2018-07-14T11:44:09Z</time>
      </trkpt>
      <trkpt lat="47.77695" lon="-3.57851">
        <ele>43</ele>
        <time>2018-07-14T11:44:10Z</time>
      </trkpt>
      <trkpt lat="47.77699" lon="-3.57849">
        <ele>43</ele>
        <time>2018-07-14T11:44:11Z</time>
      </trkpt>
      <trkpt lat="47.77703" lon="-3.57848">
        <ele>43</ele>
        <time>2018-07-14T11:44:12Z</time>
      </trkpt>
      <trkpt lat="47.77706" lon="-3.57847">
        <ele>43</ele>
        <time>2018-07-14T11:44:13Z</time>
      </trkpt>
      <trkpt lat="47.7771" lon="-3.57847">
        <ele>43</ele>
        <time>2018-07-14T11:44:14Z</time>
      </trkpt>
      <trkpt lat="47.77715" lon="-3.57848">
        <ele>42</ele>
        <time>2018-07-14T11:44:15Z</time>
      </trkpt>
      <trkpt lat="47.77719" lon="-3.57849">
        <ele>42</ele>
        <time>2018-07-14T11:44:16Z</time>
      </trkpt>
      <trkpt lat="47.77721" lon="-3.57849">
        <ele>42</ele>
        <time>2018-07-14T11:44:17Z</time>
      </trkpt>
      <trkpt lat="47.77724" lon="-3.57849">
        <ele>42</ele>
        <time>2018-07-14T11:44:18Z</time>
      </trkpt>
      <trkpt lat="47.77726" lon="-3.5785">
        <ele>41</ele>
        <time>2018-07-14T11:44:19Z</time>
      </trkpt>
      <trkpt lat="47.77727" lon="-3.57851">
        <ele>41</ele>
        <time>2018-07-14T11:44:20Z</time>
      </trkpt>
      <trkpt lat="47.77727" lon="-3.57851">
        <ele>41</ele>
        <time>2018-07-14T11:44:21Z</time>
      </trkpt>
      <trkpt lat="47.77726" lon="-3.57851">
        <ele>41</ele>
        <time>2018-07-14T11:44:22Z</time>
      </trkpt>
      <trkpt lat="47.77724" lon="-3.57851">
        <ele>41</ele>
        <time>2018-07-14T11:44:23Z</time>
      </trkpt>
      <trkpt lat="47.77722" lon="-3.57849">
        <ele>41</ele>
        <time>2018-07-14T11:44:24Z</time>
      </trkpt>
      <trkpt lat="47.77718" lon="-3.57848">
        <ele>41</ele>
        <time>2018-07-14T11:44:25Z</time>
      </trkpt>
      <trkpt lat="47.77715" lon="-3.57847">
        <ele>41</ele>
        <time>2018-07-14T11:44:26Z</time>
      </trkpt>
      <trkpt lat="47.77712" lon="-3.57846">
        <ele>40</ele>
        <time>2018-07-14T11:44:27Z</time>
      </trkpt>
      <trkpt lat="47.77709" lon="-3.57845">
        <ele>40</ele>
        <time>2018-07-14T11:44:28Z</time>
      </trkpt>
      <trkpt lat="47.77705" lon="-3.57845">
        <ele>40</ele>
        <time>2018-07-14T11:44:29Z</time>
      </trkpt>
      <trkpt lat="47.77701" lon="-3.57845">
        <ele>40</ele>
        <time>2018-07-14T11:44:30Z</time>
      </trkpt>
      <trkpt lat="47.77698" lon="-3.57845">
        <ele>40</ele>
        <time>2018-07-14T11:44:31Z</time>
      </trkpt>
      <trkpt lat="47.77694" lon="-3.57846">
        <ele>40</ele>
        <time>2018-07-14T11:44:32Z</time>
      </trkpt>
      <trkpt lat="47.7769" lon="-3.57847">
        <ele>40</ele>
        <time>2018-07-14T11:44:33Z</time>
      </trkpt>
      <trkpt lat="47.77687" lon="-3.57847">
        <ele>40</ele>
        <time>2018-07-14T11:44:34Z</time>
      </trkpt>
      <trkpt lat="47.77683" lon="-3.57848">
        <ele>40</ele>
        <time>2018-07-14T11:44:35Z</time>
      </trkpt>
      <trkpt lat="47.77679" lon="-3.57847">
        <ele>40</ele>
        <time>2018-07-14T11:44:36Z</time>
      </trkpt>
      <trkpt lat="47.77675" lon="-3.57845">
        <ele>40</ele>
        <time>2018-07-14T11:44:37Z</time>
      </trkpt>
      <trkpt lat="47.77671" lon="-3.57843">
        <ele>40</ele>
        <time>2018-07-14T11:44:38Z</time>
      </trkpt>
      <trkpt lat="47.77666" lon="-3.57839">
        <ele>39</ele>
        <time>2018-07-14T11:44:39Z</time>
      </trkpt>
      <trkpt lat="47.77662" lon="-3.57834">
        <ele>39</ele>
        <time>2018-07-14T11:44:40Z</time>
      </trkpt>
      <trkpt lat="47.77658" lon="-3.57829">
        <ele>39</ele>
        <time>2018-07-14T11:44:41Z</time>
      </trkpt>
      <trkpt lat="47.77654" lon="-3.57825">
        <ele>39</ele>
        <time>2018-07-14T11:44:42Z</time>
      </trkpt>
      <trkpt lat="47.7765" lon="-3.57821">
        <ele>39</ele>
        <time>2018-07-14T11:44:43Z</time>
      </trkpt>
      <trkpt lat="47.77647" lon="-3.57817">
        <ele>39</ele>
        <time>2018-07-14T11:44:44Z</time>
      </trkpt>
      <trkpt lat="47.77646" lon="-3.57812">
        <ele>39</ele>
        <time>2018-07-14T11:44:45Z</time>
      </trkpt>
      <trkpt lat="47.77644" lon="-3.57806">
        <ele>39</ele>
        <time>2018-07-14T11:44:46Z</time>
      </trkpt>
      <trkpt lat="47.77644" lon="-3.57799">
        <ele>39</ele>
        <time>2018-07-14T11:44:47Z</time>
      </trkpt>
      <trkpt lat="47.77643" lon="-3.57793">
        <ele>40</ele>
        <time>2018-07-14T11:44:48Z</time>
      </trkpt>
      <trkpt lat="47.77643" lon="-3.57786">
        <ele>40</ele>
        <time>2018-07-14T11:44:49Z</time>
      </trkpt>
      <trkpt lat="47.77642" lon="-3.5778">
        <ele>40</ele>
        <time>2018-07-14T11:44:50Z</time>
      </trkpt>
      <trkpt lat="47.77641" lon="-3.57773">
        <ele>40</ele>
        <time>2018-07-14T11:44:51Z</time>
      </trkpt>
      <trkpt lat="47.7764" lon="-3.57767">
        <ele>40</ele>
        <time>2018-07-14T11:44:52Z</time>
      </trkpt>
      <trkpt lat="47.77639" lon="-3.5776">
        <ele>40</ele>
        <time>2018-07-14T11:44:53Z</time>
      </trkpt>
      <trkpt lat="47.77638" lon="-3.57753">
        <ele>40</ele>
        <time>2018-07-14T11:44:54Z</time>
      </trkpt>
      <trkpt lat="47.77638" lon="-3.57747">
        <ele>40</ele>
        <time>2018-07-14T11:44:55Z</time>
      </trkpt>
      <trkpt lat="47.77637" lon="-3.5774">
        <ele>40</ele>
        <time>2018-07-14T11:44:56Z</time>
      </trkpt>
      <trkpt lat="47.77636" lon="-3.57733">
        <ele>40</ele>
        <time>2018-07-14T11:44:57Z</time>
      </trkpt>
      <trkpt lat="47.77635" lon="-3.57726">
        <ele>40</ele>
        <time>2018-07-14T11:44:58Z</time>
      </trkpt>
      <trkpt lat="47.77634" lon="-3.5772">
        <ele>41</ele>
        <time>2018-07-14T11:44:59Z</time>
      </trkpt>
      <trkpt lat="47.77633" lon="-3.57713">
        <ele>41</ele>
        <time>2018-07-14T11:45:00Z</time>
      </trkpt>
      <trkpt lat="47.77632" lon="-3.57706">
        <ele>41</ele>
        <time>2018-07-14T11:45:01Z</time>
      </trkpt>
      <trkpt lat="47.77631" lon="-3.57699">
        <ele>41</ele>
        <time>2018-07-14T11:45:02Z</time>
      </trkpt>
      <trkpt lat="47.7763" lon="-3.57693">
        <ele>41</ele>
        <time>2018-07-14T11:45:03Z</time>
      </trkpt>
      <trkpt lat="47.77629" lon="-3.57686">
        <ele>41</ele>
        <time>2018-07-14T11:45:04Z</time>
      </trkpt>
      <trkpt lat="47.77628" lon="-3.5768">
        <ele>41</ele>
        <time>2018-07-14T11:45:05Z</time>
      </trkpt>
      <trkpt lat="47.77627" lon="-3.57673">
        <ele>41</ele>
        <time>2018-07-14T11:45:06Z</time>
      </trkpt>
      <trkpt lat="47.77626" lon="-3.57667">
        <ele>41</ele>
        <time>2018-07-14T11:45:07Z</time>
      </trkpt>
      <trkpt lat="47.77624" lon="-3.57661">
        <ele>42</ele>
        <time>2018-07-14T11:45:08Z</time>
      </trkpt>
      <trkpt lat="47.77623" lon="-3.57655">
        <ele>42</ele>
        <time>2018-07-14T11:45:09Z</time>
      </trkpt>
      <trkpt lat="47.77622" lon="-3.57648">
        <ele>42</ele>
        <time>2018-07-14T11:45:10Z</time>
      </trkpt>
      <trkpt lat="47.7762" lon="-3.57642">
        <ele>42</ele>
        <time>2018-07-14T11:45:11Z</time>
      </trkpt>
      <trkpt lat="47.77619" lon="-3.57635">
        <ele>42</ele>
        <time>2018-07-14T11:45:12Z</time>
      </trkpt>
      <trkpt lat="47.77618" lon="-3.57629">
        <ele>42</ele>
        <time>2018-07-14T11:45:13Z</time>
      </trkpt>
      <trkpt lat="47.77618" lon="-3.57622">
        <ele>42</ele>
        <time>2018-07-14T11:45:14Z</time>
      </trkpt>
      <trkpt lat="47.77617" lon="-3.57615">
        <ele>42</ele>
        <time>2018-07-14T11:45:15Z</time>
      </trkpt>
      <trkpt lat="47.77617" lon="-3.57608">
        <ele>42</ele>
        <time>2018-07-14T11:45:16Z</time>
      </trkpt>
      <trkpt lat="47.77617" lon="-3.57601">
        <ele>42</ele>
        <time>2018-07-14T11:45:17Z</time>
      </trkpt>
      <trkpt lat="47.77617" lon="-3.57593">
        <ele>42</ele>
        <time>2018-07-14T11:45:18Z</time>
      </trkpt>
      <trkpt lat="47.77617" lon="-3.57586">
        <ele>42</ele>
        <time>2018-07-14T11:45:19Z</time>
      </trkpt>
      <trkpt lat="47.77618" lon="-3.57578">
        <ele>42</ele>
        <time>2018-07-14T11:45:20Z</time>
      </trkpt>
      <trkpt lat="47.77618" lon="-3.5757">
        <ele>42</ele>
        <time>2018-07-14T11:45:21Z</time>
      </trkpt>
      <trkpt lat="47.77619" lon="-3.57562">
        <ele>42</ele>
        <time>2018-07-14T11:45:22Z</time>
      </trkpt>
      <trkpt lat="47.77619" lon="-3.57554">
        <ele>42</ele>
        <time>2018-07-14T11:45:23Z</time>
      </trkpt>
      <trkpt lat="47.7762" lon="-3.57546">
        <ele>42</ele>
        <time>2018-07-14T11:45:24Z</time>
      </trkpt>
      <trkpt lat="47.77621" lon="-3.57538">
        <ele>42</ele>
        <time>2018-07-14T11:45:25Z</time>
      </trkpt>
      <trkpt lat="47.77621" lon="-3.5753">
        <ele>42</ele>
        <time>2018-07-14T11:45:26Z</time>
      </trkpt>
      <trkpt lat="47.77622" lon="-3.57522">
        <ele>42</ele>
        <time>2018-07-14T11:45:27Z</time>
      </trkpt>
      <trkpt lat="47.77622" lon="-3.57515">
        <ele>42</ele>
        <time>2018-07-14T11:45:28Z</time>
      </trkpt>
      <trkpt lat="47.77622" lon="-3.57508">
        <ele>42</ele>
        <time>2018-07-14T11:45:29Z</time>
      </trkpt>
      <trkpt lat="47.77623" lon="-3.57501">
        <ele>42</ele>
        <time>2018-07-14T11:45:30Z</time>
      </trkpt>
      <trkpt lat="47.77623" lon="-3.57494">
        <ele>42</ele>
        <time>2018-07-14T11:45:31Z</time>
      </trkpt>
      <trkpt lat="47.77624" lon="-3.57487">
        <ele>43</ele>
        <time>2018-07-14T11:45:32Z</time>
      </trkpt>
      <trkpt lat="47.77624" lon="-3.57481">
        <ele>43</ele>
        <time>2018-07-14T11:45:33Z</time>
      </trkpt>
      <trkpt lat="47.77625" lon="-3.57475">
        <ele>43</ele>
        <time>2018-07-14T11:45:34Z</time>
      </trkpt>
      <trkpt lat="47.77625" lon="-3.57471">
        <ele>43</ele>
        <time>2018-07-14T11:45:35Z</time>
      </trkpt>
      <trkpt lat="47.77624" lon="-3.57469">
        <ele>43</ele>
        <time>2018-07-14T11:45:36Z</time>
      </trkpt>
      <trkpt lat="47.77622" lon="-3.5747">
        <ele>43</ele>
        <time>2018-07-14T11:45:37Z</time>
      </trkpt>
      <trkpt lat="47.77618" lon="-3.57471">
        <ele>43</ele>
        <time>2018-07-14T11:45:38Z</time>
      </trkpt>
      <trkpt lat="47.77614" lon="-3.57474">
        <ele>43</ele>
        <time>2018-07-14T11:45:39Z</time>
      </trkpt>
      <trkpt lat="47.7761" lon="-3.57476">
        <ele>43</ele>
        <time>2018-07-14T11:45:40Z</time>
      </trkpt>
      <trkpt lat="47.77605" lon="-3.57478">
        <ele>43</ele>
        <time>2018-07-14T11:45:41Z</time>
      </trkpt>
      <trkpt lat="47.77601" lon="-3.57481">
        <ele>42</ele>
        <time>2018-07-14T11:45:42Z</time>
      </trkpt>
      <trkpt lat="47.77597" lon="-3.57485">
        <ele>42</ele>
        <time>2018-07-14T11:45:43Z</time>
      </trkpt>
      <trkpt lat="47.77592" lon="-3.57489">
        <ele>42</ele>
        <time>2018-07-14T11:45:44Z</time>
      </trkpt>
      <trkpt lat="47.77587" lon="-3.57493">
        <ele>42</ele>
        <time>2018-07-14T11:45:45Z</time>
      </trkpt>
      <trkpt lat="47.77582" lon="-3.57496">
        <ele>42</ele>
        <time>2018-07-14T11:45:46Z</time>
      </trkpt>
      <trkpt lat="47.77578" lon="-3.57501">
        <ele>42</ele>
        <time>2018-07-14T11:45:47Z</time>
      </trkpt>
      <trkpt lat="47.77573" lon="-3.57504">
        <ele>42</ele>
        <time>2018-07-14T11:45:48Z</time>
      </trkpt>
      <trkpt lat="47.77568" lon="-3.57507">
        <ele>42</ele>
        <time>2018-07-14T11:45:49Z</time>
      </trkpt>
      <trkpt lat="47.77563" lon="-3.57511">
        <ele>42</ele>
        <time>2018-07-14T11:45:50Z</time>
      </trkpt>
      <trkpt lat="47.77557" lon="-3.57514">
        <ele>42</ele>
        <time>2018-07-14T11:45:51Z</time>
      </trkpt>
      <trkpt lat="47.77552" lon="-3.57518">
        <ele>42</ele>
        <time>2018-07-14T11:45:52Z</time>
      </trkpt>
      <trkpt lat="47.77546" lon="-3.5752">
        <ele>42</ele>
        <time>2018-07-14T11:45:53Z</time>
      </trkpt>
      <trkpt lat="47.77541" lon="-3.57521">
        <ele>42</ele>
        <time>2018-07-14T11:45:54Z</time>
      </trkpt>
      <trkpt lat="47.77536" lon="-3.57522">
        <ele>42</ele>
        <time>2018-07-14T11:45:55Z</time>
      </trkpt>
      <trkpt lat="47.7753" lon="-3.57523">
        <ele>42</ele>
        <time>2018-07-14T11:45:56Z</time>
      </trkpt>
      <trkpt lat="47.77523" lon="-3.57524">
        <ele>42</ele>
        <time>2018-07-14T11:45:57Z</time>
      </trkpt>
      <trkpt lat="47.77517" lon="-3.57525">
        <ele>42</ele>
        <time>2018-07-14T11:45:58Z</time>
      </trkpt>
      <trkpt lat="47.7751" lon="-3.57525">
        <ele>42</ele>
        <time>2018-07-14T11:45:59Z</time>
      </trkpt>
      <trkpt lat="47.77503" lon="-3.57525">
        <ele>42</ele>
        <time>2018-07-14T11:46:00Z</time>
      </trkpt>
      <trkpt lat="47.77496" lon="-3.57524">
        <ele>42</ele>
        <time>2018-07-14T11:46:01Z</time>
      </trkpt>
      <trkpt lat="47.7749" lon="-3.57522">
        <ele>42</ele>
        <time>2018-07-14T11:46:02Z</time>
      </trkpt>
      <trkpt lat="47.77484" lon="-3.5752">
        <ele>42</ele>
        <time>2018-07-14T11:46:03Z</time>
      </trkpt>
      <trkpt lat="47.7748" lon="-3.57517">
        <ele>42</ele>
        <time>2018-07-14T11:46:04Z</time>
      </trkpt>
      <trkpt lat="47.77474" lon="-3.57514">
        <ele>42</ele>
        <time>2018-07-14T11:46:05Z</time>
      </trkpt>
      <trkpt lat="47.7747" lon="-3.57511">
        <ele>42</ele>
        <time>2018-07-14T11:46:06Z</time>
      </trkpt>
      <trkpt lat="47.77465" lon="-3.57508">
        <ele>42</ele>
        <time>2018-07-14T11:46:07Z</time>
      </trkpt>
      <trkpt lat="47.77459" lon="-3.57506">
        <ele>42</ele>
        <time>2018-07-14T11:46:08Z</time>
      </trkpt>
      <trkpt lat="47.77454" lon="-3.57504">
        <ele>42</ele>
        <time>2018-07-14T11:46:09Z</time>
      </trkpt>
      <trkpt lat="47.77449" lon="-3.57503">
        <ele>42</ele>
        <time>2018-07-14T11:46:10Z</time>
      </trkpt>
      <trkpt lat="47.77445" lon="-3.57503">
        <ele>42</ele>
        <time>2018-07-14T11:46:11Z</time>
      </trkpt>
      <trkpt lat="47.77441" lon="-3.57504">
        <ele>42</ele>
        <time>2018-07-14T11:46:12Z</time>
      </trkpt>
      <trkpt lat="47.77435" lon="-3.57504">
        <ele>42</ele>
        <time>2018-07-14T11:46:13Z</time>
      </trkpt>
      <trkpt lat="47.7743" lon="-3.57505">
        <ele>42</ele>
        <time>2018-07-14T11:46:14Z</time>
      </trkpt>
      <trkpt lat="47.77425" lon="-3.57505">
        <ele>42</ele>
        <time>2018-07-14T11:46:15Z</time>
      </trkpt>
      <trkpt lat="47.77419" lon="-3.57505">
        <ele>42</ele>
        <time>2018-07-14T11:46:16Z</time>
      </trkpt>
      <trkpt lat="47.77414" lon="-3.57504">
        <ele>41</ele>
        <time>2018-07-14T11:46:17Z</time>
      </trkpt>
      <trkpt lat="47.77409" lon="-3.57503">
        <ele>41</ele>
        <time>2018-07-14T11:46:18Z</time>
      </trkpt>
      <trkpt lat="47.77404" lon="-3.575">
        <ele>41</ele>
        <time>2018-07-14T11:46:19Z</time>
      </trkpt>
      <trkpt lat="47.77399" lon="-3.57497">
        <ele>41</ele>
        <time>2018-07-14T11:46:20Z</time>
      </trkpt>
      <trkpt lat="47.77395" lon="-3.57495">
        <ele>41</ele>
        <time>2018-07-14T11:46:21Z</time>
      </trkpt>
      <trkpt lat="47.7739" lon="-3.57493">
        <ele>41</ele>
        <time>2018-07-14T11:46:22Z</time>
      </trkpt>
      <trkpt lat="47.77385" lon="-3.57492">
        <ele>40</ele>
        <time>2018-07-14T11:46:23Z</time>
      </trkpt>
      <trkpt lat="47.77381" lon="-3.5749">
        <ele>40</ele>
        <time>2018-07-14T11:46:24Z</time>
      </trkpt>
      <trkpt lat="47.77376" lon="-3.57487">
        <ele>40</ele>
        <time>2018-07-14T11:46:25Z</time>
      </trkpt>
      <trkpt lat="47.77371" lon="-3.57484">
        <ele>40</ele>
        <time>2018-07-14T11:46:26Z</time>
      </trkpt>
      <trkpt lat="47.77367" lon="-3.57482">
        <ele>40</ele>
        <time>2018-07-14T11:46:27Z</time>
      </trkpt>
      <trkpt lat="47.77363" lon="-3.5748">
        <ele>40</ele>
        <time>2018-07-14T11:46:28Z</time>
      </trkpt>
      <trkpt lat="47.77358" lon="-3.57478">
        <ele>40</ele>
        <time>2018-07-14T11:46:29Z</time>
      </trkpt>
      <trkpt lat="47.77353" lon="-3.57477">
        <ele>40</ele>
        <time>2018-07-14T11:46:30Z</time>
      </trkpt>
      <trkpt lat="47.77348" lon="-3.57477">
        <ele>40</ele>
        <time>2018-07-14T11:46:31Z</time>
      </trkpt>
      <trkpt lat="47.77343" lon="-3.57475">
        <ele>40</ele>
        <time>2018-07-14T11:46:32Z</time>
      </trkpt>
      <trkpt lat="47.77339" lon="-3.57474">
        <ele>40</ele>
        <time>2018-07-14T11:46:33Z</time>
      </trkpt>
      <trkpt lat="47.77334" lon="-3.57472">
        <ele>40</ele>
        <time>2018-07-14T11:46:34Z</time>
      </trkpt>
      <trkpt lat="47.77329" lon="-3.57471">
        <ele>40</ele>
        <time>2018-07-14T11:46:35Z</time>
      </trkpt>
      <trkpt lat="47.77324" lon="-3.5747">
        <ele>40</ele>
        <time>2018-07-14T11:46:36Z</time>
      </trkpt>
      <trkpt lat="47.77319" lon="-3.57469">
        <ele>41</ele>
        <time>2018-07-14T11:46:37Z</time>
      </trkpt>
      <trkpt lat="47.77314" lon="-3.57468">
        <ele>41</ele>
        <time>2018-07-14T11:46:38Z</time>
      </trkpt>
      <trkpt lat="47.77309" lon="-3.57468">
        <ele>41</ele>
        <time>2018-07-14T11:46:39Z</time>
      </trkpt>
      <trkpt lat="47.77304" lon="-3.57469">
        <ele>41</ele>
        <time>2018-07-14T11:46:40Z</time>
      </trkpt>
      <trkpt lat="47.77299" lon="-3.5747">
        <ele>41</ele>
        <time>2018-07-14T11:46:41Z</time>
      </trkpt>
      <trkpt lat="47.77294" lon="-3.57471">
        <ele>42</ele>
        <time>2018-07-14T11:46:42Z</time>
      </trkpt>
      <trkpt lat="47.7729" lon="-3.57473">
        <ele>42</ele>
        <time>2018-07-14T11:46:43Z</time>
      </trkpt>
      <trkpt lat="47.77286" lon="-3.57475">
        <ele>42</ele>
        <time>2018-07-14T11:46:44Z</time>
      </trkpt>
      <trkpt lat="47.77283" lon="-3.57477">
        <ele>42</ele>
        <time>2018-07-14T11:46:45Z</time>
      </trkpt>
      <trkpt lat="47.7728" lon="-3.57478">
        <ele>42</ele>
        <time>2018-07-14T11:46:46Z</time>
      </trkpt>
      <trkpt lat="47.77279" lon="-3.57478">
        <ele>42</ele>
        <time>2018-07-14T11:46:47Z</time>
      </trkpt>
      <trkpt lat="47.77279" lon="-3.57478">
        <ele>43</ele>
        <time>2018-07-14T11:46:48Z</time>
      </trkpt>
      <trkpt lat="47.77279" lon="-3.57479">
        <ele>43</ele>
        <time>2018-07-14T11:46:49Z</time>
      </trkpt>
      <trkpt lat="47.77278" lon="-3.57479">
        <ele>43</ele>
        <time>2018-07-14T11:46:50Z</time>
      </trkpt>
      <trkpt lat="47.77277" lon="-3.5748">
        <ele>42</ele>
        <time>2018-07-14T11:46:51Z</time>
      </trkpt>
      <trkpt lat="47.77276" lon="-3.57481">
        <ele>42</ele>
        <time>2018-07-14T11:46:52Z</time>
      </trkpt>
      <trkpt lat="47.77274" lon="-3.57482">
        <ele>42</ele>
        <time>2018-07-14T11:46:53Z</time>
      </trkpt>
      <trkpt lat="47.77271" lon="-3.57484">
        <ele>42</ele>
        <time>2018-07-14T11:46:54Z</time>
      </trkpt>
      <trkpt lat="47.77268" lon="-3.57486">
        <ele>41</ele>
        <time>2018-07-14T11:46:55Z</time>
      </trkpt>
      <trkpt lat="47.77264" lon="-3.57488">
        <ele>41</ele>
        <time>2018-07-14T11:46:56Z</time>
      </trkpt>
      <trkpt lat="47.7726" lon="-3.57489">
        <ele>41</ele>
        <time>2018-07-14T11:46:57Z</time>
      </trkpt>
      <trkpt lat="47.77257" lon="-3.5749">
        <ele>41</ele>
        <time>2018-07-14T11:46:58Z</time>
      </trkpt>
      <trkpt lat="47.77254" lon="-3.57491">
        <ele>41</ele>
        <time>2018-07-14T11:46:59Z</time>
      </trkpt>
      <trkpt lat="47.7725" lon="-3.57493">
        <ele>40</ele>
        <time>2018-07-14T11:47:00Z</time>
      </trkpt>
      <trkpt lat="47.77246" lon="-3.57494">
        <ele>40</ele>
        <time>2018-07-14T11:47:01Z</time>
      </trkpt>
      <trkpt lat="47.77242" lon="-3.57494">
        <ele>40</ele>
        <time>2018-07-14T11:47:02Z</time>
      </trkpt>
      <trkpt lat="47.77239" lon="-3.57492">
        <ele>40</ele>
        <time>2018-07-14T11:47:03Z</time>
      </trkpt>
      <trkpt lat="47.77237" lon="-3.57487">
        <ele>40</ele>
        <time>2018-07-14T11:47:04Z</time>
      </trkpt>
      <trkpt lat="47.77237" lon="-3.57483">
        <ele>39</ele>
        <time>2018-07-14T11:47:05Z</time>
      </trkpt>
      <trkpt lat="47.77238" lon="-3.57479">
        <ele>39</ele>
        <time>2018-07-14T11:47:06Z</time>
      </trkpt>
      <trkpt lat="47.7724" lon="-3.57474">
        <ele>39</ele>
        <time>2018-07-14T11:47:07Z</time>
      </trkpt>
      <trkpt lat="47.77241" lon="-3.5747">
        <ele>39</ele>
        <time>2018-07-14T11:47:08Z</time>
      </trkpt>
      <trkpt lat="47.77244" lon="-3.57465">
        <ele>39</ele>
        <time>2018-07-14T11:47:09Z</time>
      </trkpt>
      <trkpt lat="47.77246" lon="-3.57459">
        <ele>38</ele>
        <time>2018-07-14T11:47:10Z</time>
      </trkpt>
      <trkpt lat="47.77248" lon="-3.57455">
        <ele>38</ele>
        <time>2018-07-14T11:47:11Z</time>
      </trkpt>
      <trkpt lat="47.77252" lon="-3.57449">
        <ele>38</ele>
        <time>2018-07-14T11:47:12Z</time>
      </trkpt>
      <trkpt lat="47.77254" lon="-3.57445">
        <ele>38</ele>
        <time>2018-07-14T11:47:13Z</time>
      </trkpt>
      <trkpt lat="47.77257" lon="-3.5744">
        <ele>38</ele>
        <time>2018-07-14T11:47:14Z</time>
      </trkpt>
      <trkpt lat="47.7726" lon="-3.57436">
        <ele>38</ele>
        <time>2018-07-14T11:47:15Z</time>
      </trkpt>
      <trkpt lat="47.77262" lon="-3.57432">
        <ele>38</ele>
        <time>2018-07-14T11:47:16Z</time>
      </trkpt>
      <trkpt lat="47.77263" lon="-3.57428">
        <ele>38</ele>
        <time>2018-07-14T11:47:17Z</time>
      </trkpt>
      <trkpt lat="47.77265" lon="-3.57421">
        <ele>37</ele>
        <time>2018-07-14T11:47:18Z</time>
      </trkpt>
      <trkpt lat="47.77266" lon="-3.57415">
        <ele>37</ele>
        <time>2018-07-14T11:47:19Z</time>
      </trkpt>
      <trkpt lat="47.77267" lon="-3.57407">
        <ele>37</ele>
        <time>2018-07-14T11:47:20Z</time>
      </trkpt>
      <trkpt lat="47.77266" lon="-3.57401">
        <ele>37</ele>
        <time>2018-07-14T11:47:21Z</time>
      </trkpt>
      <trkpt lat="47.77267" lon="-3.57395">
        <ele>37</ele>
        <time>2018-07-14T11:47:22Z</time>
      </trkpt>
      <trkpt lat="47.77268" lon="-3.57389">
        <ele>37</ele>
        <time>2018-07-14T11:47:23Z</time>
      </trkpt>
      <trkpt lat="47.7727" lon="-3.57382">
        <ele>37</ele>
        <time>2018-07-14T11:47:24Z</time>
      </trkpt>
      <trkpt lat="47.77272" lon="-3.57376">
        <ele>37</ele>
        <time>2018-07-14T11:47:25Z</time>
      </trkpt>
      <trkpt lat="47.77274" lon="-3.57372">
        <ele>36</ele>
        <time>2018-07-14T11:47:26Z</time>
      </trkpt>
      <trkpt lat="47.77276" lon="-3.57369">
        <ele>36</ele>
        <time>2018-07-14T11:47:27Z</time>
      </trkpt>
      <trkpt lat="47.77278" lon="-3.57366">
        <ele>36</ele>
        <time>2018-07-14T11:47:28Z</time>
      </trkpt>
      <trkpt lat="47.7728" lon="-3.57364">
        <ele>36</ele>
        <time>2018-07-14T11:47:29Z</time>
      </trkpt>
      <trkpt lat="47.77282" lon="-3.57363">
        <ele>36</ele>
        <time>2018-07-14T11:47:30Z</time>
      </trkpt>
      <trkpt lat="47.77283" lon="-3.57361">
        <ele>36</ele>
        <time>2018-07-14T11:47:31Z</time>
      </trkpt>
      <trkpt lat="47.77285" lon="-3.57359">
        <ele>36</ele>
        <time>2018-07-14T11:47:32Z</time>
      </trkpt>
      <trkpt lat="47.77287" lon="-3.57358">
        <ele>36</ele>
        <time>2018-07-14T11:47:33Z</time>
      </trkpt>
      <trkpt lat="47.77288" lon="-3.57356">
        <ele>35</ele>
        <time>2018-07-14T11:47:34Z</time>
      </trkpt>
      <trkpt lat="47.77289" lon="-3.57354">
        <ele>35</ele>
        <time>2018-07-14T11:47:35Z</time>
      </trkpt>
      <trkpt lat="47.77291" lon="-3.57352">
        <ele>35</ele>
        <time>2018-07-14T11:47:36Z</time>
      </trkpt>
      <trkpt lat="47.77292" lon="-3.5735">
        <ele>35</ele>
        <time>2018-07-14T11:47:37Z</time>
      </trkpt>
      <trkpt lat="47.77293" lon="-3.57349">
        <ele>35</ele>
        <time>2018-07-14T11:47:38Z</time>
      </trkpt>
      <trkpt lat="47.77293" lon="-3.57347">
        <ele>35</ele>
        <time>2018-07-14T11:47:39Z</time>
      </trkpt>
      <trkpt lat="47.77293" lon="-3.57347">
        <ele>35</ele>
        <time>2018-07-14T11:47:40Z</time>
      </trkpt>
      <trkpt lat="47.77293" lon="-3.57346">
        <ele>35</ele>
        <time>2018-07-14T11:47:41Z</time>
      </trkpt>
      <trkpt lat="47.77293" lon="-3.57344">
        <ele>34</ele>
        <time>2018-07-14T11:47:42Z</time>
      </trkpt>
      <trkpt lat="47.77294" lon="-3.57343">
        <ele>34</ele>
        <time>2018-07-14T11:47:43Z</time>
      </trkpt>
      <trkpt lat="47.77293" lon="-3.57342">
        <ele>34</ele>
        <time>2018-07-14T11:47:44Z</time>
      </trkpt>
      <trkpt lat="47.77293" lon="-3.5734">
        <ele>34</ele>
        <time>2018-07-14T11:47:45Z</time>
      </trkpt>
      <trkpt lat="47.77292" lon="-3.57339">
        <ele>34</ele>
        <time>2018-07-14T11:47:46Z</time>
      </trkpt>
      <trkpt lat="47.77292" lon="-3.57336">
        <ele>34</ele>
        <time>2018-07-14T11:47:47Z</time>
      </trkpt>
      <trkpt lat="47.77291" lon="-3.57334">
        <ele>34</ele>
        <time>2018-07-14T11:47:48Z</time>
      </trkpt>
      <trkpt lat="47.7729" lon="-3.57331">
        <ele>34</ele>
        <time>2018-07-14T11:47:49Z</time>
      </trkpt>
      <trkpt lat="47.77289" lon="-3.57329">
        <ele>34</ele>
        <time>2018-07-14T11:47:50Z</time>
      </trkpt>
      <trkpt lat="47.77289" lon="-3.57326">
        <ele>34</ele>
        <time>2018-07-14T11:47:51Z</time>
      </trkpt>
      <trkpt lat="47.77289" lon="-3.57324">
        <ele>34</ele>
        <time>2018-07-14T11:47:52Z</time>
      </trkpt>
      <trkpt lat="47.7729" lon="-3.57323">
        <ele>34</ele>
        <time>2018-07-14T11:47:53Z</time>
      </trkpt>
      <trkpt lat="47.77292" lon="-3.57324">
        <ele>34</ele>
        <time>2018-07-14T11:47:54Z</time>
      </trkpt>
      <trkpt lat="47.77294" lon="-3.57324">
        <ele>34</ele>
        <time>2018-07-14T11:47:55Z</time>
      </trkpt>
      <trkpt lat="47.77295" lon="-3.57325">
        <ele>34</ele>
        <time>2018-07-14T11:47:56Z</time>
      </trkpt>
      <trkpt lat="47.77296" lon="-3.57324">
        <ele>34</ele>
        <time>2018-07-14T11:47:57Z</time>
      </trkpt>
      <trkpt lat="47.77297" lon="-3.57324">
        <ele>34</ele>
        <time>2018-07-14T11:47:58Z</time>
      </trkpt>
      <trkpt lat="47.77298" lon="-3.57325">
        <ele>34</ele>
        <time>2018-07-14T11:47:59Z</time>
      </trkpt>
      <trkpt lat="47.77298" lon="-3.57325">
        <ele>34</ele>
        <time>2018-07-14T11:48:00Z</time>
      </trkpt>
      <trkpt lat="47.77299" lon="-3.57326">
        <ele>34</ele>
        <time>2018-07-14T11:48:01Z</time>
      </trkpt>
      <trkpt lat="47.77299" lon="-3.57325">
        <ele>34</ele>
        <time>2018-07-14T11:48:02Z</time>
      </trkpt>
      <trkpt lat="47.773" lon="-3.57324">
        <ele>34</ele>
        <time>2018-07-14T11:48:03Z</time>
      </trkpt>
      <trkpt lat="47.77303" lon="-3.57324">
        <ele>34</ele>
        <time>2018-07-14T11:48:04Z</time>
      </trkpt>
      <trkpt lat="47.77305" lon="-3.57324">
        <ele>34</ele>
        <time>2018-07-14T11:48:05Z</time>
      </trkpt>
      <trkpt lat="47.77307" lon="-3.57324">
        <ele>34</ele>
        <time>2018-07-14T11:48:06Z</time>
      </trkpt>
      <trkpt lat="47.7731" lon="-3.57324">
        <ele>34</ele>
        <time>2018-07-14T11:48:07Z</time>
      </trkpt>
      <trkpt lat="47.77313" lon="-3.57324">
        <ele>33</ele>
        <time>2018-07-14T11:48:08Z</time>
      </trkpt>
      <trkpt lat="47.77315" lon="-3.57324">
        <ele>33</ele>
        <time>2018-07-14T11:48:09Z</time>
      </trkpt>
      <trkpt lat="47.77318" lon="-3.57324">
        <ele>33</ele>
        <time>2018-07-14T11:48:10Z</time>
      </trkpt>
      <trkpt lat="47.77321" lon="-3.57323">
        <ele>33</ele>
        <time>2018-07-14T11:48:11Z</time>
      </trkpt>
      <trkpt lat="47.77324" lon="-3.57324">
        <ele>33</ele>
        <time>2018-07-14T11:48:12Z</time>
      </trkpt>
      <trkpt lat="47.77326" lon="-3.57324">
        <ele>33</ele>
        <time>2018-07-14T11:48:13Z</time>
      </trkpt>
      <trkpt lat="47.77329" lon="-3.57323">
        <ele>33</ele>
        <time>2018-07-14T11:48:14Z</time>
      </trkpt>
      <trkpt lat="47.77332" lon="-3.57323">
        <ele>33</ele>
        <time>2018-07-14T11:48:15Z</time>
      </trkpt>
      <trkpt lat="47.77336" lon="-3.57322">
        <ele>33</ele>
        <time>2018-07-14T11:48:16Z</time>
      </trkpt>
      <trkpt lat="47.77339" lon="-3.57322">
        <ele>33</ele>
        <time>2018-07-14T11:48:17Z</time>
      </trkpt>
      <trkpt lat="47.77342" lon="-3.57322">
        <ele>33</ele>
        <time>2018-07-14T11:48:18Z</time>
      </trkpt>
      <trkpt lat="47.77344" lon="-3.57322">
        <ele>33</ele>
        <time>2018-07-14T11:48:19Z</time>
      </trkpt>
      <trkpt lat="47.77347" lon="-3.57321">
        <ele>33</ele>
        <time>2018-07-14T11:48:20Z</time>
      </trkpt>
      <trkpt lat="47.7735" lon="-3.5732">
        <ele>33</ele>
        <time>2018-07-14T11:48:21Z</time>
      </trkpt>
      <trkpt lat="47.77353" lon="-3.57319">
        <ele>33</ele>
        <time>2018-07-14T11:48:22Z</time>
      </trkpt>
      <trkpt lat="47.77356" lon="-3.57319">
        <ele>33</ele>
        <time>2018-07-14T11:48:23Z</time>
      </trkpt>
      <trkpt lat="47.77359" lon="-3.57318">
        <ele>33</ele>
        <time>2018-07-14T11:48:24Z</time>
      </trkpt>
      <trkpt lat="47.77363" lon="-3.57317">
        <ele>33</ele>
        <time>2018-07-14T11:48:25Z</time>
      </trkpt>
      <trkpt lat="47.77366" lon="-3.57316">
        <ele>33</ele>
        <time>2018-07-14T11:48:26Z</time>
      </trkpt>
      <trkpt lat="47.7737" lon="-3.57315">
        <ele>33</ele>
        <time>2018-07-14T11:48:27Z</time>
      </trkpt>
      <trkpt lat="47.77373" lon="-3.57313">
        <ele>34</ele>
        <time>2018-07-14T11:48:28Z</time>
      </trkpt>
      <trkpt lat="47.77376" lon="-3.57312">
        <ele>34</ele>
        <time>2018-07-14T11:48:29Z</time>
      </trkpt>
      <trkpt lat="47.77379" lon="-3.5731">
        <ele>34</ele>
        <time>2018-07-14T11:48:30Z</time>
      </trkpt>
      <trkpt lat="47.77383" lon="-3.57309">
        <ele>34</ele>
        <time>2018-07-14T11:48:31Z</time>
      </trkpt>
      <trkpt lat="47.77386" lon="-3.57308">
        <ele>34</ele>
        <time>2018-07-14T11:48:32Z</time>
      </trkpt>
      <trkpt lat="47.7739" lon="-3.57306">
        <ele>34</ele>
        <time>2018-07-14T11:48:33Z</time>
      </trkpt>
      <trkpt lat="47.77393" lon="-3.57304">
        <ele>34</ele>
        <time>2018-07-14T11:48:34Z</time>
      </trkpt>
      <trkpt lat="47.77396" lon="-3.57302">
        <ele>35</ele>
        <time>2018-07-14T11:48:35Z</time>
      </trkpt>
      <trkpt lat="47.77399" lon="-3.573">
        <ele>35</ele>
        <time>2018-07-14T11:48:36Z</time>
      </trkpt>
      <trkpt lat="47.77402" lon="-3.573">
        <ele>35</ele>
        <time>2018-07-14T11:48:37Z</time>
      </trkpt>
      <trkpt lat="47.77407" lon="-3.57299">
        <ele>35</ele>
        <time>2018-07-14T11:48:38Z</time>
      </trkpt>
      <trkpt lat="47.77411" lon="-3.57298">
        <ele>35</ele>
        <time>2018-07-14T11:48:39Z</time>
      </trkpt>
      <trkpt lat="47.77415" lon="-3.57297">
        <ele>35</ele>
        <time>2018-07-14T11:48:40Z</time>
      </trkpt>
      <trkpt lat="47.7742" lon="-3.57297">
        <ele>36</ele>
        <time>2018-07-14T11:48:41Z</time>
      </trkpt>
      <trkpt lat="47.77424" lon="-3.57296">
        <ele>36</ele>
        <time>2018-07-14T11:48:42Z</time>
      </trkpt>
      <trkpt lat="47.77429" lon="-3.57294">
        <ele>36</ele>
        <time>2018-07-14T11:48:43Z</time>
      </trkpt>
      <trkpt lat="47.77432" lon="-3.57293">
        <ele>36</ele>
        <time>2018-07-14T11:48:44Z</time>
      </trkpt>
      <trkpt lat="47.77436" lon="-3.57293">
        <ele>36</ele>
        <time>2018-07-14T11:48:45Z</time>
      </trkpt>
      <trkpt lat="47.7744" lon="-3.57292">
        <ele>37</ele>
        <time>2018-07-14T11:48:46Z</time>
      </trkpt>
      <trkpt lat="47.77443" lon="-3.57291">
        <ele>37</ele>
        <time>2018-07-14T11:48:47Z</time>
      </trkpt>
      <trkpt lat="47.77447" lon="-3.57289">
        <ele>37</ele>
        <time>2018-07-14T11:48:48Z</time>
      </trkpt>
      <trkpt lat="47.77452" lon="-3.57287">
        <ele>37</ele>
        <time>2018-07-14T11:48:49Z</time>
      </trkpt>
      <trkpt lat="47.77457" lon="-3.57286">
        <ele>37</ele>
        <time>2018-07-14T11:48:50Z</time>
      </trkpt>
      <trkpt lat="47.77461" lon="-3.57284">
        <ele>37</ele>
        <time>2018-07-14T11:48:51Z</time>
      </trkpt>
      <trkpt lat="47.77467" lon="-3.57283">
        <ele>38</ele>
        <time>2018-07-14T11:48:52Z</time>
      </trkpt>
      <trkpt lat="47.77472" lon="-3.57282">
        <ele>38</ele>
        <time>2018-07-14T11:48:53Z</time>
      </trkpt>
      <trkpt lat="47.77476" lon="-3.5728">
        <ele>38</ele>
        <time>2018-07-14T11:48:54Z</time>
      </trkpt>
      <trkpt lat="47.7748" lon="-3.57278">
        <ele>38</ele>
        <time>2018-07-14T11:48:55Z</time>
      </trkpt>
      <trkpt lat="47.77484" lon="-3.57275">
        <ele>39</ele>
        <time>2018-07-14T11:48:56Z</time>
      </trkpt>
      <trkpt lat="47.77488" lon="-3.57273">
        <ele>39</ele>
        <time>2018-07-14T11:48:57Z</time>
      </trkpt>
      <trkpt lat="47.77492" lon="-3.57271">
        <ele>39</ele>
        <time>2018-07-14T11:48:58Z</time>
      </trkpt>
      <trkpt lat="47.77497" lon="-3.5727">
        <ele>39</ele>
        <time>2018-07-14T11:48:59Z</time>
      </trkpt>
      <trkpt lat="47.77501" lon="-3.57268">
        <ele>39</ele>
        <time>2018-07-14T11:49:00Z</time>
      </trkpt>
      <trkpt lat="47.77506" lon="-3.57266">
        <ele>40</ele>
        <time>2018-07-14T11:49:01Z</time>
      </trkpt>
      <trkpt lat="47.7751" lon="-3.57266">
        <ele>40</ele>
        <time>2018-07-14T11:49:02Z</time>
      </trkpt>
      <trkpt lat="47.77513" lon="-3.57266">
        <ele>40</ele>
        <time>2018-07-14T11:49:03Z</time>
      </trkpt>
      <trkpt lat="47.77516" lon="-3.57265">
        <ele>40</ele>
        <time>2018-07-14T11:49:04Z</time>
      </trkpt>
      <trkpt lat="47.77519" lon="-3.57265">
        <ele>40</ele>
        <time>2018-07-14T11:49:05Z</time>
      </trkpt>
      <trkpt lat="47.77522" lon="-3.57265">
        <ele>41</ele>
        <time>2018-07-14T11:49:06Z</time>
      </trkpt>
      <trkpt lat="47.77525" lon="-3.57265">
        <ele>41</ele>
        <time>2018-07-14T11:49:07Z</time>
      </trkpt>
      <trkpt lat="47.77528" lon="-3.57265">
        <ele>41</ele>
        <time>2018-07-14T11:49:08Z</time>
      </trkpt>
      <trkpt lat="47.7753" lon="-3.57266">
        <ele>41</ele>
        <time>2018-07-14T11:49:09Z</time>
      </trkpt>
      <trkpt lat="47.77532" lon="-3.57267">
        <ele>42</ele>
        <time>2018-07-14T11:49:10Z</time>
      </trkpt>
      <trkpt lat="47.77535" lon="-3.57268">
        <ele>42</ele>
        <time>2018-07-14T11:49:11Z</time>
      </trkpt>
      <trkpt lat="47.77539" lon="-3.57268">
        <ele>42</ele>
        <time>2018-07-14T11:49:12Z</time>
      </trkpt>
      <trkpt lat="47.77543" lon="-3.57268">
        <ele>42</ele>
        <time>2018-07-14T11:49:13Z</time>
      </trkpt>
      <trkpt lat="47.77547" lon="-3.57268">
        <ele>43</ele>
        <time>2018-07-14T11:49:14Z</time>
      </trkpt>
      <trkpt lat="47.77551" lon="-3.57269">
        <ele>43</ele>
        <time>2018-07-14T11:49:15Z</time>
      </trkpt>
      <trkpt lat="47.77555" lon="-3.57269">
        <ele>43</ele>
        <time>2018-07-14T11:49:16Z</time>
      </trkpt>
      <trkpt lat="47.77559" lon="-3.57269">
        <ele>43</ele>
        <time>2018-07-14T11:49:17Z</time>
      </trkpt>
      <trkpt lat="47.77563" lon="-3.5727">
        <ele>43</ele>
        <time>2018-07-14T11:49:18Z</time>
      </trkpt>
      <trkpt lat="47.77567" lon="-3.57271">
        <ele>44</ele>
        <time>2018-07-14T11:49:19Z</time>
      </trkpt>
      <trkpt lat="47.77571" lon="-3.57271">
        <ele>44</ele>
        <time>2018-07-14T11:49:20Z</time>
      </trkpt>
      <trkpt lat="47.77576" lon="-3.57272">
        <ele>44</ele>
        <time>2018-07-14T11:49:21Z</time>
      </trkpt>
      <trkpt lat="47.7758" lon="-3.57272">
        <ele>44</ele>
        <time>2018-07-14T11:49:22Z</time>
      </trkpt>
      <trkpt lat="47.77584" lon="-3.57271">
        <ele>44</ele>
        <time>2018-07-14T11:49:23Z</time>
      </trkpt>
      <trkpt lat="47.77587" lon="-3.57271">
        <ele>44</ele>
        <time>2018-07-14T11:49:24Z</time>
      </trkpt>
      <trkpt lat="47.77591" lon="-3.57271">
        <ele>44</ele>
        <time>2018-07-14T11:49:25Z</time>
      </trkpt>
      <trkpt lat="47.77594" lon="-3.57272">
        <ele>45</ele>
        <time>2018-07-14T11:49:26Z</time>
      </trkpt>
      <trkpt lat="47.77598" lon="-3.57273">
        <ele>45</ele>
        <time>2018-07-14T11:49:27Z</time>
      </trkpt>
      <trkpt lat="47.77601" lon="-3.57273">
        <ele>45</ele>
        <time>2018-07-14T11:49:28Z</time>
      </trkpt>
      <trkpt lat="47.77605" lon="-3.57274">
        <ele>45</ele>
        <time>2018-07-14T11:49:29Z</time>
      </trkpt>
      <trkpt lat="47.77609" lon="-3.57274">
        <ele>45</ele>
        <time>2018-07-14T11:49:30Z</time>
      </trkpt>
      <trkpt lat="47.77614" lon="-3.57274">
        <ele>45</ele>
        <time>2018-07-14T11:49:31Z</time>
      </trkpt>
      <trkpt lat="47.77618" lon="-3.57274">
        <ele>45</ele>
        <time>2018-07-14T11:49:32Z</time>
      </trkpt>
      <trkpt lat="47.77622" lon="-3.57274">
        <ele>45</ele>
        <time>2018-07-14T11:49:33Z</time>
      </trkpt>
      <trkpt lat="47.77626" lon="-3.57273">
        <ele>45</ele>
        <time>2018-07-14T11:49:34Z</time>
      </trkpt>
      <trkpt lat="47.7763" lon="-3.57272">
        <ele>45</ele>
        <time>2018-07-14T11:49:35Z</time>
      </trkpt>
      <trkpt lat="47.77634" lon="-3.5727">
        <ele>45</ele>
        <time>2018-07-14T11:49:36Z</time>
      </trkpt>
      <trkpt lat="47.77637" lon="-3.57267">
        <ele>45</ele>
        <time>2018-07-14T11:49:37Z</time>
      </trkpt>
      <trkpt lat="47.7764" lon="-3.57263">
        <ele>45</ele>
        <time>2018-07-14T11:49:38Z</time>
      </trkpt>
      <trkpt lat="47.77642" lon="-3.57258">
        <ele>45</ele>
        <time>2018-07-14T11:49:39Z</time>
      </trkpt>
      <trkpt lat="47.77645" lon="-3.57252">
        <ele>45</ele>
        <time>2018-07-14T11:49:40Z</time>
      </trkpt>
      <trkpt lat="47.77647" lon="-3.57247">
        <ele>45</ele>
        <time>2018-07-14T11:49:41Z</time>
      </trkpt>
      <trkpt lat="47.77649" lon="-3.57241">
        <ele>45</ele>
        <time>2018-07-14T11:49:42Z</time>
      </trkpt>
      <trkpt lat="47.7765" lon="-3.57235">
        <ele>45</ele>
        <time>2018-07-14T11:49:43Z</time>
      </trkpt>
      <trkpt lat="47.77652" lon="-3.57229">
        <ele>45</ele>
        <time>2018-07-14T11:49:44Z</time>
      </trkpt>
      <trkpt lat="47.77653" lon="-3.57223">
        <ele>45</ele>
        <time>2018-07-14T11:49:45Z</time>
      </trkpt>
      <trkpt lat="47.77653" lon="-3.57216">
        <ele>45</ele>
        <time>2018-07-14T11:49:46Z</time>
      </trkpt>
      <trkpt lat="47.77654" lon="-3.57208">
        <ele>45</ele>
        <time>2018-07-14T11:49:47Z</time>
      </trkpt>
      <trkpt lat="47.77654" lon="-3.57201">
        <ele>45</ele>
        <time>2018-07-14T11:49:48Z</time>
      </trkpt>
      <trkpt lat="47.77654" lon="-3.57193">
        <ele>45</ele>
        <time>2018-07-14T11:49:49Z</time>
      </trkpt>
      <trkpt lat="47.77655" lon="-3.57185">
        <ele>45</ele>
        <time>2018-07-14T11:49:50Z</time>
      </trkpt>
      <trkpt lat="47.77654" lon="-3.57178">
        <ele>45</ele>
        <time>2018-07-14T11:49:51Z</time>
      </trkpt>
      <trkpt lat="47.77654" lon="-3.5717">
        <ele>45</ele>
        <time>2018-07-14T11:49:52Z</time>
      </trkpt>
      <trkpt lat="47.77653" lon="-3.57162">
        <ele>45</ele>
        <time>2018-07-14T11:49:53Z</time>
      </trkpt>
      <trkpt lat="47.77652" lon="-3.57153">
        <ele>44</ele>
        <time>2018-07-14T11:49:54Z</time>
      </trkpt>
      <trkpt lat="47.77652" lon="-3.57145">
        <ele>44</ele>
        <time>2018-07-14T11:49:55Z</time>
      </trkpt>
      <trkpt lat="47.77653" lon="-3.57139">
        <ele>44</ele>
        <time>2018-07-14T11:49:56Z</time>
      </trkpt>
      <trkpt lat="47.77653" lon="-3.57136">
        <ele>44</ele>
        <time>2018-07-14T11:49:57Z</time>
      </trkpt>
      <trkpt lat="47.77654" lon="-3.57135">
        <ele>44</ele>
        <time>2018-07-14T11:49:58Z</time>
      </trkpt>
      <trkpt lat="47.77654" lon="-3.57135">
        <ele>44</ele>
        <time>2018-07-14T11:49:59Z</time>
      </trkpt>
      <trkpt lat="47.77654" lon="-3.57135">
        <ele>44</ele>
        <time>2018-07-14T11:50:00Z</time>
      </trkpt>
      <trkpt lat="47.77654" lon="-3.57136">
        <ele>44</ele>
        <time>2018-07-14T11:50:01Z</time>
      </trkpt>
      <trkpt lat="47.77655" lon="-3.57137">
        <ele>44</ele>
        <time>2018-07-14T11:50:02Z</time>
      </trkpt>
      <trkpt lat="47.77655" lon="-3.57138">
        <ele>44</ele>
        <time>2018-07-14T11:50:03Z</time>
      </trkpt>
      <trkpt lat="47.77656" lon="-3.5714">
        <ele>44</ele>
        <time>2018-07-14T11:50:04Z</time>
      </trkpt>
      <trkpt lat="47.77658" lon="-3.57142">
        <ele>44</ele>
        <time>2018-07-14T11:50:05Z</time>
      </trkpt>
      <trkpt lat="47.7766" lon="-3.57143">
        <ele>44</ele>
        <time>2018-07-14T11:50:06Z</time>
      </trkpt>
      <trkpt lat="47.77663" lon="-3.57144">
        <ele>44</ele>
        <time>2018-07-14T11:50:07Z</time>
      </trkpt>
      <trkpt lat="47.77665" lon="-3.57145">
        <ele>44</ele>
        <time>2018-07-14T11:50:08Z</time>
      </trkpt>
      <trkpt lat="47.77668" lon="-3.57146">
        <ele>44</ele>
        <time>2018-07-14T11:50:09Z</time>
      </trkpt>
      <trkpt lat="47.77671" lon="-3.57147">
        <ele>44</ele>
        <time>2018-07-14T11:50:10Z</time>
      </trkpt>
      <trkpt lat="47.77675" lon="-3.57148">
        <ele>44</ele>
        <time>2018-07-14T11:50:11Z</time>
      </trkpt>
      <trkpt lat="47.77679" lon="-3.5715">
        <ele>44</ele>
        <time>2018-07-14T11:50:12Z</time>
      </trkpt>
      <trkpt lat="47.77683" lon="-3.57151">
        <ele>44</ele>
        <time>2018-07-14T11:50:13Z</time>
      </trkpt>
      <trkpt lat="47.77686" lon="-3.57153">
        <ele>44</ele>
        <time>2018-07-14T11:50:14Z</time>
      </trkpt>
      <trkpt lat="47.7769" lon="-3.57154">
        <ele>44</ele>
        <time>2018-07-14T11:50:15Z</time>
      </trkpt>
      <trkpt lat="47.77694" lon="-3.57154">
        <ele>44</ele>
        <time>2018-07-14T11:50:16Z</time>
      </trkpt>
      <trkpt lat="47.77698" lon="-3.57153">
        <ele>44</ele>
        <time>2018-07-14T11:50:17Z</time>
      </trkpt>
      <trkpt lat="47.77701" lon="-3.57152">
        <ele>44</ele>
        <time>2018-07-14T11:50:18Z</time>
      </trkpt>
      <trkpt lat="47.77704" lon="-3.57152">
        <ele>44</ele>
        <time>2018-07-14T11:50:19Z</time>
      </trkpt>
      <trkpt lat="47.77706" lon="-3.57152">
        <ele>44</ele>
        <time>2018-07-14T11:50:20Z</time>
      </trkpt>
      <trkpt lat="47.77709" lon="-3.57151">
        <ele>44</ele>
        <time>2018-07-14T11:50:21Z</time>
      </trkpt>
      <trkpt lat="47.77712" lon="-3.5715">
        <ele>44</ele>
        <time>2018-07-14T11:50:22Z</time>
      </trkpt>
      <trkpt lat="47.77715" lon="-3.5715">
        <ele>44</ele>
        <time>2018-07-14T11:50:23Z</time>
      </trkpt>
      <trkpt lat="47.77719" lon="-3.57149">
        <ele>44</ele>
        <time>2018-07-14T11:50:24Z</time>
      </trkpt>
      <trkpt lat="47.77722" lon="-3.57148">
        <ele>44</ele>
        <time>2018-07-14T11:50:25Z</time>
      </trkpt>
      <trkpt lat="47.77725" lon="-3.57147">
        <ele>44</ele>
        <time>2018-07-14T11:50:26Z</time>
      </trkpt>
      <trkpt lat="47.77729" lon="-3.57147">
        <ele>44</ele>
        <time>2018-07-14T11:50:27Z</time>
      </trkpt>
      <trkpt lat="47.77732" lon="-3.57147">
        <ele>44</ele>
        <time>2018-07-14T11:50:28Z</time>
      </trkpt>
      <trkpt lat="47.77736" lon="-3.57147">
        <ele>44</ele>
        <time>2018-07-14T11:50:29Z</time>
      </trkpt>
      <trkpt lat="47.77741" lon="-3.57147">
        <ele>44</ele>
        <time>2018-07-14T11:50:30Z</time>
      </trkpt>
      <trkpt lat="47.77745" lon="-3.57146">
        <ele>44</ele>
        <time>2018-07-14T11:50:31Z</time>
      </trkpt>
      <trkpt lat="47.77749" lon="-3.57146">
        <ele>44</ele>
        <time>2018-07-14T11:50:32Z</time>
      </trkpt>
      <trkpt lat="47.77753" lon="-3.57145">
        <ele>44</ele>
        <time>2018-07-14T11:50:33Z</time>
      </trkpt>
      <trkpt lat="47.77757" lon="-3.57143">
        <ele>45</ele>
        <time>2018-07-14T11:50:34Z</time>
      </trkpt>
      <trkpt lat="47.77761" lon="-3.57142">
        <ele>45</ele>
        <time>2018-07-14T11:50:35Z</time>
      </trkpt>
      <trkpt lat="47.77764" lon="-3.5714">
        <ele>45</ele>
        <time>2018-07-14T11:50:36Z</time>
      </trkpt>
      <trkpt lat="47.77768" lon="-3.57138">
        <ele>45</ele>
        <time>2018-07-14T11:50:37Z</time>
      </trkpt>
      <trkpt lat="47.77771" lon="-3.57137">
        <ele>45</ele>
        <time>2018-07-14T11:50:38Z</time>
      </trkpt>
      <trkpt lat="47.77773" lon="-3.57137">
        <ele>45</ele>
        <time>2018-07-14T11:50:39Z</time>
      </trkpt>
      <trkpt lat="47.77775" lon="-3.57136">
        <ele>45</ele>
        <time>2018-07-14T11:50:40Z</time>
      </trkpt>
      <trkpt lat="47.77777" lon="-3.57136">
        <ele>45</ele>
        <time>2018-07-14T11:50:41Z</time>
      </trkpt>
      <trkpt lat="47.77779" lon="-3.57135">
        <ele>45</ele>
        <time>2018-07-14T11:50:42Z</time>
      </trkpt>
      <trkpt lat="47.77781" lon="-3.57133">
        <ele>45</ele>
        <time>2018-07-14T11:50:43Z</time>
      </trkpt>
      <trkpt lat="47.77784" lon="-3.57132">
        <ele>45</ele>
        <time>2018-07-14T11:50:44Z</time>
      </trkpt>
      <trkpt lat="47.77787" lon="-3.5713">
        <ele>45</ele>
        <time>2018-07-14T11:50:45Z</time>
      </trkpt>
      <trkpt lat="47.77789" lon="-3.57129">
        <ele>45</ele>
        <time>2018-07-14T11:50:46Z</time>
      </trkpt>
      <trkpt lat="47.77792" lon="-3.57127">
        <ele>45</ele>
        <time>2018-07-14T11:50:47Z</time>
      </trkpt>
      <trkpt lat="47.77794" lon="-3.57126">
        <ele>45</ele>
        <time>2018-07-14T11:50:48Z</time>
      </trkpt>
      <trkpt lat="47.77797" lon="-3.57124">
        <ele>45</ele>
        <time>2018-07-14T11:50:49Z</time>
      </trkpt>
      <trkpt lat="47.77799" lon="-3.57123">
        <ele>45</ele>
        <time>2018-07-14T11:50:50Z</time>
      </trkpt>
      <trkpt lat="47.77802" lon="-3.57121">
        <ele>45</ele>
        <time>2018-07-14T11:50:51Z</time>
      </trkpt>
      <trkpt lat="47.77805" lon="-3.57119">
        <ele>45</ele>
        <time>2018-07-14T11:50:52Z</time>
      </trkpt>
      <trkpt lat="47.77807" lon="-3.57117">
        <ele>46</ele>
        <time>2018-07-14T11:50:53Z</time>
      </trkpt>
      <trkpt lat="47.7781" lon="-3.57114">
        <ele>46</ele>
        <time>2018-07-14T11:50:54Z</time>
      </trkpt>
      <trkpt lat="47.77813" lon="-3.57112">
        <ele>46</ele>
        <time>2018-07-14T11:50:55Z</time>
      </trkpt>
      <trkpt lat="47.77815" lon="-3.57111">
        <ele>46</ele>
        <time>2018-07-14T11:50:56Z</time>
      </trkpt>
      <trkpt lat="47.77818" lon="-3.5711">
        <ele>46</ele>
        <time>2018-07-14T11:50:57Z</time>
      </trkpt>
      <trkpt lat="47.77821" lon="-3.57109">
        <ele>46</ele>
        <time>2018-07-14T11:50:58Z</time>
      </trkpt>
      <trkpt lat="47.77825" lon="-3.57107">
        <ele>46</ele>
        <time>2018-07-14T11:50:59Z</time>
      </trkpt>
      <trkpt lat="47.77828" lon="-3.57105">
        <ele>46</ele>
        <time>2018-07-14T11:51:00Z</time>
      </trkpt>
      <trkpt lat="47.77831" lon="-3.57103">
        <ele>47</ele>
        <time>2018-07-14T11:51:01Z</time>
      </trkpt>
      <trkpt lat="47.77834" lon="-3.57101">
        <ele>47</ele>
        <time>2018-07-14T11:51:02Z</time>
      </trkpt>
      <trkpt lat="47.77835" lon="-3.57098">
        <ele>47</ele>
        <time>2018-07-14T11:51:03Z</time>
      </trkpt>
      <trkpt lat="47.77838" lon="-3.57096">
        <ele>47</ele>
        <time>2018-07-14T11:51:04Z</time>
      </trkpt>
      <trkpt lat="47.77841" lon="-3.57094">
        <ele>48</ele>
        <time>2018-07-14T11:51:05Z</time>
      </trkpt>
      <trkpt lat="47.77844" lon="-3.57091">
        <ele>48</ele>
        <time>2018-07-14T11:51:06Z</time>
      </trkpt>
      <trkpt lat="47.77848" lon="-3.57088">
        <ele>48</ele>
        <time>2018-07-14T11:51:07Z</time>
      </trkpt>
      <trkpt lat="47.77851" lon="-3.57086">
        <ele>49</ele>
        <time>2018-07-14T11:51:08Z</time>
      </trkpt>
      <trkpt lat="47.77854" lon="-3.57084">
        <ele>49</ele>
        <time>2018-07-14T11:51:09Z</time>
      </trkpt>
      <trkpt lat="47.77858" lon="-3.57082">
        <ele>49</ele>
        <time>2018-07-14T11:51:10Z</time>
      </trkpt>
      <trkpt lat="47.77861" lon="-3.57081">
        <ele>49</ele>
        <time>2018-07-14T11:51:11Z</time>
      </trkpt>
      <trkpt lat="47.77865" lon="-3.57079">
        <ele>49</ele>
        <time>2018-07-14T11:51:12Z</time>
      </trkpt>
      <trkpt lat="47.77868" lon="-3.57077">
        <ele>49</ele>
        <time>2018-07-14T11:51:13Z</time>
      </trkpt>
      <trkpt lat="47.77871" lon="-3.57075">
        <ele>50</ele>
        <time>2018-07-14T11:51:14Z</time>
      </trkpt>
      <trkpt lat="47.77875" lon="-3.57073">
        <ele>50</ele>
        <time>2018-07-14T11:51:15Z</time>
      </trkpt>
      <trkpt lat="47.7788" lon="-3.57072">
        <ele>50</ele>
        <time>2018-07-14T11:51:16Z</time>
      </trkpt>
      <trkpt lat="47.77883" lon="-3.57071">
        <ele>50</ele>
        <time>2018-07-14T11:51:17Z</time>
      </trkpt>
      <trkpt lat="47.77887" lon="-3.5707">
        <ele>50</ele>
        <time>2018-07-14T11:51:18Z</time>
      </trkpt>
      <trkpt lat="47.77891" lon="-3.5707">
        <ele>50</ele>
        <time>2018-07-14T11:51:19Z</time>
      </trkpt>
      <trkpt lat="47.77895" lon="-3.5707">
        <ele>50</ele>
        <time>2018-07-14T11:51:20Z</time>
      </trkpt>
      <trkpt lat="47.77899" lon="-3.57069">
        <ele>50</ele>
        <time>2018-07-14T11:51:21Z</time>
      </trkpt>
      <trkpt lat="47.77904" lon="-3.57068">
        <ele>50</ele>
        <time>2018-07-14T11:51:22Z</time>
      </trkpt>
      <trkpt lat="47.77909" lon="-3.57067">
        <ele>50</ele>
        <time>2018-07-14T11:51:23Z</time>
      </trkpt>
      <trkpt lat="47.77913" lon="-3.57066">
        <ele>50</ele>
        <time>2018-07-14T11:51:24Z</time>
      </trkpt>
      <trkpt lat="47.77917" lon="-3.57065">
        <ele>50</ele>
        <time>2018-07-14T11:51:25Z</time>
      </trkpt>
      <trkpt lat="47.77922" lon="-3.57064">
        <ele>50</ele>
        <time>2018-07-14T11:51:26Z</time>
      </trkpt>
      <trkpt lat="47.77926" lon="-3.57063">
        <ele>50</ele>
        <time>2018-07-14T11:51:27Z</time>
      </trkpt>
      <trkpt lat="47.77931" lon="-3.57062">
        <ele>50</ele>
        <time>2018-07-14T11:51:28Z</time>
      </trkpt>
      <trkpt lat="47.77936" lon="-3.57061">
        <ele>50</ele>
        <time>2018-07-14T11:51:29Z</time>
      </trkpt>
      <trkpt lat="47.77941" lon="-3.57061">
        <ele>50</ele>
        <time>2018-07-14T11:51:30Z</time>
      </trkpt>
      <trkpt lat="47.77946" lon="-3.57061">
        <ele>51</ele>
        <time>2018-07-14T11:51:31Z</time>
      </trkpt>
      <trkpt lat="47.7795" lon="-3.57062">
        <ele>51</ele>
        <time>2018-07-14T11:51:32Z</time>
      </trkpt>
      <trkpt lat="47.77956" lon="-3.57063">
        <ele>51</ele>
        <time>2018-07-14T11:51:33Z</time>
      </trkpt>
      <trkpt lat="47.7796" lon="-3.57063">
        <ele>51</ele>
        <time>2018-07-14T11:51:34Z</time>
      </trkpt>
      <trkpt lat="47.77965" lon="-3.57064">
        <ele>51</ele>
        <time>2018-07-14T11:51:35Z</time>
      </trkpt>
      <trkpt lat="47.7797" lon="-3.57066">
        <ele>52</ele>
        <time>2018-07-14T11:51:36Z</time>
      </trkpt>
      <trkpt lat="47.77975" lon="-3.57067">
        <ele>52</ele>
        <time>2018-07-14T11:51:37Z</time>
      </trkpt>
      <trkpt lat="47.77979" lon="-3.57069">
        <ele>52</ele>
        <time>2018-07-14T11:51:38Z</time>
      </trkpt>
      <trkpt lat="47.77984" lon="-3.57071">
        <ele>52</ele>
        <time>2018-07-14T11:51:39Z</time>
      </trkpt>
      <trkpt lat="47.77988" lon="-3.57073">
        <ele>52</ele>
        <time>2018-07-14T11:51:40Z</time>
      </trkpt>
      <trkpt lat="47.77993" lon="-3.57076">
        <ele>52</ele>
        <time>2018-07-14T11:51:41Z</time>
      </trkpt>
      <trkpt lat="47.77997" lon="-3.57078">
        <ele>52</ele>
        <time>2018-07-14T11:51:42Z</time>
      </trkpt>
      <trkpt lat="47.78001" lon="-3.57081">
        <ele>53</ele>
        <time>2018-07-14T11:51:43Z</time>
      </trkpt>
      <trkpt lat="47.78006" lon="-3.57084">
        <ele>53</ele>
        <time>2018-07-14T11:51:44Z</time>
      </trkpt>
      <trkpt lat="47.7801" lon="-3.57087">
        <ele>53</ele>
        <time>2018-07-14T11:51:45Z</time>
      </trkpt>
      <trkpt lat="47.78014" lon="-3.5709">
        <ele>53</ele>
        <time>2018-07-14T11:51:46Z</time>
      </trkpt>
      <trkpt lat="47.78018" lon="-3.57093">
        <ele>53</ele>
        <time>2018-07-14T11:51:47Z</time>
      </trkpt>
      <trkpt lat="47.78022" lon="-3.57096">
        <ele>53</ele>
        <time>2018-07-14T11:51:48Z</time>
      </trkpt>
      <trkpt lat="47.78027" lon="-3.57099">
        <ele>53</ele>
        <time>2018-07-14T11:51:49Z</time>
      </trkpt>
      <trkpt lat="47.78031" lon="-3.57101">
        <ele>52</ele>
        <time>2018-07-14T11:51:50Z</time>
      </trkpt>
      <trkpt lat="47.78036" lon="-3.57103">
        <ele>52</ele>
        <time>2018-07-14T11:51:51Z</time>
      </trkpt>
      <trkpt lat="47.7804" lon="-3.57105">
        <ele>52</ele>
        <time>2018-07-14T11:51:52Z</time>
      </trkpt>
      <trkpt lat="47.78045" lon="-3.57107">
        <ele>52</ele>
        <time>2018-07-14T11:51:53Z</time>
      </trkpt>
      <trkpt lat="47.78049" lon="-3.57109">
        <ele>52</ele>
        <time>2018-07-14T11:51:54Z</time>
      </trkpt>
      <trkpt lat="47.78053" lon="-3.57111">
        <ele>52</ele>
        <time>2018-07-14T11:51:55Z</time>
      </trkpt>
      <trkpt lat="47.78056" lon="-3.57113">
        <ele>52</ele>
        <time>2018-07-14T11:51:56Z</time>
      </trkpt>
      <trkpt lat="47.7806" lon="-3.57115">
        <ele>52</ele>
        <time>2018-07-14T11:51:57Z</time>
      </trkpt>
      <trkpt lat="47.78062" lon="-3.57118">
        <ele>52</ele>
        <time>2018-07-14T11:51:58Z</time>
      </trkpt>
      <trkpt lat="47.78066" lon="-3.5712">
        <ele>52</ele>
        <time>2018-07-14T11:51:59Z</time>
      </trkpt>
      <trkpt lat="47.7807" lon="-3.57122">
        <ele>52</ele>
        <time>2018-07-14T11:52:00Z</time>
      </trkpt>
      <trkpt lat="47.78074" lon="-3.57124">
        <ele>52</ele>
        <time>2018-07-14T11:52:01Z</time>
      </trkpt>
      <trkpt lat="47.78077" lon="-3.57127">
        <ele>52</ele>
        <time>2018-07-14T11:52:02Z</time>
      </trkpt>
      <trkpt lat="47.78081" lon="-3.5713">
        <ele>52</ele>
        <time>2018-07-14T11:52:03Z</time>
      </trkpt>
      <trkpt lat="47.78085" lon="-3.57133">
        <ele>52</ele>
        <time>2018-07-14T11:52:04Z</time>
      </trkpt>
      <trkpt lat="47.78089" lon="-3.57136">
        <ele>52</ele>
        <time>2018-07-14T11:52:05Z</time>
      </trkpt>
      <trkpt lat="47.78093" lon="-3.57139">
        <ele>52</ele>
        <time>2018-07-14T11:52:06Z</time>
      </trkpt>
      <trkpt lat="47.78096" lon="-3.57142">
        <ele>52</ele>
        <time>2018-07-14T11:52:07Z</time>
      </trkpt>
      <trkpt lat="47.78099" lon="-3.57145">
        <ele>52</ele>
        <time>2018-07-14T11:52:08Z</time>
      </trkpt>
      <trkpt lat="47.78102" lon="-3.57148">
        <ele>52</ele>
        <time>2018-07-14T11:52:09Z</time>
      </trkpt>
      <trkpt lat="47.78104" lon="-3.57151">
        <ele>52</ele>
        <time>2018-07-14T11:52:10Z</time>
      </trkpt>
      <trkpt lat="47.78107" lon="-3.57153">
        <ele>52</ele>
        <time>2018-07-14T11:52:11Z</time>
      </trkpt>
      <trkpt lat="47.7811" lon="-3.57154">
        <ele>52</ele>
        <time>2018-07-14T11:52:12Z</time>
      </trkpt>
      <trkpt lat="47.78113" lon="-3.57153">
        <ele>52</ele>
        <time>2018-07-14T11:52:13Z</time>
      </trkpt>
      <trkpt lat="47.78115" lon="-3.57149">
        <ele>52</ele>
        <time>2018-07-14T11:52:14Z</time>
      </trkpt>
      <trkpt lat="47.78117" lon="-3.57145">
        <ele>52</ele>
        <time>2018-07-14T11:52:15Z</time>
      </trkpt>
      <trkpt lat="47.78119" lon="-3.5714">
        <ele>52</ele>
        <time>2018-07-14T11:52:16Z</time>
      </trkpt>
      <trkpt lat="47.78121" lon="-3.57135">
        <ele>52</ele>
        <time>2018-07-14T11:52:17Z</time>
      </trkpt>
      <trkpt lat="47.78124" lon="-3.5713">
        <ele>52</ele>
        <time>2018-07-14T11:52:18Z</time>
      </trkpt>
      <trkpt lat="47.78127" lon="-3.57125">
        <ele>52</ele>
        <time>2018-07-14T11:52:19Z</time>
      </trkpt>
      <trkpt lat="47.78129" lon="-3.5712">
        <ele>52</ele>
        <time>2018-07-14T11:52:20Z</time>
      </trkpt>
      <trkpt lat="47.78132" lon="-3.57115">
        <ele>53</ele>
        <time>2018-07-14T11:52:21Z</time>
      </trkpt>
      <trkpt lat="47.78135" lon="-3.5711">
        <ele>53</ele>
        <time>2018-07-14T11:52:22Z</time>
      </trkpt>
      <trkpt lat="47.78138" lon="-3.57104">
        <ele>53</ele>
        <time>2018-07-14T11:52:23Z</time>
      </trkpt>
      <trkpt lat="47.78141" lon="-3.57099">
        <ele>53</ele>
        <time>2018-07-14T11:52:24Z</time>
      </trkpt>
      <trkpt lat="47.78143" lon="-3.57093">
        <ele>53</ele>
        <time>2018-07-14T11:52:25Z</time>
      </trkpt>
      <trkpt lat="47.78146" lon="-3.57088">
        <ele>53</ele>
        <time>2018-07-14T11:52:26Z</time>
      </trkpt>
      <trkpt lat="47.78149" lon="-3.57083">
        <ele>53</ele>
        <time>2018-07-14T11:52:27Z</time>
      </trkpt>
      <trkpt lat="47.78152" lon="-3.57077">
        <ele>53</ele>
        <time>2018-07-14T11:52:28Z</time>
      </trkpt>
      <trkpt lat="47.78155" lon="-3.57072">
        <ele>53</ele>
        <time>2018-07-14T11:52:29Z</time>
      </trkpt>
      <trkpt lat="47.78158" lon="-3.57067">
        <ele>54</ele>
        <time>2018-07-14T11:52:30Z</time>
      </trkpt>
      <trkpt lat="47.78161" lon="-3.57061">
        <ele>54</ele>
        <time>2018-07-14T11:52:31Z</time>
      </trkpt>
      <trkpt lat="47.78164" lon="-3.57055">
        <ele>54</ele>
        <time>2018-07-14T11:52:32Z</time>
      </trkpt>
      <trkpt lat="47.78167" lon="-3.5705">
        <ele>54</ele>
        <time>2018-07-14T11:52:33Z</time>
      </trkpt>
      <trkpt lat="47.7817" lon="-3.57045">
        <ele>54</ele>
        <time>2018-07-14T11:52:34Z</time>
      </trkpt>
      <trkpt lat="47.78172" lon="-3.57041">
        <ele>54</ele>
        <time>2018-07-14T11:52:35Z</time>
      </trkpt>
      <trkpt lat="47.78175" lon="-3.57036">
        <ele>54</ele>
        <time>2018-07-14T11:52:36Z</time>
      </trkpt>
      <trkpt lat="47.78176" lon="-3.57031">
        <ele>54</ele>
        <time>2018-07-14T11:52:37Z</time>
      </trkpt>
      <trkpt lat="47.78176" lon="-3.57027">
        <ele>54</ele>
        <time>2018-07-14T11:52:38Z</time>
      </trkpt>
      <trkpt lat="47.78174" lon="-3.57023">
        <ele>55</ele>
        <time>2018-07-14T11:52:39Z</time>
      </trkpt>
      <trkpt lat="47.78171" lon="-3.5702">
        <ele>55</ele>
        <time>2018-07-14T11:52:40Z</time>
      </trkpt>
      <trkpt lat="47.78167" lon="-3.57016">
        <ele>55</ele>
        <time>2018-07-14T11:52:41Z</time>
      </trkpt>
      <trkpt lat="47.78163" lon="-3.57013">
        <ele>55</ele>
        <time>2018-07-14T11:52:42Z</time>
      </trkpt>
      <trkpt lat="47.78159" lon="-3.5701">
        <ele>55</ele>
        <time>2018-07-14T11:52:43Z</time>
      </trkpt>
      <trkpt lat="47.78155" lon="-3.57006">
        <ele>55</ele>
        <time>2018-07-14T11:52:44Z</time>
      </trkpt>
      <trkpt lat="47.7815" lon="-3.57003">
        <ele>55</ele>
        <time>2018-07-14T11:52:45Z</time>
      </trkpt>
      <trkpt lat="47.78146" lon="-3.56999">
        <ele>55</ele>
        <time>2018-07-14T11:52:46Z</time>
      </trkpt>
      <trkpt lat="47.78141" lon="-3.56995">
        <ele>55</ele>
        <time>2018-07-14T11:52:47Z</time>
      </trkpt>
      <trkpt lat="47.78136" lon="-3.56992">
        <ele>55</ele>
        <time>2018-07-14T11:52:48Z</time>
      </trkpt>
      <trkpt lat="47.78131" lon="-3.56988">
        <ele>55</ele>
        <time>2018-07-14T11:52:49Z</time>
      </trkpt>
      <trkpt lat="47.78126" lon="-3.56984">
        <ele>55</ele>
        <time>2018-07-14T11:52:50Z</time>
      </trkpt>
      <trkpt lat="47.78121" lon="-3.5698">
        <ele>55</ele>
        <time>2018-07-14T11:52:51Z</time>
      </trkpt>
      <trkpt lat="47.78115" lon="-3.56976">
        <ele>55</ele>
        <time>2018-07-14T11:52:52Z</time>
      </trkpt>
      <trkpt lat="47.7811" lon="-3.56972">
        <ele>55</ele>
        <time>2018-07-14T11:52:53Z</time>
      </trkpt>
      <trkpt lat="47.78105" lon="-3.56969">
        <ele>55</ele>
        <time>2018-07-14T11:52:54Z</time>
      </trkpt>
      <trkpt lat="47.781" lon="-3.56965">
        <ele>55</ele>
        <time>2018-07-14T11:52:55Z</time>
      </trkpt>
      <trkpt lat="47.78095" lon="-3.56961">
        <ele>55</ele>
        <time>2018-07-14T11:52:56Z</time>
      </trkpt>
      <trkpt lat="47.78089" lon="-3.56957">
        <ele>55</ele>
        <time>2018-07-14T11:52:57Z</time>
      </trkpt>
      <trkpt lat="47.78084" lon="-3.56953">
        <ele>55</ele>
        <time>2018-07-14T11:52:58Z</time>
      </trkpt>
      <trkpt lat="47.78079" lon="-3.56949">
        <ele>55</ele>
        <time>2018-07-14T11:52:59Z</time>
      </trkpt>
      <trkpt lat="47.78073" lon="-3.56945">
        <ele>55</ele>
        <time>2018-07-14T11:53:00Z</time>
      </trkpt>
      <trkpt lat="47.78068" lon="-3.56941">
        <ele>55</ele>
        <time>2018-07-14T11:53:01Z</time>
      </trkpt>
      <trkpt lat="47.78062" lon="-3.56937">
        <ele>55</ele>
        <time>2018-07-14T11:53:02Z</time>
      </trkpt>
      <trkpt lat="47.78056" lon="-3.56933">
        <ele>55</ele>
        <time>2018-07-14T11:53:03Z</time>
      </trkpt>
      <trkpt lat="47.78051" lon="-3.56929">
        <ele>55</ele>
        <time>2018-07-14T11:53:04Z</time>
      </trkpt>
      <trkpt lat="47.78045" lon="-3.56925">
        <ele>55</ele>
        <time>2018-07-14T11:53:05Z</time>
      </trkpt>
      <trkpt lat="47.78039" lon="-3.5692">
        <ele>55</ele>
        <time>2018-07-14T11:53:06Z</time>
      </trkpt>
      <trkpt lat="47.78034" lon="-3.56916">
        <ele>55</ele>
        <time>2018-07-14T11:53:07Z</time>
      </trkpt>
      <trkpt lat="47.78028" lon="-3.56911">
        <ele>55</ele>
        <time>2018-07-14T11:53:08Z</time>
      </trkpt>
      <trkpt lat="47.78022" lon="-3.56907">
        <ele>55</ele>
        <time>2018-07-14T11:53:09Z</time>
      </trkpt>
      <trkpt lat="47.78016" lon="-3.56903">
        <ele>55</ele>
        <time>2018-07-14T11:53:10Z</time>
      </trkpt>
      <trkpt lat="47.7801" lon="-3.56899">
        <ele>55</ele>
        <time>2018-07-14T11:53:11Z</time>
      </trkpt>
      <trkpt lat="47.78005" lon="-3.56894">
        <ele>55</ele>
        <time>2018-07-14T11:53:12Z</time>
      </trkpt>
      <trkpt lat="47.77999" lon="-3.5689">
        <ele>55</ele>
        <time>2018-07-14T11:53:13Z</time>
      </trkpt>
      <trkpt lat="47.77993" lon="-3.56885">
        <ele>55</ele>
        <time>2018-07-14T11:53:14Z</time>
      </trkpt>
      <trkpt lat="47.77987" lon="-3.5688">
        <ele>55</ele>
        <time>2018-07-14T11:53:15Z</time>
      </trkpt>
      <trkpt lat="47.77982" lon="-3.56874">
        <ele>55</ele>
        <time>2018-07-14T11:53:16Z</time>
      </trkpt>
      <trkpt lat="47.77976" lon="-3.56869">
        <ele>55</ele>
        <time>2018-07-14T11:53:17Z</time>
      </trkpt>
      <trkpt lat="47.7797" lon="-3.56864">
        <ele>54</ele>
        <time>2018-07-14T11:53:18Z</time>
      </trkpt>
      <trkpt lat="47.77964" lon="-3.56858">
        <ele>54</ele>
        <time>2018-07-14T11:53:19Z</time>
      </trkpt>
      <trkpt lat="47.77958" lon="-3.56853">
        <ele>54</ele>
        <time>2018-07-14T11:53:20Z</time>
      </trkpt>
      <trkpt lat="47.77953" lon="-3.56847">
        <ele>54</ele>
        <time>2018-07-14T11:53:21Z</time>
      </trkpt>
      <trkpt lat="47.77947" lon="-3.56841">
        <ele>54</ele>
        <time>2018-07-14T11:53:22Z</time>
      </trkpt>
      <trkpt lat="47.77942" lon="-3.56834">
        <ele>54</ele>
        <time>2018-07-14T11:53:23Z</time>
      </trkpt>
      <trkpt lat="47.77936" lon="-3.56828">
        <ele>54</ele>
        <time>2018-07-14T11:53:24Z</time>
      </trkpt>
      <trkpt lat="47.77931" lon="-3.56822">
        <ele>54</ele>
        <time>2018-07-14T11:53:25Z</time>
      </trkpt>
      <trkpt lat="47.77925" lon="-3.56815">
        <ele>54</ele>
        <time>2018-07-14T11:53:26Z</time>
      </trkpt>
      <trkpt lat="47.7792" lon="-3.56809">
        <ele>54</ele>
        <time>2018-07-14T11:53:27Z</time>
      </trkpt>
      <trkpt lat="47.77914" lon="-3.56802">
        <ele>54</ele>
        <time>2018-07-14T11:53:28Z</time>
      </trkpt>
      <trkpt lat="47.7791" lon="-3.56795">
        <ele>53</ele>
        <time>2018-07-14T11:53:29Z</time>
      </trkpt>
      <trkpt lat="47.77905" lon="-3.56789">
        <ele>53</ele>
        <time>2018-07-14T11:53:30Z</time>
      </trkpt>
      <trkpt lat="47.779" lon="-3.56782">
        <ele>53</ele>
        <time>2018-07-14T11:53:31Z</time>
      </trkpt>
      <trkpt lat="47.77896" lon="-3.56775">
        <ele>53</ele>
        <time>2018-07-14T11:53:32Z</time>
      </trkpt>
      <trkpt lat="47.77893" lon="-3.56768">
        <ele>53</ele>
        <time>2018-07-14T11:53:33Z</time>
      </trkpt>
      <trkpt lat="47.77891" lon="-3.56759">
        <ele>53</ele>
        <time>2018-07-14T11:53:34Z</time>
      </trkpt>
      <trkpt lat="47.77892" lon="-3.56751">
        <ele>53</ele>
        <time>2018-07-14T11:53:35Z</time>
      </trkpt>
      <trkpt lat="47.77895" lon="-3.56744">
        <ele>53</ele>
        <time>2018-07-14T11:53:36Z</time>
      </trkpt>
      <trkpt lat="47.77898" lon="-3.56739">
        <ele>53</ele>
        <time>2018-07-14T11:53:37Z</time>
      </trkpt>
      <trkpt lat="47.77903" lon="-3.56737">
        <ele>53</ele>
        <time>2018-07-14T11:53:38Z</time>
      </trkpt>
      <trkpt lat="47.77907" lon="-3.56738">
        <ele>53</ele>
        <time>2018-07-14T11:53:39Z</time>
      </trkpt>
      <trkpt lat="47.77912" lon="-3.5674">
        <ele>53</ele>
        <time>2018-07-14T11:53:40Z</time>
      </trkpt>
      <trkpt lat="47.77916" lon="-3.56743">
        <ele>53</ele>
        <time>2018-07-14T11:53:41Z</time>
      </trkpt>
      <trkpt lat="47.7792" lon="-3.56746">
        <ele>53</ele>
        <time>2018-07-14T11:53:42Z</time>
      </trkpt>
      <trkpt lat="47.77925" lon="-3.56749">
        <ele>53</ele>
        <time>2018-07-14T11:53:43Z</time>
      </trkpt>
      <trkpt lat="47.77929" lon="-3.56752">
        <ele>53</ele>
        <time>2018-07-14T11:53:44Z</time>
      </trkpt>
      <trkpt lat="47.77934" lon="-3.56754">
        <ele>54</ele>
        <time>2018-07-14T11:53:45Z</time>
      </trkpt>
      <trkpt lat="47.77939" lon="-3.56757">
        <ele>54</ele>
        <time>2018-07-14T11:53:46Z</time>
      </trkpt>
      <trkpt lat="47.77943" lon="-3.56759">
        <ele>54</ele>
        <time>2018-07-14T11:53:47Z</time>
      </trkpt>
      <trkpt lat="47.77947" lon="-3.56761">
        <ele>54</ele>
        <time>2018-07-14T11:53:48Z</time>
      </trkpt>
      <trkpt lat="47.77952" lon="-3.56763">
        <ele>54</ele>
        <time>2018-07-14T11:53:49Z</time>
      </trkpt>
      <trkpt lat="47.77957" lon="-3.56765">
        <ele>54</ele>
        <time>2018-07-14T11:53:50Z</time>
      </trkpt>
      <trkpt lat="47.77961" lon="-3.56767">
        <ele>54</ele>
        <time>2018-07-14T11:53:51Z</time>
      </trkpt>
      <trkpt lat="47.77966" lon="-3.56768">
        <ele>54</ele>
        <time>2018-07-14T11:53:52Z</time>
      </trkpt>
      <trkpt lat="47.77971" lon="-3.56769">
        <ele>55</ele>
        <time>2018-07-14T11:53:53Z</time>
      </trkpt>
      <trkpt lat="47.77976" lon="-3.5677">
        <ele>55</ele>
        <time>2018-07-14T11:53:54Z</time>
      </trkpt>
      <trkpt lat="47.77981" lon="-3.56771">
        <ele>55</ele>
        <time>2018-07-14T11:53:55Z</time>
      </trkpt>
      <trkpt lat="47.77986" lon="-3.56772">
        <ele>55</ele>
        <time>2018-07-14T11:53:56Z</time>
      </trkpt>
      <trkpt lat="47.77991" lon="-3.56773">
        <ele>55</ele>
        <time>2018-07-14T11:53:57Z</time>
      </trkpt>
      <trkpt lat="47.77996" lon="-3.56774">
        <ele>55</ele>
        <time>2018-07-14T11:53:58Z</time>
      </trkpt>
      <trkpt lat="47.78001" lon="-3.56775">
        <ele>56</ele>
        <time>2018-07-14T11:53:59Z</time>
      </trkpt>
      <trkpt lat="47.78006" lon="-3.56776">
        <ele>56</ele>
        <time>2018-07-14T11:54:00Z</time>
      </trkpt>
      <trkpt lat="47.78011" lon="-3.56778">
        <ele>56</ele>
        <time>2018-07-14T11:54:01Z</time>
      </trkpt>
      <trkpt lat="47.78016" lon="-3.56779">
        <ele>56</ele>
        <time>2018-07-14T11:54:02Z</time>
      </trkpt>
      <trkpt lat="47.78021" lon="-3.5678">
        <ele>56</ele>
        <time>2018-07-14T11:54:03Z</time>
      </trkpt>
      <trkpt lat="47.78026" lon="-3.56781">
        <ele>56</ele>
        <time>2018-07-14T11:54:04Z</time>
      </trkpt>
      <trkpt lat="47.78032" lon="-3.56782">
        <ele>56</ele>
        <time>2018-07-14T11:54:05Z</time>
      </trkpt>
      <trkpt lat="47.78037" lon="-3.56783">
        <ele>56</ele>
        <time>2018-07-14T11:54:06Z</time>
      </trkpt>
      <trkpt lat="47.78042" lon="-3.56784">
        <ele>56</ele>
        <time>2018-07-14T11:54:07Z</time>
      </trkpt>
      <trkpt lat="47.78047" lon="-3.56785">
        <ele>56</ele>
        <time>2018-07-14T11:54:08Z</time>
      </trkpt>
      <trkpt lat="47.78052" lon="-3.56786">
        <ele>56</ele>
        <time>2018-07-14T11:54:09Z</time>
      </trkpt>
      <trkpt lat="47.78058" lon="-3.56788">
        <ele>57</ele>
        <time>2018-07-14T11:54:10Z</time>
      </trkpt>
      <trkpt lat="47.78063" lon="-3.56788">
        <ele>57</ele>
        <time>2018-07-14T11:54:11Z</time>
      </trkpt>
      <trkpt lat="47.78068" lon="-3.56789">
        <ele>57</ele>
        <time>2018-07-14T11:54:12Z</time>
      </trkpt>
      <trkpt lat="47.78074" lon="-3.56791">
        <ele>57</ele>
        <time>2018-07-14T11:54:13Z</time>
      </trkpt>
      <trkpt lat="47.78079" lon="-3.56792">
        <ele>57</ele>
        <time>2018-07-14T11:54:14Z</time>
      </trkpt>
      <trkpt lat="47.78084" lon="-3.56794">
        <ele>57</ele>
        <time>2018-07-14T11:54:15Z</time>
      </trkpt>
      <trkpt lat="47.7809" lon="-3.56796">
        <ele>57</ele>
        <time>2018-07-14T11:54:16Z</time>
      </trkpt>
      <trkpt lat="47.78095" lon="-3.56799">
        <ele>58</ele>
        <time>2018-07-14T11:54:17Z</time>
      </trkpt>
      <trkpt lat="47.781" lon="-3.56801">
        <ele>58</ele>
        <time>2018-07-14T11:54:18Z</time>
      </trkpt>
      <trkpt lat="47.78105" lon="-3.56804">
        <ele>58</ele>
        <time>2018-07-14T11:54:19Z</time>
      </trkpt>
      <trkpt lat="47.7811" lon="-3.56807">
        <ele>58</ele>
        <time>2018-07-14T11:54:20Z</time>
      </trkpt>
      <trkpt lat="47.78116" lon="-3.56811">
        <ele>58</ele>
        <time>2018-07-14T11:54:21Z</time>
      </trkpt>
      <trkpt lat="47.7812" lon="-3.56813">
        <ele>58</ele>
        <time>2018-07-14T11:54:22Z</time>
      </trkpt>
      <trkpt lat="47.78126" lon="-3.56816">
        <ele>58</ele>
        <time>2018-07-14T11:54:23Z</time>
      </trkpt>
      <trkpt lat="47.78131" lon="-3.56818">
        <ele>58</ele>
        <time>2018-07-14T11:54:24Z</time>
      </trkpt>
      <trkpt lat="47.78136" lon="-3.56819">
        <ele>58</ele>
        <time>2018-07-14T11:54:25Z</time>
      </trkpt>
      <trkpt lat="47.78141" lon="-3.56819">
        <ele>58</ele>
        <time>2018-07-14T11:54:26Z</time>
      </trkpt>
      <trkpt lat="47.78145" lon="-3.56819">
        <ele>58</ele>
        <time>2018-07-14T11:54:27Z</time>
      </trkpt>
      <trkpt lat="47.78148" lon="-3.56818">
        <ele>58</ele>
        <time>2018-07-14T11:54:28Z</time>
      </trkpt>
      <trkpt lat="47.78151" lon="-3.56817">
        <ele>58</ele>
        <time>2018-07-14T11:54:29Z</time>
      </trkpt>
      <trkpt lat="47.78153" lon="-3.56817">
        <ele>58</ele>
        <time>2018-07-14T11:54:30Z</time>
      </trkpt>
      <trkpt lat="47.78155" lon="-3.56817">
        <ele>58</ele>
        <time>2018-07-14T11:54:31Z</time>
      </trkpt>
      <trkpt lat="47.78157" lon="-3.56818">
        <ele>58</ele>
        <time>2018-07-14T11:54:32Z</time>
      </trkpt>
      <trkpt lat="47.7816" lon="-3.56818">
        <ele>59</ele>
        <time>2018-07-14T11:54:33Z</time>
      </trkpt>
      <trkpt lat="47.78163" lon="-3.56817">
        <ele>59</ele>
        <time>2018-07-14T11:54:34Z</time>
      </trkpt>
      <trkpt lat="47.78165" lon="-3.56813">
        <ele>59</ele>
        <time>2018-07-14T11:54:35Z</time>
      </trkpt>
      <trkpt lat="47.78168" lon="-3.56808">
        <ele>59</ele>
        <time>2018-07-14T11:54:36Z</time>
      </trkpt>
      <trkpt lat="47.7817" lon="-3.56802">
        <ele>59</ele>
        <time>2018-07-14T11:54:37Z</time>
      </trkpt>
      <trkpt lat="47.78173" lon="-3.56797">
        <ele>59</ele>
        <time>2018-07-14T11:54:38Z</time>
      </trkpt>
      <trkpt lat="47.78175" lon="-3.5679">
        <ele>59</ele>
        <time>2018-07-14T11:54:39Z</time>
      </trkpt>
      <trkpt lat="47.78177" lon="-3.56782">
        <ele>59</ele>
        <time>2018-07-14T11:54:40Z</time>
      </trkpt>
      <trkpt lat="47.7818" lon="-3.56775">
        <ele>58</ele>
        <time>2018-07-14T11:54:41Z</time>
      </trkpt>
      <trkpt lat="47.78182" lon="-3.56767">
        <ele>58</ele>
        <time>2018-07-14T11:54:42Z</time>
      </trkpt>
      <trkpt lat="47.78184" lon="-3.56759">
        <ele>58</ele>
        <time>2018-07-14T11:54:43Z</time>
      </trkpt>
      <trkpt lat="47.78185" lon="-3.5675">
        <ele>57</ele>
        <time>2018-07-14T11:54:44Z</time>
      </trkpt>
      <trkpt lat="47.78186" lon="-3.56742">
        <ele>57</ele>
        <time>2018-07-14T11:54:45Z</time>
      </trkpt>
      <trkpt lat="47.78188" lon="-3.56733">
        <ele>57</ele>
        <time>2018-07-14T11:54:46Z</time>
      </trkpt>
      <trkpt lat="47.78189" lon="-3.56725">
        <ele>56</ele>
        <time>2018-07-14T11:54:47Z</time>
      </trkpt>
      <trkpt lat="47.7819" lon="-3.56716">
        <ele>56</ele>
        <time>2018-07-14T11:54:48Z</time>
      </trkpt>
      <trkpt lat="47.78192" lon="-3.56709">
        <ele>56</ele>
        <time>2018-07-14T11:54:49Z</time>
      </trkpt>
      <trkpt lat="47.78193" lon="-3.56701">
        <ele>55</ele>
        <time>2018-07-14T11:54:50Z</time>
      </trkpt>
      <trkpt lat="47.78195" lon="-3.56693">
        <ele>55</ele>
        <time>2018-07-14T11:54:51Z</time>
      </trkpt>
      <trkpt lat="47.78196" lon="-3.56686">
        <ele>55</ele>
        <time>2018-07-14T11:54:52Z</time>
      </trkpt>
      <trkpt lat="47.78198" lon="-3.56679">
        <ele>55</ele>
        <time>2018-07-14T11:54:53Z</time>
      </trkpt>
      <trkpt lat="47.782" lon="-3.56671">
        <ele>55</ele>
        <time>2018-07-14T11:54:54Z</time>
      </trkpt>
      <trkpt lat="47.78201" lon="-3.56663">
        <ele>55</ele>
        <time>2018-07-14T11:54:55Z</time>
      </trkpt>
      <trkpt lat="47.78203" lon="-3.56655">
        <ele>55</ele>
        <time>2018-07-14T11:54:56Z</time>
      </trkpt>
      <trkpt lat="47.78204" lon="-3.56647">
        <ele>55</ele>
        <time>2018-07-14T11:54:57Z</time>
      </trkpt>
      <trkpt lat="47.78205" lon="-3.5664">
        <ele>55</ele>
        <time>2018-07-14T11:54:58Z</time>
      </trkpt>
      <trkpt lat="47.78206" lon="-3.56633">
        <ele>55</ele>
        <time>2018-07-14T11:54:59Z</time>
      </trkpt>
      <trkpt lat="47.78207" lon="-3.56627">
        <ele>55</ele>
        <time>2018-07-14T11:55:00Z</time>
      </trkpt>
      <trkpt lat="47.78209" lon="-3.56621">
        <ele>55</ele>
        <time>2018-07-14T11:55:01Z</time>
      </trkpt>
      <trkpt lat="47.78209" lon="-3.56615">
        <ele>55</ele>
        <time>2018-07-14T11:55:02Z</time>
      </trkpt>
      <trkpt lat="47.7821" lon="-3.56609">
        <ele>54</ele>
        <time>2018-07-14T11:55:03Z</time>
      </trkpt>
      <trkpt lat="47.7821" lon="-3.56601">
        <ele>54</ele>
        <time>2018-07-14T11:55:04Z</time>
      </trkpt>
      <trkpt lat="47.7821" lon="-3.56593">
        <ele>54</ele>
        <time>2018-07-14T11:55:05Z</time>
      </trkpt>
      <trkpt lat="47.7821" lon="-3.56585">
        <ele>54</ele>
        <time>2018-07-14T11:55:06Z</time>
      </trkpt>
      <trkpt lat="47.78211" lon="-3.56577">
        <ele>54</ele>
        <time>2018-07-14T11:55:07Z</time>
      </trkpt>
      <trkpt lat="47.78212" lon="-3.56569">
        <ele>54</ele>
        <time>2018-07-14T11:55:08Z</time>
      </trkpt>
      <trkpt lat="47.78213" lon="-3.56562">
        <ele>54</ele>
        <time>2018-07-14T11:55:09Z</time>
      </trkpt>
      <trkpt lat="47.78215" lon="-3.56554">
        <ele>54</ele>
        <time>2018-07-14T11:55:10Z</time>
      </trkpt>
      <trkpt lat="47.78216" lon="-3.56546">
        <ele>53</ele>
        <time>2018-07-14T11:55:11Z</time>
      </trkpt>
      <trkpt lat="47.78218" lon="-3.56539">
        <ele>53</ele>
        <time>2018-07-14T11:55:12Z</time>
      </trkpt>
      <trkpt lat="47.7822" lon="-3.56532">
        <ele>53</ele>
        <time>2018-07-14T11:55:13Z</time>
      </trkpt>
      <trkpt lat="47.78222" lon="-3.56526">
        <ele>53</ele>
        <time>2018-07-14T11:55:14Z</time>
      </trkpt>
      <trkpt lat="47.78225" lon="-3.5652">
        <ele>53</ele>
        <time>2018-07-14T11:55:15Z</time>
      </trkpt>
      <trkpt lat="47.78228" lon="-3.56513">
        <ele>53</ele>
        <time>2018-07-14T11:55:16Z</time>
      </trkpt>
      <trkpt lat="47.78231" lon="-3.56507">
        <ele>52</ele>
        <time>2018-07-14T11:55:17Z</time>
      </trkpt>
      <trkpt lat="47.78233" lon="-3.56501">
        <ele>52</ele>
        <time>2018-07-14T11:55:18Z</time>
      </trkpt>
      <trkpt lat="47.78236" lon="-3.56495">
        <ele>52</ele>
        <time>2018-07-14T11:55:19Z</time>
      </trkpt>
      <trkpt lat="47.7824" lon="-3.56491">
        <ele>52</ele>
        <time>2018-07-14T11:55:20Z</time>
      </trkpt>
      <trkpt lat="47.78244" lon="-3.56487">
        <ele>52</ele>
        <time>2018-07-14T11:55:21Z</time>
      </trkpt>
      <trkpt lat="47.78248" lon="-3.56484">
        <ele>52</ele>
        <time>2018-07-14T11:55:22Z</time>
      </trkpt>
      <trkpt lat="47.78252" lon="-3.5648">
        <ele>52</ele>
        <time>2018-07-14T11:55:23Z</time>
      </trkpt>
      <trkpt lat="47.78256" lon="-3.56475">
        <ele>52</ele>
        <time>2018-07-14T11:55:24Z</time>
      </trkpt>
      <trkpt lat="47.78258" lon="-3.56469">
        <ele>51</ele>
        <time>2018-07-14T11:55:25Z</time>
      </trkpt>
      <trkpt lat="47.78261" lon="-3.56463">
        <ele>51</ele>
        <time>2018-07-14T11:55:26Z</time>
      </trkpt>
      <trkpt lat="47.78262" lon="-3.56457">
        <ele>51</ele>
        <time>2018-07-14T11:55:27Z</time>
      </trkpt>
      <trkpt lat="47.78265" lon="-3.5645">
        <ele>50</ele>
        <time>2018-07-14T11:55:28Z</time>
      </trkpt>
      <trkpt lat="47.78267" lon="-3.56444">
        <ele>50</ele>
        <time>2018-07-14T11:55:29Z</time>
      </trkpt>
      <trkpt lat="47.78269" lon="-3.56437">
        <ele>50</ele>
        <time>2018-07-14T11:55:30Z</time>
      </trkpt>
      <trkpt lat="47.78271" lon="-3.56429">
        <ele>50</ele>
        <time>2018-07-14T11:55:31Z</time>
      </trkpt>
      <trkpt lat="47.78273" lon="-3.56422">
        <ele>50</ele>
        <time>2018-07-14T11:55:32Z</time>
      </trkpt>
      <trkpt lat="47.78274" lon="-3.56414">
        <ele>50</ele>
        <time>2018-07-14T11:55:33Z</time>
      </trkpt>
      <trkpt lat="47.78276" lon="-3.56406">
        <ele>50</ele>
        <time>2018-07-14T11:55:34Z</time>
      </trkpt>
      <trkpt lat="47.78278" lon="-3.56398">
        <ele>50</ele>
        <time>2018-07-14T11:55:35Z</time>
      </trkpt>
      <trkpt lat="47.7828" lon="-3.5639">
        <ele>50</ele>
        <time>2018-07-14T11:55:36Z</time>
      </trkpt>
      <trkpt lat="47.78281" lon="-3.56382">
        <ele>49</ele>
        <time>2018-07-14T11:55:37Z</time>
      </trkpt>
      <trkpt lat="47.78283" lon="-3.56374">
        <ele>49</ele>
        <time>2018-07-14T11:55:38Z</time>
      </trkpt>
      <trkpt lat="47.78284" lon="-3.56366">
        <ele>49</ele>
        <time>2018-07-14T11:55:39Z</time>
      </trkpt>
      <trkpt lat="47.78285" lon="-3.56358">
        <ele>49</ele>
        <time>2018-07-14T11:55:40Z</time>
      </trkpt>
      <trkpt lat="47.78285" lon="-3.56351">
        <ele>49</ele>
        <time>2018-07-14T11:55:41Z</time>
      </trkpt>
      <trkpt lat="47.78286" lon="-3.56347">
        <ele>49</ele>
        <time>2018-07-14T11:55:42Z</time>
      </trkpt>
      <trkpt lat="47.78286" lon="-3.56345">
        <ele>49</ele>
        <time>2018-07-14T11:55:43Z</time>
      </trkpt>
      <trkpt lat="47.78286" lon="-3.56344">
        <ele>49</ele>
        <time>2018-07-14T11:55:44Z</time>
      </trkpt>
      <trkpt lat="47.78285" lon="-3.56343">
        <ele>48</ele>
        <time>2018-07-14T11:55:45Z</time>
      </trkpt>
      <trkpt lat="47.78285" lon="-3.56342">
        <ele>48</ele>
        <time>2018-07-14T11:55:46Z</time>
      </trkpt>
      <trkpt lat="47.78284" lon="-3.56343">
        <ele>48</ele>
        <time>2018-07-14T11:55:47Z</time>
      </trkpt>
      <trkpt lat="47.78284" lon="-3.56343">
        <ele>48</ele>
        <time>2018-07-14T11:55:48Z</time>
      </trkpt>
      <trkpt lat="47.78285" lon="-3.56344">
        <ele>48</ele>
        <time>2018-07-14T11:55:49Z</time>
      </trkpt>
      <trkpt lat="47.78285" lon="-3.56345">
        <ele>48</ele>
        <time>2018-07-14T11:55:50Z</time>
      </trkpt>
      <trkpt lat="47.78287" lon="-3.56346">
        <ele>48</ele>
        <time>2018-07-14T11:55:51Z</time>
      </trkpt>
      <trkpt lat="47.78288" lon="-3.56346">
        <ele>48</ele>
        <time>2018-07-14T11:55:52Z</time>
      </trkpt>
      <trkpt lat="47.7829" lon="-3.56347">
        <ele>48</ele>
        <time>2018-07-14T11:55:53Z</time>
      </trkpt>
      <trkpt lat="47.78291" lon="-3.56348">
        <ele>48</ele>
        <time>2018-07-14T11:55:54Z</time>
      </trkpt>
      <trkpt lat="47.78294" lon="-3.56349">
        <ele>48</ele>
        <time>2018-07-14T11:55:55Z</time>
      </trkpt>
      <trkpt lat="47.78296" lon="-3.5635">
        <ele>48</ele>
        <time>2018-07-14T11:55:56Z</time>
      </trkpt>
      <trkpt lat="47.78297" lon="-3.56351">
        <ele>48</ele>
        <time>2018-07-14T11:55:57Z</time>
      </trkpt>
      <trkpt lat="47.78299" lon="-3.56351">
        <ele>48</ele>
        <time>2018-07-14T11:55:58Z</time>
      </trkpt>
      <trkpt lat="47.78301" lon="-3.56349">
        <ele>48</ele>
        <time>2018-07-14T11:55:59Z</time>
      </trkpt>
      <trkpt lat="47.78302" lon="-3.56347">
        <ele>48</ele>
        <time>2018-07-14T11:56:00Z</time>
      </trkpt>
      <trkpt lat="47.78304" lon="-3.56345">
        <ele>48</ele>
        <time>2018-07-14T11:56:01Z</time>
      </trkpt>
      <trkpt lat="47.78307" lon="-3.56343">
        <ele>48</ele>
        <time>2018-07-14T11:56:02Z</time>
      </trkpt>
      <trkpt lat="47.78311" lon="-3.56341">
        <ele>48</ele>
        <time>2018-07-14T11:56:03Z</time>
      </trkpt>
      <trkpt lat="47.78315" lon="-3.56337">
        <ele>47</ele>
        <time>2018-07-14T11:56:04Z</time>
      </trkpt>
      <trkpt lat="47.78319" lon="-3.56334">
        <ele>47</ele>
        <time>2018-07-14T11:56:05Z</time>
      </trkpt>
      <trkpt lat="47.78322" lon="-3.56331">
        <ele>47</ele>
        <time>2018-07-14T11:56:06Z</time>
      </trkpt>
      <trkpt lat="47.78326" lon="-3.56328">
        <ele>47</ele>
        <time>2018-07-14T11:56:07Z</time>
      </trkpt>
      <trkpt lat="47.7833" lon="-3.56325">
        <ele>47</ele>
        <time>2018-07-14T11:56:08Z</time>
      </trkpt>
      <trkpt lat="47.78334" lon="-3.56321">
        <ele>47</ele>
        <time>2018-07-14T11:56:09Z</time>
      </trkpt>
      <trkpt lat="47.78339" lon="-3.56318">
        <ele>46</ele>
        <time>2018-07-14T11:56:10Z</time>
      </trkpt>
      <trkpt lat="47.78344" lon="-3.56315">
        <ele>46</ele>
        <time>2018-07-14T11:56:11Z</time>
      </trkpt>
      <trkpt lat="47.7835" lon="-3.56313">
        <ele>46</ele>
        <time>2018-07-14T11:56:12Z</time>
      </trkpt>
      <trkpt lat="47.78354" lon="-3.5631">
        <ele>46</ele>
        <time>2018-07-14T11:56:13Z</time>
      </trkpt>
      <trkpt lat="47.78357" lon="-3.56308">
        <ele>46</ele>
        <time>2018-07-14T11:56:14Z</time>
      </trkpt>
      <trkpt lat="47.7836" lon="-3.56306">
        <ele>45</ele>
        <time>2018-07-14T11:56:15Z</time>
      </trkpt>
      <trkpt lat="47.78364" lon="-3.56303">
        <ele>45</ele>
        <time>2018-07-14T11:56:16Z</time>
      </trkpt>
      <trkpt lat="47.78367" lon="-3.56299">
        <ele>45</ele>
        <time>2018-07-14T11:56:17Z</time>
      </trkpt>
      <trkpt lat="47.78371" lon="-3.56294">
        <ele>45</ele>
        <time>2018-07-14T11:56:18Z</time>
      </trkpt>
      <trkpt lat="47.78376" lon="-3.56289">
        <ele>45</ele>
        <time>2018-07-14T11:56:19Z</time>
      </trkpt>
      <trkpt lat="47.78381" lon="-3.56284">
        <ele>45</ele>
        <time>2018-07-14T11:56:20Z</time>
      </trkpt>
      <trkpt lat="47.78386" lon="-3.56278">
        <ele>45</ele>
        <time>2018-07-14T11:56:21Z</time>
      </trkpt>
      <trkpt lat="47.78392" lon="-3.56273">
        <ele>45</ele>
        <time>2018-07-14T11:56:22Z</time>
      </trkpt>
      <trkpt lat="47.78396" lon="-3.56267">
        <ele>45</ele>
        <time>2018-07-14T11:56:23Z</time>
      </trkpt>
      <trkpt lat="47.78401" lon="-3.5626">
        <ele>45</ele>
        <time>2018-07-14T11:56:24Z</time>
      </trkpt>
      <trkpt lat="47.78405" lon="-3.56253">
        <ele>45</ele>
        <time>2018-07-14T11:56:25Z</time>
      </trkpt>
      <trkpt lat="47.78408" lon="-3.56243">
        <ele>45</ele>
        <time>2018-07-14T11:56:26Z</time>
      </trkpt>
      <trkpt lat="47.78412" lon="-3.56233">
        <ele>45</ele>
        <time>2018-07-14T11:56:27Z</time>
      </trkpt>
      <trkpt lat="47.78416" lon="-3.56224">
        <ele>45</ele>
        <time>2018-07-14T11:56:28Z</time>
      </trkpt>
      <trkpt lat="47.78419" lon="-3.56216">
        <ele>45</ele>
        <time>2018-07-14T11:56:29Z</time>
      </trkpt>
      <trkpt lat="47.78422" lon="-3.5621">
        <ele>45</ele>
        <time>2018-07-14T11:56:30Z</time>
      </trkpt>
      <trkpt lat="47.78424" lon="-3.56203">
        <ele>45</ele>
        <time>2018-07-14T11:56:31Z</time>
      </trkpt>
      <trkpt lat="47.78426" lon="-3.56196">
        <ele>45</ele>
        <time>2018-07-14T11:56:32Z</time>
      </trkpt>
      <trkpt lat="47.78427" lon="-3.56191">
        <ele>44</ele>
        <time>2018-07-14T11:56:33Z</time>
      </trkpt>
      <trkpt lat="47.78427" lon="-3.56188">
        <ele>44</ele>
        <time>2018-07-14T11:56:34Z</time>
      </trkpt>
      <trkpt lat="47.78427" lon="-3.56185">
        <ele>44</ele>
        <time>2018-07-14T11:56:35Z</time>
      </trkpt>
      <trkpt lat="47.78427" lon="-3.56182">
        <ele>44</ele>
        <time>2018-07-14T11:56:36Z</time>
      </trkpt>
      <trkpt lat="47.78427" lon="-3.56179">
        <ele>44</ele>
        <time>2018-07-14T11:56:37Z</time>
      </trkpt>
      <trkpt lat="47.78427" lon="-3.56176">
        <ele>44</ele>
        <time>2018-07-14T11:56:38Z</time>
      </trkpt>
      <trkpt lat="47.78427" lon="-3.56174">
        <ele>44</ele>
        <time>2018-07-14T11:56:39Z</time>
      </trkpt>
      <trkpt lat="47.78426" lon="-3.56171">
        <ele>44</ele>
        <time>2018-07-14T11:56:40Z</time>
      </trkpt>
      <trkpt lat="47.78425" lon="-3.56168">
        <ele>44</ele>
        <time>2018-07-14T11:56:41Z</time>
      </trkpt>
      <trkpt lat="47.78425" lon="-3.56167">
        <ele>44</ele>
        <time>2018-07-14T11:56:42Z</time>
      </trkpt>
      <trkpt lat="47.78425" lon="-3.56165">
        <ele>44</ele>
        <time>2018-07-14T11:56:43Z</time>
      </trkpt>
      <trkpt lat="47.78425" lon="-3.56164">
        <ele>44</ele>
        <time>2018-07-14T11:56:44Z</time>
      </trkpt>
      <trkpt lat="47.78424" lon="-3.56162">
        <ele>44</ele>
        <time>2018-07-14T11:56:45Z</time>
      </trkpt>
      <trkpt lat="47.78424" lon="-3.56161">
        <ele>44</ele>
        <time>2018-07-14T11:56:46Z</time>
      </trkpt>
      <trkpt lat="47.78424" lon="-3.5616">
        <ele>44</ele>
        <time>2018-07-14T11:56:47Z</time>
      </trkpt>
      <trkpt lat="47.78424" lon="-3.56158">
        <ele>44</ele>
        <time>2018-07-14T11:56:48Z</time>
      </trkpt>
      <trkpt lat="47.78423" lon="-3.56157">
        <ele>43</ele>
        <time>2018-07-14T11:56:49Z</time>
      </trkpt>
      <trkpt lat="47.78423" lon="-3.56155">
        <ele>43</ele>
        <time>2018-07-14T11:56:50Z</time>
      </trkpt>
      <trkpt lat="47.78423" lon="-3.56153">
        <ele>43</ele>
        <time>2018-07-14T11:56:51Z</time>
      </trkpt>
      <trkpt lat="47.78423" lon="-3.56152">
        <ele>43</ele>
        <time>2018-07-14T11:56:52Z</time>
      </trkpt>
      <trkpt lat="47.78423" lon="-3.56151">
        <ele>43</ele>
        <time>2018-07-14T11:56:53Z</time>
      </trkpt>
      <trkpt lat="47.78424" lon="-3.56149">
        <ele>43</ele>
        <time>2018-07-14T11:56:54Z</time>
      </trkpt>
      <trkpt lat="47.78424" lon="-3.56148">
        <ele>43</ele>
        <time>2018-07-14T11:56:55Z</time>
      </trkpt>
      <trkpt lat="47.78424" lon="-3.56147">
        <ele>43</ele>
        <time>2018-07-14T11:56:56Z</time>
      </trkpt>
      <trkpt lat="47.78425" lon="-3.56146">
        <ele>43</ele>
        <time>2018-07-14T11:56:57Z</time>
      </trkpt>
      <trkpt lat="47.78428" lon="-3.56144">
        <ele>43</ele>
        <time>2018-07-14T11:56:58Z</time>
      </trkpt>
      <trkpt lat="47.7843" lon="-3.56143">
        <ele>42</ele>
        <time>2018-07-14T11:56:59Z</time>
      </trkpt>
      <trkpt lat="47.78433" lon="-3.56142">
        <ele>42</ele>
        <time>2018-07-14T11:57:00Z</time>
      </trkpt>
      <trkpt lat="47.78435" lon="-3.56142">
        <ele>42</ele>
        <time>2018-07-14T11:57:01Z</time>
      </trkpt>
      <trkpt lat="47.78437" lon="-3.56141">
        <ele>42</ele>
        <time>2018-07-14T11:57:02Z</time>
      </trkpt>
      <trkpt lat="47.78439" lon="-3.56139">
        <ele>42</ele>
        <time>2018-07-14T11:57:03Z</time>
      </trkpt>
      <trkpt lat="47.78442" lon="-3.56138">
        <ele>42</ele>
        <time>2018-07-14T11:57:04Z</time>
      </trkpt>
      <trkpt lat="47.78446" lon="-3.56136">
        <ele>42</ele>
        <time>2018-07-14T11:57:05Z</time>
      </trkpt>
      <trkpt lat="47.78449" lon="-3.56134">
        <ele>42</ele>
        <time>2018-07-14T11:57:06Z</time>
      </trkpt>
      <trkpt lat="47.78452" lon="-3.56132">
        <ele>42</ele>
        <time>2018-07-14T11:57:07Z</time>
      </trkpt>
      <trkpt lat="47.78455" lon="-3.56129">
        <ele>42</ele>
        <time>2018-07-14T11:57:08Z</time>
      </trkpt>
      <trkpt lat="47.78458" lon="-3.56127">
        <ele>42</ele>
        <time>2018-07-14T11:57:09Z</time>
      </trkpt>
      <trkpt lat="47.78461" lon="-3.56125">
        <ele>42</ele>
        <time>2018-07-14T11:57:10Z</time>
      </trkpt>
      <trkpt lat="47.78464" lon="-3.56123">
        <ele>42</ele>
        <time>2018-07-14T11:57:11Z</time>
      </trkpt>
      <trkpt lat="47.78467" lon="-3.56121">
        <ele>42</ele>
        <time>2018-07-14T11:57:12Z</time>
      </trkpt>
      <trkpt lat="47.78469" lon="-3.56118">
        <ele>42</ele>
        <time>2018-07-14T11:57:13Z</time>
      </trkpt>
      <trkpt lat="47.78473" lon="-3.56115">
        <ele>41</ele>
        <time>2018-07-14T11:57:14Z</time>
      </trkpt>
      <trkpt lat="47.78476" lon="-3.56111">
        <ele>41</ele>
        <time>2018-07-14T11:57:15Z</time>
      </trkpt>
      <trkpt lat="47.78479" lon="-3.56108">
        <ele>41</ele>
        <time>2018-07-14T11:57:16Z</time>
      </trkpt>
      <trkpt lat="47.78483" lon="-3.56104">
        <ele>41</ele>
        <time>2018-07-14T11:57:17Z</time>
      </trkpt>
      <trkpt lat="47.78486" lon="-3.561">
        <ele>41</ele>
        <time>2018-07-14T11:57:18Z</time>
      </trkpt>
      <trkpt lat="47.7849" lon="-3.56098">
        <ele>41</ele>
        <time>2018-07-14T11:57:19Z</time>
      </trkpt>
      <trkpt lat="47.78493" lon="-3.56095">
        <ele>40</ele>
        <time>2018-07-14T11:57:20Z</time>
      </trkpt>
      <trkpt lat="47.78496" lon="-3.56092">
        <ele>40</ele>
        <time>2018-07-14T11:57:21Z</time>
      </trkpt>
      <trkpt lat="47.785" lon="-3.56089">
        <ele>40</ele>
        <time>2018-07-14T11:57:22Z</time>
      </trkpt>
      <trkpt lat="47.78503" lon="-3.56085">
        <ele>40</ele>
        <time>2018-07-14T11:57:23Z</time>
      </trkpt>
      <trkpt lat="47.78506" lon="-3.56081">
        <ele>40</ele>
        <time>2018-07-14T11:57:24Z</time>
      </trkpt>
      <trkpt lat="47.78508" lon="-3.56077">
        <ele>39</ele>
        <time>2018-07-14T11:57:25Z</time>
      </trkpt>
      <trkpt lat="47.7851" lon="-3.56075">
        <ele>39</ele>
        <time>2018-07-14T11:57:26Z</time>
      </trkpt>
      <trkpt lat="47.78512" lon="-3.56073">
        <ele>39</ele>
        <time>2018-07-14T11:57:27Z</time>
      </trkpt>
      <trkpt lat="47.78514" lon="-3.5607">
        <ele>39</ele>
        <time>2018-07-14T11:57:28Z</time>
      </trkpt>
      <trkpt lat="47.78517" lon="-3.56068">
        <ele>39</ele>
        <time>2018-07-14T11:57:29Z</time>
      </trkpt>
      <trkpt lat="47.7852" lon="-3.56065">
        <ele>39</ele>
        <time>2018-07-14T11:57:30Z</time>
      </trkpt>
      <trkpt lat="47.78522" lon="-3.56062">
        <ele>39</ele>
        <time>2018-07-14T11:57:31Z</time>
      </trkpt>
      <trkpt lat="47.78525" lon="-3.56057">
        <ele>39</ele>
        <time>2018-07-14T11:57:32Z</time>
      </trkpt>
      <trkpt lat="47.78529" lon="-3.56052">
        <ele>39</ele>
        <time>2018-07-14T11:57:33Z</time>
      </trkpt>
      <trkpt lat="47.78532" lon="-3.56046">
        <ele>38</ele>
        <time>2018-07-14T11:57:34Z</time>
      </trkpt>
      <trkpt lat="47.78536" lon="-3.56039">
        <ele>38</ele>
        <time>2018-07-14T11:57:35Z</time>
      </trkpt>
      <trkpt lat="47.7854" lon="-3.56032">
        <ele>38</ele>
        <time>2018-07-14T11:57:36Z</time>
      </trkpt>
      <trkpt lat="47.78543" lon="-3.56025">
        <ele>38</ele>
        <time>2018-07-14T11:57:37Z</time>
      </trkpt>
      <trkpt lat="47.78545" lon="-3.5602">
        <ele>38</ele>
        <time>2018-07-14T11:57:38Z</time>
      </trkpt>
      <trkpt lat="47.78547" lon="-3.56015">
        <ele>38</ele>
        <time>2018-07-14T11:57:39Z</time>
      </trkpt>
      <trkpt lat="47.78549" lon="-3.56012">
        <ele>38</ele>
        <time>2018-07-14T11:57:40Z</time>
      </trkpt>
      <trkpt lat="47.7855" lon="-3.5601">
        <ele>38</ele>
        <time>2018-07-14T11:57:41Z</time>
      </trkpt>
      <trkpt lat="47.78551" lon="-3.56007">
        <ele>38</ele>
        <time>2018-07-14T11:57:42Z</time>
      </trkpt>
      <trkpt lat="47.78551" lon="-3.56005">
        <ele>38</ele>
        <time>2018-07-14T11:57:43Z</time>
      </trkpt>
      <trkpt lat="47.7855" lon="-3.56003">
        <ele>38</ele>
        <time>2018-07-14T11:57:44Z</time>
      </trkpt>
      <trkpt lat="47.7855" lon="-3.56002">
        <ele>38</ele>
        <time>2018-07-14T11:57:45Z</time>
      </trkpt>
      <trkpt lat="47.78549" lon="-3.56">
        <ele>37</ele>
        <time>2018-07-14T11:57:46Z</time>
      </trkpt>
      <trkpt lat="47.78549" lon="-3.55999">
        <ele>37</ele>
        <time>2018-07-14T11:57:47Z</time>
      </trkpt>
      <trkpt lat="47.78548" lon="-3.55999">
        <ele>37</ele>
        <time>2018-07-14T11:57:48Z</time>
      </trkpt>
      <trkpt lat="47.78547" lon="-3.55998">
        <ele>37</ele>
        <time>2018-07-14T11:57:49Z</time>
      </trkpt>
      <trkpt lat="47.78547" lon="-3.55996">
        <ele>37</ele>
        <time>2018-07-14T11:57:50Z</time>
      </trkpt>
      <trkpt lat="47.78547" lon="-3.55994">
        <ele>36</ele>
        <time>2018-07-14T11:57:51Z</time>
      </trkpt>
      <trkpt lat="47.78547" lon="-3.55993">
        <ele>36</ele>
        <time>2018-07-14T11:57:52Z</time>
      </trkpt>
      <trkpt lat="47.78548" lon="-3.5599">
        <ele>36</ele>
        <time>2018-07-14T11:57:53Z</time>
      </trkpt>
      <trkpt lat="47.7855" lon="-3.55988">
        <ele>36</ele>
        <time>2018-07-14T11:57:54Z</time>
      </trkpt>
      <trkpt lat="47.78551" lon="-3.55985">
        <ele>36</ele>
        <time>2018-07-14T11:57:55Z</time>
      </trkpt>
      <trkpt lat="47.78553" lon="-3.55983">
        <ele>36</ele>
        <time>2018-07-14T11:57:56Z</time>
      </trkpt>
      <trkpt lat="47.78555" lon="-3.5598">
        <ele>35</ele>
        <time>2018-07-14T11:57:57Z</time>
      </trkpt>
      <trkpt lat="47.78557" lon="-3.55977">
        <ele>35</ele>
        <time>2018-07-14T11:57:58Z</time>
      </trkpt>
      <trkpt lat="47.7856" lon="-3.55974">
        <ele>35</ele>
        <time>2018-07-14T11:57:59Z</time>
      </trkpt>
      <trkpt lat="47.78562" lon="-3.55972">
        <ele>35</ele>
        <time>2018-07-14T11:58:00Z</time>
      </trkpt>
      <trkpt lat="47.78565" lon="-3.55969">
        <ele>35</ele>
        <time>2018-07-14T11:58:01Z</time>
      </trkpt>
      <trkpt lat="47.78568" lon="-3.55967">
        <ele>35</ele>
        <time>2018-07-14T11:58:02Z</time>
      </trkpt>
      <trkpt lat="47.7857" lon="-3.55965">
        <ele>35</ele>
        <time>2018-07-14T11:58:03Z</time>
      </trkpt>
      <trkpt lat="47.78573" lon="-3.55963">
        <ele>35</ele>
        <time>2018-07-14T11:58:04Z</time>
      </trkpt>
      <trkpt lat="47.78575" lon="-3.5596">
        <ele>35</ele>
        <time>2018-07-14T11:58:05Z</time>
      </trkpt>
      <trkpt lat="47.78576" lon="-3.55958">
        <ele>35</ele>
        <time>2018-07-14T11:58:06Z</time>
      </trkpt>
      <trkpt lat="47.78578" lon="-3.55956">
        <ele>35</ele>
        <time>2018-07-14T11:58:07Z</time>
      </trkpt>
      <trkpt lat="47.7858" lon="-3.55954">
        <ele>35</ele>
        <time>2018-07-14T11:58:08Z</time>
      </trkpt>
      <trkpt lat="47.78582" lon="-3.55953">
        <ele>35</ele>
        <time>2018-07-14T11:58:09Z</time>
      </trkpt>
      <trkpt lat="47.78583" lon="-3.55951">
        <ele>35</ele>
        <time>2018-07-14T11:58:10Z</time>
      </trkpt>
      <trkpt lat="47.78585" lon="-3.55949">
        <ele>35</ele>
        <time>2018-07-14T11:58:11Z</time>
      </trkpt>
      <trkpt lat="47.78587" lon="-3.55946">
        <ele>35</ele>
        <time>2018-07-14T11:58:12Z</time>
      </trkpt>
      <trkpt lat="47.78587" lon="-3.55943">
        <ele>35</ele>
        <time>2018-07-14T11:58:13Z</time>
      </trkpt>
      <trkpt lat="47.78588" lon="-3.5594">
        <ele>35</ele>
        <time>2018-07-14T11:58:14Z</time>
      </trkpt>
      <trkpt lat="47.78589" lon="-3.55937">
        <ele>35</ele>
        <time>2018-07-14T11:58:15Z</time>
      </trkpt>
      <trkpt lat="47.7859" lon="-3.55934">
        <ele>35</ele>
        <time>2018-07-14T11:58:16Z</time>
      </trkpt>
      <trkpt lat="47.78591" lon="-3.55931">
        <ele>35</ele>
        <time>2018-07-14T11:58:17Z</time>
      </trkpt>
      <trkpt lat="47.78593" lon="-3.55928">
        <ele>35</ele>
        <time>2018-07-14T11:58:18Z</time>
      </trkpt>
      <trkpt lat="47.78595" lon="-3.55926">
        <ele>35</ele>
        <time>2018-07-14T11:58:19Z</time>
      </trkpt>
      <trkpt lat="47.78596" lon="-3.55924">
        <ele>35</ele>
        <time>2018-07-14T11:58:20Z</time>
      </trkpt>
      <trkpt lat="47.78597" lon="-3.55921">
        <ele>35</ele>
        <time>2018-07-14T11:58:21Z</time>
      </trkpt>
      <trkpt lat="47.78597" lon="-3.55918">
        <ele>35</ele>
        <time>2018-07-14T11:58:22Z</time>
      </trkpt>
      <trkpt lat="47.78598" lon="-3.55914">
        <ele>35</ele>
        <time>2018-07-14T11:58:23Z</time>
      </trkpt>
      <trkpt lat="47.78597" lon="-3.55911">
        <ele>35</ele>
        <time>2018-07-14T11:58:24Z</time>
      </trkpt>
      <trkpt lat="47.78597" lon="-3.55907">
        <ele>35</ele>
        <time>2018-07-14T11:58:25Z</time>
      </trkpt>
      <trkpt lat="47.78597" lon="-3.55903">
        <ele>34</ele>
        <time>2018-07-14T11:58:26Z</time>
      </trkpt>
      <trkpt lat="47.78597" lon="-3.559">
        <ele>34</ele>
        <time>2018-07-14T11:58:27Z</time>
      </trkpt>
      <trkpt lat="47.78597" lon="-3.55896">
        <ele>34</ele>
        <time>2018-07-14T11:58:28Z</time>
      </trkpt>
      <trkpt lat="47.78597" lon="-3.55893">
        <ele>34</ele>
        <time>2018-07-14T11:58:29Z</time>
      </trkpt>
      <trkpt lat="47.78596" lon="-3.55888">
        <ele>34</ele>
        <time>2018-07-14T11:58:30Z</time>
      </trkpt>
      <trkpt lat="47.78596" lon="-3.55884">
        <ele>34</ele>
        <time>2018-07-14T11:58:31Z</time>
      </trkpt>
      <trkpt lat="47.78597" lon="-3.5588">
        <ele>34</ele>
        <time>2018-07-14T11:58:32Z</time>
      </trkpt>
      <trkpt lat="47.78597" lon="-3.55875">
        <ele>34</ele>
        <time>2018-07-14T11:58:33Z</time>
      </trkpt>
      <trkpt lat="47.78597" lon="-3.5587">
        <ele>34</ele>
        <time>2018-07-14T11:58:34Z</time>
      </trkpt>
      <trkpt lat="47.78598" lon="-3.55866">
        <ele>34</ele>
        <time>2018-07-14T11:58:35Z</time>
      </trkpt>
      <trkpt lat="47.78599" lon="-3.55861">
        <ele>33</ele>
        <time>2018-07-14T11:58:36Z</time>
      </trkpt>
      <trkpt lat="47.786" lon="-3.55856">
        <ele>33</ele>
        <time>2018-07-14T11:58:37Z</time>
      </trkpt>
      <trkpt lat="47.78601" lon="-3.55851">
        <ele>33</ele>
        <time>2018-07-14T11:58:38Z</time>
      </trkpt>
      <trkpt lat="47.78602" lon="-3.55846">
        <ele>33</ele>
        <time>2018-07-14T11:58:39Z</time>
      </trkpt>
      <trkpt lat="47.78604" lon="-3.55841">
        <ele>33</ele>
        <time>2018-07-14T11:58:40Z</time>
      </trkpt>
      <trkpt lat="47.78605" lon="-3.55837">
        <ele>33</ele>
        <time>2018-07-14T11:58:41Z</time>
      </trkpt>
      <trkpt lat="47.78607" lon="-3.55833">
        <ele>33</ele>
        <time>2018-07-14T11:58:42Z</time>
      </trkpt>
      <trkpt lat="47.7861" lon="-3.55829">
        <ele>33</ele>
        <time>2018-07-14T11:58:43Z</time>
      </trkpt>
      <trkpt lat="47.78612" lon="-3.55826">
        <ele>33</ele>
        <time>2018-07-14T11:58:44Z</time>
      </trkpt>
      <trkpt lat="47.78614" lon="-3.55823">
        <ele>33</ele>
        <time>2018-07-14T11:58:45Z</time>
      </trkpt>
      <trkpt lat="47.78616" lon="-3.5582">
        <ele>33</ele>
        <time>2018-07-14T11:58:46Z</time>
      </trkpt>
      <trkpt lat="47.78616" lon="-3.55817">
        <ele>33</ele>
        <time>2018-07-14T11:58:47Z</time>
      </trkpt>
      <trkpt lat="47.78616" lon="-3.55817">
        <ele>32</ele>
        <time>2018-07-14T11:58:50Z</time>
      </trkpt>
      <trkpt lat="47.78616" lon="-3.55817">
        <ele>32</ele>
        <time>2018-07-14T11:58:51Z</time>
      </trkpt>
      <trkpt lat="47.78623" lon="-3.55802">
        <ele>33</ele>
        <time>2018-07-14T11:58:52Z</time>
      </trkpt>
      <trkpt lat="47.78625" lon="-3.55798">
        <ele>33</ele>
        <time>2018-07-14T11:58:53Z</time>
      </trkpt>
      <trkpt lat="47.78627" lon="-3.55793">
        <ele>33</ele>
        <time>2018-07-14T11:58:54Z</time>
      </trkpt>
      <trkpt lat="47.78628" lon="-3.55788">
        <ele>33</ele>
        <time>2018-07-14T11:58:55Z</time>
      </trkpt>
      <trkpt lat="47.78629" lon="-3.55784">
        <ele>33</ele>
        <time>2018-07-14T11:58:56Z</time>
      </trkpt>
      <trkpt lat="47.7863" lon="-3.5578">
        <ele>32</ele>
        <time>2018-07-14T11:58:57Z</time>
      </trkpt>
      <trkpt lat="47.78631" lon="-3.55775">
        <ele>32</ele>
        <time>2018-07-14T11:58:58Z</time>
      </trkpt>
      <trkpt lat="47.78633" lon="-3.55771">
        <ele>33</ele>
        <time>2018-07-14T11:58:59Z</time>
      </trkpt>
      <trkpt lat="47.78634" lon="-3.55767">
        <ele>32</ele>
        <time>2018-07-14T11:59:00Z</time>
      </trkpt>
      <trkpt lat="47.78635" lon="-3.55764">
        <ele>32</ele>
        <time>2018-07-14T11:59:01Z</time>
      </trkpt>
      <trkpt lat="47.78637" lon="-3.5576">
        <ele>32</ele>
        <time>2018-07-14T11:59:02Z</time>
      </trkpt>
      <trkpt lat="47.78638" lon="-3.55755">
        <ele>31</ele>
        <time>2018-07-14T11:59:03Z</time>
      </trkpt>
      <trkpt lat="47.78639" lon="-3.55749">
        <ele>30</ele>
        <time>2018-07-14T11:59:04Z</time>
      </trkpt>
      <trkpt lat="47.78641" lon="-3.55745">
        <ele>29</ele>
        <time>2018-07-14T11:59:05Z</time>
      </trkpt>
      <trkpt lat="47.78641" lon="-3.55741">
        <ele>28</ele>
        <time>2018-07-14T11:59:06Z</time>
      </trkpt>
      <trkpt lat="47.78642" lon="-3.55736">
        <ele>27</ele>
        <time>2018-07-14T11:59:07Z</time>
      </trkpt>
      <trkpt lat="47.78642" lon="-3.55732">
        <ele>26</ele>
        <time>2018-07-14T11:59:08Z</time>
      </trkpt>
      <trkpt lat="47.78642" lon="-3.55728">
        <ele>26</ele>
        <time>2018-07-14T11:59:09Z</time>
      </trkpt>
      <trkpt lat="47.78642" lon="-3.55723">
        <ele>25</ele>
        <time>2018-07-14T11:59:10Z</time>
      </trkpt>
      <trkpt lat="47.78642" lon="-3.55718">
        <ele>25</ele>
        <time>2018-07-14T11:59:11Z</time>
      </trkpt>
      <trkpt lat="47.78642" lon="-3.55712">
        <ele>25</ele>
        <time>2018-07-14T11:59:12Z</time>
      </trkpt>
      <trkpt lat="47.78642" lon="-3.55706">
        <ele>25</ele>
        <time>2018-07-14T11:59:13Z</time>
      </trkpt>
      <trkpt lat="47.78643" lon="-3.557">
        <ele>25</ele>
        <time>2018-07-14T11:59:14Z</time>
      </trkpt>
      <trkpt lat="47.78643" lon="-3.55694">
        <ele>25</ele>
        <time>2018-07-14T11:59:15Z</time>
      </trkpt>
      <trkpt lat="47.78644" lon="-3.55688">
        <ele>25</ele>
        <time>2018-07-14T11:59:16Z</time>
      </trkpt>
      <trkpt lat="47.78645" lon="-3.55682">
        <ele>26</ele>
        <time>2018-07-14T11:59:17Z</time>
      </trkpt>
      <trkpt lat="47.78646" lon="-3.55676">
        <ele>26</ele>
        <time>2018-07-14T11:59:18Z</time>
      </trkpt>
      <trkpt lat="47.78647" lon="-3.5567">
        <ele>26</ele>
        <time>2018-07-14T11:59:19Z</time>
      </trkpt>
      <trkpt lat="47.78648" lon="-3.55664">
        <ele>27</ele>
        <time>2018-07-14T11:59:20Z</time>
      </trkpt>
      <trkpt lat="47.78648" lon="-3.55659">
        <ele>28</ele>
        <time>2018-07-14T11:59:21Z</time>
      </trkpt>
      <trkpt lat="47.78649" lon="-3.55654">
        <ele>28</ele>
        <time>2018-07-14T11:59:22Z</time>
      </trkpt>
      <trkpt lat="47.78649" lon="-3.55648">
        <ele>29</ele>
        <time>2018-07-14T11:59:23Z</time>
      </trkpt>
      <trkpt lat="47.7865" lon="-3.55643">
        <ele>29</ele>
        <time>2018-07-14T11:59:24Z</time>
      </trkpt>
      <trkpt lat="47.78651" lon="-3.55637">
        <ele>29</ele>
        <time>2018-07-14T11:59:25Z</time>
      </trkpt>
      <trkpt lat="47.78651" lon="-3.55631">
        <ele>30</ele>
        <time>2018-07-14T11:59:26Z</time>
      </trkpt>
      <trkpt lat="47.78652" lon="-3.55625">
        <ele>30</ele>
        <time>2018-07-14T11:59:27Z</time>
      </trkpt>
      <trkpt lat="47.78653" lon="-3.55619">
        <ele>30</ele>
        <time>2018-07-14T11:59:28Z</time>
      </trkpt>
      <trkpt lat="47.78655" lon="-3.55613">
        <ele>31</ele>
        <time>2018-07-14T11:59:29Z</time>
      </trkpt>
      <trkpt lat="47.78656" lon="-3.55607">
        <ele>31</ele>
        <time>2018-07-14T11:59:30Z</time>
      </trkpt>
      <trkpt lat="47.78657" lon="-3.55603">
        <ele>31</ele>
        <time>2018-07-14T11:59:31Z</time>
      </trkpt>
      <trkpt lat="47.78659" lon="-3.55597">
        <ele>32</ele>
        <time>2018-07-14T11:59:32Z</time>
      </trkpt>
      <trkpt lat="47.78662" lon="-3.55593">
        <ele>32</ele>
        <time>2018-07-14T11:59:33Z</time>
      </trkpt>
      <trkpt lat="47.78665" lon="-3.55589">
        <ele>32</ele>
        <time>2018-07-14T11:59:34Z</time>
      </trkpt>
      <trkpt lat="47.78669" lon="-3.55586">
        <ele>32</ele>
        <time>2018-07-14T11:59:35Z</time>
      </trkpt>
      <trkpt lat="47.78673" lon="-3.55582">
        <ele>32</ele>
        <time>2018-07-14T11:59:36Z</time>
      </trkpt>
      <trkpt lat="47.78677" lon="-3.5558">
        <ele>32</ele>
        <time>2018-07-14T11:59:37Z</time>
      </trkpt>
      <trkpt lat="47.7868" lon="-3.55576">
        <ele>32</ele>
        <time>2018-07-14T11:59:38Z</time>
      </trkpt>
      <trkpt lat="47.78683" lon="-3.55573">
        <ele>32</ele>
        <time>2018-07-14T11:59:39Z</time>
      </trkpt>
      <trkpt lat="47.78688" lon="-3.55569">
        <ele>32</ele>
        <time>2018-07-14T11:59:40Z</time>
      </trkpt>
      <trkpt lat="47.78692" lon="-3.55564">
        <ele>32</ele>
        <time>2018-07-14T11:59:41Z</time>
      </trkpt>
      <trkpt lat="47.78696" lon="-3.5556">
        <ele>32</ele>
        <time>2018-07-14T11:59:42Z</time>
      </trkpt>
      <trkpt lat="47.78701" lon="-3.55556">
        <ele>32</ele>
        <time>2018-07-14T11:59:43Z</time>
      </trkpt>
      <trkpt lat="47.78706" lon="-3.55551">
        <ele>31</ele>
        <time>2018-07-14T11:59:44Z</time>
      </trkpt>
      <trkpt lat="47.78711" lon="-3.55547">
        <ele>31</ele>
        <time>2018-07-14T11:59:45Z</time>
      </trkpt>
      <trkpt lat="47.78715" lon="-3.55542">
        <ele>31</ele>
        <time>2018-07-14T11:59:46Z</time>
      </trkpt>
      <trkpt lat="47.78719" lon="-3.55538">
        <ele>30</ele>
        <time>2018-07-14T11:59:47Z</time>
      </trkpt>
      <trkpt lat="47.78723" lon="-3.55534">
        <ele>30</ele>
        <time>2018-07-14T11:59:48Z</time>
      </trkpt>
      <trkpt lat="47.78726" lon="-3.55531">
        <ele>30</ele>
        <time>2018-07-14T11:59:49Z</time>
      </trkpt>
      <trkpt lat="47.78729" lon="-3.55528">
        <ele>30</ele>
        <time>2018-07-14T11:59:50Z</time>
      </trkpt>
      <trkpt lat="47.78732" lon="-3.55525">
        <ele>30</ele>
        <time>2018-07-14T11:59:51Z</time>
      </trkpt>
      <trkpt lat="47.78735" lon="-3.55521">
        <ele>29</ele>
        <time>2018-07-14T11:59:52Z</time>
      </trkpt>
      <trkpt lat="47.78738" lon="-3.55517">
        <ele>29</ele>
        <time>2018-07-14T11:59:53Z</time>
      </trkpt>
      <trkpt lat="47.7874" lon="-3.55514">
        <ele>29</ele>
        <time>2018-07-14T11:59:54Z</time>
      </trkpt>
      <trkpt lat="47.78743" lon="-3.55511">
        <ele>29</ele>
        <time>2018-07-14T11:59:55Z</time>
      </trkpt>
      <trkpt lat="47.78746" lon="-3.55507">
        <ele>29</ele>
        <time>2018-07-14T11:59:56Z</time>
      </trkpt>
      <trkpt lat="47.7875" lon="-3.55502">
        <ele>29</ele>
        <time>2018-07-14T11:59:57Z</time>
      </trkpt>
      <trkpt lat="47.78753" lon="-3.55497">
        <ele>29</ele>
        <time>2018-07-14T11:59:58Z</time>
      </trkpt>
      <trkpt lat="47.78756" lon="-3.55492">
        <ele>29</ele>
        <time>2018-07-14T11:59:59Z</time>
      </trkpt>
      <trkpt lat="47.78758" lon="-3.55487">
        <ele>28</ele>
        <time>2018-07-14T12:00:00Z</time>
      </trkpt>
      <trkpt lat="47.78761" lon="-3.55482">
        <ele>28</ele>
        <time>2018-07-14T12:00:01Z</time>
      </trkpt>
      <trkpt lat="47.78764" lon="-3.55477">
        <ele>28</ele>
        <time>2018-07-14T12:00:02Z</time>
      </trkpt>
      <trkpt lat="47.78766" lon="-3.55473">
        <ele>28</ele>
        <time>2018-07-14T12:00:03Z</time>
      </trkpt>
      <trkpt lat="47.78769" lon="-3.55469">
        <ele>28</ele>
        <time>2018-07-14T12:00:04Z</time>
      </trkpt>
      <trkpt lat="47.78772" lon="-3.55465">
        <ele>28</ele>
        <time>2018-07-14T12:00:05Z</time>
      </trkpt>
      <trkpt lat="47.78775" lon="-3.55461">
        <ele>28</ele>
        <time>2018-07-14T12:00:06Z</time>
      </trkpt>
      <trkpt lat="47.78778" lon="-3.55456">
        <ele>28</ele>
        <time>2018-07-14T12:00:07Z</time>
      </trkpt>
      <trkpt lat="47.78781" lon="-3.55452">
        <ele>28</ele>
        <time>2018-07-14T12:00:08Z</time>
      </trkpt>
      <trkpt lat="47.78785" lon="-3.55447">
        <ele>28</ele>
        <time>2018-07-14T12:00:09Z</time>
      </trkpt>
      <trkpt lat="47.78788" lon="-3.55443">
        <ele>27</ele>
        <time>2018-07-14T12:00:10Z</time>
      </trkpt>
      <trkpt lat="47.78792" lon="-3.55439">
        <ele>27</ele>
        <time>2018-07-14T12:00:11Z</time>
      </trkpt>
      <trkpt lat="47.78795" lon="-3.55436">
        <ele>27</ele>
        <time>2018-07-14T12:00:12Z</time>
      </trkpt>
      <trkpt lat="47.78798" lon="-3.55433">
        <ele>27</ele>
        <time>2018-07-14T12:00:13Z</time>
      </trkpt>
      <trkpt lat="47.78801" lon="-3.5543">
        <ele>27</ele>
        <time>2018-07-14T12:00:14Z</time>
      </trkpt>
      <trkpt lat="47.78803" lon="-3.55428">
        <ele>27</ele>
        <time>2018-07-14T12:00:15Z</time>
      </trkpt>
      <trkpt lat="47.78805" lon="-3.55426">
        <ele>27</ele>
        <time>2018-07-14T12:00:16Z</time>
      </trkpt>
      <trkpt lat="47.78807" lon="-3.55424">
        <ele>26</ele>
        <time>2018-07-14T12:00:17Z</time>
      </trkpt>
      <trkpt lat="47.7881" lon="-3.55421">
        <ele>26</ele>
        <time>2018-07-14T12:00:18Z</time>
      </trkpt>
      <trkpt lat="47.78813" lon="-3.55418">
        <ele>26</ele>
        <time>2018-07-14T12:00:19Z</time>
      </trkpt>
      <trkpt lat="47.78816" lon="-3.55413">
        <ele>26</ele>
        <time>2018-07-14T12:00:20Z</time>
      </trkpt>
      <trkpt lat="47.78818" lon="-3.55407">
        <ele>25</ele>
        <time>2018-07-14T12:00:21Z</time>
      </trkpt>
      <trkpt lat="47.78821" lon="-3.554">
        <ele>25</ele>
        <time>2018-07-14T12:00:22Z</time>
      </trkpt>
      <trkpt lat="47.78824" lon="-3.55392">
        <ele>25</ele>
        <time>2018-07-14T12:00:23Z</time>
      </trkpt>
      <trkpt lat="47.78828" lon="-3.55384">
        <ele>24</ele>
        <time>2018-07-14T12:00:24Z</time>
      </trkpt>
      <trkpt lat="47.78832" lon="-3.55376">
        <ele>24</ele>
        <time>2018-07-14T12:00:25Z</time>
      </trkpt>
      <trkpt lat="47.78836" lon="-3.55367">
        <ele>23</ele>
        <time>2018-07-14T12:00:26Z</time>
      </trkpt>
      <trkpt lat="47.7884" lon="-3.55357">
        <ele>22</ele>
        <time>2018-07-14T12:00:27Z</time>
      </trkpt>
      <trkpt lat="47.78845" lon="-3.55348">
        <ele>22</ele>
        <time>2018-07-14T12:00:28Z</time>
      </trkpt>
      <trkpt lat="47.7885" lon="-3.55337">
        <ele>21</ele>
        <time>2018-07-14T12:00:29Z</time>
      </trkpt>
      <trkpt lat="47.78855" lon="-3.55327">
        <ele>21</ele>
        <time>2018-07-14T12:00:30Z</time>
      </trkpt>
      <trkpt lat="47.78861" lon="-3.55315">
        <ele>21</ele>
        <time>2018-07-14T12:00:31Z</time>
      </trkpt>
      <trkpt lat="47.78866" lon="-3.55304">
        <ele>20</ele>
        <time>2018-07-14T12:00:32Z</time>
      </trkpt>
      <trkpt lat="47.78872" lon="-3.55291">
        <ele>20</ele>
        <time>2018-07-14T12:00:33Z</time>
      </trkpt>
      <trkpt lat="47.78878" lon="-3.55279">
        <ele>20</ele>
        <time>2018-07-14T12:00:34Z</time>
      </trkpt>
      <trkpt lat="47.78884" lon="-3.55268">
        <ele>19</ele>
        <time>2018-07-14T12:00:35Z</time>
      </trkpt>
      <trkpt lat="47.78889" lon="-3.55256">
        <ele>19</ele>
        <time>2018-07-14T12:00:36Z</time>
      </trkpt>
      <trkpt lat="47.78894" lon="-3.55245">
        <ele>19</ele>
        <time>2018-07-14T12:00:37Z</time>
      </trkpt>
      <trkpt lat="47.78898" lon="-3.55234">
        <ele>19</ele>
        <time>2018-07-14T12:00:38Z</time>
      </trkpt>
      <trkpt lat="47.78902" lon="-3.55224">
        <ele>18</ele>
        <time>2018-07-14T12:00:39Z</time>
      </trkpt>
      <trkpt lat="47.78906" lon="-3.55215">
        <ele>18</ele>
        <time>2018-07-14T12:00:40Z</time>
      </trkpt>
      <trkpt lat="47.78909" lon="-3.55205">
        <ele>18</ele>
        <time>2018-07-14T12:00:41Z</time>
      </trkpt>
      <trkpt lat="47.78912" lon="-3.55196">
        <ele>18</ele>
        <time>2018-07-14T12:00:42Z</time>
      </trkpt>
      <trkpt lat="47.78915" lon="-3.55187">
        <ele>17</ele>
        <time>2018-07-14T12:00:43Z</time>
      </trkpt>
      <trkpt lat="47.78918" lon="-3.55179">
        <ele>17</ele>
        <time>2018-07-14T12:00:44Z</time>
      </trkpt>
      <trkpt lat="47.78921" lon="-3.5517">
        <ele>17</ele>
        <time>2018-07-14T12:00:45Z</time>
      </trkpt>
      <trkpt lat="47.78923" lon="-3.55162">
        <ele>17</ele>
        <time>2018-07-14T12:00:46Z</time>
      </trkpt>
      <trkpt lat="47.78926" lon="-3.55154">
        <ele>17</ele>
        <time>2018-07-14T12:00:47Z</time>
      </trkpt>
      <trkpt lat="47.78929" lon="-3.55146">
        <ele>17</ele>
        <time>2018-07-14T12:00:48Z</time>
      </trkpt>
      <trkpt lat="47.78932" lon="-3.55137">
        <ele>17</ele>
        <time>2018-07-14T12:00:49Z</time>
      </trkpt>
      <trkpt lat="47.78934" lon="-3.55129">
        <ele>17</ele>
        <time>2018-07-14T12:00:50Z</time>
      </trkpt>
      <trkpt lat="47.78937" lon="-3.55121">
        <ele>18</ele>
        <time>2018-07-14T12:00:51Z</time>
      </trkpt>
      <trkpt lat="47.7894" lon="-3.55113">
        <ele>18</ele>
        <time>2018-07-14T12:00:52Z</time>
      </trkpt>
      <trkpt lat="47.78942" lon="-3.55105">
        <ele>18</ele>
        <time>2018-07-14T12:00:53Z</time>
      </trkpt>
      <trkpt lat="47.78945" lon="-3.55097">
        <ele>18</ele>
        <time>2018-07-14T12:00:54Z</time>
      </trkpt>
      <trkpt lat="47.78947" lon="-3.55088">
        <ele>18</ele>
        <time>2018-07-14T12:00:55Z</time>
      </trkpt>
      <trkpt lat="47.78949" lon="-3.5508">
        <ele>18</ele>
        <time>2018-07-14T12:00:56Z</time>
      </trkpt>
      <trkpt lat="47.78951" lon="-3.55072">
        <ele>18</ele>
        <time>2018-07-14T12:00:57Z</time>
      </trkpt>
      <trkpt lat="47.78953" lon="-3.55063">
        <ele>18</ele>
        <time>2018-07-14T12:00:58Z</time>
      </trkpt>
      <trkpt lat="47.78955" lon="-3.55055">
        <ele>18</ele>
        <time>2018-07-14T12:00:59Z</time>
      </trkpt>
      <trkpt lat="47.78956" lon="-3.55046">
        <ele>17</ele>
        <time>2018-07-14T12:01:00Z</time>
      </trkpt>
      <trkpt lat="47.78956" lon="-3.55037">
        <ele>17</ele>
        <time>2018-07-14T12:01:01Z</time>
      </trkpt>
      <trkpt lat="47.78954" lon="-3.55029">
        <ele>16</ele>
        <time>2018-07-14T12:01:02Z</time>
      </trkpt>
      <trkpt lat="47.78952" lon="-3.5502">
        <ele>16</ele>
        <time>2018-07-14T12:01:03Z</time>
      </trkpt>
      <trkpt lat="47.78949" lon="-3.55013">
        <ele>16</ele>
        <time>2018-07-14T12:01:04Z</time>
      </trkpt>
      <trkpt lat="47.78946" lon="-3.55006">
        <ele>15</ele>
        <time>2018-07-14T12:01:05Z</time>
      </trkpt>
      <trkpt lat="47.78943" lon="-3.55">
        <ele>15</ele>
        <time>2018-07-14T12:01:06Z</time>
      </trkpt>
      <trkpt lat="47.78939" lon="-3.54994">
        <ele>15</ele>
        <time>2018-07-14T12:01:07Z</time>
      </trkpt>
      <trkpt lat="47.78936" lon="-3.54989">
        <ele>15</ele>
        <time>2018-07-14T12:01:08Z</time>
      </trkpt>
      <trkpt lat="47.78932" lon="-3.54984">
        <ele>14</ele>
        <time>2018-07-14T12:01:09Z</time>
      </trkpt>
      <trkpt lat="47.78928" lon="-3.5498">
        <ele>14</ele>
        <time>2018-07-14T12:01:10Z</time>
      </trkpt>
      <trkpt lat="47.78924" lon="-3.54977">
        <ele>14</ele>
        <time>2018-07-14T12:01:11Z</time>
      </trkpt>
      <trkpt lat="47.78921" lon="-3.54975">
        <ele>14</ele>
        <time>2018-07-14T12:01:12Z</time>
      </trkpt>
      <trkpt lat="47.78918" lon="-3.54972">
        <ele>14</ele>
        <time>2018-07-14T12:01:13Z</time>
      </trkpt>
      <trkpt lat="47.78918" lon="-3.5497">
        <ele>14</ele>
        <time>2018-07-14T12:01:14Z</time>
      </trkpt>
      <trkpt lat="47.78917" lon="-3.54968">
        <ele>14</ele>
        <time>2018-07-14T12:01:15Z</time>
      </trkpt>
      <trkpt lat="47.78918" lon="-3.54966">
        <ele>13</ele>
        <time>2018-07-14T12:01:16Z</time>
      </trkpt>
      <trkpt lat="47.78918" lon="-3.54963">
        <ele>13</ele>
        <time>2018-07-14T12:01:17Z</time>
      </trkpt>
      <trkpt lat="47.7892" lon="-3.54959">
        <ele>13</ele>
        <time>2018-07-14T12:01:18Z</time>
      </trkpt>
      <trkpt lat="47.78922" lon="-3.54954">
        <ele>13</ele>
        <time>2018-07-14T12:01:19Z</time>
      </trkpt>
      <trkpt lat="47.78924" lon="-3.5495">
        <ele>13</ele>
        <time>2018-07-14T12:01:20Z</time>
      </trkpt>
      <trkpt lat="47.78926" lon="-3.54945">
        <ele>13</ele>
        <time>2018-07-14T12:01:21Z</time>
      </trkpt>
      <trkpt lat="47.78927" lon="-3.54941">
        <ele>13</ele>
        <time>2018-07-14T12:01:22Z</time>
      </trkpt>
      <trkpt lat="47.78928" lon="-3.54939">
        <ele>13</ele>
        <time>2018-07-14T12:01:23Z</time>
      </trkpt>
      <trkpt lat="47.78929" lon="-3.54937">
        <ele>13</ele>
        <time>2018-07-14T12:01:24Z</time>
      </trkpt>
      <trkpt lat="47.78929" lon="-3.54936">
        <ele>13</ele>
        <time>2018-07-14T12:01:25Z</time>
      </trkpt>
      <trkpt lat="47.78929" lon="-3.54936">
        <ele>13</ele>
        <time>2018-07-14T12:01:26Z</time>
      </trkpt>
      <trkpt lat="47.78928" lon="-3.54934">
        <ele>13</ele>
        <time>2018-07-14T12:01:27Z</time>
      </trkpt>
      <trkpt lat="47.78928" lon="-3.54932">
        <ele>13</ele>
        <time>2018-07-14T12:01:28Z</time>
      </trkpt>
      <trkpt lat="47.78928" lon="-3.5493">
        <ele>12</ele>
        <time>2018-07-14T12:01:29Z</time>
      </trkpt>
      <trkpt lat="47.78928" lon="-3.54927">
        <ele>12</ele>
        <time>2018-07-14T12:01:30Z</time>
      </trkpt>
      <trkpt lat="47.78929" lon="-3.54924">
        <ele>12</ele>
        <time>2018-07-14T12:01:31Z</time>
      </trkpt>
      <trkpt lat="47.7893" lon="-3.5492">
        <ele>12</ele>
        <time>2018-07-14T12:01:32Z</time>
      </trkpt>
      <trkpt lat="47.78931" lon="-3.54916">
        <ele>12</ele>
        <time>2018-07-14T12:01:33Z</time>
      </trkpt>
      <trkpt lat="47.78932" lon="-3.54911">
        <ele>12</ele>
        <time>2018-07-14T12:01:34Z</time>
      </trkpt>
      <trkpt lat="47.78933" lon="-3.54906">
        <ele>12</ele>
        <time>2018-07-14T12:01:35Z</time>
      </trkpt>
      <trkpt lat="47.78934" lon="-3.549">
        <ele>12</ele>
        <time>2018-07-14T12:01:36Z</time>
      </trkpt>
      <trkpt lat="47.78936" lon="-3.54894">
        <ele>12</ele>
        <time>2018-07-14T12:01:37Z</time>
      </trkpt>
      <trkpt lat="47.78938" lon="-3.54887">
        <ele>12</ele>
        <time>2018-07-14T12:01:38Z</time>
      </trkpt>
      <trkpt lat="47.7894" lon="-3.54881">
        <ele>12</ele>
        <time>2018-07-14T12:01:39Z</time>
      </trkpt>
      <trkpt lat="47.78943" lon="-3.54876">
        <ele>12</ele>
        <time>2018-07-14T12:01:40Z</time>
      </trkpt>
      <trkpt lat="47.78946" lon="-3.54871">
        <ele>12</ele>
        <time>2018-07-14T12:01:41Z</time>
      </trkpt>
      <trkpt lat="47.78948" lon="-3.54866">
        <ele>13</ele>
        <time>2018-07-14T12:01:42Z</time>
      </trkpt>
      <trkpt lat="47.78951" lon="-3.54862">
        <ele>13</ele>
        <time>2018-07-14T12:01:43Z</time>
      </trkpt>
      <trkpt lat="47.78953" lon="-3.54858">
        <ele>13</ele>
        <time>2018-07-14T12:01:44Z</time>
      </trkpt>
      <trkpt lat="47.78956" lon="-3.54852">
        <ele>13</ele>
        <time>2018-07-14T12:01:45Z</time>
      </trkpt>
      <trkpt lat="47.78958" lon="-3.54846">
        <ele>13</ele>
        <time>2018-07-14T12:01:46Z</time>
      </trkpt>
      <trkpt lat="47.78961" lon="-3.54839">
        <ele>13</ele>
        <time>2018-07-14T12:01:47Z</time>
      </trkpt>
      <trkpt lat="47.78965" lon="-3.54833">
        <ele>13</ele>
        <time>2018-07-14T12:01:48Z</time>
      </trkpt>
      <trkpt lat="47.78969" lon="-3.54826">
        <ele>13</ele>
        <time>2018-07-14T12:01:49Z</time>
      </trkpt>
      <trkpt lat="47.78973" lon="-3.54821">
        <ele>13</ele>
        <time>2018-07-14T12:01:50Z</time>
      </trkpt>
      <trkpt lat="47.78977" lon="-3.54816">
        <ele>13</ele>
        <time>2018-07-14T12:01:51Z</time>
      </trkpt>
      <trkpt lat="47.78979" lon="-3.5481">
        <ele>13</ele>
        <time>2018-07-14T12:01:52Z</time>
      </trkpt>
      <trkpt lat="47.78981" lon="-3.54804">
        <ele>13</ele>
        <time>2018-07-14T12:01:53Z</time>
      </trkpt>
      <trkpt lat="47.78983" lon="-3.54798">
        <ele>13</ele>
        <time>2018-07-14T12:01:54Z</time>
      </trkpt>
      <trkpt lat="47.78986" lon="-3.54792">
        <ele>13</ele>
        <time>2018-07-14T12:01:55Z</time>
      </trkpt>
      <trkpt lat="47.78987" lon="-3.54786">
        <ele>13</ele>
        <time>2018-07-14T12:01:56Z</time>
      </trkpt>
      <trkpt lat="47.78989" lon="-3.5478">
        <ele>13</ele>
        <time>2018-07-14T12:01:57Z</time>
      </trkpt>
      <trkpt lat="47.7899" lon="-3.54773">
        <ele>13</ele>
        <time>2018-07-14T12:01:58Z</time>
      </trkpt>
      <trkpt lat="47.78992" lon="-3.54767">
        <ele>13</ele>
        <time>2018-07-14T12:01:59Z</time>
      </trkpt>
      <trkpt lat="47.78993" lon="-3.54762">
        <ele>14</ele>
        <time>2018-07-14T12:02:00Z</time>
      </trkpt>
      <trkpt lat="47.78992" lon="-3.54757">
        <ele>14</ele>
        <time>2018-07-14T12:02:01Z</time>
      </trkpt>
      <trkpt lat="47.78992" lon="-3.54753">
        <ele>14</ele>
        <time>2018-07-14T12:02:02Z</time>
      </trkpt>
      <trkpt lat="47.78992" lon="-3.54749">
        <ele>14</ele>
        <time>2018-07-14T12:02:03Z</time>
      </trkpt>
      <trkpt lat="47.78992" lon="-3.54745">
        <ele>14</ele>
        <time>2018-07-14T12:02:04Z</time>
      </trkpt>
      <trkpt lat="47.78992" lon="-3.54743">
        <ele>14</ele>
        <time>2018-07-14T12:02:05Z</time>
      </trkpt>
      <trkpt lat="47.78992" lon="-3.5474">
        <ele>14</ele>
        <time>2018-07-14T12:02:06Z</time>
      </trkpt>
      <trkpt lat="47.78992" lon="-3.54738">
        <ele>14</ele>
        <time>2018-07-14T12:02:07Z</time>
      </trkpt>
      <trkpt lat="47.78993" lon="-3.54735">
        <ele>15</ele>
        <time>2018-07-14T12:02:08Z</time>
      </trkpt>
      <trkpt lat="47.78993" lon="-3.54731">
        <ele>15</ele>
        <time>2018-07-14T12:02:09Z</time>
      </trkpt>
      <trkpt lat="47.78994" lon="-3.54727">
        <ele>15</ele>
        <time>2018-07-14T12:02:10Z</time>
      </trkpt>
      <trkpt lat="47.78994" lon="-3.54723">
        <ele>15</ele>
        <time>2018-07-14T12:02:11Z</time>
      </trkpt>
      <trkpt lat="47.78994" lon="-3.54719">
        <ele>16</ele>
        <time>2018-07-14T12:02:12Z</time>
      </trkpt>
      <trkpt lat="47.78994" lon="-3.54716">
        <ele>16</ele>
        <time>2018-07-14T12:02:13Z</time>
      </trkpt>
      <trkpt lat="47.78994" lon="-3.54713">
        <ele>16</ele>
        <time>2018-07-14T12:02:14Z</time>
      </trkpt>
      <trkpt lat="47.78994" lon="-3.5471">
        <ele>16</ele>
        <time>2018-07-14T12:02:15Z</time>
      </trkpt>
      <trkpt lat="47.78993" lon="-3.54707">
        <ele>16</ele>
        <time>2018-07-14T12:02:16Z</time>
      </trkpt>
      <trkpt lat="47.78993" lon="-3.54705">
        <ele>16</ele>
        <time>2018-07-14T12:02:17Z</time>
      </trkpt>
      <trkpt lat="47.78993" lon="-3.54703">
        <ele>16</ele>
        <time>2018-07-14T12:02:18Z</time>
      </trkpt>
      <trkpt lat="47.78992" lon="-3.54702">
        <ele>17</ele>
        <time>2018-07-14T12:02:19Z</time>
      </trkpt>
      <trkpt lat="47.78992" lon="-3.547">
        <ele>17</ele>
        <time>2018-07-14T12:02:20Z</time>
      </trkpt>
      <trkpt lat="47.78991" lon="-3.54697">
        <ele>17</ele>
        <time>2018-07-14T12:02:21Z</time>
      </trkpt>
      <trkpt lat="47.78991" lon="-3.54694">
        <ele>16</ele>
        <time>2018-07-14T12:02:22Z</time>
      </trkpt>
      <trkpt lat="47.78991" lon="-3.54691">
        <ele>16</ele>
        <time>2018-07-14T12:02:23Z</time>
      </trkpt>
      <trkpt lat="47.78991" lon="-3.54687">
        <ele>16</ele>
        <time>2018-07-14T12:02:24Z</time>
      </trkpt>
      <trkpt lat="47.78992" lon="-3.54684">
        <ele>16</ele>
        <time>2018-07-14T12:02:25Z</time>
      </trkpt>
      <trkpt lat="47.78993" lon="-3.54681">
        <ele>16</ele>
        <time>2018-07-14T12:02:26Z</time>
      </trkpt>
      <trkpt lat="47.78995" lon="-3.54677">
        <ele>16</ele>
        <time>2018-07-14T12:02:27Z</time>
      </trkpt>
      <trkpt lat="47.78997" lon="-3.54673">
        <ele>16</ele>
        <time>2018-07-14T12:02:28Z</time>
      </trkpt>
      <trkpt lat="47.78998" lon="-3.5467">
        <ele>16</ele>
        <time>2018-07-14T12:02:29Z</time>
      </trkpt>
      <trkpt lat="47.79" lon="-3.54668">
        <ele>16</ele>
        <time>2018-07-14T12:02:30Z</time>
      </trkpt>
      <trkpt lat="47.79002" lon="-3.54665">
        <ele>16</ele>
        <time>2018-07-14T12:02:31Z</time>
      </trkpt>
      <trkpt lat="47.79004" lon="-3.54663">
        <ele>16</ele>
        <time>2018-07-14T12:02:32Z</time>
      </trkpt>
      <trkpt lat="47.79006" lon="-3.54662">
        <ele>16</ele>
        <time>2018-07-14T12:02:33Z</time>
      </trkpt>
      <trkpt lat="47.79008" lon="-3.5466">
        <ele>16</ele>
        <time>2018-07-14T12:02:34Z</time>
      </trkpt>
      <trkpt lat="47.7901" lon="-3.54658">
        <ele>16</ele>
        <time>2018-07-14T12:02:35Z</time>
      </trkpt>
      <trkpt lat="47.79013" lon="-3.54655">
        <ele>16</ele>
        <time>2018-07-14T12:02:36Z</time>
      </trkpt>
      <trkpt lat="47.79015" lon="-3.5465">
        <ele>16</ele>
        <time>2018-07-14T12:02:37Z</time>
      </trkpt>
      <trkpt lat="47.79017" lon="-3.54644">
        <ele>16</ele>
        <time>2018-07-14T12:02:38Z</time>
      </trkpt>
      <trkpt lat="47.79019" lon="-3.54638">
        <ele>17</ele>
        <time>2018-07-14T12:02:39Z</time>
      </trkpt>
      <trkpt lat="47.7902" lon="-3.54634">
        <ele>17</ele>
        <time>2018-07-14T12:02:40Z</time>
      </trkpt>
      <trkpt lat="47.79022" lon="-3.54629">
        <ele>17</ele>
        <time>2018-07-14T12:02:41Z</time>
      </trkpt>
      <trkpt lat="47.79023" lon="-3.54625">
        <ele>17</ele>
        <time>2018-07-14T12:02:42Z</time>
      </trkpt>
      <trkpt lat="47.79025" lon="-3.54619">
        <ele>17</ele>
        <time>2018-07-14T12:02:43Z</time>
      </trkpt>
      <trkpt lat="47.79026" lon="-3.54613">
        <ele>17</ele>
        <time>2018-07-14T12:02:44Z</time>
      </trkpt>
      <trkpt lat="47.79029" lon="-3.54608">
        <ele>17</ele>
        <time>2018-07-14T12:02:45Z</time>
      </trkpt>
      <trkpt lat="47.79032" lon="-3.54604">
        <ele>17</ele>
        <time>2018-07-14T12:02:46Z</time>
      </trkpt>
      <trkpt lat="47.79035" lon="-3.54599">
        <ele>17</ele>
        <time>2018-07-14T12:02:47Z</time>
      </trkpt>
      <trkpt lat="47.79037" lon="-3.54595">
        <ele>17</ele>
        <time>2018-07-14T12:02:48Z</time>
      </trkpt>
      <trkpt lat="47.79039" lon="-3.5459">
        <ele>17</ele>
        <time>2018-07-14T12:02:49Z</time>
      </trkpt>
      <trkpt lat="47.79041" lon="-3.54585">
        <ele>17</ele>
        <time>2018-07-14T12:02:50Z</time>
      </trkpt>
      <trkpt lat="47.79043" lon="-3.54579">
        <ele>17</ele>
        <time>2018-07-14T12:02:51Z</time>
      </trkpt>
      <trkpt lat="47.79044" lon="-3.54574">
        <ele>18</ele>
        <time>2018-07-14T12:02:52Z</time>
      </trkpt>
      <trkpt lat="47.79045" lon="-3.54569">
        <ele>18</ele>
        <time>2018-07-14T12:02:53Z</time>
      </trkpt>
      <trkpt lat="47.79046" lon="-3.54563">
        <ele>18</ele>
        <time>2018-07-14T12:02:54Z</time>
      </trkpt>
      <trkpt lat="47.79046" lon="-3.54558">
        <ele>18</ele>
        <time>2018-07-14T12:02:55Z</time>
      </trkpt>
      <trkpt lat="47.79046" lon="-3.54553">
        <ele>18</ele>
        <time>2018-07-14T12:02:56Z</time>
      </trkpt>
      <trkpt lat="47.79046" lon="-3.54547">
        <ele>18</ele>
        <time>2018-07-14T12:02:57Z</time>
      </trkpt>
      <trkpt lat="47.79046" lon="-3.54543">
        <ele>18</ele>
        <time>2018-07-14T12:02:58Z</time>
      </trkpt>
      <trkpt lat="47.79045" lon="-3.54537">
        <ele>18</ele>
        <time>2018-07-14T12:02:59Z</time>
      </trkpt>
      <trkpt lat="47.79043" lon="-3.54531">
        <ele>18</ele>
        <time>2018-07-14T12:03:00Z</time>
      </trkpt>
      <trkpt lat="47.7904" lon="-3.54526">
        <ele>18</ele>
        <time>2018-07-14T12:03:01Z</time>
      </trkpt>
      <trkpt lat="47.79037" lon="-3.54521">
        <ele>18</ele>
        <time>2018-07-14T12:03:02Z</time>
      </trkpt>
      <trkpt lat="47.79034" lon="-3.54517">
        <ele>18</ele>
        <time>2018-07-14T12:03:03Z</time>
      </trkpt>
      <trkpt lat="47.7903" lon="-3.54513">
        <ele>18</ele>
        <time>2018-07-14T12:03:04Z</time>
      </trkpt>
      <trkpt lat="47.79026" lon="-3.54508">
        <ele>18</ele>
        <time>2018-07-14T12:03:05Z</time>
      </trkpt>
      <trkpt lat="47.79023" lon="-3.54504">
        <ele>17</ele>
        <time>2018-07-14T12:03:06Z</time>
      </trkpt>
      <trkpt lat="47.79019" lon="-3.54501">
        <ele>17</ele>
        <time>2018-07-14T12:03:07Z</time>
      </trkpt>
      <trkpt lat="47.79016" lon="-3.54498">
        <ele>17</ele>
        <time>2018-07-14T12:03:08Z</time>
      </trkpt>
      <trkpt lat="47.79013" lon="-3.54494">
        <ele>17</ele>
        <time>2018-07-14T12:03:09Z</time>
      </trkpt>
      <trkpt lat="47.7901" lon="-3.54491">
        <ele>17</ele>
        <time>2018-07-14T12:03:10Z</time>
      </trkpt>
      <trkpt lat="47.79009" lon="-3.54488">
        <ele>17</ele>
        <time>2018-07-14T12:03:11Z</time>
      </trkpt>
      <trkpt lat="47.79007" lon="-3.54486">
        <ele>17</ele>
        <time>2018-07-14T12:03:12Z</time>
      </trkpt>
      <trkpt lat="47.79006" lon="-3.54485">
        <ele>17</ele>
        <time>2018-07-14T12:03:13Z</time>
      </trkpt>
      <trkpt lat="47.79006" lon="-3.54484">
        <ele>16</ele>
        <time>2018-07-14T12:03:14Z</time>
      </trkpt>
      <trkpt lat="47.79005" lon="-3.54483">
        <ele>16</ele>
        <time>2018-07-14T12:03:15Z</time>
      </trkpt>
      <trkpt lat="47.79005" lon="-3.54482">
        <ele>16</ele>
        <time>2018-07-14T12:03:16Z</time>
      </trkpt>
      <trkpt lat="47.79004" lon="-3.54481">
        <ele>16</ele>
        <time>2018-07-14T12:03:17Z</time>
      </trkpt>
      <trkpt lat="47.79004" lon="-3.54481">
        <ele>16</ele>
        <time>2018-07-14T12:03:18Z</time>
      </trkpt>
      <trkpt lat="47.79003" lon="-3.5448">
        <ele>16</ele>
        <time>2018-07-14T12:03:19Z</time>
      </trkpt>
      <trkpt lat="47.79003" lon="-3.54479">
        <ele>16</ele>
        <time>2018-07-14T12:03:20Z</time>
      </trkpt>
      <trkpt lat="47.79002" lon="-3.54478">
        <ele>15</ele>
        <time>2018-07-14T12:03:21Z</time>
      </trkpt>
      <trkpt lat="47.79002" lon="-3.54477">
        <ele>15</ele>
        <time>2018-07-14T12:03:22Z</time>
      </trkpt>
      <trkpt lat="47.79001" lon="-3.54476">
        <ele>15</ele>
        <time>2018-07-14T12:03:23Z</time>
      </trkpt>
      <trkpt lat="47.79002" lon="-3.54475">
        <ele>15</ele>
        <time>2018-07-14T12:03:24Z</time>
      </trkpt>
      <trkpt lat="47.79002" lon="-3.54475">
        <ele>15</ele>
        <time>2018-07-14T12:03:25Z</time>
      </trkpt>
      <trkpt lat="47.78998" lon="-3.54474">
        <ele>15</ele>
        <time>2018-07-14T12:03:26Z</time>
      </trkpt>
      <trkpt lat="47.78997" lon="-3.54474">
        <ele>15</ele>
        <time>2018-07-14T12:03:27Z</time>
      </trkpt>
      <trkpt lat="47.78997" lon="-3.54473">
        <ele>15</ele>
        <time>2018-07-14T12:03:28Z</time>
      </trkpt>
      <trkpt lat="47.78997" lon="-3.54472">
        <ele>15</ele>
        <time>2018-07-14T12:03:29Z</time>
      </trkpt>
      <trkpt lat="47.78996" lon="-3.54472">
        <ele>16</ele>
        <time>2018-07-14T12:03:30Z</time>
      </trkpt>
      <trkpt lat="47.78996" lon="-3.54471">
        <ele>16</ele>
        <time>2018-07-14T12:03:31Z</time>
      </trkpt>
      <trkpt lat="47.78994" lon="-3.54471">
        <ele>16</ele>
        <time>2018-07-14T12:03:32Z</time>
      </trkpt>
      <trkpt lat="47.78994" lon="-3.54471">
        <ele>16</ele>
        <time>2018-07-14T12:03:33Z</time>
      </trkpt>
      <trkpt lat="47.78993" lon="-3.54471">
        <ele>16</ele>
        <time>2018-07-14T12:03:34Z</time>
      </trkpt>
      <trkpt lat="47.78993" lon="-3.54472">
        <ele>16</ele>
        <time>2018-07-14T12:03:35Z</time>
      </trkpt>
      <trkpt lat="47.78992" lon="-3.54472">
        <ele>16</ele>
        <time>2018-07-14T12:03:36Z</time>
      </trkpt>
      <trkpt lat="47.78991" lon="-3.54473">
        <ele>16</ele>
        <time>2018-07-14T12:03:37Z</time>
      </trkpt>
      <trkpt lat="47.7899" lon="-3.54474">
        <ele>16</ele>
        <time>2018-07-14T12:03:38Z</time>
      </trkpt>
      <trkpt lat="47.7899" lon="-3.54474">
        <ele>16</ele>
        <time>2018-07-14T12:03:39Z</time>
      </trkpt>
      <trkpt lat="47.78989" lon="-3.54474">
        <ele>17</ele>
        <time>2018-07-14T12:03:40Z</time>
      </trkpt>
      <trkpt lat="47.78989" lon="-3.54474">
        <ele>17</ele>
        <time>2018-07-14T12:03:41Z</time>
      </trkpt>
      <trkpt lat="47.78988" lon="-3.54473">
        <ele>16</ele>
        <time>2018-07-14T12:03:42Z</time>
      </trkpt>
      <trkpt lat="47.78987" lon="-3.54473">
        <ele>16</ele>
        <time>2018-07-14T12:03:43Z</time>
      </trkpt>
      <trkpt lat="47.78987" lon="-3.54473">
        <ele>16</ele>
        <time>2018-07-14T12:03:44Z</time>
      </trkpt>
      <trkpt lat="47.78986" lon="-3.54472">
        <ele>16</ele>
        <time>2018-07-14T12:03:45Z</time>
      </trkpt>
      <trkpt lat="47.78985" lon="-3.54471">
        <ele>16</ele>
        <time>2018-07-14T12:03:46Z</time>
      </trkpt>
      <trkpt lat="47.78984" lon="-3.54471">
        <ele>16</ele>
        <time>2018-07-14T12:03:47Z</time>
      </trkpt>
      <trkpt lat="47.78984" lon="-3.5447">
        <ele>16</ele>
        <time>2018-07-14T12:03:48Z</time>
      </trkpt>
      <trkpt lat="47.78983" lon="-3.5447">
        <ele>16</ele>
        <time>2018-07-14T12:03:49Z</time>
      </trkpt>
      <trkpt lat="47.78982" lon="-3.5447">
        <ele>16</ele>
        <time>2018-07-14T12:03:50Z</time>
      </trkpt>
      <trkpt lat="47.78981" lon="-3.5447">
        <ele>15</ele>
        <time>2018-07-14T12:03:51Z</time>
      </trkpt>
      <trkpt lat="47.78981" lon="-3.5447">
        <ele>15</ele>
        <time>2018-07-14T12:03:52Z</time>
      </trkpt>
      <trkpt lat="47.7898" lon="-3.5447">
        <ele>15</ele>
        <time>2018-07-14T12:03:53Z</time>
      </trkpt>
      <trkpt lat="47.7898" lon="-3.54469">
        <ele>15</ele>
        <time>2018-07-14T12:03:54Z</time>
      </trkpt>
      <trkpt lat="47.78978" lon="-3.54468">
        <ele>15</ele>
        <time>2018-07-14T12:03:55Z</time>
      </trkpt>
      <trkpt lat="47.78977" lon="-3.54467">
        <ele>15</ele>
        <time>2018-07-14T12:03:56Z</time>
      </trkpt>
      <trkpt lat="47.78976" lon="-3.54465">
        <ele>15</ele>
        <time>2018-07-14T12:03:57Z</time>
      </trkpt>
      <trkpt lat="47.78974" lon="-3.54464">
        <ele>15</ele>
        <time>2018-07-14T12:03:58Z</time>
      </trkpt>
      <trkpt lat="47.78972" lon="-3.54461">
        <ele>14</ele>
        <time>2018-07-14T12:03:59Z</time>
      </trkpt>
      <trkpt lat="47.7897" lon="-3.54459">
        <ele>14</ele>
        <time>2018-07-14T12:04:00Z</time>
      </trkpt>
      <trkpt lat="47.78968" lon="-3.54457">
        <ele>14</ele>
        <time>2018-07-14T12:04:01Z</time>
      </trkpt>
      <trkpt lat="47.78966" lon="-3.54454">
        <ele>14</ele>
        <time>2018-07-14T12:04:02Z</time>
      </trkpt>
      <trkpt lat="47.78964" lon="-3.54451">
        <ele>14</ele>
        <time>2018-07-14T12:04:03Z</time>
      </trkpt>
      <trkpt lat="47.78962" lon="-3.54449">
        <ele>14</ele>
        <time>2018-07-14T12:04:04Z</time>
      </trkpt>
      <trkpt lat="47.78959" lon="-3.54447">
        <ele>14</ele>
        <time>2018-07-14T12:04:05Z</time>
      </trkpt>
      <trkpt lat="47.78957" lon="-3.54444">
        <ele>14</ele>
        <time>2018-07-14T12:04:06Z</time>
      </trkpt>
      <trkpt lat="47.78955" lon="-3.54441">
        <ele>14</ele>
        <time>2018-07-14T12:04:07Z</time>
      </trkpt>
      <trkpt lat="47.78954" lon="-3.54438">
        <ele>14</ele>
        <time>2018-07-14T12:04:08Z</time>
      </trkpt>
      <trkpt lat="47.78952" lon="-3.54434">
        <ele>14</ele>
        <time>2018-07-14T12:04:09Z</time>
      </trkpt>
      <trkpt lat="47.78951" lon="-3.54431">
        <ele>14</ele>
        <time>2018-07-14T12:04:10Z</time>
      </trkpt>
      <trkpt lat="47.7895" lon="-3.54429">
        <ele>14</ele>
        <time>2018-07-14T12:04:11Z</time>
      </trkpt>
      <trkpt lat="47.78948" lon="-3.54427">
        <ele>14</ele>
        <time>2018-07-14T12:04:12Z</time>
      </trkpt>
      <trkpt lat="47.78946" lon="-3.54425">
        <ele>14</ele>
        <time>2018-07-14T12:04:13Z</time>
      </trkpt>
      <trkpt lat="47.78944" lon="-3.54424">
        <ele>14</ele>
        <time>2018-07-14T12:04:14Z</time>
      </trkpt>
      <trkpt lat="47.78942" lon="-3.54422">
        <ele>14</ele>
        <time>2018-07-14T12:04:15Z</time>
      </trkpt>
      <trkpt lat="47.7894" lon="-3.54419">
        <ele>14</ele>
        <time>2018-07-14T12:04:16Z</time>
      </trkpt>
      <trkpt lat="47.78938" lon="-3.54417">
        <ele>15</ele>
        <time>2018-07-14T12:04:17Z</time>
      </trkpt>
      <trkpt lat="47.78936" lon="-3.54414">
        <ele>15</ele>
        <time>2018-07-14T12:04:18Z</time>
      </trkpt>
      <trkpt lat="47.78935" lon="-3.54411">
        <ele>15</ele>
        <time>2018-07-14T12:04:19Z</time>
      </trkpt>
      <trkpt lat="47.78934" lon="-3.54408">
        <ele>15</ele>
        <time>2018-07-14T12:04:20Z</time>
      </trkpt>
      <trkpt lat="47.78932" lon="-3.54405">
        <ele>15</ele>
        <time>2018-07-14T12:04:21Z</time>
      </trkpt>
      <trkpt lat="47.78931" lon="-3.54402">
        <ele>15</ele>
        <time>2018-07-14T12:04:22Z</time>
      </trkpt>
      <trkpt lat="47.78931" lon="-3.544">
        <ele>16</ele>
        <time>2018-07-14T12:04:23Z</time>
      </trkpt>
      <trkpt lat="47.7893" lon="-3.54398">
        <ele>16</ele>
        <time>2018-07-14T12:04:24Z</time>
      </trkpt>
      <trkpt lat="47.78929" lon="-3.54396">
        <ele>16</ele>
        <time>2018-07-14T12:04:25Z</time>
      </trkpt>
      <trkpt lat="47.78927" lon="-3.54394">
        <ele>16</ele>
        <time>2018-07-14T12:04:26Z</time>
      </trkpt>
      <trkpt lat="47.78926" lon="-3.54392">
        <ele>16</ele>
        <time>2018-07-14T12:04:27Z</time>
      </trkpt>
      <trkpt lat="47.78925" lon="-3.54391">
        <ele>17</ele>
        <time>2018-07-14T12:04:28Z</time>
      </trkpt>
      <trkpt lat="47.78923" lon="-3.54391">
        <ele>17</ele>
        <time>2018-07-14T12:04:29Z</time>
      </trkpt>
      <trkpt lat="47.78922" lon="-3.5439">
        <ele>17</ele>
        <time>2018-07-14T12:04:30Z</time>
      </trkpt>
      <trkpt lat="47.78922" lon="-3.5439">
        <ele>17</ele>
        <time>2018-07-14T12:04:31Z</time>
      </trkpt>
      <trkpt lat="47.78921" lon="-3.54391">
        <ele>18</ele>
        <time>2018-07-14T12:04:32Z</time>
      </trkpt>
      <trkpt lat="47.7892" lon="-3.54392">
        <ele>18</ele>
        <time>2018-07-14T12:04:33Z</time>
      </trkpt>
      <trkpt lat="47.78918" lon="-3.54392">
        <ele>18</ele>
        <time>2018-07-14T12:04:34Z</time>
      </trkpt>
      <trkpt lat="47.78916" lon="-3.54392">
        <ele>18</ele>
        <time>2018-07-14T12:04:35Z</time>
      </trkpt>
      <trkpt lat="47.78915" lon="-3.5439">
        <ele>19</ele>
        <time>2018-07-14T12:04:36Z</time>
      </trkpt>
      <trkpt lat="47.78912" lon="-3.54388">
        <ele>19</ele>
        <time>2018-07-14T12:04:37Z</time>
      </trkpt>
      <trkpt lat="47.7891" lon="-3.54385">
        <ele>19</ele>
        <time>2018-07-14T12:04:38Z</time>
      </trkpt>
      <trkpt lat="47.78908" lon="-3.54383">
        <ele>19</ele>
        <time>2018-07-14T12:04:39Z</time>
      </trkpt>
      <trkpt lat="47.78906" lon="-3.54381">
        <ele>20</ele>
        <time>2018-07-14T12:04:40Z</time>
      </trkpt>
      <trkpt lat="47.78904" lon="-3.54378">
        <ele>20</ele>
        <time>2018-07-14T12:04:41Z</time>
      </trkpt>
      <trkpt lat="47.78903" lon="-3.54376">
        <ele>20</ele>
        <time>2018-07-14T12:04:42Z</time>
      </trkpt>
      <trkpt lat="47.78901" lon="-3.54373">
        <ele>20</ele>
        <time>2018-07-14T12:04:43Z</time>
      </trkpt>
      <trkpt lat="47.78899" lon="-3.5437">
        <ele>20</ele>
        <time>2018-07-14T12:04:44Z</time>
      </trkpt>
      <trkpt lat="47.78897" lon="-3.54367">
        <ele>20</ele>
        <time>2018-07-14T12:04:45Z</time>
      </trkpt>
      <trkpt lat="47.78894" lon="-3.54364">
        <ele>20</ele>
        <time>2018-07-14T12:04:46Z</time>
      </trkpt>
      <trkpt lat="47.78891" lon="-3.54362">
        <ele>20</ele>
        <time>2018-07-14T12:04:47Z</time>
      </trkpt>
      <trkpt lat="47.78888" lon="-3.54359">
        <ele>20</ele>
        <time>2018-07-14T12:04:48Z</time>
      </trkpt>
      <trkpt lat="47.78884" lon="-3.54356">
        <ele>20</ele>
        <time>2018-07-14T12:04:49Z</time>
      </trkpt>
      <trkpt lat="47.7888" lon="-3.54353">
        <ele>20</ele>
        <time>2018-07-14T12:04:50Z</time>
      </trkpt>
      <trkpt lat="47.78875" lon="-3.54349">
        <ele>20</ele>
        <time>2018-07-14T12:04:51Z</time>
      </trkpt>
      <trkpt lat="47.78871" lon="-3.54345">
        <ele>20</ele>
        <time>2018-07-14T12:04:52Z</time>
      </trkpt>
      <trkpt lat="47.78867" lon="-3.54342">
        <ele>20</ele>
        <time>2018-07-14T12:04:53Z</time>
      </trkpt>
      <trkpt lat="47.78864" lon="-3.54338">
        <ele>20</ele>
        <time>2018-07-14T12:04:54Z</time>
      </trkpt>
      <trkpt lat="47.78862" lon="-3.54336">
        <ele>20</ele>
        <time>2018-07-14T12:04:55Z</time>
      </trkpt>
      <trkpt lat="47.78859" lon="-3.54334">
        <ele>20</ele>
        <time>2018-07-14T12:04:56Z</time>
      </trkpt>
      <trkpt lat="47.78856" lon="-3.54331">
        <ele>20</ele>
        <time>2018-07-14T12:04:57Z</time>
      </trkpt>
      <trkpt lat="47.78853" lon="-3.54328">
        <ele>20</ele>
        <time>2018-07-14T12:04:58Z</time>
      </trkpt>
      <trkpt lat="47.7885" lon="-3.54326">
        <ele>20</ele>
        <time>2018-07-14T12:04:59Z</time>
      </trkpt>
      <trkpt lat="47.78847" lon="-3.54324">
        <ele>20</ele>
        <time>2018-07-14T12:05:00Z</time>
      </trkpt>
      <trkpt lat="47.78843" lon="-3.54323">
        <ele>20</ele>
        <time>2018-07-14T12:05:01Z</time>
      </trkpt>
      <trkpt lat="47.7884" lon="-3.54321">
        <ele>20</ele>
        <time>2018-07-14T12:05:02Z</time>
      </trkpt>
      <trkpt lat="47.78837" lon="-3.54319">
        <ele>20</ele>
        <time>2018-07-14T12:05:03Z</time>
      </trkpt>
      <trkpt lat="47.78834" lon="-3.54317">
        <ele>20</ele>
        <time>2018-07-14T12:05:04Z</time>
      </trkpt>
      <trkpt lat="47.78831" lon="-3.54314">
        <ele>20</ele>
        <time>2018-07-14T12:05:05Z</time>
      </trkpt>
      <trkpt lat="47.78828" lon="-3.54311">
        <ele>20</ele>
        <time>2018-07-14T12:05:06Z</time>
      </trkpt>
      <trkpt lat="47.78825" lon="-3.54309">
        <ele>20</ele>
        <time>2018-07-14T12:05:07Z</time>
      </trkpt>
      <trkpt lat="47.78822" lon="-3.54307">
        <ele>20</ele>
        <time>2018-07-14T12:05:08Z</time>
      </trkpt>
      <trkpt lat="47.78819" lon="-3.54304">
        <ele>20</ele>
        <time>2018-07-14T12:05:09Z</time>
      </trkpt>
      <trkpt lat="47.78817" lon="-3.543">
        <ele>20</ele>
        <time>2018-07-14T12:05:10Z</time>
      </trkpt>
      <trkpt lat="47.78814" lon="-3.54297">
        <ele>20</ele>
        <time>2018-07-14T12:05:11Z</time>
      </trkpt>
      <trkpt lat="47.78811" lon="-3.54293">
        <ele>20</ele>
        <time>2018-07-14T12:05:12Z</time>
      </trkpt>
      <trkpt lat="47.78809" lon="-3.5429">
        <ele>20</ele>
        <time>2018-07-14T12:05:13Z</time>
      </trkpt>
      <trkpt lat="47.78806" lon="-3.54287">
        <ele>20</ele>
        <time>2018-07-14T12:05:14Z</time>
      </trkpt>
      <trkpt lat="47.78804" lon="-3.54283">
        <ele>20</ele>
        <time>2018-07-14T12:05:15Z</time>
      </trkpt>
      <trkpt lat="47.78801" lon="-3.54281">
        <ele>20</ele>
        <time>2018-07-14T12:05:16Z</time>
      </trkpt>
      <trkpt lat="47.78799" lon="-3.54279">
        <ele>20</ele>
        <time>2018-07-14T12:05:17Z</time>
      </trkpt>
      <trkpt lat="47.78796" lon="-3.54277">
        <ele>20</ele>
        <time>2018-07-14T12:05:18Z</time>
      </trkpt>
      <trkpt lat="47.78794" lon="-3.54276">
        <ele>20</ele>
        <time>2018-07-14T12:05:19Z</time>
      </trkpt>
      <trkpt lat="47.78793" lon="-3.54276">
        <ele>20</ele>
        <time>2018-07-14T12:05:20Z</time>
      </trkpt>
      <trkpt lat="47.78791" lon="-3.54275">
        <ele>20</ele>
        <time>2018-07-14T12:05:21Z</time>
      </trkpt>
      <trkpt lat="47.78789" lon="-3.54275">
        <ele>20</ele>
        <time>2018-07-14T12:05:22Z</time>
      </trkpt>
      <trkpt lat="47.78786" lon="-3.54275">
        <ele>20</ele>
        <time>2018-07-14T12:05:23Z</time>
      </trkpt>
      <trkpt lat="47.78784" lon="-3.54274">
        <ele>20</ele>
        <time>2018-07-14T12:05:24Z</time>
      </trkpt>
      <trkpt lat="47.78781" lon="-3.54274">
        <ele>20</ele>
        <time>2018-07-14T12:05:25Z</time>
      </trkpt>
      <trkpt lat="47.78777" lon="-3.54274">
        <ele>20</ele>
        <time>2018-07-14T12:05:26Z</time>
      </trkpt>
      <trkpt lat="47.78773" lon="-3.54274">
        <ele>21</ele>
        <time>2018-07-14T12:05:27Z</time>
      </trkpt>
      <trkpt lat="47.7877" lon="-3.54274">
        <ele>21</ele>
        <time>2018-07-14T12:05:28Z</time>
      </trkpt>
      <trkpt lat="47.78766" lon="-3.54275">
        <ele>21</ele>
        <time>2018-07-14T12:05:29Z</time>
      </trkpt>
      <trkpt lat="47.78761" lon="-3.54275">
        <ele>21</ele>
        <time>2018-07-14T12:05:30Z</time>
      </trkpt>
      <trkpt lat="47.78757" lon="-3.54277">
        <ele>21</ele>
        <time>2018-07-14T12:05:31Z</time>
      </trkpt>
      <trkpt lat="47.78753" lon="-3.54278">
        <ele>22</ele>
        <time>2018-07-14T12:05:32Z</time>
      </trkpt>
      <trkpt lat="47.78749" lon="-3.5428">
        <ele>22</ele>
        <time>2018-07-14T12:05:33Z</time>
      </trkpt>
      <trkpt lat="47.78746" lon="-3.54281">
        <ele>22</ele>
        <time>2018-07-14T12:05:34Z</time>
      </trkpt>
      <trkpt lat="47.78742" lon="-3.54282">
        <ele>22</ele>
        <time>2018-07-14T12:05:35Z</time>
      </trkpt>
      <trkpt lat="47.78738" lon="-3.54284">
        <ele>22</ele>
        <time>2018-07-14T12:05:36Z</time>
      </trkpt>
      <trkpt lat="47.78735" lon="-3.54284">
        <ele>22</ele>
        <time>2018-07-14T12:05:37Z</time>
      </trkpt>
      <trkpt lat="47.78731" lon="-3.54285">
        <ele>23</ele>
        <time>2018-07-14T12:05:38Z</time>
      </trkpt>
      <trkpt lat="47.78727" lon="-3.54286">
        <ele>23</ele>
        <time>2018-07-14T12:05:39Z</time>
      </trkpt>
      <trkpt lat="47.78724" lon="-3.54285">
        <ele>23</ele>
        <time>2018-07-14T12:05:40Z</time>
      </trkpt>
      <trkpt lat="47.7872" lon="-3.54284">
        <ele>23</ele>
        <time>2018-07-14T12:05:41Z</time>
      </trkpt>
      <trkpt lat="47.78718" lon="-3.54284">
        <ele>23</ele>
        <time>2018-07-14T12:05:42Z</time>
      </trkpt>
      <trkpt lat="47.78715" lon="-3.54283">
        <ele>23</ele>
        <time>2018-07-14T12:05:43Z</time>
      </trkpt>
      <trkpt lat="47.78713" lon="-3.54283">
        <ele>23</ele>
        <time>2018-07-14T12:05:44Z</time>
      </trkpt>
      <trkpt lat="47.78711" lon="-3.54282">
        <ele>23</ele>
        <time>2018-07-14T12:05:45Z</time>
      </trkpt>
      <trkpt lat="47.78708" lon="-3.54282">
        <ele>23</ele>
        <time>2018-07-14T12:05:46Z</time>
      </trkpt>
      <trkpt lat="47.78705" lon="-3.54282">
        <ele>24</ele>
        <time>2018-07-14T12:05:47Z</time>
      </trkpt>
      <trkpt lat="47.78703" lon="-3.54283">
        <ele>24</ele>
        <time>2018-07-14T12:05:48Z</time>
      </trkpt>
      <trkpt lat="47.78701" lon="-3.54284">
        <ele>24</ele>
        <time>2018-07-14T12:05:49Z</time>
      </trkpt>
      <trkpt lat="47.78701" lon="-3.54284">
        <ele>24</ele>
        <time>2018-07-14T12:05:50Z</time>
      </trkpt>
      <trkpt lat="47.787" lon="-3.54284">
        <ele>24</ele>
        <time>2018-07-14T12:05:51Z</time>
      </trkpt>
      <trkpt lat="47.78699" lon="-3.54286">
        <ele>24</ele>
        <time>2018-07-14T12:05:52Z</time>
      </trkpt>
      <trkpt lat="47.78698" lon="-3.54287">
        <ele>24</ele>
        <time>2018-07-14T12:05:53Z</time>
      </trkpt>
      <trkpt lat="47.78698" lon="-3.54288">
        <ele>24</ele>
        <time>2018-07-14T12:05:54Z</time>
      </trkpt>
      <trkpt lat="47.78697" lon="-3.5429">
        <ele>24</ele>
        <time>2018-07-14T12:05:55Z</time>
      </trkpt>
      <trkpt lat="47.78696" lon="-3.54292">
        <ele>24</ele>
        <time>2018-07-14T12:05:56Z</time>
      </trkpt>
      <trkpt lat="47.78695" lon="-3.54295">
        <ele>24</ele>
        <time>2018-07-14T12:05:57Z</time>
      </trkpt>
      <trkpt lat="47.78694" lon="-3.54298">
        <ele>24</ele>
        <time>2018-07-14T12:05:58Z</time>
      </trkpt>
      <trkpt lat="47.78693" lon="-3.543">
        <ele>24</ele>
        <time>2018-07-14T12:05:59Z</time>
      </trkpt>
      <trkpt lat="47.78691" lon="-3.54303">
        <ele>24</ele>
        <time>2018-07-14T12:06:00Z</time>
      </trkpt>
      <trkpt lat="47.7869" lon="-3.54306">
        <ele>24</ele>
        <time>2018-07-14T12:06:01Z</time>
      </trkpt>
      <trkpt lat="47.78688" lon="-3.54309">
        <ele>24</ele>
        <time>2018-07-14T12:06:02Z</time>
      </trkpt>
      <trkpt lat="47.78687" lon="-3.54312">
        <ele>24</ele>
        <time>2018-07-14T12:06:03Z</time>
      </trkpt>
      <trkpt lat="47.78685" lon="-3.54314">
        <ele>24</ele>
        <time>2018-07-14T12:06:04Z</time>
      </trkpt>
      <trkpt lat="47.78684" lon="-3.54317">
        <ele>24</ele>
        <time>2018-07-14T12:06:05Z</time>
      </trkpt>
      <trkpt lat="47.78682" lon="-3.54319">
        <ele>24</ele>
        <time>2018-07-14T12:06:06Z</time>
      </trkpt>
      <trkpt lat="47.7868" lon="-3.54322">
        <ele>24</ele>
        <time>2018-07-14T12:06:07Z</time>
      </trkpt>
      <trkpt lat="47.78678" lon="-3.54325">
        <ele>24</ele>
        <time>2018-07-14T12:06:08Z</time>
      </trkpt>
      <trkpt lat="47.78676" lon="-3.54327">
        <ele>25</ele>
        <time>2018-07-14T12:06:09Z</time>
      </trkpt>
      <trkpt lat="47.78674" lon="-3.54329">
        <ele>25</ele>
        <time>2018-07-14T12:06:10Z</time>
      </trkpt>
      <trkpt lat="47.78672" lon="-3.54332">
        <ele>25</ele>
        <time>2018-07-14T12:06:11Z</time>
      </trkpt>
      <trkpt lat="47.78669" lon="-3.54334">
        <ele>25</ele>
        <time>2018-07-14T12:06:12Z</time>
      </trkpt>
      <trkpt lat="47.78667" lon="-3.54336">
        <ele>25</ele>
        <time>2018-07-14T12:06:13Z</time>
      </trkpt>
      <trkpt lat="47.78664" lon="-3.54339">
        <ele>26</ele>
        <time>2018-07-14T12:06:14Z</time>
      </trkpt>
      <trkpt lat="47.78662" lon="-3.54342">
        <ele>26</ele>
        <time>2018-07-14T12:06:15Z</time>
      </trkpt>
      <trkpt lat="47.78659" lon="-3.54344">
        <ele>26</ele>
        <time>2018-07-14T12:06:16Z</time>
      </trkpt>
      <trkpt lat="47.78657" lon="-3.54346">
        <ele>26</ele>
        <time>2018-07-14T12:06:17Z</time>
      </trkpt>
      <trkpt lat="47.78655" lon="-3.54347">
        <ele>26</ele>
        <time>2018-07-14T12:06:18Z</time>
      </trkpt>
      <trkpt lat="47.78652" lon="-3.54348">
        <ele>26</ele>
        <time>2018-07-14T12:06:19Z</time>
      </trkpt>
      <trkpt lat="47.78651" lon="-3.54349">
        <ele>26</ele>
        <time>2018-07-14T12:06:20Z</time>
      </trkpt>
      <trkpt lat="47.78649" lon="-3.54351">
        <ele>27</ele>
        <time>2018-07-14T12:06:21Z</time>
      </trkpt>
      <trkpt lat="47.78646" lon="-3.54352">
        <ele>27</ele>
        <time>2018-07-14T12:06:22Z</time>
      </trkpt>
      <trkpt lat="47.78645" lon="-3.54353">
        <ele>27</ele>
        <time>2018-07-14T12:06:23Z</time>
      </trkpt>
      <trkpt lat="47.78642" lon="-3.54355">
        <ele>27</ele>
        <time>2018-07-14T12:06:24Z</time>
      </trkpt>
      <trkpt lat="47.78639" lon="-3.54357">
        <ele>27</ele>
        <time>2018-07-14T12:06:25Z</time>
      </trkpt>
      <trkpt lat="47.78638" lon="-3.54359">
        <ele>27</ele>
        <time>2018-07-14T12:06:26Z</time>
      </trkpt>
      <trkpt lat="47.78635" lon="-3.54361">
        <ele>28</ele>
        <time>2018-07-14T12:06:27Z</time>
      </trkpt>
      <trkpt lat="47.78633" lon="-3.54364">
        <ele>28</ele>
        <time>2018-07-14T12:06:28Z</time>
      </trkpt>
      <trkpt lat="47.78631" lon="-3.54368">
        <ele>28</ele>
        <time>2018-07-14T12:06:29Z</time>
      </trkpt>
      <trkpt lat="47.78628" lon="-3.54371">
        <ele>28</ele>
        <time>2018-07-14T12:06:30Z</time>
      </trkpt>
      <trkpt lat="47.78625" lon="-3.54374">
        <ele>28</ele>
        <time>2018-07-14T12:06:31Z</time>
      </trkpt>
      <trkpt lat="47.78623" lon="-3.54377">
        <ele>29</ele>
        <time>2018-07-14T12:06:32Z</time>
      </trkpt>
      <trkpt lat="47.7862" lon="-3.54379">
        <ele>29</ele>
        <time>2018-07-14T12:06:33Z</time>
      </trkpt>
      <trkpt lat="47.78617" lon="-3.54382">
        <ele>29</ele>
        <time>2018-07-14T12:06:34Z</time>
      </trkpt>
      <trkpt lat="47.78614" lon="-3.54384">
        <ele>29</ele>
        <time>2018-07-14T12:06:35Z</time>
      </trkpt>
      <trkpt lat="47.78612" lon="-3.54386">
        <ele>30</ele>
        <time>2018-07-14T12:06:36Z</time>
      </trkpt>
      <trkpt lat="47.78609" lon="-3.54389">
        <ele>30</ele>
        <time>2018-07-14T12:06:37Z</time>
      </trkpt>
      <trkpt lat="47.78607" lon="-3.54391">
        <ele>30</ele>
        <time>2018-07-14T12:06:38Z</time>
      </trkpt>
      <trkpt lat="47.78605" lon="-3.54393">
        <ele>31</ele>
        <time>2018-07-14T12:06:39Z</time>
      </trkpt>
      <trkpt lat="47.78603" lon="-3.54396">
        <ele>31</ele>
        <time>2018-07-14T12:06:40Z</time>
      </trkpt>
      <trkpt lat="47.786" lon="-3.54398">
        <ele>31</ele>
        <time>2018-07-14T12:06:41Z</time>
      </trkpt>
      <trkpt lat="47.78598" lon="-3.54401">
        <ele>31</ele>
        <time>2018-07-14T12:06:42Z</time>
      </trkpt>
      <trkpt lat="47.78596" lon="-3.54403">
        <ele>31</ele>
        <time>2018-07-14T12:06:43Z</time>
      </trkpt>
      <trkpt lat="47.78593" lon="-3.54405">
        <ele>32</ele>
        <time>2018-07-14T12:06:44Z</time>
      </trkpt>
      <trkpt lat="47.78592" lon="-3.54408">
        <ele>32</ele>
        <time>2018-07-14T12:06:45Z</time>
      </trkpt>
      <trkpt lat="47.7859" lon="-3.54412">
        <ele>32</ele>
        <time>2018-07-14T12:06:46Z</time>
      </trkpt>
      <trkpt lat="47.78588" lon="-3.54415">
        <ele>32</ele>
        <time>2018-07-14T12:06:47Z</time>
      </trkpt>
      <trkpt lat="47.78586" lon="-3.54419">
        <ele>32</ele>
        <time>2018-07-14T12:06:48Z</time>
      </trkpt>
      <trkpt lat="47.78585" lon="-3.54422">
        <ele>32</ele>
        <time>2018-07-14T12:06:49Z</time>
      </trkpt>
      <trkpt lat="47.78583" lon="-3.54425">
        <ele>33</ele>
        <time>2018-07-14T12:06:50Z</time>
      </trkpt>
      <trkpt lat="47.78582" lon="-3.54429">
        <ele>33</ele>
        <time>2018-07-14T12:06:51Z</time>
      </trkpt>
      <trkpt lat="47.7858" lon="-3.54432">
        <ele>33</ele>
        <time>2018-07-14T12:06:52Z</time>
      </trkpt>
      <trkpt lat="47.78578" lon="-3.54435">
        <ele>33</ele>
        <time>2018-07-14T12:06:53Z</time>
      </trkpt>
      <trkpt lat="47.78577" lon="-3.54437">
        <ele>34</ele>
        <time>2018-07-14T12:06:54Z</time>
      </trkpt>
      <trkpt lat="47.78576" lon="-3.5444">
        <ele>34</ele>
        <time>2018-07-14T12:06:55Z</time>
      </trkpt>
      <trkpt lat="47.78574" lon="-3.54443">
        <ele>35</ele>
        <time>2018-07-14T12:06:56Z</time>
      </trkpt>
      <trkpt lat="47.78572" lon="-3.54447">
        <ele>35</ele>
        <time>2018-07-14T12:06:57Z</time>
      </trkpt>
      <trkpt lat="47.7857" lon="-3.5445">
        <ele>35</ele>
        <time>2018-07-14T12:06:58Z</time>
      </trkpt>
      <trkpt lat="47.78568" lon="-3.54454">
        <ele>36</ele>
        <time>2018-07-14T12:06:59Z</time>
      </trkpt>
      <trkpt lat="47.78566" lon="-3.54458">
        <ele>36</ele>
        <time>2018-07-14T12:07:00Z</time>
      </trkpt>
      <trkpt lat="47.78564" lon="-3.54462">
        <ele>36</ele>
        <time>2018-07-14T12:07:01Z</time>
      </trkpt>
      <trkpt lat="47.78562" lon="-3.54465">
        <ele>37</ele>
        <time>2018-07-14T12:07:02Z</time>
      </trkpt>
      <trkpt lat="47.7856" lon="-3.54469">
        <ele>37</ele>
        <time>2018-07-14T12:07:03Z</time>
      </trkpt>
      <trkpt lat="47.78558" lon="-3.54473">
        <ele>37</ele>
        <time>2018-07-14T12:07:04Z</time>
      </trkpt>
      <trkpt lat="47.78556" lon="-3.54477">
        <ele>37</ele>
        <time>2018-07-14T12:07:05Z</time>
      </trkpt>
      <trkpt lat="47.78555" lon="-3.54482">
        <ele>37</ele>
        <time>2018-07-14T12:07:06Z</time>
      </trkpt>
      <trkpt lat="47.78553" lon="-3.54487">
        <ele>38</ele>
        <time>2018-07-14T12:07:07Z</time>
      </trkpt>
      <trkpt lat="47.78552" lon="-3.54492">
        <ele>38</ele>
        <time>2018-07-14T12:07:08Z</time>
      </trkpt>
      <trkpt lat="47.78551" lon="-3.54496">
        <ele>38</ele>
        <time>2018-07-14T12:07:09Z</time>
      </trkpt>
      <trkpt lat="47.78551" lon="-3.54501">
        <ele>38</ele>
        <time>2018-07-14T12:07:10Z</time>
      </trkpt>
      <trkpt lat="47.7855" lon="-3.54505">
        <ele>38</ele>
        <time>2018-07-14T12:07:11Z</time>
      </trkpt>
      <trkpt lat="47.7855" lon="-3.5451">
        <ele>38</ele>
        <time>2018-07-14T12:07:12Z</time>
      </trkpt>
      <trkpt lat="47.78549" lon="-3.54514">
        <ele>38</ele>
        <time>2018-07-14T12:07:13Z</time>
      </trkpt>
      <trkpt lat="47.78549" lon="-3.54519">
        <ele>38</ele>
        <time>2018-07-14T12:07:14Z</time>
      </trkpt>
      <trkpt lat="47.78548" lon="-3.54525">
        <ele>38</ele>
        <time>2018-07-14T12:07:15Z</time>
      </trkpt>
      <trkpt lat="47.78548" lon="-3.54529">
        <ele>38</ele>
        <time>2018-07-14T12:07:16Z</time>
      </trkpt>
      <trkpt lat="47.78547" lon="-3.54534">
        <ele>38</ele>
        <time>2018-07-14T12:07:17Z</time>
      </trkpt>
      <trkpt lat="47.78547" lon="-3.54539">
        <ele>38</ele>
        <time>2018-07-14T12:07:18Z</time>
      </trkpt>
      <trkpt lat="47.78547" lon="-3.54543">
        <ele>38</ele>
        <time>2018-07-14T12:07:19Z</time>
      </trkpt>
      <trkpt lat="47.78547" lon="-3.54548">
        <ele>38</ele>
        <time>2018-07-14T12:07:20Z</time>
      </trkpt>
      <trkpt lat="47.78548" lon="-3.54552">
        <ele>38</ele>
        <time>2018-07-14T12:07:21Z</time>
      </trkpt>
      <trkpt lat="47.78548" lon="-3.54557">
        <ele>38</ele>
        <time>2018-07-14T12:07:22Z</time>
      </trkpt>
      <trkpt lat="47.78549" lon="-3.54561">
        <ele>38</ele>
        <time>2018-07-14T12:07:23Z</time>
      </trkpt>
      <trkpt lat="47.7855" lon="-3.54565">
        <ele>38</ele>
        <time>2018-07-14T12:07:24Z</time>
      </trkpt>
      <trkpt lat="47.78551" lon="-3.5457">
        <ele>38</ele>
        <time>2018-07-14T12:07:25Z</time>
      </trkpt>
      <trkpt lat="47.78552" lon="-3.54575">
        <ele>38</ele>
        <time>2018-07-14T12:07:26Z</time>
      </trkpt>
      <trkpt lat="47.78552" lon="-3.54579">
        <ele>38</ele>
        <time>2018-07-14T12:07:27Z</time>
      </trkpt>
      <trkpt lat="47.78553" lon="-3.54584">
        <ele>38</ele>
        <time>2018-07-14T12:07:28Z</time>
      </trkpt>
      <trkpt lat="47.78552" lon="-3.54589">
        <ele>38</ele>
        <time>2018-07-14T12:07:29Z</time>
      </trkpt>
      <trkpt lat="47.7855" lon="-3.54593">
        <ele>38</ele>
        <time>2018-07-14T12:07:30Z</time>
      </trkpt>
      <trkpt lat="47.78548" lon="-3.54598">
        <ele>38</ele>
        <time>2018-07-14T12:07:31Z</time>
      </trkpt>
      <trkpt lat="47.78546" lon="-3.54603">
        <ele>38</ele>
        <time>2018-07-14T12:07:32Z</time>
      </trkpt>
      <trkpt lat="47.78544" lon="-3.54608">
        <ele>37</ele>
        <time>2018-07-14T12:07:33Z</time>
      </trkpt>
      <trkpt lat="47.78541" lon="-3.54613">
        <ele>37</ele>
        <time>2018-07-14T12:07:34Z</time>
      </trkpt>
      <trkpt lat="47.78538" lon="-3.5462">
        <ele>37</ele>
        <time>2018-07-14T12:07:35Z</time>
      </trkpt>
      <trkpt lat="47.78533" lon="-3.54626">
        <ele>37</ele>
        <time>2018-07-14T12:07:36Z</time>
      </trkpt>
      <trkpt lat="47.78528" lon="-3.54631">
        <ele>37</ele>
        <time>2018-07-14T12:07:37Z</time>
      </trkpt>
      <trkpt lat="47.78524" lon="-3.54635">
        <ele>37</ele>
        <time>2018-07-14T12:07:38Z</time>
      </trkpt>
      <trkpt lat="47.7852" lon="-3.54639">
        <ele>37</ele>
        <time>2018-07-14T12:07:39Z</time>
      </trkpt>
      <trkpt lat="47.78516" lon="-3.54645">
        <ele>37</ele>
        <time>2018-07-14T12:07:40Z</time>
      </trkpt>
      <trkpt lat="47.78513" lon="-3.54651">
        <ele>37</ele>
        <time>2018-07-14T12:07:41Z</time>
      </trkpt>
      <trkpt lat="47.78511" lon="-3.54656">
        <ele>37</ele>
        <time>2018-07-14T12:07:42Z</time>
      </trkpt>
      <trkpt lat="47.78509" lon="-3.54662">
        <ele>37</ele>
        <time>2018-07-14T12:07:43Z</time>
      </trkpt>
      <trkpt lat="47.78508" lon="-3.5467">
        <ele>37</ele>
        <time>2018-07-14T12:07:44Z</time>
      </trkpt>
      <trkpt lat="47.78506" lon="-3.54677">
        <ele>37</ele>
        <time>2018-07-14T12:07:45Z</time>
      </trkpt>
      <trkpt lat="47.78505" lon="-3.54685">
        <ele>37</ele>
        <time>2018-07-14T12:07:46Z</time>
      </trkpt>
      <trkpt lat="47.78503" lon="-3.54692">
        <ele>38</ele>
        <time>2018-07-14T12:07:47Z</time>
      </trkpt>
      <trkpt lat="47.78502" lon="-3.547">
        <ele>38</ele>
        <time>2018-07-14T12:07:48Z</time>
      </trkpt>
      <trkpt lat="47.785" lon="-3.54707">
        <ele>38</ele>
        <time>2018-07-14T12:07:49Z</time>
      </trkpt>
      <trkpt lat="47.78499" lon="-3.54715">
        <ele>38</ele>
        <time>2018-07-14T12:07:50Z</time>
      </trkpt>
      <trkpt lat="47.78497" lon="-3.54723">
        <ele>38</ele>
        <time>2018-07-14T12:07:51Z</time>
      </trkpt>
      <trkpt lat="47.78495" lon="-3.54731">
        <ele>38</ele>
        <time>2018-07-14T12:07:52Z</time>
      </trkpt>
      <trkpt lat="47.78494" lon="-3.54739">
        <ele>38</ele>
        <time>2018-07-14T12:07:53Z</time>
      </trkpt>
      <trkpt lat="47.78491" lon="-3.54747">
        <ele>38</ele>
        <time>2018-07-14T12:07:54Z</time>
      </trkpt>
      <trkpt lat="47.78489" lon="-3.54752">
        <ele>38</ele>
        <time>2018-07-14T12:07:55Z</time>
      </trkpt>
      <trkpt lat="47.78487" lon="-3.54756">
        <ele>38</ele>
        <time>2018-07-14T12:07:56Z</time>
      </trkpt>
      <trkpt lat="47.78484" lon="-3.54758">
        <ele>38</ele>
        <time>2018-07-14T12:07:57Z</time>
      </trkpt>
      <trkpt lat="47.78483" lon="-3.54759">
        <ele>39</ele>
        <time>2018-07-14T12:07:58Z</time>
      </trkpt>
      <trkpt lat="47.78482" lon="-3.5476">
        <ele>39</ele>
        <time>2018-07-14T12:07:59Z</time>
      </trkpt>
      <trkpt lat="47.78481" lon="-3.54764">
        <ele>39</ele>
        <time>2018-07-14T12:08:00Z</time>
      </trkpt>
      <trkpt lat="47.7848" lon="-3.54768">
        <ele>39</ele>
        <time>2018-07-14T12:08:01Z</time>
      </trkpt>
      <trkpt lat="47.78479" lon="-3.54774">
        <ele>39</ele>
        <time>2018-07-14T12:08:02Z</time>
      </trkpt>
      <trkpt lat="47.78477" lon="-3.5478">
        <ele>39</ele>
        <time>2018-07-14T12:08:03Z</time>
      </trkpt>
      <trkpt lat="47.78476" lon="-3.54787">
        <ele>40</ele>
        <time>2018-07-14T12:08:04Z</time>
      </trkpt>
      <trkpt lat="47.78474" lon="-3.54794">
        <ele>40</ele>
        <time>2018-07-14T12:08:05Z</time>
      </trkpt>
      <trkpt lat="47.78472" lon="-3.54801">
        <ele>40</ele>
        <time>2018-07-14T12:08:06Z</time>
      </trkpt>
      <trkpt lat="47.78471" lon="-3.54808">
        <ele>40</ele>
        <time>2018-07-14T12:08:07Z</time>
      </trkpt>
      <trkpt lat="47.78468" lon="-3.54815">
        <ele>40</ele>
        <time>2018-07-14T12:08:08Z</time>
      </trkpt>
      <trkpt lat="47.78465" lon="-3.54822">
        <ele>40</ele>
        <time>2018-07-14T12:08:09Z</time>
      </trkpt>
      <trkpt lat="47.78463" lon="-3.54828">
        <ele>40</ele>
        <time>2018-07-14T12:08:10Z</time>
      </trkpt>
      <trkpt lat="47.78459" lon="-3.54834">
        <ele>41</ele>
        <time>2018-07-14T12:08:11Z</time>
      </trkpt>
      <trkpt lat="47.78457" lon="-3.5484">
        <ele>41</ele>
        <time>2018-07-14T12:08:12Z</time>
      </trkpt>
      <trkpt lat="47.78455" lon="-3.54846">
        <ele>41</ele>
        <time>2018-07-14T12:08:13Z</time>
      </trkpt>
      <trkpt lat="47.78453" lon="-3.54853">
        <ele>41</ele>
        <time>2018-07-14T12:08:14Z</time>
      </trkpt>
      <trkpt lat="47.78451" lon="-3.54859">
        <ele>41</ele>
        <time>2018-07-14T12:08:15Z</time>
      </trkpt>
      <trkpt lat="47.78449" lon="-3.54865">
        <ele>41</ele>
        <time>2018-07-14T12:08:16Z</time>
      </trkpt>
      <trkpt lat="47.78448" lon="-3.5487">
        <ele>41</ele>
        <time>2018-07-14T12:08:17Z</time>
      </trkpt>
      <trkpt lat="47.78446" lon="-3.54874">
        <ele>41</ele>
        <time>2018-07-14T12:08:18Z</time>
      </trkpt>
      <trkpt lat="47.78445" lon="-3.54878">
        <ele>41</ele>
        <time>2018-07-14T12:08:19Z</time>
      </trkpt>
      <trkpt lat="47.78444" lon="-3.54882">
        <ele>41</ele>
        <time>2018-07-14T12:08:20Z</time>
      </trkpt>
      <trkpt lat="47.78443" lon="-3.54887">
        <ele>41</ele>
        <time>2018-07-14T12:08:21Z</time>
      </trkpt>
      <trkpt lat="47.78441" lon="-3.54891">
        <ele>42</ele>
        <time>2018-07-14T12:08:22Z</time>
      </trkpt>
      <trkpt lat="47.7844" lon="-3.54895">
        <ele>42</ele>
        <time>2018-07-14T12:08:23Z</time>
      </trkpt>
      <trkpt lat="47.78439" lon="-3.549">
        <ele>42</ele>
        <time>2018-07-14T12:08:24Z</time>
      </trkpt>
      <trkpt lat="47.78439" lon="-3.54905">
        <ele>42</ele>
        <time>2018-07-14T12:08:25Z</time>
      </trkpt>
      <trkpt lat="47.78437" lon="-3.54911">
        <ele>41</ele>
        <time>2018-07-14T12:08:26Z</time>
      </trkpt>
      <trkpt lat="47.78436" lon="-3.54917">
        <ele>41</ele>
        <time>2018-07-14T12:08:27Z</time>
      </trkpt>
      <trkpt lat="47.78435" lon="-3.54923">
        <ele>41</ele>
        <time>2018-07-14T12:08:28Z</time>
      </trkpt>
      <trkpt lat="47.78433" lon="-3.54928">
        <ele>41</ele>
        <time>2018-07-14T12:08:29Z</time>
      </trkpt>
      <trkpt lat="47.78431" lon="-3.54934">
        <ele>41</ele>
        <time>2018-07-14T12:08:30Z</time>
      </trkpt>
      <trkpt lat="47.78429" lon="-3.5494">
        <ele>41</ele>
        <time>2018-07-14T12:08:31Z</time>
      </trkpt>
      <trkpt lat="47.78426" lon="-3.54946">
        <ele>41</ele>
        <time>2018-07-14T12:08:32Z</time>
      </trkpt>
      <trkpt lat="47.78423" lon="-3.54951">
        <ele>41</ele>
        <time>2018-07-14T12:08:33Z</time>
      </trkpt>
      <trkpt lat="47.7842" lon="-3.54958">
        <ele>41</ele>
        <time>2018-07-14T12:08:34Z</time>
      </trkpt>
      <trkpt lat="47.78416" lon="-3.54966">
        <ele>41</ele>
        <time>2018-07-14T12:08:35Z</time>
      </trkpt>
      <trkpt lat="47.78411" lon="-3.54973">
        <ele>41</ele>
        <time>2018-07-14T12:08:36Z</time>
      </trkpt>
      <trkpt lat="47.78406" lon="-3.54982">
        <ele>41</ele>
        <time>2018-07-14T12:08:37Z</time>
      </trkpt>
      <trkpt lat="47.78401" lon="-3.5499">
        <ele>41</ele>
        <time>2018-07-14T12:08:38Z</time>
      </trkpt>
      <trkpt lat="47.78395" lon="-3.54998">
        <ele>40</ele>
        <time>2018-07-14T12:08:39Z</time>
      </trkpt>
      <trkpt lat="47.7839" lon="-3.55007">
        <ele>40</ele>
        <time>2018-07-14T12:08:40Z</time>
      </trkpt>
      <trkpt lat="47.78384" lon="-3.55014">
        <ele>40</ele>
        <time>2018-07-14T12:08:41Z</time>
      </trkpt>
      <trkpt lat="47.78378" lon="-3.55022">
        <ele>40</ele>
        <time>2018-07-14T12:08:42Z</time>
      </trkpt>
      <trkpt lat="47.78372" lon="-3.5503">
        <ele>40</ele>
        <time>2018-07-14T12:08:43Z</time>
      </trkpt>
      <trkpt lat="47.78366" lon="-3.55038">
        <ele>39</ele>
        <time>2018-07-14T12:08:44Z</time>
      </trkpt>
      <trkpt lat="47.78361" lon="-3.55046">
        <ele>39</ele>
        <time>2018-07-14T12:08:45Z</time>
      </trkpt>
      <trkpt lat="47.78357" lon="-3.55055">
        <ele>39</ele>
        <time>2018-07-14T12:08:46Z</time>
      </trkpt>
      <trkpt lat="47.78353" lon="-3.55062">
        <ele>39</ele>
        <time>2018-07-14T12:08:47Z</time>
      </trkpt>
      <trkpt lat="47.7835" lon="-3.5507">
        <ele>39</ele>
        <time>2018-07-14T12:08:48Z</time>
      </trkpt>
      <trkpt lat="47.78347" lon="-3.55077">
        <ele>39</ele>
        <time>2018-07-14T12:08:49Z</time>
      </trkpt>
      <trkpt lat="47.78344" lon="-3.55084">
        <ele>39</ele>
        <time>2018-07-14T12:08:50Z</time>
      </trkpt>
      <trkpt lat="47.78341" lon="-3.55089">
        <ele>39</ele>
        <time>2018-07-14T12:08:51Z</time>
      </trkpt>
      <trkpt lat="47.7834" lon="-3.55094">
        <ele>38</ele>
        <time>2018-07-14T12:08:52Z</time>
      </trkpt>
      <trkpt lat="47.78337" lon="-3.551">
        <ele>38</ele>
        <time>2018-07-14T12:08:53Z</time>
      </trkpt>
      <trkpt lat="47.78336" lon="-3.55107">
        <ele>38</ele>
        <time>2018-07-14T12:08:54Z</time>
      </trkpt>
      <trkpt lat="47.78334" lon="-3.55113">
        <ele>38</ele>
        <time>2018-07-14T12:08:55Z</time>
      </trkpt>
      <trkpt lat="47.78332" lon="-3.55121">
        <ele>38</ele>
        <time>2018-07-14T12:08:56Z</time>
      </trkpt>
      <trkpt lat="47.7833" lon="-3.55128">
        <ele>37</ele>
        <time>2018-07-14T12:08:57Z</time>
      </trkpt>
      <trkpt lat="47.78327" lon="-3.55134">
        <ele>37</ele>
        <time>2018-07-14T12:08:58Z</time>
      </trkpt>
      <trkpt lat="47.78324" lon="-3.55139">
        <ele>36</ele>
        <time>2018-07-14T12:08:59Z</time>
      </trkpt>
      <trkpt lat="47.78321" lon="-3.55143">
        <ele>36</ele>
        <time>2018-07-14T12:09:00Z</time>
      </trkpt>
      <trkpt lat="47.78318" lon="-3.55146">
        <ele>35</ele>
        <time>2018-07-14T12:09:01Z</time>
      </trkpt>
      <trkpt lat="47.78316" lon="-3.55149">
        <ele>35</ele>
        <time>2018-07-14T12:09:02Z</time>
      </trkpt>
      <trkpt lat="47.78313" lon="-3.55153">
        <ele>34</ele>
        <time>2018-07-14T12:09:03Z</time>
      </trkpt>
      <trkpt lat="47.78311" lon="-3.55156">
        <ele>34</ele>
        <time>2018-07-14T12:09:04Z</time>
      </trkpt>
      <trkpt lat="47.78309" lon="-3.55159">
        <ele>34</ele>
        <time>2018-07-14T12:09:05Z</time>
      </trkpt>
      <trkpt lat="47.78307" lon="-3.55161">
        <ele>33</ele>
        <time>2018-07-14T12:09:06Z</time>
      </trkpt>
      <trkpt lat="47.78306" lon="-3.55163">
        <ele>33</ele>
        <time>2018-07-14T12:09:07Z</time>
      </trkpt>
      <trkpt lat="47.78304" lon="-3.55166">
        <ele>33</ele>
        <time>2018-07-14T12:09:08Z</time>
      </trkpt>
      <trkpt lat="47.78303" lon="-3.55169">
        <ele>32</ele>
        <time>2018-07-14T12:09:09Z</time>
      </trkpt>
      <trkpt lat="47.783" lon="-3.55172">
        <ele>32</ele>
        <time>2018-07-14T12:09:10Z</time>
      </trkpt>
      <trkpt lat="47.78297" lon="-3.55175">
        <ele>32</ele>
        <time>2018-07-14T12:09:11Z</time>
      </trkpt>
      <trkpt lat="47.78294" lon="-3.55178">
        <ele>32</ele>
        <time>2018-07-14T12:09:12Z</time>
      </trkpt>
      <trkpt lat="47.78292" lon="-3.55181">
        <ele>32</ele>
        <time>2018-07-14T12:09:13Z</time>
      </trkpt>
      <trkpt lat="47.7829" lon="-3.55183">
        <ele>32</ele>
        <time>2018-07-14T12:09:14Z</time>
      </trkpt>
      <trkpt lat="47.78289" lon="-3.55185">
        <ele>32</ele>
        <time>2018-07-14T12:09:15Z</time>
      </trkpt>
      <trkpt lat="47.78288" lon="-3.55186">
        <ele>32</ele>
        <time>2018-07-14T12:09:16Z</time>
      </trkpt>
      <trkpt lat="47.78287" lon="-3.55188">
        <ele>32</ele>
        <time>2018-07-14T12:09:17Z</time>
      </trkpt>
      <trkpt lat="47.78286" lon="-3.5519">
        <ele>32</ele>
        <time>2018-07-14T12:09:18Z</time>
      </trkpt>
      <trkpt lat="47.78285" lon="-3.55192">
        <ele>32</ele>
        <time>2018-07-14T12:09:19Z</time>
      </trkpt>
      <trkpt lat="47.78284" lon="-3.55193">
        <ele>32</ele>
        <time>2018-07-14T12:09:20Z</time>
      </trkpt>
      <trkpt lat="47.78282" lon="-3.55194">
        <ele>32</ele>
        <time>2018-07-14T12:09:21Z</time>
      </trkpt>
      <trkpt lat="47.7828" lon="-3.55196">
        <ele>32</ele>
        <time>2018-07-14T12:09:22Z</time>
      </trkpt>
      <trkpt lat="47.78279" lon="-3.55198">
        <ele>32</ele>
        <time>2018-07-14T12:09:23Z</time>
      </trkpt>
      <trkpt lat="47.78277" lon="-3.552">
        <ele>32</ele>
        <time>2018-07-14T12:09:24Z</time>
      </trkpt>
      <trkpt lat="47.78275" lon="-3.55202">
        <ele>32</ele>
        <time>2018-07-14T12:09:25Z</time>
      </trkpt>
      <trkpt lat="47.78272" lon="-3.55203">
        <ele>32</ele>
        <time>2018-07-14T12:09:26Z</time>
      </trkpt>
      <trkpt lat="47.7827" lon="-3.55205">
        <ele>32</ele>
        <time>2018-07-14T12:09:27Z</time>
      </trkpt>
      <trkpt lat="47.78268" lon="-3.55206">
        <ele>31</ele>
        <time>2018-07-14T12:09:28Z</time>
      </trkpt>
      <trkpt lat="47.78266" lon="-3.55208">
        <ele>31</ele>
        <time>2018-07-14T12:09:29Z</time>
      </trkpt>
      <trkpt lat="47.78264" lon="-3.55209">
        <ele>31</ele>
        <time>2018-07-14T12:09:30Z</time>
      </trkpt>
      <trkpt lat="47.78262" lon="-3.55211">
        <ele>31</ele>
        <time>2018-07-14T12:09:31Z</time>
      </trkpt>
      <trkpt lat="47.78261" lon="-3.55213">
        <ele>31</ele>
        <time>2018-07-14T12:09:32Z</time>
      </trkpt>
      <trkpt lat="47.78259" lon="-3.55215">
        <ele>31</ele>
        <time>2018-07-14T12:09:33Z</time>
      </trkpt>
      <trkpt lat="47.78257" lon="-3.55218">
        <ele>31</ele>
        <time>2018-07-14T12:09:34Z</time>
      </trkpt>
      <trkpt lat="47.78255" lon="-3.5522">
        <ele>31</ele>
        <time>2018-07-14T12:09:35Z</time>
      </trkpt>
      <trkpt lat="47.78254" lon="-3.55222">
        <ele>30</ele>
        <time>2018-07-14T12:09:36Z</time>
      </trkpt>
      <trkpt lat="47.78251" lon="-3.55224">
        <ele>30</ele>
        <time>2018-07-14T12:09:37Z</time>
      </trkpt>
      <trkpt lat="47.78249" lon="-3.55226">
        <ele>30</ele>
        <time>2018-07-14T12:09:38Z</time>
      </trkpt>
      <trkpt lat="47.78247" lon="-3.55228">
        <ele>30</ele>
        <time>2018-07-14T12:09:39Z</time>
      </trkpt>
      <trkpt lat="47.78245" lon="-3.55229">
        <ele>30</ele>
        <time>2018-07-14T12:09:40Z</time>
      </trkpt>
      <trkpt lat="47.78243" lon="-3.55231">
        <ele>30</ele>
        <time>2018-07-14T12:09:41Z</time>
      </trkpt>
      <trkpt lat="47.7824" lon="-3.55234">
        <ele>30</ele>
        <time>2018-07-14T12:09:42Z</time>
      </trkpt>
      <trkpt lat="47.78238" lon="-3.55236">
        <ele>30</ele>
        <time>2018-07-14T12:09:43Z</time>
      </trkpt>
      <trkpt lat="47.78235" lon="-3.55238">
        <ele>30</ele>
        <time>2018-07-14T12:09:44Z</time>
      </trkpt>
      <trkpt lat="47.78232" lon="-3.5524">
        <ele>30</ele>
        <time>2018-07-14T12:09:45Z</time>
      </trkpt>
      <trkpt lat="47.78228" lon="-3.55243">
        <ele>30</ele>
        <time>2018-07-14T12:09:46Z</time>
      </trkpt>
      <trkpt lat="47.78225" lon="-3.55245">
        <ele>31</ele>
        <time>2018-07-14T12:09:47Z</time>
      </trkpt>
      <trkpt lat="47.78222" lon="-3.55249">
        <ele>31</ele>
        <time>2018-07-14T12:09:48Z</time>
      </trkpt>
      <trkpt lat="47.78219" lon="-3.55251">
        <ele>31</ele>
        <time>2018-07-14T12:09:49Z</time>
      </trkpt>
      <trkpt lat="47.78216" lon="-3.55254">
        <ele>31</ele>
        <time>2018-07-14T12:09:50Z</time>
      </trkpt>
      <trkpt lat="47.78211" lon="-3.55257">
        <ele>31</ele>
        <time>2018-07-14T12:09:51Z</time>
      </trkpt>
      <trkpt lat="47.78207" lon="-3.5526">
        <ele>31</ele>
        <time>2018-07-14T12:09:52Z</time>
      </trkpt>
      <trkpt lat="47.78202" lon="-3.55264">
        <ele>32</ele>
        <time>2018-07-14T12:09:53Z</time>
      </trkpt>
      <trkpt lat="47.78196" lon="-3.55267">
        <ele>32</ele>
        <time>2018-07-14T12:09:54Z</time>
      </trkpt>
      <trkpt lat="47.78191" lon="-3.55269">
        <ele>32</ele>
        <time>2018-07-14T12:09:55Z</time>
      </trkpt>
      <trkpt lat="47.78186" lon="-3.55272">
        <ele>32</ele>
        <time>2018-07-14T12:09:56Z</time>
      </trkpt>
      <trkpt lat="47.78181" lon="-3.55275">
        <ele>33</ele>
        <time>2018-07-14T12:09:57Z</time>
      </trkpt>
      <trkpt lat="47.78176" lon="-3.55277">
        <ele>33</ele>
        <time>2018-07-14T12:09:58Z</time>
      </trkpt>
      <trkpt lat="47.78172" lon="-3.55279">
        <ele>33</ele>
        <time>2018-07-14T12:09:59Z</time>
      </trkpt>
      <trkpt lat="47.78168" lon="-3.5528">
        <ele>33</ele>
        <time>2018-07-14T12:10:00Z</time>
      </trkpt>
      <trkpt lat="47.78164" lon="-3.55282">
        <ele>34</ele>
        <time>2018-07-14T12:10:01Z</time>
      </trkpt>
      <trkpt lat="47.7816" lon="-3.55283">
        <ele>34</ele>
        <time>2018-07-14T12:10:02Z</time>
      </trkpt>
      <trkpt lat="47.78156" lon="-3.55285">
        <ele>34</ele>
        <time>2018-07-14T12:10:03Z</time>
      </trkpt>
      <trkpt lat="47.78153" lon="-3.55287">
        <ele>34</ele>
        <time>2018-07-14T12:10:04Z</time>
      </trkpt>
      <trkpt lat="47.7815" lon="-3.55289">
        <ele>34</ele>
        <time>2018-07-14T12:10:05Z</time>
      </trkpt>
      <trkpt lat="47.78147" lon="-3.55291">
        <ele>34</ele>
        <time>2018-07-14T12:10:06Z</time>
      </trkpt>
      <trkpt lat="47.78144" lon="-3.55292">
        <ele>35</ele>
        <time>2018-07-14T12:10:07Z</time>
      </trkpt>
      <trkpt lat="47.78143" lon="-3.55294">
        <ele>35</ele>
        <time>2018-07-14T12:10:08Z</time>
      </trkpt>
      <trkpt lat="47.78141" lon="-3.55295">
        <ele>35</ele>
        <time>2018-07-14T12:10:09Z</time>
      </trkpt>
      <trkpt lat="47.7814" lon="-3.55295">
        <ele>35</ele>
        <time>2018-07-14T12:10:10Z</time>
      </trkpt>
      <trkpt lat="47.78139" lon="-3.55297">
        <ele>35</ele>
        <time>2018-07-14T12:10:11Z</time>
      </trkpt>
      <trkpt lat="47.78136" lon="-3.55297">
        <ele>35</ele>
        <time>2018-07-14T12:10:12Z</time>
      </trkpt>
      <trkpt lat="47.78134" lon="-3.55298">
        <ele>35</ele>
        <time>2018-07-14T12:10:13Z</time>
      </trkpt>
      <trkpt lat="47.78132" lon="-3.55299">
        <ele>35</ele>
        <time>2018-07-14T12:10:14Z</time>
      </trkpt>
      <trkpt lat="47.7813" lon="-3.55299">
        <ele>35</ele>
        <time>2018-07-14T12:10:15Z</time>
      </trkpt>
      <trkpt lat="47.78127" lon="-3.553">
        <ele>35</ele>
        <time>2018-07-14T12:10:16Z</time>
      </trkpt>
      <trkpt lat="47.78124" lon="-3.55301">
        <ele>35</ele>
        <time>2018-07-14T12:10:17Z</time>
      </trkpt>
      <trkpt lat="47.78121" lon="-3.55301">
        <ele>36</ele>
        <time>2018-07-14T12:10:18Z</time>
      </trkpt>
      <trkpt lat="47.78118" lon="-3.55302">
        <ele>36</ele>
        <time>2018-07-14T12:10:19Z</time>
      </trkpt>
      <trkpt lat="47.78115" lon="-3.55304">
        <ele>36</ele>
        <time>2018-07-14T12:10:20Z</time>
      </trkpt>
      <trkpt lat="47.78112" lon="-3.55304">
        <ele>36</ele>
        <time>2018-07-14T12:10:21Z</time>
      </trkpt>
      <trkpt lat="47.78108" lon="-3.55305">
        <ele>36</ele>
        <time>2018-07-14T12:10:22Z</time>
      </trkpt>
      <trkpt lat="47.78104" lon="-3.55306">
        <ele>36</ele>
        <time>2018-07-14T12:10:23Z</time>
      </trkpt>
      <trkpt lat="47.78101" lon="-3.55306">
        <ele>36</ele>
        <time>2018-07-14T12:10:24Z</time>
      </trkpt>
      <trkpt lat="47.78097" lon="-3.55307">
        <ele>36</ele>
        <time>2018-07-14T12:10:25Z</time>
      </trkpt>
      <trkpt lat="47.78094" lon="-3.55307">
        <ele>36</ele>
        <time>2018-07-14T12:10:26Z</time>
      </trkpt>
      <trkpt lat="47.78089" lon="-3.55306">
        <ele>36</ele>
        <time>2018-07-14T12:10:27Z</time>
      </trkpt>
      <trkpt lat="47.78085" lon="-3.55305">
        <ele>36</ele>
        <time>2018-07-14T12:10:28Z</time>
      </trkpt>
      <trkpt lat="47.78081" lon="-3.55305">
        <ele>36</ele>
        <time>2018-07-14T12:10:29Z</time>
      </trkpt>
      <trkpt lat="47.78076" lon="-3.55306">
        <ele>37</ele>
        <time>2018-07-14T12:10:30Z</time>
      </trkpt>
      <trkpt lat="47.78071" lon="-3.55307">
        <ele>37</ele>
        <time>2018-07-14T12:10:31Z</time>
      </trkpt>
      <trkpt lat="47.78067" lon="-3.55307">
        <ele>37</ele>
        <time>2018-07-14T12:10:32Z</time>
      </trkpt>
      <trkpt lat="47.78063" lon="-3.55307">
        <ele>37</ele>
        <time>2018-07-14T12:10:33Z</time>
      </trkpt>
      <trkpt lat="47.7806" lon="-3.55307">
        <ele>37</ele>
        <time>2018-07-14T12:10:34Z</time>
      </trkpt>
      <trkpt lat="47.78055" lon="-3.55307">
        <ele>37</ele>
        <time>2018-07-14T12:10:35Z</time>
      </trkpt>
      <trkpt lat="47.78051" lon="-3.55307">
        <ele>38</ele>
        <time>2018-07-14T12:10:36Z</time>
      </trkpt>
      <trkpt lat="47.78046" lon="-3.55308">
        <ele>38</ele>
        <time>2018-07-14T12:10:37Z</time>
      </trkpt>
      <trkpt lat="47.78041" lon="-3.5531">
        <ele>38</ele>
        <time>2018-07-14T12:10:38Z</time>
      </trkpt>
      <trkpt lat="47.78035" lon="-3.55312">
        <ele>38</ele>
        <time>2018-07-14T12:10:39Z</time>
      </trkpt>
      <trkpt lat="47.7803" lon="-3.55313">
        <ele>38</ele>
        <time>2018-07-14T12:10:40Z</time>
      </trkpt>
      <trkpt lat="47.78026" lon="-3.55315">
        <ele>39</ele>
        <time>2018-07-14T12:10:41Z</time>
      </trkpt>
      <trkpt lat="47.78022" lon="-3.55316">
        <ele>39</ele>
        <time>2018-07-14T12:10:42Z</time>
      </trkpt>
      <trkpt lat="47.78018" lon="-3.55317">
        <ele>39</ele>
        <time>2018-07-14T12:10:43Z</time>
      </trkpt>
      <trkpt lat="47.78013" lon="-3.55318">
        <ele>39</ele>
        <time>2018-07-14T12:10:44Z</time>
      </trkpt>
      <trkpt lat="47.78008" lon="-3.55319">
        <ele>39</ele>
        <time>2018-07-14T12:10:45Z</time>
      </trkpt>
      <trkpt lat="47.78003" lon="-3.55319">
        <ele>39</ele>
        <time>2018-07-14T12:10:46Z</time>
      </trkpt>
      <trkpt lat="47.77997" lon="-3.5532">
        <ele>40</ele>
        <time>2018-07-14T12:10:47Z</time>
      </trkpt>
      <trkpt lat="47.77991" lon="-3.55321">
        <ele>40</ele>
        <time>2018-07-14T12:10:48Z</time>
      </trkpt>
      <trkpt lat="47.77986" lon="-3.55321">
        <ele>40</ele>
        <time>2018-07-14T12:10:49Z</time>
      </trkpt>
      <trkpt lat="47.77979" lon="-3.55321">
        <ele>40</ele>
        <time>2018-07-14T12:10:50Z</time>
      </trkpt>
      <trkpt lat="47.77974" lon="-3.55321">
        <ele>40</ele>
        <time>2018-07-14T12:10:51Z</time>
      </trkpt>
      <trkpt lat="47.77968" lon="-3.55322">
        <ele>41</ele>
        <time>2018-07-14T12:10:52Z</time>
      </trkpt>
      <trkpt lat="47.77962" lon="-3.55322">
        <ele>41</ele>
        <time>2018-07-14T12:10:53Z</time>
      </trkpt>
      <trkpt lat="47.77957" lon="-3.55322">
        <ele>41</ele>
        <time>2018-07-14T12:10:54Z</time>
      </trkpt>
      <trkpt lat="47.77951" lon="-3.55322">
        <ele>41</ele>
        <time>2018-07-14T12:10:55Z</time>
      </trkpt>
      <trkpt lat="47.77945" lon="-3.55322">
        <ele>41</ele>
        <time>2018-07-14T12:10:56Z</time>
      </trkpt>
      <trkpt lat="47.77939" lon="-3.55322">
        <ele>41</ele>
        <time>2018-07-14T12:10:57Z</time>
      </trkpt>
      <trkpt lat="47.77934" lon="-3.55322">
        <ele>42</ele>
        <time>2018-07-14T12:10:58Z</time>
      </trkpt>
      <trkpt lat="47.77928" lon="-3.55324">
        <ele>42</ele>
        <time>2018-07-14T12:10:59Z</time>
      </trkpt>
      <trkpt lat="47.77921" lon="-3.55325">
        <ele>42</ele>
        <time>2018-07-14T12:11:00Z</time>
      </trkpt>
      <trkpt lat="47.77915" lon="-3.55327">
        <ele>42</ele>
        <time>2018-07-14T12:11:01Z</time>
      </trkpt>
      <trkpt lat="47.77909" lon="-3.55328">
        <ele>42</ele>
        <time>2018-07-14T12:11:02Z</time>
      </trkpt>
      <trkpt lat="47.77904" lon="-3.55328">
        <ele>42</ele>
        <time>2018-07-14T12:11:03Z</time>
      </trkpt>
      <trkpt lat="47.779" lon="-3.55329">
        <ele>42</ele>
        <time>2018-07-14T12:11:04Z</time>
      </trkpt>
      <trkpt lat="47.77897" lon="-3.5533">
        <ele>42</ele>
        <time>2018-07-14T12:11:05Z</time>
      </trkpt>
      <trkpt lat="47.77894" lon="-3.55329">
        <ele>42</ele>
        <time>2018-07-14T12:11:06Z</time>
      </trkpt>
      <trkpt lat="47.77891" lon="-3.55329">
        <ele>42</ele>
        <time>2018-07-14T12:11:07Z</time>
      </trkpt>
      <trkpt lat="47.77888" lon="-3.55329">
        <ele>42</ele>
        <time>2018-07-14T12:11:08Z</time>
      </trkpt>
      <trkpt lat="47.77884" lon="-3.55329">
        <ele>42</ele>
        <time>2018-07-14T12:11:09Z</time>
      </trkpt>
      <trkpt lat="47.7788" lon="-3.5533">
        <ele>42</ele>
        <time>2018-07-14T12:11:10Z</time>
      </trkpt>
      <trkpt lat="47.77876" lon="-3.5533">
        <ele>42</ele>
        <time>2018-07-14T12:11:11Z</time>
      </trkpt>
      <trkpt lat="47.77872" lon="-3.55329">
        <ele>42</ele>
        <time>2018-07-14T12:11:12Z</time>
      </trkpt>
      <trkpt lat="47.77867" lon="-3.5533">
        <ele>42</ele>
        <time>2018-07-14T12:11:13Z</time>
      </trkpt>
      <trkpt lat="47.77862" lon="-3.5533">
        <ele>42</ele>
        <time>2018-07-14T12:11:14Z</time>
      </trkpt>
      <trkpt lat="47.77857" lon="-3.5533">
        <ele>42</ele>
        <time>2018-07-14T12:11:15Z</time>
      </trkpt>
      <trkpt lat="47.77852" lon="-3.5533">
        <ele>42</ele>
        <time>2018-07-14T12:11:16Z</time>
      </trkpt>
      <trkpt lat="47.77848" lon="-3.5533">
        <ele>42</ele>
        <time>2018-07-14T12:11:17Z</time>
      </trkpt>
      <trkpt lat="47.77843" lon="-3.5533">
        <ele>42</ele>
        <time>2018-07-14T12:11:18Z</time>
      </trkpt>
      <trkpt lat="47.77838" lon="-3.55329">
        <ele>42</ele>
        <time>2018-07-14T12:11:19Z</time>
      </trkpt>
      <trkpt lat="47.77835" lon="-3.55328">
        <ele>42</ele>
        <time>2018-07-14T12:11:20Z</time>
      </trkpt>
      <trkpt lat="47.77831" lon="-3.55328">
        <ele>42</ele>
        <time>2018-07-14T12:11:21Z</time>
      </trkpt>
      <trkpt lat="47.77827" lon="-3.55328">
        <ele>42</ele>
        <time>2018-07-14T12:11:22Z</time>
      </trkpt>
      <trkpt lat="47.77823" lon="-3.55328">
        <ele>42</ele>
        <time>2018-07-14T12:11:23Z</time>
      </trkpt>
      <trkpt lat="47.77819" lon="-3.55328">
        <ele>43</ele>
        <time>2018-07-14T12:11:24Z</time>
      </trkpt>
      <trkpt lat="47.77815" lon="-3.55327">
        <ele>43</ele>
        <time>2018-07-14T12:11:25Z</time>
      </trkpt>
      <trkpt lat="47.77811" lon="-3.55326">
        <ele>43</ele>
        <time>2018-07-14T12:11:26Z</time>
      </trkpt>
      <trkpt lat="47.77807" lon="-3.55324">
        <ele>43</ele>
        <time>2018-07-14T12:11:27Z</time>
      </trkpt>
      <trkpt lat="47.77804" lon="-3.5532">
        <ele>43</ele>
        <time>2018-07-14T12:11:28Z</time>
      </trkpt>
      <trkpt lat="47.77802" lon="-3.55315">
        <ele>43</ele>
        <time>2018-07-14T12:11:29Z</time>
      </trkpt>
      <trkpt lat="47.77799" lon="-3.55312">
        <ele>43</ele>
        <time>2018-07-14T12:11:30Z</time>
      </trkpt>
      <trkpt lat="47.77797" lon="-3.55309">
        <ele>43</ele>
        <time>2018-07-14T12:11:31Z</time>
      </trkpt>
      <trkpt lat="47.77795" lon="-3.55307">
        <ele>43</ele>
        <time>2018-07-14T12:11:32Z</time>
      </trkpt>
      <trkpt lat="47.77791" lon="-3.55307">
        <ele>43</ele>
        <time>2018-07-14T12:11:33Z</time>
      </trkpt>
      <trkpt lat="47.77787" lon="-3.55308">
        <ele>43</ele>
        <time>2018-07-14T12:11:34Z</time>
      </trkpt>
      <trkpt lat="47.77782" lon="-3.55309">
        <ele>43</ele>
        <time>2018-07-14T12:11:35Z</time>
      </trkpt>
      <trkpt lat="47.77778" lon="-3.55311">
        <ele>43</ele>
        <time>2018-07-14T12:11:36Z</time>
      </trkpt>
      <trkpt lat="47.77773" lon="-3.55312">
        <ele>43</ele>
        <time>2018-07-14T12:11:37Z</time>
      </trkpt>
      <trkpt lat="47.77768" lon="-3.55314">
        <ele>43</ele>
        <time>2018-07-14T12:11:38Z</time>
      </trkpt>
      <trkpt lat="47.77763" lon="-3.55317">
        <ele>43</ele>
        <time>2018-07-14T12:11:39Z</time>
      </trkpt>
      <trkpt lat="47.77758" lon="-3.55321">
        <ele>43</ele>
        <time>2018-07-14T12:11:40Z</time>
      </trkpt>
      <trkpt lat="47.77753" lon="-3.55326">
        <ele>43</ele>
        <time>2018-07-14T12:11:41Z</time>
      </trkpt>
      <trkpt lat="47.77749" lon="-3.55331">
        <ele>43</ele>
        <time>2018-07-14T12:11:42Z</time>
      </trkpt>
      <trkpt lat="47.77745" lon="-3.55335">
        <ele>43</ele>
        <time>2018-07-14T12:11:43Z</time>
      </trkpt>
      <trkpt lat="47.7774" lon="-3.5534">
        <ele>43</ele>
        <time>2018-07-14T12:11:44Z</time>
      </trkpt>
      <trkpt lat="47.77735" lon="-3.55342">
        <ele>43</ele>
        <time>2018-07-14T12:11:45Z</time>
      </trkpt>
      <trkpt lat="47.77729" lon="-3.55344">
        <ele>43</ele>
        <time>2018-07-14T12:11:46Z</time>
      </trkpt>
      <trkpt lat="47.77724" lon="-3.55345">
        <ele>43</ele>
        <time>2018-07-14T12:11:47Z</time>
      </trkpt>
      <trkpt lat="47.77718" lon="-3.55346">
        <ele>43</ele>
        <time>2018-07-14T12:11:48Z</time>
      </trkpt>
      <trkpt lat="47.77713" lon="-3.55347">
        <ele>43</ele>
        <time>2018-07-14T12:11:49Z</time>
      </trkpt>
      <trkpt lat="47.77707" lon="-3.55347">
        <ele>43</ele>
        <time>2018-07-14T12:11:50Z</time>
      </trkpt>
      <trkpt lat="47.77702" lon="-3.55348">
        <ele>43</ele>
        <time>2018-07-14T12:11:51Z</time>
      </trkpt>
      <trkpt lat="47.77697" lon="-3.55348">
        <ele>43</ele>
        <time>2018-07-14T12:11:52Z</time>
      </trkpt>
      <trkpt lat="47.77692" lon="-3.55349">
        <ele>43</ele>
        <time>2018-07-14T12:11:53Z</time>
      </trkpt>
      <trkpt lat="47.77687" lon="-3.5535">
        <ele>43</ele>
        <time>2018-07-14T12:11:54Z</time>
      </trkpt>
      <trkpt lat="47.77683" lon="-3.5535">
        <ele>43</ele>
        <time>2018-07-14T12:11:55Z</time>
      </trkpt>
      <trkpt lat="47.7768" lon="-3.55351">
        <ele>43</ele>
        <time>2018-07-14T12:11:56Z</time>
      </trkpt>
      <trkpt lat="47.77676" lon="-3.55351">
        <ele>43</ele>
        <time>2018-07-14T12:11:57Z</time>
      </trkpt>
      <trkpt lat="47.77671" lon="-3.5535">
        <ele>43</ele>
        <time>2018-07-14T12:11:58Z</time>
      </trkpt>
      <trkpt lat="47.77667" lon="-3.5535">
        <ele>43</ele>
        <time>2018-07-14T12:11:59Z</time>
      </trkpt>
      <trkpt lat="47.77663" lon="-3.55349">
        <ele>43</ele>
        <time>2018-07-14T12:12:00Z</time>
      </trkpt>
      <trkpt lat="47.77658" lon="-3.55349">
        <ele>43</ele>
        <time>2018-07-14T12:12:01Z</time>
      </trkpt>
      <trkpt lat="47.77654" lon="-3.55349">
        <ele>43</ele>
        <time>2018-07-14T12:12:02Z</time>
      </trkpt>
      <trkpt lat="47.77651" lon="-3.5535">
        <ele>44</ele>
        <time>2018-07-14T12:12:03Z</time>
      </trkpt>
      <trkpt lat="47.77647" lon="-3.55351">
        <ele>44</ele>
        <time>2018-07-14T12:12:04Z</time>
      </trkpt>
      <trkpt lat="47.77644" lon="-3.55352">
        <ele>44</ele>
        <time>2018-07-14T12:12:05Z</time>
      </trkpt>
      <trkpt lat="47.77641" lon="-3.55354">
        <ele>44</ele>
        <time>2018-07-14T12:12:06Z</time>
      </trkpt>
      <trkpt lat="47.77637" lon="-3.55355">
        <ele>44</ele>
        <time>2018-07-14T12:12:07Z</time>
      </trkpt>
      <trkpt lat="47.77633" lon="-3.55357">
        <ele>43</ele>
        <time>2018-07-14T12:12:08Z</time>
      </trkpt>
      <trkpt lat="47.7763" lon="-3.55358">
        <ele>43</ele>
        <time>2018-07-14T12:12:09Z</time>
      </trkpt>
      <trkpt lat="47.77626" lon="-3.5536">
        <ele>43</ele>
        <time>2018-07-14T12:12:10Z</time>
      </trkpt>
      <trkpt lat="47.77622" lon="-3.55361">
        <ele>44</ele>
        <time>2018-07-14T12:12:11Z</time>
      </trkpt>
      <trkpt lat="47.77619" lon="-3.55362">
        <ele>43</ele>
        <time>2018-07-14T12:12:12Z</time>
      </trkpt>
      <trkpt lat="47.77615" lon="-3.55364">
        <ele>43</ele>
        <time>2018-07-14T12:12:13Z</time>
      </trkpt>
      <trkpt lat="47.77611" lon="-3.55365">
        <ele>43</ele>
        <time>2018-07-14T12:12:14Z</time>
      </trkpt>
      <trkpt lat="47.77606" lon="-3.55366">
        <ele>43</ele>
        <time>2018-07-14T12:12:15Z</time>
      </trkpt>
      <trkpt lat="47.77601" lon="-3.55368">
        <ele>44</ele>
        <time>2018-07-14T12:12:16Z</time>
      </trkpt>
      <trkpt lat="47.77596" lon="-3.55369">
        <ele>44</ele>
        <time>2018-07-14T12:12:17Z</time>
      </trkpt>
      <trkpt lat="47.77591" lon="-3.5537">
        <ele>44</ele>
        <time>2018-07-14T12:12:18Z</time>
      </trkpt>
      <trkpt lat="47.77586" lon="-3.55371">
        <ele>44</ele>
        <time>2018-07-14T12:12:19Z</time>
      </trkpt>
      <trkpt lat="47.77581" lon="-3.55371">
        <ele>44</ele>
        <time>2018-07-14T12:12:20Z</time>
      </trkpt>
      <trkpt lat="47.77577" lon="-3.55371">
        <ele>44</ele>
        <time>2018-07-14T12:12:21Z</time>
      </trkpt>
      <trkpt lat="47.77572" lon="-3.55371">
        <ele>44</ele>
        <time>2018-07-14T12:12:22Z</time>
      </trkpt>
      <trkpt lat="47.77567" lon="-3.55371">
        <ele>44</ele>
        <time>2018-07-14T12:12:23Z</time>
      </trkpt>
      <trkpt lat="47.77563" lon="-3.55371">
        <ele>44</ele>
        <time>2018-07-14T12:12:24Z</time>
      </trkpt>
      <trkpt lat="47.77558" lon="-3.55372">
        <ele>44</ele>
        <time>2018-07-14T12:12:25Z</time>
      </trkpt>
      <trkpt lat="47.77553" lon="-3.55373">
        <ele>44</ele>
        <time>2018-07-14T12:12:26Z</time>
      </trkpt>
      <trkpt lat="47.77548" lon="-3.55375">
        <ele>44</ele>
        <time>2018-07-14T12:12:27Z</time>
      </trkpt>
      <trkpt lat="47.77543" lon="-3.55377">
        <ele>44</ele>
        <time>2018-07-14T12:12:28Z</time>
      </trkpt>
      <trkpt lat="47.77537" lon="-3.55378">
        <ele>44</ele>
        <time>2018-07-14T12:12:29Z</time>
      </trkpt>
      <trkpt lat="47.77532" lon="-3.5538">
        <ele>44</ele>
        <time>2018-07-14T12:12:30Z</time>
      </trkpt>
      <trkpt lat="47.77526" lon="-3.55382">
        <ele>44</ele>
        <time>2018-07-14T12:12:31Z</time>
      </trkpt>
      <trkpt lat="47.77521" lon="-3.55384">
        <ele>44</ele>
        <time>2018-07-14T12:12:32Z</time>
      </trkpt>
      <trkpt lat="47.77515" lon="-3.55384">
        <ele>44</ele>
        <time>2018-07-14T12:12:33Z</time>
      </trkpt>
      <trkpt lat="47.7751" lon="-3.55384">
        <ele>44</ele>
        <time>2018-07-14T12:12:34Z</time>
      </trkpt>
      <trkpt lat="47.77505" lon="-3.55382">
        <ele>44</ele>
        <time>2018-07-14T12:12:35Z</time>
      </trkpt>
      <trkpt lat="47.775" lon="-3.55378">
        <ele>44</ele>
        <time>2018-07-14T12:12:36Z</time>
      </trkpt>
      <trkpt lat="47.77496" lon="-3.55375">
        <ele>44</ele>
        <time>2018-07-14T12:12:37Z</time>
      </trkpt>
      <trkpt lat="47.77492" lon="-3.55371">
        <ele>44</ele>
        <time>2018-07-14T12:12:38Z</time>
      </trkpt>
      <trkpt lat="47.77487" lon="-3.55367">
        <ele>44</ele>
        <time>2018-07-14T12:12:39Z</time>
      </trkpt>
      <trkpt lat="47.77483" lon="-3.55362">
        <ele>44</ele>
        <time>2018-07-14T12:12:40Z</time>
      </trkpt>
      <trkpt lat="47.77479" lon="-3.55357">
        <ele>44</ele>
        <time>2018-07-14T12:12:41Z</time>
      </trkpt>
      <trkpt lat="47.77475" lon="-3.55352">
        <ele>44</ele>
        <time>2018-07-14T12:12:42Z</time>
      </trkpt>
      <trkpt lat="47.77471" lon="-3.55347">
        <ele>44</ele>
        <time>2018-07-14T12:12:43Z</time>
      </trkpt>
      <trkpt lat="47.77467" lon="-3.55343">
        <ele>44</ele>
        <time>2018-07-14T12:12:44Z</time>
      </trkpt>
      <trkpt lat="47.77463" lon="-3.55337">
        <ele>44</ele>
        <time>2018-07-14T12:12:45Z</time>
      </trkpt>
      <trkpt lat="47.77458" lon="-3.55333">
        <ele>44</ele>
        <time>2018-07-14T12:12:46Z</time>
      </trkpt>
      <trkpt lat="47.77454" lon="-3.55329">
        <ele>44</ele>
        <time>2018-07-14T12:12:47Z</time>
      </trkpt>
      <trkpt lat="47.77449" lon="-3.55325">
        <ele>44</ele>
        <time>2018-07-14T12:12:48Z</time>
      </trkpt>
      <trkpt lat="47.77444" lon="-3.55321">
        <ele>44</ele>
        <time>2018-07-14T12:12:49Z</time>
      </trkpt>
      <trkpt lat="47.7744" lon="-3.55317">
        <ele>44</ele>
        <time>2018-07-14T12:12:50Z</time>
      </trkpt>
      <trkpt lat="47.77436" lon="-3.55312">
        <ele>44</ele>
        <time>2018-07-14T12:12:51Z</time>
      </trkpt>
      <trkpt lat="47.77431" lon="-3.55308">
        <ele>44</ele>
        <time>2018-07-14T12:12:52Z</time>
      </trkpt>
      <trkpt lat="47.77427" lon="-3.55303">
        <ele>44</ele>
        <time>2018-07-14T12:12:53Z</time>
      </trkpt>
      <trkpt lat="47.77423" lon="-3.55298">
        <ele>44</ele>
        <time>2018-07-14T12:12:54Z</time>
      </trkpt>
      <trkpt lat="47.77419" lon="-3.55294">
        <ele>44</ele>
        <time>2018-07-14T12:12:55Z</time>
      </trkpt>
      <trkpt lat="47.77415" lon="-3.5529">
        <ele>44</ele>
        <time>2018-07-14T12:12:56Z</time>
      </trkpt>
      <trkpt lat="47.77411" lon="-3.55285">
        <ele>44</ele>
        <time>2018-07-14T12:12:57Z</time>
      </trkpt>
      <trkpt lat="47.77408" lon="-3.5528">
        <ele>44</ele>
        <time>2018-07-14T12:12:58Z</time>
      </trkpt>
      <trkpt lat="47.77404" lon="-3.55276">
        <ele>44</ele>
        <time>2018-07-14T12:12:59Z</time>
      </trkpt>
      <trkpt lat="47.77399" lon="-3.55272">
        <ele>44</ele>
        <time>2018-07-14T12:13:00Z</time>
      </trkpt>
      <trkpt lat="47.77395" lon="-3.55267">
        <ele>44</ele>
        <time>2018-07-14T12:13:01Z</time>
      </trkpt>
      <trkpt lat="47.77391" lon="-3.55263">
        <ele>43</ele>
        <time>2018-07-14T12:13:02Z</time>
      </trkpt>
      <trkpt lat="47.77387" lon="-3.55258">
        <ele>43</ele>
        <time>2018-07-14T12:13:03Z</time>
      </trkpt>
      <trkpt lat="47.77382" lon="-3.55254">
        <ele>43</ele>
        <time>2018-07-14T12:13:04Z</time>
      </trkpt>
      <trkpt lat="47.77378" lon="-3.5525">
        <ele>43</ele>
        <time>2018-07-14T12:13:05Z</time>
      </trkpt>
      <trkpt lat="47.77375" lon="-3.55245">
        <ele>43</ele>
        <time>2018-07-14T12:13:06Z</time>
      </trkpt>
      <trkpt lat="47.77371" lon="-3.55241">
        <ele>43</ele>
        <time>2018-07-14T12:13:07Z</time>
      </trkpt>
      <trkpt lat="47.77366" lon="-3.55236">
        <ele>43</ele>
        <time>2018-07-14T12:13:08Z</time>
      </trkpt>
      <trkpt lat="47.77362" lon="-3.55232">
        <ele>43</ele>
        <time>2018-07-14T12:13:09Z</time>
      </trkpt>
      <trkpt lat="47.77358" lon="-3.55228">
        <ele>43</ele>
        <time>2018-07-14T12:13:10Z</time>
      </trkpt>
      <trkpt lat="47.77353" lon="-3.55224">
        <ele>43</ele>
        <time>2018-07-14T12:13:11Z</time>
      </trkpt>
      <trkpt lat="47.77349" lon="-3.5522">
        <ele>43</ele>
        <time>2018-07-14T12:13:12Z</time>
      </trkpt>
      <trkpt lat="47.77344" lon="-3.55216">
        <ele>43</ele>
        <time>2018-07-14T12:13:13Z</time>
      </trkpt>
      <trkpt lat="47.7734" lon="-3.55213">
        <ele>43</ele>
        <time>2018-07-14T12:13:14Z</time>
      </trkpt>
      <trkpt lat="47.77336" lon="-3.55209">
        <ele>43</ele>
        <time>2018-07-14T12:13:15Z</time>
      </trkpt>
      <trkpt lat="47.77331" lon="-3.55205">
        <ele>43</ele>
        <time>2018-07-14T12:13:16Z</time>
      </trkpt>
      <trkpt lat="47.77326" lon="-3.55203">
        <ele>43</ele>
        <time>2018-07-14T12:13:17Z</time>
      </trkpt>
      <trkpt lat="47.77321" lon="-3.552">
        <ele>44</ele>
        <time>2018-07-14T12:13:18Z</time>
      </trkpt>
      <trkpt lat="47.77316" lon="-3.55197">
        <ele>44</ele>
        <time>2018-07-14T12:13:19Z</time>
      </trkpt>
      <trkpt lat="47.77311" lon="-3.55195">
        <ele>44</ele>
        <time>2018-07-14T12:13:20Z</time>
      </trkpt>
      <trkpt lat="47.77306" lon="-3.55192">
        <ele>44</ele>
        <time>2018-07-14T12:13:21Z</time>
      </trkpt>
      <trkpt lat="47.77301" lon="-3.55189">
        <ele>44</ele>
        <time>2018-07-14T12:13:22Z</time>
      </trkpt>
      <trkpt lat="47.77297" lon="-3.55186">
        <ele>44</ele>
        <time>2018-07-14T12:13:23Z</time>
      </trkpt>
      <trkpt lat="47.77292" lon="-3.55184">
        <ele>44</ele>
        <time>2018-07-14T12:13:24Z</time>
      </trkpt>
      <trkpt lat="47.77287" lon="-3.55182">
        <ele>44</ele>
        <time>2018-07-14T12:13:25Z</time>
      </trkpt>
      <trkpt lat="47.77282" lon="-3.5518">
        <ele>44</ele>
        <time>2018-07-14T12:13:26Z</time>
      </trkpt>
      <trkpt lat="47.77278" lon="-3.55178">
        <ele>44</ele>
        <time>2018-07-14T12:13:27Z</time>
      </trkpt>
      <trkpt lat="47.77275" lon="-3.55177">
        <ele>44</ele>
        <time>2018-07-14T12:13:28Z</time>
      </trkpt>
      <trkpt lat="47.77271" lon="-3.55176">
        <ele>44</ele>
        <time>2018-07-14T12:13:29Z</time>
      </trkpt>
      <trkpt lat="47.77267" lon="-3.55173">
        <ele>44</ele>
        <time>2018-07-14T12:13:30Z</time>
      </trkpt>
      <trkpt lat="47.77262" lon="-3.55171">
        <ele>44</ele>
        <time>2018-07-14T12:13:31Z</time>
      </trkpt>
      <trkpt lat="47.77257" lon="-3.55168">
        <ele>43</ele>
        <time>2018-07-14T12:13:32Z</time>
      </trkpt>
      <trkpt lat="47.77252" lon="-3.55166">
        <ele>43</ele>
        <time>2018-07-14T12:13:33Z</time>
      </trkpt>
      <trkpt lat="47.77247" lon="-3.55163">
        <ele>43</ele>
        <time>2018-07-14T12:13:34Z</time>
      </trkpt>
      <trkpt lat="47.77241" lon="-3.5516">
        <ele>43</ele>
        <time>2018-07-14T12:13:35Z</time>
      </trkpt>
      <trkpt lat="47.77235" lon="-3.55157">
        <ele>42</ele>
        <time>2018-07-14T12:13:36Z</time>
      </trkpt>
      <trkpt lat="47.7723" lon="-3.55154">
        <ele>42</ele>
        <time>2018-07-14T12:13:37Z</time>
      </trkpt>
      <trkpt lat="47.77223" lon="-3.5515">
        <ele>42</ele>
        <time>2018-07-14T12:13:38Z</time>
      </trkpt>
      <trkpt lat="47.77217" lon="-3.55147">
        <ele>42</ele>
        <time>2018-07-14T12:13:39Z</time>
      </trkpt>
      <trkpt lat="47.77211" lon="-3.55143">
        <ele>41</ele>
        <time>2018-07-14T12:13:40Z</time>
      </trkpt>
      <trkpt lat="47.77204" lon="-3.55139">
        <ele>41</ele>
        <time>2018-07-14T12:13:41Z</time>
      </trkpt>
      <trkpt lat="47.77196" lon="-3.55136">
        <ele>41</ele>
        <time>2018-07-14T12:13:42Z</time>
      </trkpt>
      <trkpt lat="47.77189" lon="-3.55134">
        <ele>40</ele>
        <time>2018-07-14T12:13:43Z</time>
      </trkpt>
      <trkpt lat="47.77182" lon="-3.55131">
        <ele>40</ele>
        <time>2018-07-14T12:13:44Z</time>
      </trkpt>
      <trkpt lat="47.77175" lon="-3.55128">
        <ele>40</ele>
        <time>2018-07-14T12:13:45Z</time>
      </trkpt>
      <trkpt lat="47.77167" lon="-3.55125">
        <ele>39</ele>
        <time>2018-07-14T12:13:46Z</time>
      </trkpt>
      <trkpt lat="47.77159" lon="-3.55123">
        <ele>39</ele>
        <time>2018-07-14T12:13:47Z</time>
      </trkpt>
      <trkpt lat="47.77152" lon="-3.5512">
        <ele>39</ele>
        <time>2018-07-14T12:13:48Z</time>
      </trkpt>
      <trkpt lat="47.77144" lon="-3.55117">
        <ele>38</ele>
        <time>2018-07-14T12:13:49Z</time>
      </trkpt>
      <trkpt lat="47.77136" lon="-3.55115">
        <ele>38</ele>
        <time>2018-07-14T12:13:50Z</time>
      </trkpt>
      <trkpt lat="47.77128" lon="-3.55114">
        <ele>38</ele>
        <time>2018-07-14T12:13:51Z</time>
      </trkpt>
      <trkpt lat="47.77118" lon="-3.55113">
        <ele>38</ele>
        <time>2018-07-14T12:13:52Z</time>
      </trkpt>
      <trkpt lat="47.77109" lon="-3.55112">
        <ele>37</ele>
        <time>2018-07-14T12:13:53Z</time>
      </trkpt>
      <trkpt lat="47.77101" lon="-3.55112">
        <ele>37</ele>
        <time>2018-07-14T12:13:54Z</time>
      </trkpt>
      <trkpt lat="47.77092" lon="-3.55112">
        <ele>37</ele>
        <time>2018-07-14T12:13:55Z</time>
      </trkpt>
      <trkpt lat="47.77084" lon="-3.55112">
        <ele>37</ele>
        <time>2018-07-14T12:13:56Z</time>
      </trkpt>
      <trkpt lat="47.77076" lon="-3.55114">
        <ele>36</ele>
        <time>2018-07-14T12:13:57Z</time>
      </trkpt>
      <trkpt lat="47.77069" lon="-3.55115">
        <ele>36</ele>
        <time>2018-07-14T12:13:58Z</time>
      </trkpt>
      <trkpt lat="47.77061" lon="-3.55117">
        <ele>36</ele>
        <time>2018-07-14T12:13:59Z</time>
      </trkpt>
      <trkpt lat="47.77054" lon="-3.55118">
        <ele>36</ele>
        <time>2018-07-14T12:14:00Z</time>
      </trkpt>
      <trkpt lat="47.77047" lon="-3.55119">
        <ele>35</ele>
        <time>2018-07-14T12:14:01Z</time>
      </trkpt>
      <trkpt lat="47.77041" lon="-3.55118">
        <ele>35</ele>
        <time>2018-07-14T12:14:02Z</time>
      </trkpt>
      <trkpt lat="47.77035" lon="-3.55115">
        <ele>35</ele>
        <time>2018-07-14T12:14:03Z</time>
      </trkpt>
      <trkpt lat="47.77028" lon="-3.55112">
        <ele>35</ele>
        <time>2018-07-14T12:14:04Z</time>
      </trkpt>
      <trkpt lat="47.77021" lon="-3.5511">
        <ele>35</ele>
        <time>2018-07-14T12:14:05Z</time>
      </trkpt>
      <trkpt lat="47.77014" lon="-3.55108">
        <ele>35</ele>
        <time>2018-07-14T12:14:06Z</time>
      </trkpt>
      <trkpt lat="47.77007" lon="-3.55106">
        <ele>35</ele>
        <time>2018-07-14T12:14:07Z</time>
      </trkpt>
      <trkpt lat="47.77001" lon="-3.55104">
        <ele>35</ele>
        <time>2018-07-14T12:14:08Z</time>
      </trkpt>
      <trkpt lat="47.76996" lon="-3.55104">
        <ele>34</ele>
        <time>2018-07-14T12:14:09Z</time>
      </trkpt>
      <trkpt lat="47.76991" lon="-3.55103">
        <ele>34</ele>
        <time>2018-07-14T12:14:10Z</time>
      </trkpt>
      <trkpt lat="47.76986" lon="-3.55103">
        <ele>33</ele>
        <time>2018-07-14T12:14:11Z</time>
      </trkpt>
      <trkpt lat="47.76982" lon="-3.55102">
        <ele>33</ele>
        <time>2018-07-14T12:14:12Z</time>
      </trkpt>
      <trkpt lat="47.76978" lon="-3.55102">
        <ele>32</ele>
        <time>2018-07-14T12:14:13Z</time>
      </trkpt>
      <trkpt lat="47.76975" lon="-3.55101">
        <ele>32</ele>
        <time>2018-07-14T12:14:14Z</time>
      </trkpt>
      <trkpt lat="47.76972" lon="-3.551">
        <ele>32</ele>
        <time>2018-07-14T12:14:15Z</time>
      </trkpt>
      <trkpt lat="47.76969" lon="-3.55098">
        <ele>31</ele>
        <time>2018-07-14T12:14:16Z</time>
      </trkpt>
      <trkpt lat="47.76967" lon="-3.55097">
        <ele>31</ele>
        <time>2018-07-14T12:14:17Z</time>
      </trkpt>
      <trkpt lat="47.76967" lon="-3.55095">
        <ele>31</ele>
        <time>2018-07-14T12:14:18Z</time>
      </trkpt>
      <trkpt lat="47.76967" lon="-3.55095">
        <ele>30</ele>
        <time>2018-07-14T12:14:19Z</time>
      </trkpt>
      <trkpt lat="47.76968" lon="-3.55095">
        <ele>30</ele>
        <time>2018-07-14T12:14:20Z</time>
      </trkpt>
      <trkpt lat="47.76969" lon="-3.55096">
        <ele>30</ele>
        <time>2018-07-14T12:14:21Z</time>
      </trkpt>
      <trkpt lat="47.76969" lon="-3.55097">
        <ele>30</ele>
        <time>2018-07-14T12:14:22Z</time>
      </trkpt>
      <trkpt lat="47.76969" lon="-3.55097">
        <ele>29</ele>
        <time>2018-07-14T12:14:23Z</time>
      </trkpt>
      <trkpt lat="47.76968" lon="-3.55097">
        <ele>29</ele>
        <time>2018-07-14T12:14:24Z</time>
      </trkpt>
      <trkpt lat="47.76968" lon="-3.55097">
        <ele>29</ele>
        <time>2018-07-14T12:14:25Z</time>
      </trkpt>
      <trkpt lat="47.76968" lon="-3.55097">
        <ele>29</ele>
        <time>2018-07-14T12:14:26Z</time>
      </trkpt>
      <trkpt lat="47.76966" lon="-3.55097">
        <ele>28</ele>
        <time>2018-07-14T12:14:27Z</time>
      </trkpt>
      <trkpt lat="47.76965" lon="-3.55095">
        <ele>28</ele>
        <time>2018-07-14T12:14:28Z</time>
      </trkpt>
      <trkpt lat="47.76964" lon="-3.55094">
        <ele>28</ele>
        <time>2018-07-14T12:14:29Z</time>
      </trkpt>
      <trkpt lat="47.76962" lon="-3.55093">
        <ele>27</ele>
        <time>2018-07-14T12:14:30Z</time>
      </trkpt>
      <trkpt lat="47.76959" lon="-3.55091">
        <ele>27</ele>
        <time>2018-07-14T12:14:31Z</time>
      </trkpt>
      <trkpt lat="47.76957" lon="-3.55089">
        <ele>27</ele>
        <time>2018-07-14T12:14:32Z</time>
      </trkpt>
      <trkpt lat="47.76954" lon="-3.55088">
        <ele>27</ele>
        <time>2018-07-14T12:14:33Z</time>
      </trkpt>
      <trkpt lat="47.76951" lon="-3.55087">
        <ele>26</ele>
        <time>2018-07-14T12:14:34Z</time>
      </trkpt>
      <trkpt lat="47.76948" lon="-3.55085">
        <ele>26</ele>
        <time>2018-07-14T12:14:35Z</time>
      </trkpt>
      <trkpt lat="47.76944" lon="-3.55085">
        <ele>25</ele>
        <time>2018-07-14T12:14:36Z</time>
      </trkpt>
      <trkpt lat="47.76941" lon="-3.55083">
        <ele>25</ele>
        <time>2018-07-14T12:14:37Z</time>
      </trkpt>
      <trkpt lat="47.76937" lon="-3.55082">
        <ele>25</ele>
        <time>2018-07-14T12:14:38Z</time>
      </trkpt>
      <trkpt lat="47.76934" lon="-3.55082">
        <ele>24</ele>
        <time>2018-07-14T12:14:39Z</time>
      </trkpt>
      <trkpt lat="47.76931" lon="-3.55081">
        <ele>24</ele>
        <time>2018-07-14T12:14:40Z</time>
      </trkpt>
      <trkpt lat="47.76928" lon="-3.55082">
        <ele>23</ele>
        <time>2018-07-14T12:14:41Z</time>
      </trkpt>
      <trkpt lat="47.76924" lon="-3.55083">
        <ele>23</ele>
        <time>2018-07-14T12:14:42Z</time>
      </trkpt>
      <trkpt lat="47.7692" lon="-3.55085">
        <ele>22</ele>
        <time>2018-07-14T12:14:43Z</time>
      </trkpt>
      <trkpt lat="47.76916" lon="-3.55087">
        <ele>22</ele>
        <time>2018-07-14T12:14:44Z</time>
      </trkpt>
      <trkpt lat="47.76911" lon="-3.55091">
        <ele>22</ele>
        <time>2018-07-14T12:14:45Z</time>
      </trkpt>
      <trkpt lat="47.76906" lon="-3.55095">
        <ele>21</ele>
        <time>2018-07-14T12:14:46Z</time>
      </trkpt>
      <trkpt lat="47.76901" lon="-3.55101">
        <ele>21</ele>
        <time>2018-07-14T12:14:47Z</time>
      </trkpt>
      <trkpt lat="47.76896" lon="-3.55108">
        <ele>20</ele>
        <time>2018-07-14T12:14:48Z</time>
      </trkpt>
      <trkpt lat="47.76892" lon="-3.55115">
        <ele>19</ele>
        <time>2018-07-14T12:14:49Z</time>
      </trkpt>
      <trkpt lat="47.76888" lon="-3.55124">
        <ele>19</ele>
        <time>2018-07-14T12:14:50Z</time>
      </trkpt>
      <trkpt lat="47.76885" lon="-3.55133">
        <ele>19</ele>
        <time>2018-07-14T12:14:51Z</time>
      </trkpt>
      <trkpt lat="47.76882" lon="-3.55141">
        <ele>18</ele>
        <time>2018-07-14T12:14:52Z</time>
      </trkpt>
      <trkpt lat="47.76878" lon="-3.5515">
        <ele>18</ele>
        <time>2018-07-14T12:14:53Z</time>
      </trkpt>
      <trkpt lat="47.76875" lon="-3.55159">
        <ele>18</ele>
        <time>2018-07-14T12:14:54Z</time>
      </trkpt>
      <trkpt lat="47.76871" lon="-3.55167">
        <ele>17</ele>
        <time>2018-07-14T12:14:55Z</time>
      </trkpt>
      <trkpt lat="47.76867" lon="-3.55174">
        <ele>17</ele>
        <time>2018-07-14T12:14:56Z</time>
      </trkpt>
      <trkpt lat="47.76864" lon="-3.55182">
        <ele>17</ele>
        <time>2018-07-14T12:14:57Z</time>
      </trkpt>
      <trkpt lat="47.76861" lon="-3.55189">
        <ele>17</ele>
        <time>2018-07-14T12:14:58Z</time>
      </trkpt>
      <trkpt lat="47.76858" lon="-3.55195">
        <ele>17</ele>
        <time>2018-07-14T12:14:59Z</time>
      </trkpt>
      <trkpt lat="47.76855" lon="-3.55201">
        <ele>17</ele>
        <time>2018-07-14T12:15:00Z</time>
      </trkpt>
      <trkpt lat="47.76852" lon="-3.55205">
        <ele>16</ele>
        <time>2018-07-14T12:15:01Z</time>
      </trkpt>
      <trkpt lat="47.76848" lon="-3.55209">
        <ele>16</ele>
        <time>2018-07-14T12:15:02Z</time>
      </trkpt>
      <trkpt lat="47.76846" lon="-3.55211">
        <ele>16</ele>
        <time>2018-07-14T12:15:03Z</time>
      </trkpt>
      <trkpt lat="47.76843" lon="-3.55215">
        <ele>16</ele>
        <time>2018-07-14T12:15:04Z</time>
      </trkpt>
      <trkpt lat="47.76841" lon="-3.55218">
        <ele>15</ele>
        <time>2018-07-14T12:15:05Z</time>
      </trkpt>
      <trkpt lat="47.76839" lon="-3.5522">
        <ele>15</ele>
        <time>2018-07-14T12:15:06Z</time>
      </trkpt>
      <trkpt lat="47.76838" lon="-3.55223">
        <ele>15</ele>
        <time>2018-07-14T12:15:07Z</time>
      </trkpt>
      <trkpt lat="47.76837" lon="-3.55226">
        <ele>14</ele>
        <time>2018-07-14T12:15:08Z</time>
      </trkpt>
      <trkpt lat="47.76837" lon="-3.55227">
        <ele>14</ele>
        <time>2018-07-14T12:15:09Z</time>
      </trkpt>
      <trkpt lat="47.76837" lon="-3.55227">
        <ele>14</ele>
        <time>2018-07-14T12:15:10Z</time>
      </trkpt>
      <trkpt lat="47.76837" lon="-3.55227">
        <ele>14</ele>
        <time>2018-07-14T12:15:11Z</time>
      </trkpt>
      <trkpt lat="47.76837" lon="-3.55227">
        <ele>14</ele>
        <time>2018-07-14T12:15:12Z</time>
      </trkpt>
    </trkseg>
  </trk>
</gpx>